<?xml version="1.0" encoding="UTF-8" standalone="no" ?>
<gpx xmlns="http://www.topografix.com/GPX/1/1" xmlns:xsi="http://www.w3.org/2001/XMLSchema-instance" xsi:schemaLocation="http://www.topografix.com/GPX/1/1 http://www.topografix.com/GPX/1/1/gpx.xsd" version="1.1" creator="VisuGPX - https://www.visugpx.com">
  <metadata>
    <name>Pornichet 23/08/2020</name>
    <desc><![CDATA[Sortie VTT du dimanche 23 août 2020]]></desc>
  </metadata>
  <trk>
    <name><![CDATA[Pornichet Cyclisme]]></name>
    <trkseg>
      <trkpt lat="47.26407" lon="-2.31567">
        <ele>10.199999809265</ele>
        <time>2020-08-23T06:57:45.000Z</time>
      </trkpt>
      <trkpt lat="47.26408" lon="-2.31575">
        <ele>10.199999809265</ele>
        <time>2020-08-23T06:57:48.000Z</time>
      </trkpt>
      <trkpt lat="47.26409" lon="-2.31578">
        <ele>9.6000003814697</ele>
        <time>2020-08-23T06:57:49.000Z</time>
      </trkpt>
      <trkpt lat="47.26409" lon="-2.31583">
        <ele>9.6000003814697</ele>
        <time>2020-08-23T06:57:51.000Z</time>
      </trkpt>
      <trkpt lat="47.26408" lon="-2.31607">
        <ele>9.6000003814697</ele>
        <time>2020-08-23T06:57:57.000Z</time>
      </trkpt>
      <trkpt lat="47.26409" lon="-2.31637">
        <ele>9.6000003814697</ele>
        <time>2020-08-23T06:58:02.000Z</time>
      </trkpt>
      <trkpt lat="47.26408" lon="-2.31664">
        <ele>9.6000003814697</ele>
        <time>2020-08-23T06:58:07.000Z</time>
      </trkpt>
      <trkpt lat="47.26393" lon="-2.31672">
        <ele>9.6000003814697</ele>
        <time>2020-08-23T06:58:11.000Z</time>
      </trkpt>
      <trkpt lat="47.26371" lon="-2.31684">
        <ele>9.6000003814697</ele>
        <time>2020-08-23T06:58:16.000Z</time>
      </trkpt>
      <trkpt lat="47.26366" lon="-2.31688">
        <ele>9.6000003814697</ele>
        <time>2020-08-23T06:58:17.000Z</time>
      </trkpt>
      <trkpt lat="47.26335" lon="-2.31705">
        <ele>9.1999998092651</ele>
        <time>2020-08-23T06:58:23.000Z</time>
      </trkpt>
      <trkpt lat="47.2633" lon="-2.31708">
        <ele>8.3999996185303</ele>
        <time>2020-08-23T06:58:24.000Z</time>
      </trkpt>
      <trkpt lat="47.26325" lon="-2.31711">
        <ele>8</ele>
        <time>2020-08-23T06:58:25.000Z</time>
      </trkpt>
      <trkpt lat="47.26319" lon="-2.31713">
        <ele>7.5999999046326</ele>
        <time>2020-08-23T06:58:26.000Z</time>
      </trkpt>
      <trkpt lat="47.26304" lon="-2.31722">
        <ele>7.5999999046326</ele>
        <time>2020-08-23T06:58:29.000Z</time>
      </trkpt>
      <trkpt lat="47.26301" lon="-2.31726">
        <ele>7.5999999046326</ele>
        <time>2020-08-23T06:58:30.000Z</time>
      </trkpt>
      <trkpt lat="47.26301" lon="-2.31732">
        <ele>7.1999998092651</ele>
        <time>2020-08-23T06:58:31.000Z</time>
      </trkpt>
      <trkpt lat="47.26301" lon="-2.31738">
        <ele>6.8000001907349</ele>
        <time>2020-08-23T06:58:32.000Z</time>
      </trkpt>
      <trkpt lat="47.26302" lon="-2.31744">
        <ele>6.1999998092651</ele>
        <time>2020-08-23T06:58:33.000Z</time>
      </trkpt>
      <trkpt lat="47.26303" lon="-2.31749">
        <ele>5.8000001907349</ele>
        <time>2020-08-23T06:58:34.000Z</time>
      </trkpt>
      <trkpt lat="47.26304" lon="-2.31754">
        <ele>5.4000000953674</ele>
        <time>2020-08-23T06:58:35.000Z</time>
      </trkpt>
      <trkpt lat="47.26305" lon="-2.31766">
        <ele>5.4000000953674</ele>
        <time>2020-08-23T06:58:37.000Z</time>
      </trkpt>
      <trkpt lat="47.26308" lon="-2.31801">
        <ele>5.4000000953674</ele>
        <time>2020-08-23T06:58:44.000Z</time>
      </trkpt>
      <trkpt lat="47.26309" lon="-2.3184">
        <ele>5.4000000953674</ele>
        <time>2020-08-23T06:58:51.000Z</time>
      </trkpt>
      <trkpt lat="47.26305" lon="-2.31879">
        <ele>5.4000000953674</ele>
        <time>2020-08-23T06:58:58.000Z</time>
      </trkpt>
      <trkpt lat="47.26303" lon="-2.31881">
        <ele>5.4000000953674</ele>
        <time>2020-08-23T06:58:59.000Z</time>
      </trkpt>
      <trkpt lat="47.26294" lon="-2.3189">
        <ele>5.4000000953674</ele>
        <time>2020-08-23T06:59:02.000Z</time>
      </trkpt>
      <trkpt lat="47.26288" lon="-2.31896">
        <ele>5.4000000953674</ele>
        <time>2020-08-23T06:59:04.000Z</time>
      </trkpt>
      <trkpt lat="47.26273" lon="-2.31923">
        <ele>5.4000000953674</ele>
        <time>2020-08-23T06:59:10.000Z</time>
      </trkpt>
      <trkpt lat="47.26257" lon="-2.31956">
        <ele>5.4000000953674</ele>
        <time>2020-08-23T06:59:16.000Z</time>
      </trkpt>
      <trkpt lat="47.26247" lon="-2.3197">
        <ele>5.4000000953674</ele>
        <time>2020-08-23T06:59:20.000Z</time>
      </trkpt>
      <trkpt lat="47.2624" lon="-2.31972">
        <ele>5.4000000953674</ele>
        <time>2020-08-23T06:59:24.000Z</time>
      </trkpt>
      <trkpt lat="47.26238" lon="-2.31975">
        <ele>5.4000000953674</ele>
        <time>2020-08-23T06:59:25.000Z</time>
      </trkpt>
      <trkpt lat="47.26221" lon="-2.31991">
        <ele>5.4000000953674</ele>
        <time>2020-08-23T06:59:30.000Z</time>
      </trkpt>
      <trkpt lat="47.26206" lon="-2.32011">
        <ele>5.4000000953674</ele>
        <time>2020-08-23T06:59:35.000Z</time>
      </trkpt>
      <trkpt lat="47.26201" lon="-2.32019">
        <ele>5.4000000953674</ele>
        <time>2020-08-23T06:59:38.000Z</time>
      </trkpt>
      <trkpt lat="47.26198" lon="-2.3202">
        <ele>5.4000000953674</ele>
        <time>2020-08-23T06:59:40.000Z</time>
      </trkpt>
      <trkpt lat="47.26181" lon="-2.3202">
        <ele>5.4000000953674</ele>
        <time>2020-08-23T06:59:44.000Z</time>
      </trkpt>
      <trkpt lat="47.26163" lon="-2.32032">
        <ele>5.4000000953674</ele>
        <time>2020-08-23T06:59:49.000Z</time>
      </trkpt>
      <trkpt lat="47.26157" lon="-2.32054">
        <ele>5.4000000953674</ele>
        <time>2020-08-23T06:59:53.000Z</time>
      </trkpt>
      <trkpt lat="47.26146" lon="-2.32086">
        <ele>5.4000000953674</ele>
        <time>2020-08-23T06:59:59.000Z</time>
      </trkpt>
      <trkpt lat="47.26133" lon="-2.32128">
        <ele>5.4000000953674</ele>
        <time>2020-08-23T07:00:06.000Z</time>
      </trkpt>
      <trkpt lat="47.26117" lon="-2.32167">
        <ele>5.4000000953674</ele>
        <time>2020-08-23T07:00:13.000Z</time>
      </trkpt>
      <trkpt lat="47.26102" lon="-2.32205">
        <ele>5.4000000953674</ele>
        <time>2020-08-23T07:00:20.000Z</time>
      </trkpt>
      <trkpt lat="47.2609" lon="-2.32224">
        <ele>5.4000000953674</ele>
        <time>2020-08-23T07:00:24.000Z</time>
      </trkpt>
      <trkpt lat="47.26087" lon="-2.32229">
        <ele>5.4000000953674</ele>
        <time>2020-08-23T07:00:25.000Z</time>
      </trkpt>
      <trkpt lat="47.26065" lon="-2.32257">
        <ele>5.4000000953674</ele>
        <time>2020-08-23T07:00:32.000Z</time>
      </trkpt>
      <trkpt lat="47.26035" lon="-2.32288">
        <ele>5.4000000953674</ele>
        <time>2020-08-23T07:00:39.000Z</time>
      </trkpt>
      <trkpt lat="47.26006" lon="-2.32322">
        <ele>5.4000000953674</ele>
        <time>2020-08-23T07:00:47.000Z</time>
      </trkpt>
      <trkpt lat="47.25995" lon="-2.32337">
        <ele>5.4000000953674</ele>
        <time>2020-08-23T07:00:50.000Z</time>
      </trkpt>
      <trkpt lat="47.25984" lon="-2.32352">
        <ele>5.4000000953674</ele>
        <time>2020-08-23T07:00:53.000Z</time>
      </trkpt>
      <trkpt lat="47.25954" lon="-2.32389">
        <ele>5.4000000953674</ele>
        <time>2020-08-23T07:01:01.000Z</time>
      </trkpt>
      <trkpt lat="47.25921" lon="-2.32431">
        <ele>5.4000000953674</ele>
        <time>2020-08-23T07:01:10.000Z</time>
      </trkpt>
      <trkpt lat="47.25901" lon="-2.32457">
        <ele>5.4000000953674</ele>
        <time>2020-08-23T07:01:16.000Z</time>
      </trkpt>
      <trkpt lat="47.25881" lon="-2.32475">
        <ele>5.4000000953674</ele>
        <time>2020-08-23T07:01:22.000Z</time>
      </trkpt>
      <trkpt lat="47.25857" lon="-2.32477">
        <ele>5.4000000953674</ele>
        <time>2020-08-23T07:01:27.000Z</time>
      </trkpt>
      <trkpt lat="47.25826" lon="-2.32469">
        <ele>5.4000000953674</ele>
        <time>2020-08-23T07:01:34.000Z</time>
      </trkpt>
      <trkpt lat="47.258" lon="-2.32455">
        <ele>5.4000000953674</ele>
        <time>2020-08-23T07:01:41.000Z</time>
      </trkpt>
      <trkpt lat="47.25784" lon="-2.32457">
        <ele>5.4000000953674</ele>
        <time>2020-08-23T07:01:46.000Z</time>
      </trkpt>
      <trkpt lat="47.25778" lon="-2.32449">
        <ele>5.4000000953674</ele>
        <time>2020-08-23T07:01:48.000Z</time>
      </trkpt>
      <trkpt lat="47.25775" lon="-2.32445">
        <ele>5.4000000953674</ele>
        <time>2020-08-23T07:01:49.000Z</time>
      </trkpt>
      <trkpt lat="47.25766" lon="-2.3243">
        <ele>5.4000000953674</ele>
        <time>2020-08-23T07:01:52.000Z</time>
      </trkpt>
      <trkpt lat="47.25757" lon="-2.32427">
        <ele>5.4000000953674</ele>
        <time>2020-08-23T07:01:54.000Z</time>
      </trkpt>
      <trkpt lat="47.25741" lon="-2.32426">
        <ele>5.4000000953674</ele>
        <time>2020-08-23T07:01:57.000Z</time>
      </trkpt>
      <trkpt lat="47.25729" lon="-2.32425">
        <ele>5.4000000953674</ele>
        <time>2020-08-23T07:01:59.000Z</time>
      </trkpt>
      <trkpt lat="47.25691" lon="-2.32423">
        <ele>5.4000000953674</ele>
        <time>2020-08-23T07:02:06.000Z</time>
      </trkpt>
      <trkpt lat="47.25663" lon="-2.32421">
        <ele>5.4000000953674</ele>
        <time>2020-08-23T07:02:12.000Z</time>
      </trkpt>
      <trkpt lat="47.25654" lon="-2.32434">
        <ele>5.4000000953674</ele>
        <time>2020-08-23T07:02:15.000Z</time>
      </trkpt>
      <trkpt lat="47.25653" lon="-2.32437">
        <ele>5.4000000953674</ele>
        <time>2020-08-23T07:02:16.000Z</time>
      </trkpt>
      <trkpt lat="47.25653" lon="-2.32445">
        <ele>5.4000000953674</ele>
        <time>2020-08-23T07:02:18.000Z</time>
      </trkpt>
      <trkpt lat="47.25653" lon="-2.32449">
        <ele>5.4000000953674</ele>
        <time>2020-08-23T07:02:19.000Z</time>
      </trkpt>
      <trkpt lat="47.25658" lon="-2.32464">
        <ele>5.4000000953674</ele>
        <time>2020-08-23T07:02:21.000Z</time>
      </trkpt>
      <trkpt lat="47.25662" lon="-2.32473">
        <ele>5.8000001907349</ele>
        <time>2020-08-23T07:02:22.000Z</time>
      </trkpt>
      <trkpt lat="47.25666" lon="-2.32481">
        <ele>6.1999998092651</ele>
        <time>2020-08-23T07:02:23.000Z</time>
      </trkpt>
      <trkpt lat="47.25669" lon="-2.32489">
        <ele>6.5999999046326</ele>
        <time>2020-08-23T07:02:24.000Z</time>
      </trkpt>
      <trkpt lat="47.25671" lon="-2.32496">
        <ele>7.1999998092651</ele>
        <time>2020-08-23T07:02:25.000Z</time>
      </trkpt>
      <trkpt lat="47.25674" lon="-2.32503">
        <ele>7.5999999046326</ele>
        <time>2020-08-23T07:02:26.000Z</time>
      </trkpt>
      <trkpt lat="47.25689" lon="-2.32538">
        <ele>7.5999999046326</ele>
        <time>2020-08-23T07:02:32.000Z</time>
      </trkpt>
      <trkpt lat="47.25698" lon="-2.3256">
        <ele>8</ele>
        <time>2020-08-23T07:02:36.000Z</time>
      </trkpt>
      <trkpt lat="47.257" lon="-2.32566">
        <ele>8.3999996185303</ele>
        <time>2020-08-23T07:02:37.000Z</time>
      </trkpt>
      <trkpt lat="47.25702" lon="-2.32571">
        <ele>8.8000001907349</ele>
        <time>2020-08-23T07:02:38.000Z</time>
      </trkpt>
      <trkpt lat="47.25703" lon="-2.32577">
        <ele>9.1999998092651</ele>
        <time>2020-08-23T07:02:39.000Z</time>
      </trkpt>
      <trkpt lat="47.25704" lon="-2.32583">
        <ele>9.6000003814697</ele>
        <time>2020-08-23T07:02:40.000Z</time>
      </trkpt>
      <trkpt lat="47.25712" lon="-2.32612">
        <ele>9.6000003814697</ele>
        <time>2020-08-23T07:02:45.000Z</time>
      </trkpt>
      <trkpt lat="47.25709" lon="-2.32622">
        <ele>9.6000003814697</ele>
        <time>2020-08-23T07:02:47.000Z</time>
      </trkpt>
      <trkpt lat="47.25695" lon="-2.32628">
        <ele>9.6000003814697</ele>
        <time>2020-08-23T07:02:50.000Z</time>
      </trkpt>
      <trkpt lat="47.25691" lon="-2.3263">
        <ele>9.6000003814697</ele>
        <time>2020-08-23T07:02:51.000Z</time>
      </trkpt>
      <trkpt lat="47.2567" lon="-2.32639">
        <ele>10.39999961853</ele>
        <time>2020-08-23T07:02:56.000Z</time>
      </trkpt>
      <trkpt lat="47.25666" lon="-2.32641">
        <ele>11</ele>
        <time>2020-08-23T07:02:57.000Z</time>
      </trkpt>
      <trkpt lat="47.25662" lon="-2.32643">
        <ele>11.39999961853</ele>
        <time>2020-08-23T07:02:58.000Z</time>
      </trkpt>
      <trkpt lat="47.25657" lon="-2.32645">
        <ele>11.800000190735</ele>
        <time>2020-08-23T07:02:59.000Z</time>
      </trkpt>
      <trkpt lat="47.25628" lon="-2.32657">
        <ele>11.800000190735</ele>
        <time>2020-08-23T07:03:06.000Z</time>
      </trkpt>
      <trkpt lat="47.25597" lon="-2.32669">
        <ele>11.800000190735</ele>
        <time>2020-08-23T07:03:14.000Z</time>
      </trkpt>
      <trkpt lat="47.25575" lon="-2.32679">
        <ele>12.199999809265</ele>
        <time>2020-08-23T07:03:19.000Z</time>
      </trkpt>
      <trkpt lat="47.25571" lon="-2.32681">
        <ele>13</ele>
        <time>2020-08-23T07:03:20.000Z</time>
      </trkpt>
      <trkpt lat="47.25567" lon="-2.32682">
        <ele>13.39999961853</ele>
        <time>2020-08-23T07:03:21.000Z</time>
      </trkpt>
      <trkpt lat="47.25562" lon="-2.32684">
        <ele>13.800000190735</ele>
        <time>2020-08-23T07:03:22.000Z</time>
      </trkpt>
      <trkpt lat="47.25532" lon="-2.32699">
        <ele>13.800000190735</ele>
        <time>2020-08-23T07:03:29.000Z</time>
      </trkpt>
      <trkpt lat="47.2552" lon="-2.32703">
        <ele>13.800000190735</ele>
        <time>2020-08-23T07:03:32.000Z</time>
      </trkpt>
      <trkpt lat="47.25507" lon="-2.32703">
        <ele>13.800000190735</ele>
        <time>2020-08-23T07:03:35.000Z</time>
      </trkpt>
      <trkpt lat="47.25484" lon="-2.32707">
        <ele>13.800000190735</ele>
        <time>2020-08-23T07:03:40.000Z</time>
      </trkpt>
      <trkpt lat="47.2548" lon="-2.32709">
        <ele>13.800000190735</ele>
        <time>2020-08-23T07:03:41.000Z</time>
      </trkpt>
      <trkpt lat="47.25466" lon="-2.32722">
        <ele>13.800000190735</ele>
        <time>2020-08-23T07:03:45.000Z</time>
      </trkpt>
      <trkpt lat="47.25463" lon="-2.32727">
        <ele>13.800000190735</ele>
        <time>2020-08-23T07:03:46.000Z</time>
      </trkpt>
      <trkpt lat="47.25459" lon="-2.32732">
        <ele>13.800000190735</ele>
        <time>2020-08-23T07:03:47.000Z</time>
      </trkpt>
      <trkpt lat="47.25438" lon="-2.32766">
        <ele>13.800000190735</ele>
        <time>2020-08-23T07:03:54.000Z</time>
      </trkpt>
      <trkpt lat="47.25434" lon="-2.32777">
        <ele>13.800000190735</ele>
        <time>2020-08-23T07:03:56.000Z</time>
      </trkpt>
      <trkpt lat="47.25432" lon="-2.32788">
        <ele>13.800000190735</ele>
        <time>2020-08-23T07:03:58.000Z</time>
      </trkpt>
      <trkpt lat="47.25419" lon="-2.32804">
        <ele>13.800000190735</ele>
        <time>2020-08-23T07:04:02.000Z</time>
      </trkpt>
      <trkpt lat="47.25416" lon="-2.32809">
        <ele>13.800000190735</ele>
        <time>2020-08-23T07:04:03.000Z</time>
      </trkpt>
      <trkpt lat="47.25405" lon="-2.32824">
        <ele>13.39999961853</ele>
        <time>2020-08-23T07:04:06.000Z</time>
      </trkpt>
      <trkpt lat="47.25401" lon="-2.32829">
        <ele>13</ele>
        <time>2020-08-23T07:04:07.000Z</time>
      </trkpt>
      <trkpt lat="47.25397" lon="-2.32834">
        <ele>12.60000038147</ele>
        <time>2020-08-23T07:04:08.000Z</time>
      </trkpt>
      <trkpt lat="47.25393" lon="-2.32839">
        <ele>12.199999809265</ele>
        <time>2020-08-23T07:04:09.000Z</time>
      </trkpt>
      <trkpt lat="47.25389" lon="-2.32844">
        <ele>11.800000190735</ele>
        <time>2020-08-23T07:04:10.000Z</time>
      </trkpt>
      <trkpt lat="47.25356" lon="-2.3288">
        <ele>11.800000190735</ele>
        <time>2020-08-23T07:04:18.000Z</time>
      </trkpt>
      <trkpt lat="47.2532" lon="-2.32912">
        <ele>11.800000190735</ele>
        <time>2020-08-23T07:04:26.000Z</time>
      </trkpt>
      <trkpt lat="47.25316" lon="-2.32916">
        <ele>11.800000190735</ele>
        <time>2020-08-23T07:04:27.000Z</time>
      </trkpt>
      <trkpt lat="47.2531" lon="-2.32927">
        <ele>11.800000190735</ele>
        <time>2020-08-23T07:04:29.000Z</time>
      </trkpt>
      <trkpt lat="47.25308" lon="-2.3294">
        <ele>11.800000190735</ele>
        <time>2020-08-23T07:04:31.000Z</time>
      </trkpt>
      <trkpt lat="47.25314" lon="-2.32965">
        <ele>11.800000190735</ele>
        <time>2020-08-23T07:04:35.000Z</time>
      </trkpt>
      <trkpt lat="47.25316" lon="-2.3297">
        <ele>11.800000190735</ele>
        <time>2020-08-23T07:04:36.000Z</time>
      </trkpt>
      <trkpt lat="47.2533" lon="-2.33005">
        <ele>11.800000190735</ele>
        <time>2020-08-23T07:04:42.000Z</time>
      </trkpt>
      <trkpt lat="47.25347" lon="-2.3305">
        <ele>11.800000190735</ele>
        <time>2020-08-23T07:04:50.000Z</time>
      </trkpt>
      <trkpt lat="47.25361" lon="-2.33085">
        <ele>11.800000190735</ele>
        <time>2020-08-23T07:04:56.000Z</time>
      </trkpt>
      <trkpt lat="47.25369" lon="-2.33103">
        <ele>11.39999961853</ele>
        <time>2020-08-23T07:05:00.000Z</time>
      </trkpt>
      <trkpt lat="47.2537" lon="-2.33106">
        <ele>10.800000190735</ele>
        <time>2020-08-23T07:05:01.000Z</time>
      </trkpt>
      <trkpt lat="47.25371" lon="-2.33109">
        <ele>10.39999961853</ele>
        <time>2020-08-23T07:05:02.000Z</time>
      </trkpt>
      <trkpt lat="47.25372" lon="-2.33109">
        <ele>10</ele>
        <time>2020-08-23T07:05:03.000Z</time>
      </trkpt>
      <trkpt lat="47.25372" lon="-2.3311">
        <ele>9.6000003814697</ele>
        <time>2020-08-23T07:05:04.000Z</time>
      </trkpt>
      <trkpt lat="47.25373" lon="-2.3311">
        <ele>9.6000003814697</ele>
        <time>2020-08-23T07:05:06.000Z</time>
      </trkpt>
      <trkpt lat="47.25373" lon="-2.33111">
        <ele>9.6000003814697</ele>
        <time>2020-08-23T07:05:08.000Z</time>
      </trkpt>
      <trkpt lat="47.25372" lon="-2.33109">
        <ele>9.6000003814697</ele>
        <time>2020-08-23T07:11:14.000Z</time>
      </trkpt>
      <trkpt lat="47.25371" lon="-2.33106">
        <ele>9.6000003814697</ele>
        <time>2020-08-23T07:11:15.000Z</time>
      </trkpt>
      <trkpt lat="47.25367" lon="-2.33095">
        <ele>9.6000003814697</ele>
        <time>2020-08-23T07:11:19.000Z</time>
      </trkpt>
      <trkpt lat="47.25365" lon="-2.33091">
        <ele>9.6000003814697</ele>
        <time>2020-08-23T07:11:20.000Z</time>
      </trkpt>
      <trkpt lat="47.25353" lon="-2.33061">
        <ele>9.6000003814697</ele>
        <time>2020-08-23T07:11:27.000Z</time>
      </trkpt>
      <trkpt lat="47.25339" lon="-2.33022">
        <ele>9.6000003814697</ele>
        <time>2020-08-23T07:11:35.000Z</time>
      </trkpt>
      <trkpt lat="47.25323" lon="-2.32981">
        <ele>9.6000003814697</ele>
        <time>2020-08-23T07:11:43.000Z</time>
      </trkpt>
      <trkpt lat="47.25306" lon="-2.32942">
        <ele>9.6000003814697</ele>
        <time>2020-08-23T07:11:51.000Z</time>
      </trkpt>
      <trkpt lat="47.25301" lon="-2.32938">
        <ele>9.6000003814697</ele>
        <time>2020-08-23T07:11:53.000Z</time>
      </trkpt>
      <trkpt lat="47.25295" lon="-2.32939">
        <ele>9.6000003814697</ele>
        <time>2020-08-23T07:11:55.000Z</time>
      </trkpt>
      <trkpt lat="47.25289" lon="-2.32944">
        <ele>9.6000003814697</ele>
        <time>2020-08-23T07:11:57.000Z</time>
      </trkpt>
      <trkpt lat="47.25279" lon="-2.32953">
        <ele>9.6000003814697</ele>
        <time>2020-08-23T07:12:00.000Z</time>
      </trkpt>
      <trkpt lat="47.25256" lon="-2.32977">
        <ele>9.6000003814697</ele>
        <time>2020-08-23T07:12:07.000Z</time>
      </trkpt>
      <trkpt lat="47.25229" lon="-2.33004">
        <ele>9.6000003814697</ele>
        <time>2020-08-23T07:12:15.000Z</time>
      </trkpt>
      <trkpt lat="47.25211" lon="-2.33022">
        <ele>9.6000003814697</ele>
        <time>2020-08-23T07:12:21.000Z</time>
      </trkpt>
      <trkpt lat="47.25205" lon="-2.33024">
        <ele>9.6000003814697</ele>
        <time>2020-08-23T07:12:23.000Z</time>
      </trkpt>
      <trkpt lat="47.25201" lon="-2.33023">
        <ele>9.6000003814697</ele>
        <time>2020-08-23T07:12:24.000Z</time>
      </trkpt>
      <trkpt lat="47.25197" lon="-2.33015">
        <ele>9.6000003814697</ele>
        <time>2020-08-23T07:12:27.000Z</time>
      </trkpt>
      <trkpt lat="47.25188" lon="-2.32991">
        <ele>9.6000003814697</ele>
        <time>2020-08-23T07:12:34.000Z</time>
      </trkpt>
      <trkpt lat="47.25182" lon="-2.32978">
        <ele>9.6000003814697</ele>
        <time>2020-08-23T07:12:40.000Z</time>
      </trkpt>
      <trkpt lat="47.25176" lon="-2.32962">
        <ele>9.6000003814697</ele>
        <time>2020-08-23T07:12:48.000Z</time>
      </trkpt>
      <trkpt lat="47.25172" lon="-2.32954">
        <ele>9.6000003814697</ele>
        <time>2020-08-23T07:12:52.000Z</time>
      </trkpt>
      <trkpt lat="47.25172" lon="-2.32952">
        <ele>9.6000003814697</ele>
        <time>2020-08-23T07:12:53.000Z</time>
      </trkpt>
      <trkpt lat="47.25172" lon="-2.3295">
        <ele>9.6000003814697</ele>
        <time>2020-08-23T07:12:54.000Z</time>
      </trkpt>
      <trkpt lat="47.25167" lon="-2.32942">
        <ele>9.6000003814697</ele>
        <time>2020-08-23T07:12:58.000Z</time>
      </trkpt>
      <trkpt lat="47.25164" lon="-2.32941">
        <ele>9.6000003814697</ele>
        <time>2020-08-23T07:13:00.000Z</time>
      </trkpt>
      <trkpt lat="47.25163" lon="-2.3294">
        <ele>9.6000003814697</ele>
        <time>2020-08-23T07:13:02.000Z</time>
      </trkpt>
      <trkpt lat="47.25154" lon="-2.32937">
        <ele>7.5999999046326</ele>
        <time>2020-08-23T07:13:30.000Z</time>
      </trkpt>
      <trkpt lat="47.25144" lon="-2.32924">
        <ele>7.5999999046326</ele>
        <time>2020-08-23T07:13:35.000Z</time>
      </trkpt>
      <trkpt lat="47.25131" lon="-2.32911">
        <ele>7.5999999046326</ele>
        <time>2020-08-23T07:13:40.000Z</time>
      </trkpt>
      <trkpt lat="47.25122" lon="-2.329">
        <ele>7.5999999046326</ele>
        <time>2020-08-23T07:13:44.000Z</time>
      </trkpt>
      <trkpt lat="47.25118" lon="-2.32894">
        <ele>8</ele>
        <time>2020-08-23T07:13:46.000Z</time>
      </trkpt>
      <trkpt lat="47.25117" lon="-2.3289">
        <ele>8.3999996185303</ele>
        <time>2020-08-23T07:13:47.000Z</time>
      </trkpt>
      <trkpt lat="47.25116" lon="-2.32886">
        <ele>9</ele>
        <time>2020-08-23T07:13:48.000Z</time>
      </trkpt>
      <trkpt lat="47.25115" lon="-2.32882">
        <ele>9.3999996185303</ele>
        <time>2020-08-23T07:13:49.000Z</time>
      </trkpt>
      <trkpt lat="47.25114" lon="-2.32878">
        <ele>9.8000001907349</ele>
        <time>2020-08-23T07:13:50.000Z</time>
      </trkpt>
      <trkpt lat="47.25106" lon="-2.3286">
        <ele>9.8000001907349</ele>
        <time>2020-08-23T07:13:55.000Z</time>
      </trkpt>
      <trkpt lat="47.251" lon="-2.32851">
        <ele>9.8000001907349</ele>
        <time>2020-08-23T07:13:58.000Z</time>
      </trkpt>
      <trkpt lat="47.25098" lon="-2.3285">
        <ele>9.8000001907349</ele>
        <time>2020-08-23T07:13:59.000Z</time>
      </trkpt>
      <trkpt lat="47.25096" lon="-2.32848">
        <ele>9.8000001907349</ele>
        <time>2020-08-23T07:14:00.000Z</time>
      </trkpt>
      <trkpt lat="47.2509" lon="-2.32839">
        <ele>9.8000001907349</ele>
        <time>2020-08-23T07:14:03.000Z</time>
      </trkpt>
      <trkpt lat="47.25081" lon="-2.32837">
        <ele>9.8000001907349</ele>
        <time>2020-08-23T07:14:07.000Z</time>
      </trkpt>
      <trkpt lat="47.25071" lon="-2.32836">
        <ele>9.8000001907349</ele>
        <time>2020-08-23T07:14:11.000Z</time>
      </trkpt>
      <trkpt lat="47.25068" lon="-2.32832">
        <ele>9.8000001907349</ele>
        <time>2020-08-23T07:14:12.000Z</time>
      </trkpt>
      <trkpt lat="47.25055" lon="-2.32816">
        <ele>9.8000001907349</ele>
        <time>2020-08-23T07:14:16.000Z</time>
      </trkpt>
      <trkpt lat="47.25052" lon="-2.32809">
        <ele>9.8000001907349</ele>
        <time>2020-08-23T07:14:17.000Z</time>
      </trkpt>
      <trkpt lat="47.25045" lon="-2.32784">
        <ele>9.8000001907349</ele>
        <time>2020-08-23T07:14:21.000Z</time>
      </trkpt>
      <trkpt lat="47.2503" lon="-2.32758">
        <ele>9.8000001907349</ele>
        <time>2020-08-23T07:14:27.000Z</time>
      </trkpt>
      <trkpt lat="47.25027" lon="-2.32756">
        <ele>9.8000001907349</ele>
        <time>2020-08-23T07:14:28.000Z</time>
      </trkpt>
      <trkpt lat="47.2502" lon="-2.32758">
        <ele>9.8000001907349</ele>
        <time>2020-08-23T07:14:30.000Z</time>
      </trkpt>
      <trkpt lat="47.25013" lon="-2.32765">
        <ele>9.8000001907349</ele>
        <time>2020-08-23T07:14:32.000Z</time>
      </trkpt>
      <trkpt lat="47.25006" lon="-2.32773">
        <ele>9.8000001907349</ele>
        <time>2020-08-23T07:14:34.000Z</time>
      </trkpt>
      <trkpt lat="47.24993" lon="-2.32784">
        <ele>9.8000001907349</ele>
        <time>2020-08-23T07:14:37.000Z</time>
      </trkpt>
      <trkpt lat="47.24989" lon="-2.32784">
        <ele>9.8000001907349</ele>
        <time>2020-08-23T07:14:38.000Z</time>
      </trkpt>
      <trkpt lat="47.2498" lon="-2.32773">
        <ele>9.8000001907349</ele>
        <time>2020-08-23T07:14:41.000Z</time>
      </trkpt>
      <trkpt lat="47.24975" lon="-2.32759">
        <ele>9.8000001907349</ele>
        <time>2020-08-23T07:14:43.000Z</time>
      </trkpt>
      <trkpt lat="47.2497" lon="-2.32744">
        <ele>9.8000001907349</ele>
        <time>2020-08-23T07:14:45.000Z</time>
      </trkpt>
      <trkpt lat="47.24967" lon="-2.32737">
        <ele>9.8000001907349</ele>
        <time>2020-08-23T07:14:46.000Z</time>
      </trkpt>
      <trkpt lat="47.24948" lon="-2.32687">
        <ele>9.8000001907349</ele>
        <time>2020-08-23T07:14:53.000Z</time>
      </trkpt>
      <trkpt lat="47.24925" lon="-2.32624">
        <ele>9.8000001907349</ele>
        <time>2020-08-23T07:15:02.000Z</time>
      </trkpt>
      <trkpt lat="47.24918" lon="-2.32604">
        <ele>9.8000001907349</ele>
        <time>2020-08-23T07:15:05.000Z</time>
      </trkpt>
      <trkpt lat="47.24909" lon="-2.3258">
        <ele>9.8000001907349</ele>
        <time>2020-08-23T07:15:09.000Z</time>
      </trkpt>
      <trkpt lat="47.24905" lon="-2.32568">
        <ele>9.8000001907349</ele>
        <time>2020-08-23T07:15:11.000Z</time>
      </trkpt>
      <trkpt lat="47.24896" lon="-2.32542">
        <ele>9.8000001907349</ele>
        <time>2020-08-23T07:15:15.000Z</time>
      </trkpt>
      <trkpt lat="47.24886" lon="-2.32517">
        <ele>10.199999809265</ele>
        <time>2020-08-23T07:15:19.000Z</time>
      </trkpt>
      <trkpt lat="47.24884" lon="-2.3251">
        <ele>10.800000190735</ele>
        <time>2020-08-23T07:15:20.000Z</time>
      </trkpt>
      <trkpt lat="47.24882" lon="-2.32505">
        <ele>11.199999809265</ele>
        <time>2020-08-23T07:15:21.000Z</time>
      </trkpt>
      <trkpt lat="47.2488" lon="-2.32499">
        <ele>11.60000038147</ele>
        <time>2020-08-23T07:15:22.000Z</time>
      </trkpt>
      <trkpt lat="47.24878" lon="-2.32494">
        <ele>12</ele>
        <time>2020-08-23T07:15:23.000Z</time>
      </trkpt>
      <trkpt lat="47.24864" lon="-2.32452">
        <ele>12</ele>
        <time>2020-08-23T07:15:30.000Z</time>
      </trkpt>
      <trkpt lat="47.24849" lon="-2.32416">
        <ele>12</ele>
        <time>2020-08-23T07:15:36.000Z</time>
      </trkpt>
      <trkpt lat="47.24824" lon="-2.32373">
        <ele>12</ele>
        <time>2020-08-23T07:15:44.000Z</time>
      </trkpt>
      <trkpt lat="47.24802" lon="-2.32332">
        <ele>12</ele>
        <time>2020-08-23T07:15:51.000Z</time>
      </trkpt>
      <trkpt lat="47.24774" lon="-2.32284">
        <ele>12</ele>
        <time>2020-08-23T07:15:59.000Z</time>
      </trkpt>
      <trkpt lat="47.24744" lon="-2.32229">
        <ele>12</ele>
        <time>2020-08-23T07:16:08.000Z</time>
      </trkpt>
      <trkpt lat="47.24714" lon="-2.32173">
        <ele>12</ele>
        <time>2020-08-23T07:16:17.000Z</time>
      </trkpt>
      <trkpt lat="47.24691" lon="-2.32125">
        <ele>12</ele>
        <time>2020-08-23T07:16:25.000Z</time>
      </trkpt>
      <trkpt lat="47.24677" lon="-2.32096">
        <ele>12.800000190735</ele>
        <time>2020-08-23T07:16:30.000Z</time>
      </trkpt>
      <trkpt lat="47.24674" lon="-2.32091">
        <ele>13.199999809265</ele>
        <time>2020-08-23T07:16:31.000Z</time>
      </trkpt>
      <trkpt lat="47.24671" lon="-2.32087">
        <ele>13.800000190735</ele>
        <time>2020-08-23T07:16:32.000Z</time>
      </trkpt>
      <trkpt lat="47.24668" lon="-2.32082">
        <ele>14.199999809265</ele>
        <time>2020-08-23T07:16:33.000Z</time>
      </trkpt>
      <trkpt lat="47.24645" lon="-2.32041">
        <ele>14.60000038147</ele>
        <time>2020-08-23T07:16:41.000Z</time>
      </trkpt>
      <trkpt lat="47.24642" lon="-2.32036">
        <ele>15</ele>
        <time>2020-08-23T07:16:42.000Z</time>
      </trkpt>
      <trkpt lat="47.24639" lon="-2.32031">
        <ele>15.39999961853</ele>
        <time>2020-08-23T07:16:43.000Z</time>
      </trkpt>
      <trkpt lat="47.24636" lon="-2.32025">
        <ele>15.800000190735</ele>
        <time>2020-08-23T07:16:44.000Z</time>
      </trkpt>
      <trkpt lat="47.24634" lon="-2.3202">
        <ele>16.39999961853</ele>
        <time>2020-08-23T07:16:45.000Z</time>
      </trkpt>
      <trkpt lat="47.24624" lon="-2.31999">
        <ele>16.39999961853</ele>
        <time>2020-08-23T07:16:49.000Z</time>
      </trkpt>
      <trkpt lat="47.24617" lon="-2.31984">
        <ele>16.39999961853</ele>
        <time>2020-08-23T07:16:52.000Z</time>
      </trkpt>
      <trkpt lat="47.24612" lon="-2.31975">
        <ele>17.200000762939</ele>
        <time>2020-08-23T07:16:54.000Z</time>
      </trkpt>
      <trkpt lat="47.24609" lon="-2.31971">
        <ele>17.60000038147</ele>
        <time>2020-08-23T07:16:55.000Z</time>
      </trkpt>
      <trkpt lat="47.24606" lon="-2.31967">
        <ele>18</ele>
        <time>2020-08-23T07:16:56.000Z</time>
      </trkpt>
      <trkpt lat="47.24603" lon="-2.31962">
        <ele>18.39999961853</ele>
        <time>2020-08-23T07:16:57.000Z</time>
      </trkpt>
      <trkpt lat="47.24593" lon="-2.31941">
        <ele>18.39999961853</ele>
        <time>2020-08-23T07:17:01.000Z</time>
      </trkpt>
      <trkpt lat="47.24573" lon="-2.31901">
        <ele>18.39999961853</ele>
        <time>2020-08-23T07:17:09.000Z</time>
      </trkpt>
      <trkpt lat="47.24568" lon="-2.31891">
        <ele>18.799999237061</ele>
        <time>2020-08-23T07:17:11.000Z</time>
      </trkpt>
      <trkpt lat="47.24565" lon="-2.31886">
        <ele>19.200000762939</ele>
        <time>2020-08-23T07:17:12.000Z</time>
      </trkpt>
      <trkpt lat="47.24563" lon="-2.31881">
        <ele>19.60000038147</ele>
        <time>2020-08-23T07:17:13.000Z</time>
      </trkpt>
      <trkpt lat="47.24559" lon="-2.31875">
        <ele>20</ele>
        <time>2020-08-23T07:17:14.000Z</time>
      </trkpt>
      <trkpt lat="47.24556" lon="-2.3187">
        <ele>20.60000038147</ele>
        <time>2020-08-23T07:17:15.000Z</time>
      </trkpt>
      <trkpt lat="47.2455" lon="-2.3186">
        <ele>20.60000038147</ele>
        <time>2020-08-23T07:17:17.000Z</time>
      </trkpt>
      <trkpt lat="47.2453" lon="-2.31825">
        <ele>20.60000038147</ele>
        <time>2020-08-23T07:17:24.000Z</time>
      </trkpt>
      <trkpt lat="47.24518" lon="-2.31806">
        <ele>20.60000038147</ele>
        <time>2020-08-23T07:17:28.000Z</time>
      </trkpt>
      <trkpt lat="47.24512" lon="-2.3179">
        <ele>20.60000038147</ele>
        <time>2020-08-23T07:17:31.000Z</time>
      </trkpt>
      <trkpt lat="47.24501" lon="-2.31769">
        <ele>20.60000038147</ele>
        <time>2020-08-23T07:17:36.000Z</time>
      </trkpt>
      <trkpt lat="47.24491" lon="-2.31745">
        <ele>20.60000038147</ele>
        <time>2020-08-23T07:17:42.000Z</time>
      </trkpt>
      <trkpt lat="47.24486" lon="-2.31735">
        <ele>20.60000038147</ele>
        <time>2020-08-23T07:17:44.000Z</time>
      </trkpt>
      <trkpt lat="47.24476" lon="-2.3172">
        <ele>20.60000038147</ele>
        <time>2020-08-23T07:17:47.000Z</time>
      </trkpt>
      <trkpt lat="47.2447" lon="-2.3171">
        <ele>20.60000038147</ele>
        <time>2020-08-23T07:17:49.000Z</time>
      </trkpt>
      <trkpt lat="47.24459" lon="-2.31689">
        <ele>20.60000038147</ele>
        <time>2020-08-23T07:17:53.000Z</time>
      </trkpt>
      <trkpt lat="47.2444" lon="-2.31652">
        <ele>20.60000038147</ele>
        <time>2020-08-23T07:17:59.000Z</time>
      </trkpt>
      <trkpt lat="47.24418" lon="-2.31596">
        <ele>20.60000038147</ele>
        <time>2020-08-23T07:18:06.000Z</time>
      </trkpt>
      <trkpt lat="47.24416" lon="-2.31587">
        <ele>20</ele>
        <time>2020-08-23T07:18:07.000Z</time>
      </trkpt>
      <trkpt lat="47.24414" lon="-2.31578">
        <ele>19.200000762939</ele>
        <time>2020-08-23T07:18:08.000Z</time>
      </trkpt>
      <trkpt lat="47.24412" lon="-2.31568">
        <ele>18.60000038147</ele>
        <time>2020-08-23T07:18:09.000Z</time>
      </trkpt>
      <trkpt lat="47.2441" lon="-2.31558">
        <ele>18.200000762939</ele>
        <time>2020-08-23T07:18:10.000Z</time>
      </trkpt>
      <trkpt lat="47.24409" lon="-2.31546">
        <ele>18.200000762939</ele>
        <time>2020-08-23T07:18:11.000Z</time>
      </trkpt>
      <trkpt lat="47.24406" lon="-2.31521">
        <ele>17.799999237061</ele>
        <time>2020-08-23T07:18:13.000Z</time>
      </trkpt>
      <trkpt lat="47.24405" lon="-2.31509">
        <ele>17.200000762939</ele>
        <time>2020-08-23T07:18:14.000Z</time>
      </trkpt>
      <trkpt lat="47.24404" lon="-2.31496">
        <ele>16.799999237061</ele>
        <time>2020-08-23T07:18:15.000Z</time>
      </trkpt>
      <trkpt lat="47.24403" lon="-2.31485">
        <ele>16.39999961853</ele>
        <time>2020-08-23T07:18:16.000Z</time>
      </trkpt>
      <trkpt lat="47.24401" lon="-2.31474">
        <ele>16</ele>
        <time>2020-08-23T07:18:17.000Z</time>
      </trkpt>
      <trkpt lat="47.24392" lon="-2.31437">
        <ele>16</ele>
        <time>2020-08-23T07:18:21.000Z</time>
      </trkpt>
      <trkpt lat="47.24389" lon="-2.31429">
        <ele>16</ele>
        <time>2020-08-23T07:18:22.000Z</time>
      </trkpt>
      <trkpt lat="47.24383" lon="-2.31403">
        <ele>15.39999961853</ele>
        <time>2020-08-23T07:18:25.000Z</time>
      </trkpt>
      <trkpt lat="47.2438" lon="-2.31396">
        <ele>15</ele>
        <time>2020-08-23T07:18:26.000Z</time>
      </trkpt>
      <trkpt lat="47.24378" lon="-2.31389">
        <ele>14.60000038147</ele>
        <time>2020-08-23T07:18:27.000Z</time>
      </trkpt>
      <trkpt lat="47.24375" lon="-2.31382">
        <ele>14.199999809265</ele>
        <time>2020-08-23T07:18:28.000Z</time>
      </trkpt>
      <trkpt lat="47.24373" lon="-2.31376">
        <ele>13.800000190735</ele>
        <time>2020-08-23T07:18:29.000Z</time>
      </trkpt>
      <trkpt lat="47.24369" lon="-2.31365">
        <ele>13.800000190735</ele>
        <time>2020-08-23T07:18:31.000Z</time>
      </trkpt>
      <trkpt lat="47.24365" lon="-2.31348">
        <ele>13.800000190735</ele>
        <time>2020-08-23T07:18:36.000Z</time>
      </trkpt>
      <trkpt lat="47.24373" lon="-2.31337">
        <ele>13.800000190735</ele>
        <time>2020-08-23T07:18:39.000Z</time>
      </trkpt>
      <trkpt lat="47.24376" lon="-2.31334">
        <ele>13.800000190735</ele>
        <time>2020-08-23T07:18:40.000Z</time>
      </trkpt>
      <trkpt lat="47.24399" lon="-2.31313">
        <ele>13.800000190735</ele>
        <time>2020-08-23T07:18:46.000Z</time>
      </trkpt>
      <trkpt lat="47.24428" lon="-2.31288">
        <ele>13.800000190735</ele>
        <time>2020-08-23T07:18:53.000Z</time>
      </trkpt>
      <trkpt lat="47.24436" lon="-2.31283">
        <ele>13.800000190735</ele>
        <time>2020-08-23T07:18:55.000Z</time>
      </trkpt>
      <trkpt lat="47.2444" lon="-2.31281">
        <ele>14.199999809265</ele>
        <time>2020-08-23T07:18:56.000Z</time>
      </trkpt>
      <trkpt lat="47.24444" lon="-2.31279">
        <ele>15</ele>
        <time>2020-08-23T07:18:57.000Z</time>
      </trkpt>
      <trkpt lat="47.24448" lon="-2.31276">
        <ele>15.39999961853</ele>
        <time>2020-08-23T07:18:58.000Z</time>
      </trkpt>
      <trkpt lat="47.24451" lon="-2.31274">
        <ele>15.800000190735</ele>
        <time>2020-08-23T07:18:59.000Z</time>
      </trkpt>
      <trkpt lat="47.24457" lon="-2.31264">
        <ele>16.200000762939</ele>
        <time>2020-08-23T07:19:02.000Z</time>
      </trkpt>
      <trkpt lat="47.24458" lon="-2.31261">
        <ele>16.799999237061</ele>
        <time>2020-08-23T07:19:03.000Z</time>
      </trkpt>
      <trkpt lat="47.24458" lon="-2.31257">
        <ele>17.200000762939</ele>
        <time>2020-08-23T07:19:04.000Z</time>
      </trkpt>
      <trkpt lat="47.24457" lon="-2.31253">
        <ele>17.60000038147</ele>
        <time>2020-08-23T07:19:05.000Z</time>
      </trkpt>
      <trkpt lat="47.24457" lon="-2.31249">
        <ele>18</ele>
        <time>2020-08-23T07:19:06.000Z</time>
      </trkpt>
      <trkpt lat="47.24455" lon="-2.31245">
        <ele>18</ele>
        <time>2020-08-23T07:19:07.000Z</time>
      </trkpt>
      <trkpt lat="47.24443" lon="-2.31224">
        <ele>18</ele>
        <time>2020-08-23T07:19:14.000Z</time>
      </trkpt>
      <trkpt lat="47.24441" lon="-2.31224">
        <ele>18</ele>
        <time>2020-08-23T07:19:15.000Z</time>
      </trkpt>
      <trkpt lat="47.24435" lon="-2.31227">
        <ele>17.60000038147</ele>
        <time>2020-08-23T07:19:18.000Z</time>
      </trkpt>
      <trkpt lat="47.24433" lon="-2.31228">
        <ele>17</ele>
        <time>2020-08-23T07:19:19.000Z</time>
      </trkpt>
      <trkpt lat="47.24431" lon="-2.31227">
        <ele>16.60000038147</ele>
        <time>2020-08-23T07:19:20.000Z</time>
      </trkpt>
      <trkpt lat="47.2443" lon="-2.31226">
        <ele>15.60000038147</ele>
        <time>2020-08-23T07:19:21.000Z</time>
      </trkpt>
      <trkpt lat="47.24429" lon="-2.31224">
        <ele>15.60000038147</ele>
        <time>2020-08-23T07:19:22.000Z</time>
      </trkpt>
      <trkpt lat="47.24422" lon="-2.31207">
        <ele>15.60000038147</ele>
        <time>2020-08-23T07:19:27.000Z</time>
      </trkpt>
      <trkpt lat="47.24419" lon="-2.31202">
        <ele>15.60000038147</ele>
        <time>2020-08-23T07:19:29.000Z</time>
      </trkpt>
      <trkpt lat="47.24415" lon="-2.31192">
        <ele>15.60000038147</ele>
        <time>2020-08-23T07:19:32.000Z</time>
      </trkpt>
      <trkpt lat="47.24413" lon="-2.31189">
        <ele>16.200000762939</ele>
        <time>2020-08-23T07:19:33.000Z</time>
      </trkpt>
      <trkpt lat="47.24412" lon="-2.31186">
        <ele>16.60000038147</ele>
        <time>2020-08-23T07:19:34.000Z</time>
      </trkpt>
      <trkpt lat="47.24409" lon="-2.31184">
        <ele>17</ele>
        <time>2020-08-23T07:19:35.000Z</time>
      </trkpt>
      <trkpt lat="47.24406" lon="-2.3118">
        <ele>17.39999961853</ele>
        <time>2020-08-23T07:19:36.000Z</time>
      </trkpt>
      <trkpt lat="47.24403" lon="-2.31178">
        <ele>18</ele>
        <time>2020-08-23T07:19:37.000Z</time>
      </trkpt>
      <trkpt lat="47.2439" lon="-2.31165">
        <ele>18</ele>
        <time>2020-08-23T07:19:41.000Z</time>
      </trkpt>
      <trkpt lat="47.24384" lon="-2.31157">
        <ele>18</ele>
        <time>2020-08-23T07:19:43.000Z</time>
      </trkpt>
      <trkpt lat="47.24372" lon="-2.3114">
        <ele>18.39999961853</ele>
        <time>2020-08-23T07:19:47.000Z</time>
      </trkpt>
      <trkpt lat="47.2437" lon="-2.31136">
        <ele>18.799999237061</ele>
        <time>2020-08-23T07:19:48.000Z</time>
      </trkpt>
      <trkpt lat="47.24368" lon="-2.31132">
        <ele>19.200000762939</ele>
        <time>2020-08-23T07:19:49.000Z</time>
      </trkpt>
      <trkpt lat="47.24366" lon="-2.31128">
        <ele>19.60000038147</ele>
        <time>2020-08-23T07:19:50.000Z</time>
      </trkpt>
      <trkpt lat="47.24363" lon="-2.31123">
        <ele>20</ele>
        <time>2020-08-23T07:19:51.000Z</time>
      </trkpt>
      <trkpt lat="47.24352" lon="-2.31094">
        <ele>20</ele>
        <time>2020-08-23T07:19:57.000Z</time>
      </trkpt>
      <trkpt lat="47.24342" lon="-2.3106">
        <ele>20</ele>
        <time>2020-08-23T07:20:04.000Z</time>
      </trkpt>
      <trkpt lat="47.2433" lon="-2.31039">
        <ele>20</ele>
        <time>2020-08-23T07:20:10.000Z</time>
      </trkpt>
      <trkpt lat="47.24305" lon="-2.31032">
        <ele>20</ele>
        <time>2020-08-23T07:20:16.000Z</time>
      </trkpt>
      <trkpt lat="47.2429" lon="-2.31033">
        <ele>19.39999961853</ele>
        <time>2020-08-23T07:20:19.000Z</time>
      </trkpt>
      <trkpt lat="47.24286" lon="-2.31033">
        <ele>19</ele>
        <time>2020-08-23T07:20:20.000Z</time>
      </trkpt>
      <trkpt lat="47.24283" lon="-2.31032">
        <ele>18.39999961853</ele>
        <time>2020-08-23T07:20:21.000Z</time>
      </trkpt>
      <trkpt lat="47.24281" lon="-2.31028">
        <ele>18</ele>
        <time>2020-08-23T07:20:22.000Z</time>
      </trkpt>
      <trkpt lat="47.24281" lon="-2.31023">
        <ele>17.60000038147</ele>
        <time>2020-08-23T07:20:23.000Z</time>
      </trkpt>
      <trkpt lat="47.24281" lon="-2.31018">
        <ele>17.60000038147</ele>
        <time>2020-08-23T07:20:24.000Z</time>
      </trkpt>
      <trkpt lat="47.24283" lon="-2.31008">
        <ele>17.60000038147</ele>
        <time>2020-08-23T07:20:26.000Z</time>
      </trkpt>
      <trkpt lat="47.24285" lon="-2.30985">
        <ele>17.60000038147</ele>
        <time>2020-08-23T07:20:30.000Z</time>
      </trkpt>
      <trkpt lat="47.24289" lon="-2.30953">
        <ele>18</ele>
        <time>2020-08-23T07:20:36.000Z</time>
      </trkpt>
      <trkpt lat="47.2429" lon="-2.30948">
        <ele>18.39999961853</ele>
        <time>2020-08-23T07:20:37.000Z</time>
      </trkpt>
      <trkpt lat="47.24291" lon="-2.30943">
        <ele>18.799999237061</ele>
        <time>2020-08-23T07:20:38.000Z</time>
      </trkpt>
      <trkpt lat="47.24291" lon="-2.30938">
        <ele>19.200000762939</ele>
        <time>2020-08-23T07:20:39.000Z</time>
      </trkpt>
      <trkpt lat="47.24291" lon="-2.30933">
        <ele>19.60000038147</ele>
        <time>2020-08-23T07:20:40.000Z</time>
      </trkpt>
      <trkpt lat="47.24292" lon="-2.30924">
        <ele>19.60000038147</ele>
        <time>2020-08-23T07:20:42.000Z</time>
      </trkpt>
      <trkpt lat="47.24291" lon="-2.30914">
        <ele>20</ele>
        <time>2020-08-23T07:20:44.000Z</time>
      </trkpt>
      <trkpt lat="47.2429" lon="-2.30908">
        <ele>20.39999961853</ele>
        <time>2020-08-23T07:20:45.000Z</time>
      </trkpt>
      <trkpt lat="47.24289" lon="-2.30903">
        <ele>20.799999237061</ele>
        <time>2020-08-23T07:20:46.000Z</time>
      </trkpt>
      <trkpt lat="47.24289" lon="-2.30898">
        <ele>21.200000762939</ele>
        <time>2020-08-23T07:20:47.000Z</time>
      </trkpt>
      <trkpt lat="47.24288" lon="-2.30893">
        <ele>21.60000038147</ele>
        <time>2020-08-23T07:20:48.000Z</time>
      </trkpt>
      <trkpt lat="47.24286" lon="-2.30869">
        <ele>21.60000038147</ele>
        <time>2020-08-23T07:20:52.000Z</time>
      </trkpt>
      <trkpt lat="47.24286" lon="-2.30862">
        <ele>21.60000038147</ele>
        <time>2020-08-23T07:20:53.000Z</time>
      </trkpt>
      <trkpt lat="47.2429" lon="-2.3084">
        <ele>22</ele>
        <time>2020-08-23T07:20:57.000Z</time>
      </trkpt>
      <trkpt lat="47.24291" lon="-2.30836">
        <ele>22.39999961853</ele>
        <time>2020-08-23T07:20:58.000Z</time>
      </trkpt>
      <trkpt lat="47.24293" lon="-2.30831">
        <ele>22.799999237061</ele>
        <time>2020-08-23T07:20:59.000Z</time>
      </trkpt>
      <trkpt lat="47.24295" lon="-2.30827">
        <ele>23.799999237061</ele>
        <time>2020-08-23T07:21:00.000Z</time>
      </trkpt>
      <trkpt lat="47.24299" lon="-2.30818">
        <ele>23.799999237061</ele>
        <time>2020-08-23T07:21:02.000Z</time>
      </trkpt>
      <trkpt lat="47.24316" lon="-2.30805">
        <ele>23.799999237061</ele>
        <time>2020-08-23T07:21:07.000Z</time>
      </trkpt>
      <trkpt lat="47.24344" lon="-2.30796">
        <ele>24.200000762939</ele>
        <time>2020-08-23T07:21:14.000Z</time>
      </trkpt>
      <trkpt lat="47.24348" lon="-2.30795">
        <ele>24.60000038147</ele>
        <time>2020-08-23T07:21:15.000Z</time>
      </trkpt>
      <trkpt lat="47.24352" lon="-2.30794">
        <ele>25</ele>
        <time>2020-08-23T07:21:16.000Z</time>
      </trkpt>
      <trkpt lat="47.24356" lon="-2.30793">
        <ele>25.39999961853</ele>
        <time>2020-08-23T07:21:17.000Z</time>
      </trkpt>
      <trkpt lat="47.2436" lon="-2.30791">
        <ele>25.799999237061</ele>
        <time>2020-08-23T07:21:18.000Z</time>
      </trkpt>
      <trkpt lat="47.24367" lon="-2.30786">
        <ele>25.799999237061</ele>
        <time>2020-08-23T07:21:20.000Z</time>
      </trkpt>
      <trkpt lat="47.24376" lon="-2.30775">
        <ele>26.200000762939</ele>
        <time>2020-08-23T07:21:23.000Z</time>
      </trkpt>
      <trkpt lat="47.24379" lon="-2.30772">
        <ele>26.60000038147</ele>
        <time>2020-08-23T07:21:24.000Z</time>
      </trkpt>
      <trkpt lat="47.24381" lon="-2.30768">
        <ele>27.39999961853</ele>
        <time>2020-08-23T07:21:25.000Z</time>
      </trkpt>
      <trkpt lat="47.24384" lon="-2.30763">
        <ele>27.799999237061</ele>
        <time>2020-08-23T07:21:26.000Z</time>
      </trkpt>
      <trkpt lat="47.24391" lon="-2.30753">
        <ele>27.799999237061</ele>
        <time>2020-08-23T07:21:29.000Z</time>
      </trkpt>
      <trkpt lat="47.24395" lon="-2.30747">
        <ele>28.200000762939</ele>
        <time>2020-08-23T07:21:31.000Z</time>
      </trkpt>
      <trkpt lat="47.24398" lon="-2.30742">
        <ele>28.60000038147</ele>
        <time>2020-08-23T07:21:32.000Z</time>
      </trkpt>
      <trkpt lat="47.24399" lon="-2.30737">
        <ele>29.200000762939</ele>
        <time>2020-08-23T07:21:33.000Z</time>
      </trkpt>
      <trkpt lat="47.244" lon="-2.30731">
        <ele>29.60000038147</ele>
        <time>2020-08-23T07:21:34.000Z</time>
      </trkpt>
      <trkpt lat="47.244" lon="-2.30726">
        <ele>30</ele>
        <time>2020-08-23T07:21:35.000Z</time>
      </trkpt>
      <trkpt lat="47.24402" lon="-2.30711">
        <ele>30</ele>
        <time>2020-08-23T07:21:38.000Z</time>
      </trkpt>
      <trkpt lat="47.24409" lon="-2.30683">
        <ele>30</ele>
        <time>2020-08-23T07:21:43.000Z</time>
      </trkpt>
      <trkpt lat="47.24416" lon="-2.30649">
        <ele>30</ele>
        <time>2020-08-23T07:21:49.000Z</time>
      </trkpt>
      <trkpt lat="47.24427" lon="-2.30625">
        <ele>30</ele>
        <time>2020-08-23T07:21:54.000Z</time>
      </trkpt>
      <trkpt lat="47.24437" lon="-2.30614">
        <ele>30</ele>
        <time>2020-08-23T07:21:58.000Z</time>
      </trkpt>
      <trkpt lat="47.24453" lon="-2.30594">
        <ele>30</ele>
        <time>2020-08-23T07:22:04.000Z</time>
      </trkpt>
      <trkpt lat="47.24456" lon="-2.30589">
        <ele>30</ele>
        <time>2020-08-23T07:22:05.000Z</time>
      </trkpt>
      <trkpt lat="47.24466" lon="-2.30564">
        <ele>29.60000038147</ele>
        <time>2020-08-23T07:22:09.000Z</time>
      </trkpt>
      <trkpt lat="47.24467" lon="-2.30558">
        <ele>29.200000762939</ele>
        <time>2020-08-23T07:22:10.000Z</time>
      </trkpt>
      <trkpt lat="47.24467" lon="-2.30552">
        <ele>28.799999237061</ele>
        <time>2020-08-23T07:22:11.000Z</time>
      </trkpt>
      <trkpt lat="47.24465" lon="-2.30549">
        <ele>28.39999961853</ele>
        <time>2020-08-23T07:22:12.000Z</time>
      </trkpt>
      <trkpt lat="47.24462" lon="-2.30548">
        <ele>28</ele>
        <time>2020-08-23T07:22:13.000Z</time>
      </trkpt>
      <trkpt lat="47.24453" lon="-2.30554">
        <ele>28</ele>
        <time>2020-08-23T07:22:16.000Z</time>
      </trkpt>
      <trkpt lat="47.2445" lon="-2.30557">
        <ele>27.60000038147</ele>
        <time>2020-08-23T07:22:17.000Z</time>
      </trkpt>
      <trkpt lat="47.24446" lon="-2.3056">
        <ele>27</ele>
        <time>2020-08-23T07:22:18.000Z</time>
      </trkpt>
      <trkpt lat="47.24442" lon="-2.30564">
        <ele>26.60000038147</ele>
        <time>2020-08-23T07:22:19.000Z</time>
      </trkpt>
      <trkpt lat="47.24438" lon="-2.30567">
        <ele>26.200000762939</ele>
        <time>2020-08-23T07:22:20.000Z</time>
      </trkpt>
      <trkpt lat="47.24434" lon="-2.3057">
        <ele>25.799999237061</ele>
        <time>2020-08-23T07:22:21.000Z</time>
      </trkpt>
      <trkpt lat="47.24409" lon="-2.30583">
        <ele>25.39999961853</ele>
        <time>2020-08-23T07:22:26.000Z</time>
      </trkpt>
      <trkpt lat="47.24405" lon="-2.30582">
        <ele>25</ele>
        <time>2020-08-23T07:22:27.000Z</time>
      </trkpt>
      <trkpt lat="47.244" lon="-2.30581">
        <ele>24.60000038147</ele>
        <time>2020-08-23T07:22:28.000Z</time>
      </trkpt>
      <trkpt lat="47.24395" lon="-2.30577">
        <ele>24.200000762939</ele>
        <time>2020-08-23T07:22:29.000Z</time>
      </trkpt>
      <trkpt lat="47.2439" lon="-2.30574">
        <ele>23.799999237061</ele>
        <time>2020-08-23T07:22:30.000Z</time>
      </trkpt>
      <trkpt lat="47.24385" lon="-2.30571">
        <ele>23.799999237061</ele>
        <time>2020-08-23T07:22:31.000Z</time>
      </trkpt>
      <trkpt lat="47.24376" lon="-2.30563">
        <ele>23.799999237061</ele>
        <time>2020-08-23T07:22:33.000Z</time>
      </trkpt>
      <trkpt lat="47.24373" lon="-2.30556">
        <ele>23.799999237061</ele>
        <time>2020-08-23T07:22:35.000Z</time>
      </trkpt>
      <trkpt lat="47.2437" lon="-2.30549">
        <ele>23.39999961853</ele>
        <time>2020-08-23T07:22:38.000Z</time>
      </trkpt>
      <trkpt lat="47.24369" lon="-2.30547">
        <ele>22.60000038147</ele>
        <time>2020-08-23T07:22:39.000Z</time>
      </trkpt>
      <trkpt lat="47.24368" lon="-2.30545">
        <ele>22.200000762939</ele>
        <time>2020-08-23T07:22:40.000Z</time>
      </trkpt>
      <trkpt lat="47.24368" lon="-2.30542">
        <ele>21.799999237061</ele>
        <time>2020-08-23T07:22:41.000Z</time>
      </trkpt>
      <trkpt lat="47.24365" lon="-2.3053">
        <ele>21.799999237061</ele>
        <time>2020-08-23T07:22:46.000Z</time>
      </trkpt>
      <trkpt lat="47.24365" lon="-2.30515">
        <ele>22.200000762939</ele>
        <time>2020-08-23T07:22:50.000Z</time>
      </trkpt>
      <trkpt lat="47.24365" lon="-2.30512">
        <ele>22.60000038147</ele>
        <time>2020-08-23T07:22:51.000Z</time>
      </trkpt>
      <trkpt lat="47.24365" lon="-2.30509">
        <ele>23</ele>
        <time>2020-08-23T07:22:52.000Z</time>
      </trkpt>
      <trkpt lat="47.24366" lon="-2.30506">
        <ele>23.39999961853</ele>
        <time>2020-08-23T07:22:53.000Z</time>
      </trkpt>
      <trkpt lat="47.24367" lon="-2.30501">
        <ele>23.799999237061</ele>
        <time>2020-08-23T07:22:54.000Z</time>
      </trkpt>
      <trkpt lat="47.24372" lon="-2.30488">
        <ele>24.200000762939</ele>
        <time>2020-08-23T07:22:57.000Z</time>
      </trkpt>
      <trkpt lat="47.24373" lon="-2.30484">
        <ele>24.799999237061</ele>
        <time>2020-08-23T07:22:58.000Z</time>
      </trkpt>
      <trkpt lat="47.24374" lon="-2.30479">
        <ele>25.200000762939</ele>
        <time>2020-08-23T07:22:59.000Z</time>
      </trkpt>
      <trkpt lat="47.24375" lon="-2.30474">
        <ele>25.60000038147</ele>
        <time>2020-08-23T07:23:00.000Z</time>
      </trkpt>
      <trkpt lat="47.24376" lon="-2.30468">
        <ele>26.200000762939</ele>
        <time>2020-08-23T07:23:01.000Z</time>
      </trkpt>
      <trkpt lat="47.24377" lon="-2.30459">
        <ele>26.200000762939</ele>
        <time>2020-08-23T07:23:03.000Z</time>
      </trkpt>
      <trkpt lat="47.24377" lon="-2.30455">
        <ele>26.60000038147</ele>
        <time>2020-08-23T07:23:04.000Z</time>
      </trkpt>
      <trkpt lat="47.24377" lon="-2.30452">
        <ele>27</ele>
        <time>2020-08-23T07:23:05.000Z</time>
      </trkpt>
      <trkpt lat="47.24376" lon="-2.30449">
        <ele>27.39999961853</ele>
        <time>2020-08-23T07:23:06.000Z</time>
      </trkpt>
      <trkpt lat="47.24374" lon="-2.30446">
        <ele>27.799999237061</ele>
        <time>2020-08-23T07:23:07.000Z</time>
      </trkpt>
      <trkpt lat="47.24372" lon="-2.30446">
        <ele>28.200000762939</ele>
        <time>2020-08-23T07:23:08.000Z</time>
      </trkpt>
      <trkpt lat="47.24364" lon="-2.30448">
        <ele>28.200000762939</ele>
        <time>2020-08-23T07:23:11.000Z</time>
      </trkpt>
      <trkpt lat="47.24349" lon="-2.30445">
        <ele>28.200000762939</ele>
        <time>2020-08-23T07:23:15.000Z</time>
      </trkpt>
      <trkpt lat="47.24343" lon="-2.30442">
        <ele>28.200000762939</ele>
        <time>2020-08-23T07:23:17.000Z</time>
      </trkpt>
      <trkpt lat="47.24336" lon="-2.30439">
        <ele>28.60000038147</ele>
        <time>2020-08-23T07:23:19.000Z</time>
      </trkpt>
      <trkpt lat="47.24333" lon="-2.30437">
        <ele>29.200000762939</ele>
        <time>2020-08-23T07:23:20.000Z</time>
      </trkpt>
      <trkpt lat="47.2433" lon="-2.30435">
        <ele>29.60000038147</ele>
        <time>2020-08-23T07:23:21.000Z</time>
      </trkpt>
      <trkpt lat="47.24326" lon="-2.30433">
        <ele>30</ele>
        <time>2020-08-23T07:23:22.000Z</time>
      </trkpt>
      <trkpt lat="47.24323" lon="-2.30432">
        <ele>30.39999961853</ele>
        <time>2020-08-23T07:23:23.000Z</time>
      </trkpt>
      <trkpt lat="47.24314" lon="-2.30426">
        <ele>30.39999961853</ele>
        <time>2020-08-23T07:23:27.000Z</time>
      </trkpt>
      <trkpt lat="47.243" lon="-2.30418">
        <ele>30.39999961853</ele>
        <time>2020-08-23T07:23:32.000Z</time>
      </trkpt>
      <trkpt lat="47.24279" lon="-2.30399">
        <ele>30.39999961853</ele>
        <time>2020-08-23T07:23:39.000Z</time>
      </trkpt>
      <trkpt lat="47.24276" lon="-2.30394">
        <ele>30.39999961853</ele>
        <time>2020-08-23T07:23:40.000Z</time>
      </trkpt>
      <trkpt lat="47.24261" lon="-2.30371">
        <ele>30.39999961853</ele>
        <time>2020-08-23T07:23:46.000Z</time>
      </trkpt>
      <trkpt lat="47.24251" lon="-2.30353">
        <ele>30.39999961853</ele>
        <time>2020-08-23T07:23:53.000Z</time>
      </trkpt>
      <trkpt lat="47.24241" lon="-2.30334">
        <ele>30.39999961853</ele>
        <time>2020-08-23T07:23:58.000Z</time>
      </trkpt>
      <trkpt lat="47.24229" lon="-2.30323">
        <ele>30.39999961853</ele>
        <time>2020-08-23T07:24:03.000Z</time>
      </trkpt>
      <trkpt lat="47.24215" lon="-2.30332">
        <ele>30.39999961853</ele>
        <time>2020-08-23T07:24:07.000Z</time>
      </trkpt>
      <trkpt lat="47.24205" lon="-2.30329">
        <ele>30</ele>
        <time>2020-08-23T07:24:10.000Z</time>
      </trkpt>
      <trkpt lat="47.24204" lon="-2.30325">
        <ele>29.60000038147</ele>
        <time>2020-08-23T07:24:11.000Z</time>
      </trkpt>
      <trkpt lat="47.24203" lon="-2.3032">
        <ele>29.200000762939</ele>
        <time>2020-08-23T07:24:12.000Z</time>
      </trkpt>
      <trkpt lat="47.24202" lon="-2.30314">
        <ele>28.60000038147</ele>
        <time>2020-08-23T07:24:13.000Z</time>
      </trkpt>
      <trkpt lat="47.242" lon="-2.30306">
        <ele>28.200000762939</ele>
        <time>2020-08-23T07:24:14.000Z</time>
      </trkpt>
      <trkpt lat="47.24198" lon="-2.30298">
        <ele>28.200000762939</ele>
        <time>2020-08-23T07:24:15.000Z</time>
      </trkpt>
      <trkpt lat="47.24195" lon="-2.30278">
        <ele>28.200000762939</ele>
        <time>2020-08-23T07:24:18.000Z</time>
      </trkpt>
      <trkpt lat="47.24194" lon="-2.30271">
        <ele>28.200000762939</ele>
        <time>2020-08-23T07:24:19.000Z</time>
      </trkpt>
      <trkpt lat="47.24192" lon="-2.30257">
        <ele>27.799999237061</ele>
        <time>2020-08-23T07:24:21.000Z</time>
      </trkpt>
      <trkpt lat="47.24191" lon="-2.30252">
        <ele>27.39999961853</ele>
        <time>2020-08-23T07:24:22.000Z</time>
      </trkpt>
      <trkpt lat="47.2419" lon="-2.30247">
        <ele>27</ele>
        <time>2020-08-23T07:24:23.000Z</time>
      </trkpt>
      <trkpt lat="47.24189" lon="-2.30242">
        <ele>26.60000038147</ele>
        <time>2020-08-23T07:24:24.000Z</time>
      </trkpt>
      <trkpt lat="47.24186" lon="-2.3024">
        <ele>26.200000762939</ele>
        <time>2020-08-23T07:24:25.000Z</time>
      </trkpt>
      <trkpt lat="47.24179" lon="-2.30244">
        <ele>26.200000762939</ele>
        <time>2020-08-23T07:24:28.000Z</time>
      </trkpt>
      <trkpt lat="47.24168" lon="-2.30243">
        <ele>26.200000762939</ele>
        <time>2020-08-23T07:24:31.000Z</time>
      </trkpt>
      <trkpt lat="47.24165" lon="-2.30239">
        <ele>26.200000762939</ele>
        <time>2020-08-23T07:24:32.000Z</time>
      </trkpt>
      <trkpt lat="47.24157" lon="-2.30223">
        <ele>26.200000762939</ele>
        <time>2020-08-23T07:24:35.000Z</time>
      </trkpt>
      <trkpt lat="47.24154" lon="-2.30213">
        <ele>26.200000762939</ele>
        <time>2020-08-23T07:24:37.000Z</time>
      </trkpt>
      <trkpt lat="47.24149" lon="-2.302">
        <ele>26.200000762939</ele>
        <time>2020-08-23T07:24:41.000Z</time>
      </trkpt>
      <trkpt lat="47.24147" lon="-2.30193">
        <ele>26.60000038147</ele>
        <time>2020-08-23T07:24:44.000Z</time>
      </trkpt>
      <trkpt lat="47.24147" lon="-2.30191">
        <ele>27</ele>
        <time>2020-08-23T07:24:45.000Z</time>
      </trkpt>
      <trkpt lat="47.24146" lon="-2.30189">
        <ele>27.39999961853</ele>
        <time>2020-08-23T07:24:46.000Z</time>
      </trkpt>
      <trkpt lat="47.24146" lon="-2.30187">
        <ele>27.799999237061</ele>
        <time>2020-08-23T07:24:47.000Z</time>
      </trkpt>
      <trkpt lat="47.24145" lon="-2.30185">
        <ele>28.200000762939</ele>
        <time>2020-08-23T07:24:48.000Z</time>
      </trkpt>
      <trkpt lat="47.24141" lon="-2.30175">
        <ele>28.200000762939</ele>
        <time>2020-08-23T07:24:54.000Z</time>
      </trkpt>
      <trkpt lat="47.24137" lon="-2.30158">
        <ele>28.200000762939</ele>
        <time>2020-08-23T07:25:02.000Z</time>
      </trkpt>
      <trkpt lat="47.24138" lon="-2.30148">
        <ele>28.200000762939</ele>
        <time>2020-08-23T07:25:06.000Z</time>
      </trkpt>
      <trkpt lat="47.24139" lon="-2.30145">
        <ele>29.200000762939</ele>
        <time>2020-08-23T07:25:07.000Z</time>
      </trkpt>
      <trkpt lat="47.24139" lon="-2.30143">
        <ele>29.60000038147</ele>
        <time>2020-08-23T07:25:08.000Z</time>
      </trkpt>
      <trkpt lat="47.2414" lon="-2.3014">
        <ele>30</ele>
        <time>2020-08-23T07:25:09.000Z</time>
      </trkpt>
      <trkpt lat="47.24141" lon="-2.30137">
        <ele>30.39999961853</ele>
        <time>2020-08-23T07:25:10.000Z</time>
      </trkpt>
      <trkpt lat="47.24142" lon="-2.30133">
        <ele>30.39999961853</ele>
        <time>2020-08-23T07:25:11.000Z</time>
      </trkpt>
      <trkpt lat="47.24146" lon="-2.3011">
        <ele>30.39999961853</ele>
        <time>2020-08-23T07:25:18.000Z</time>
      </trkpt>
      <trkpt lat="47.24146" lon="-2.30094">
        <ele>30.799999237061</ele>
        <time>2020-08-23T07:25:23.000Z</time>
      </trkpt>
      <trkpt lat="47.24146" lon="-2.30092">
        <ele>31.200000762939</ele>
        <time>2020-08-23T07:25:24.000Z</time>
      </trkpt>
      <trkpt lat="47.24145" lon="-2.3009">
        <ele>31.60000038147</ele>
        <time>2020-08-23T07:25:25.000Z</time>
      </trkpt>
      <trkpt lat="47.24144" lon="-2.30087">
        <ele>32</ele>
        <time>2020-08-23T07:25:26.000Z</time>
      </trkpt>
      <trkpt lat="47.24144" lon="-2.30085">
        <ele>32.599998474121</ele>
        <time>2020-08-23T07:25:27.000Z</time>
      </trkpt>
      <trkpt lat="47.2414" lon="-2.30074">
        <ele>32.599998474121</ele>
        <time>2020-08-23T07:25:31.000Z</time>
      </trkpt>
      <trkpt lat="47.2414" lon="-2.3006">
        <ele>33</ele>
        <time>2020-08-23T07:25:35.000Z</time>
      </trkpt>
      <trkpt lat="47.2414" lon="-2.30056">
        <ele>33.400001525879</ele>
        <time>2020-08-23T07:25:36.000Z</time>
      </trkpt>
      <trkpt lat="47.2414" lon="-2.30053">
        <ele>34</ele>
        <time>2020-08-23T07:25:37.000Z</time>
      </trkpt>
      <trkpt lat="47.2414" lon="-2.30051">
        <ele>34.400001525879</ele>
        <time>2020-08-23T07:25:38.000Z</time>
      </trkpt>
      <trkpt lat="47.24139" lon="-2.30049">
        <ele>34.799999237061</ele>
        <time>2020-08-23T07:25:39.000Z</time>
      </trkpt>
      <trkpt lat="47.24137" lon="-2.30043">
        <ele>34.799999237061</ele>
        <time>2020-08-23T07:25:41.000Z</time>
      </trkpt>
      <trkpt lat="47.24135" lon="-2.30037">
        <ele>34.799999237061</ele>
        <time>2020-08-23T07:25:43.000Z</time>
      </trkpt>
      <trkpt lat="47.24136" lon="-2.3003">
        <ele>34.799999237061</ele>
        <time>2020-08-23T07:25:45.000Z</time>
      </trkpt>
      <trkpt lat="47.24138" lon="-2.30022">
        <ele>34.799999237061</ele>
        <time>2020-08-23T07:25:49.000Z</time>
      </trkpt>
      <trkpt lat="47.2414" lon="-2.3002">
        <ele>34.799999237061</ele>
        <time>2020-08-23T07:25:52.000Z</time>
      </trkpt>
      <trkpt lat="47.24145" lon="-2.30018">
        <ele>34.799999237061</ele>
        <time>2020-08-23T07:25:56.000Z</time>
      </trkpt>
      <trkpt lat="47.24148" lon="-2.30018">
        <ele>34.799999237061</ele>
        <time>2020-08-23T07:25:59.000Z</time>
      </trkpt>
      <trkpt lat="47.2416" lon="-2.30015">
        <ele>34.799999237061</ele>
        <time>2020-08-23T07:26:06.000Z</time>
      </trkpt>
      <trkpt lat="47.24162" lon="-2.30012">
        <ele>34.799999237061</ele>
        <time>2020-08-23T07:26:07.000Z</time>
      </trkpt>
      <trkpt lat="47.24164" lon="-2.30006">
        <ele>34.799999237061</ele>
        <time>2020-08-23T07:26:09.000Z</time>
      </trkpt>
      <trkpt lat="47.24166" lon="-2.29999">
        <ele>34.799999237061</ele>
        <time>2020-08-23T07:26:11.000Z</time>
      </trkpt>
      <trkpt lat="47.24166" lon="-2.29983">
        <ele>34.799999237061</ele>
        <time>2020-08-23T07:26:16.000Z</time>
      </trkpt>
      <trkpt lat="47.24166" lon="-2.29982">
        <ele>35.400001525879</ele>
        <time>2020-08-23T07:26:17.000Z</time>
      </trkpt>
      <trkpt lat="47.24166" lon="-2.29981">
        <ele>35.799999237061</ele>
        <time>2020-08-23T07:26:18.000Z</time>
      </trkpt>
      <trkpt lat="47.24166" lon="-2.29981">
        <ele>36.200000762939</ele>
        <time>2020-08-23T07:26:19.000Z</time>
      </trkpt>
      <trkpt lat="47.24163" lon="-2.29977">
        <ele>37</ele>
        <time>2020-08-23T07:27:40.000Z</time>
      </trkpt>
      <trkpt lat="47.24163" lon="-2.29975">
        <ele>37</ele>
        <time>2020-08-23T07:27:41.000Z</time>
      </trkpt>
      <trkpt lat="47.24164" lon="-2.29958">
        <ele>37</ele>
        <time>2020-08-23T07:27:46.000Z</time>
      </trkpt>
      <trkpt lat="47.24166" lon="-2.29939">
        <ele>37</ele>
        <time>2020-08-23T07:27:50.000Z</time>
      </trkpt>
      <trkpt lat="47.24172" lon="-2.29919">
        <ele>37</ele>
        <time>2020-08-23T07:27:55.000Z</time>
      </trkpt>
      <trkpt lat="47.24175" lon="-2.29907">
        <ele>37</ele>
        <time>2020-08-23T07:27:59.000Z</time>
      </trkpt>
      <trkpt lat="47.24176" lon="-2.29904">
        <ele>37</ele>
        <time>2020-08-23T07:28:01.000Z</time>
      </trkpt>
      <trkpt lat="47.24178" lon="-2.29892">
        <ele>37</ele>
        <time>2020-08-23T07:28:05.000Z</time>
      </trkpt>
      <trkpt lat="47.24178" lon="-2.29885">
        <ele>37</ele>
        <time>2020-08-23T07:28:07.000Z</time>
      </trkpt>
      <trkpt lat="47.24178" lon="-2.29866">
        <ele>37</ele>
        <time>2020-08-23T07:28:13.000Z</time>
      </trkpt>
      <trkpt lat="47.24182" lon="-2.29843">
        <ele>37</ele>
        <time>2020-08-23T07:28:18.000Z</time>
      </trkpt>
      <trkpt lat="47.24178" lon="-2.29834">
        <ele>37</ele>
        <time>2020-08-23T07:28:21.000Z</time>
      </trkpt>
      <trkpt lat="47.24176" lon="-2.29833">
        <ele>37</ele>
        <time>2020-08-23T07:28:22.000Z</time>
      </trkpt>
      <trkpt lat="47.24154" lon="-2.29829">
        <ele>37</ele>
        <time>2020-08-23T07:28:28.000Z</time>
      </trkpt>
      <trkpt lat="47.24124" lon="-2.29844">
        <ele>37</ele>
        <time>2020-08-23T07:28:33.000Z</time>
      </trkpt>
      <trkpt lat="47.24097" lon="-2.29844">
        <ele>37</ele>
        <time>2020-08-23T07:28:39.000Z</time>
      </trkpt>
      <trkpt lat="47.24091" lon="-2.29839">
        <ele>37</ele>
        <time>2020-08-23T07:28:42.000Z</time>
      </trkpt>
      <trkpt lat="47.2409" lon="-2.29834">
        <ele>37</ele>
        <time>2020-08-23T07:28:43.000Z</time>
      </trkpt>
      <trkpt lat="47.24085" lon="-2.29808">
        <ele>37</ele>
        <time>2020-08-23T07:28:48.000Z</time>
      </trkpt>
      <trkpt lat="47.24078" lon="-2.29798">
        <ele>37</ele>
        <time>2020-08-23T07:28:51.000Z</time>
      </trkpt>
      <trkpt lat="47.24075" lon="-2.29798">
        <ele>37</ele>
        <time>2020-08-23T07:28:52.000Z</time>
      </trkpt>
      <trkpt lat="47.24059" lon="-2.29799">
        <ele>37</ele>
        <time>2020-08-23T07:28:57.000Z</time>
      </trkpt>
      <trkpt lat="47.24035" lon="-2.298">
        <ele>37</ele>
        <time>2020-08-23T07:29:03.000Z</time>
      </trkpt>
      <trkpt lat="47.2403" lon="-2.29802">
        <ele>37</ele>
        <time>2020-08-23T07:29:05.000Z</time>
      </trkpt>
      <trkpt lat="47.24024" lon="-2.29801">
        <ele>37</ele>
        <time>2020-08-23T07:29:07.000Z</time>
      </trkpt>
      <trkpt lat="47.24019" lon="-2.29789">
        <ele>37.400001525879</ele>
        <time>2020-08-23T07:29:10.000Z</time>
      </trkpt>
      <trkpt lat="47.24017" lon="-2.29782">
        <ele>37.799999237061</ele>
        <time>2020-08-23T07:29:11.000Z</time>
      </trkpt>
      <trkpt lat="47.24015" lon="-2.29776">
        <ele>38.200000762939</ele>
        <time>2020-08-23T07:29:12.000Z</time>
      </trkpt>
      <trkpt lat="47.24014" lon="-2.29768">
        <ele>38.599998474121</ele>
        <time>2020-08-23T07:29:13.000Z</time>
      </trkpt>
      <trkpt lat="47.24013" lon="-2.2976">
        <ele>39</ele>
        <time>2020-08-23T07:29:14.000Z</time>
      </trkpt>
      <trkpt lat="47.24012" lon="-2.29744">
        <ele>39</ele>
        <time>2020-08-23T07:29:16.000Z</time>
      </trkpt>
      <trkpt lat="47.24009" lon="-2.29685">
        <ele>39</ele>
        <time>2020-08-23T07:29:24.000Z</time>
      </trkpt>
      <trkpt lat="47.24006" lon="-2.29645">
        <ele>39</ele>
        <time>2020-08-23T07:29:29.000Z</time>
      </trkpt>
      <trkpt lat="47.24005" lon="-2.29637">
        <ele>39</ele>
        <time>2020-08-23T07:29:30.000Z</time>
      </trkpt>
      <trkpt lat="47.24003" lon="-2.29588">
        <ele>39</ele>
        <time>2020-08-23T07:29:36.000Z</time>
      </trkpt>
      <trkpt lat="47.23999" lon="-2.29539">
        <ele>39</ele>
        <time>2020-08-23T07:29:42.000Z</time>
      </trkpt>
      <trkpt lat="47.23992" lon="-2.29488">
        <ele>39</ele>
        <time>2020-08-23T07:29:49.000Z</time>
      </trkpt>
      <trkpt lat="47.23975" lon="-2.29455">
        <ele>39</ele>
        <time>2020-08-23T07:29:54.000Z</time>
      </trkpt>
      <trkpt lat="47.23954" lon="-2.29416">
        <ele>39</ele>
        <time>2020-08-23T07:30:00.000Z</time>
      </trkpt>
      <trkpt lat="47.23927" lon="-2.29365">
        <ele>39</ele>
        <time>2020-08-23T07:30:08.000Z</time>
      </trkpt>
      <trkpt lat="47.23911" lon="-2.29335">
        <ele>38.599998474121</ele>
        <time>2020-08-23T07:30:13.000Z</time>
      </trkpt>
      <trkpt lat="47.23908" lon="-2.29331">
        <ele>38.200000762939</ele>
        <time>2020-08-23T07:30:14.000Z</time>
      </trkpt>
      <trkpt lat="47.23903" lon="-2.29331">
        <ele>37.799999237061</ele>
        <time>2020-08-23T07:30:15.000Z</time>
      </trkpt>
      <trkpt lat="47.23898" lon="-2.29331">
        <ele>37.400001525879</ele>
        <time>2020-08-23T07:30:16.000Z</time>
      </trkpt>
      <trkpt lat="47.23893" lon="-2.29331">
        <ele>37</ele>
        <time>2020-08-23T07:30:17.000Z</time>
      </trkpt>
      <trkpt lat="47.23873" lon="-2.29336">
        <ele>37</ele>
        <time>2020-08-23T07:30:21.000Z</time>
      </trkpt>
      <trkpt lat="47.23865" lon="-2.29346">
        <ele>37</ele>
        <time>2020-08-23T07:30:23.000Z</time>
      </trkpt>
      <trkpt lat="47.2386" lon="-2.29359">
        <ele>37</ele>
        <time>2020-08-23T07:30:25.000Z</time>
      </trkpt>
      <trkpt lat="47.2385" lon="-2.2938">
        <ele>37</ele>
        <time>2020-08-23T07:30:28.000Z</time>
      </trkpt>
      <trkpt lat="47.23828" lon="-2.29428">
        <ele>37</ele>
        <time>2020-08-23T07:30:35.000Z</time>
      </trkpt>
      <trkpt lat="47.23824" lon="-2.29441">
        <ele>37</ele>
        <time>2020-08-23T07:30:38.000Z</time>
      </trkpt>
      <trkpt lat="47.23823" lon="-2.29445">
        <ele>37</ele>
        <time>2020-08-23T07:30:39.000Z</time>
      </trkpt>
      <trkpt lat="47.23823" lon="-2.29471">
        <ele>37</ele>
        <time>2020-08-23T07:30:43.000Z</time>
      </trkpt>
      <trkpt lat="47.23823" lon="-2.29509">
        <ele>37</ele>
        <time>2020-08-23T07:30:48.000Z</time>
      </trkpt>
      <trkpt lat="47.23823" lon="-2.29517">
        <ele>37</ele>
        <time>2020-08-23T07:30:49.000Z</time>
      </trkpt>
      <trkpt lat="47.23823" lon="-2.29537">
        <ele>37</ele>
        <time>2020-08-23T07:30:52.000Z</time>
      </trkpt>
      <trkpt lat="47.23822" lon="-2.29565">
        <ele>37</ele>
        <time>2020-08-23T07:30:56.000Z</time>
      </trkpt>
      <trkpt lat="47.23822" lon="-2.29614">
        <ele>37</ele>
        <time>2020-08-23T07:31:03.000Z</time>
      </trkpt>
      <trkpt lat="47.23821" lon="-2.29665">
        <ele>37</ele>
        <time>2020-08-23T07:31:10.000Z</time>
      </trkpt>
      <trkpt lat="47.23815" lon="-2.29708">
        <ele>37</ele>
        <time>2020-08-23T07:31:15.000Z</time>
      </trkpt>
      <trkpt lat="47.23813" lon="-2.29717">
        <ele>37</ele>
        <time>2020-08-23T07:31:16.000Z</time>
      </trkpt>
      <trkpt lat="47.23813" lon="-2.29725">
        <ele>37</ele>
        <time>2020-08-23T07:31:17.000Z</time>
      </trkpt>
      <trkpt lat="47.23812" lon="-2.29757">
        <ele>37</ele>
        <time>2020-08-23T07:31:21.000Z</time>
      </trkpt>
      <trkpt lat="47.23809" lon="-2.2982">
        <ele>37</ele>
        <time>2020-08-23T07:31:29.000Z</time>
      </trkpt>
      <trkpt lat="47.23814" lon="-2.29869">
        <ele>37</ele>
        <time>2020-08-23T07:31:35.000Z</time>
      </trkpt>
      <trkpt lat="47.23828" lon="-2.29943">
        <ele>37</ele>
        <time>2020-08-23T07:31:44.000Z</time>
      </trkpt>
      <trkpt lat="47.23835" lon="-2.29975">
        <ele>37</ele>
        <time>2020-08-23T07:31:48.000Z</time>
      </trkpt>
      <trkpt lat="47.23838" lon="-2.29992">
        <ele>37</ele>
        <time>2020-08-23T07:31:50.000Z</time>
      </trkpt>
      <trkpt lat="47.23846" lon="-2.30039">
        <ele>36.599998474121</ele>
        <time>2020-08-23T07:31:56.000Z</time>
      </trkpt>
      <trkpt lat="47.23848" lon="-2.30046">
        <ele>36</ele>
        <time>2020-08-23T07:31:57.000Z</time>
      </trkpt>
      <trkpt lat="47.2385" lon="-2.30053">
        <ele>35.599998474121</ele>
        <time>2020-08-23T07:31:58.000Z</time>
      </trkpt>
      <trkpt lat="47.23852" lon="-2.30058">
        <ele>35</ele>
        <time>2020-08-23T07:31:59.000Z</time>
      </trkpt>
      <trkpt lat="47.23856" lon="-2.30062">
        <ele>34.599998474121</ele>
        <time>2020-08-23T07:32:00.000Z</time>
      </trkpt>
      <trkpt lat="47.23861" lon="-2.30065">
        <ele>34.599998474121</ele>
        <time>2020-08-23T07:32:01.000Z</time>
      </trkpt>
      <trkpt lat="47.23865" lon="-2.30067">
        <ele>34.599998474121</ele>
        <time>2020-08-23T07:32:02.000Z</time>
      </trkpt>
      <trkpt lat="47.2387" lon="-2.3007">
        <ele>34.200000762939</ele>
        <time>2020-08-23T07:32:03.000Z</time>
      </trkpt>
      <trkpt lat="47.23875" lon="-2.30073">
        <ele>33.799999237061</ele>
        <time>2020-08-23T07:32:04.000Z</time>
      </trkpt>
      <trkpt lat="47.2388" lon="-2.30075">
        <ele>33.400001525879</ele>
        <time>2020-08-23T07:32:05.000Z</time>
      </trkpt>
      <trkpt lat="47.23884" lon="-2.30079">
        <ele>32.599998474121</ele>
        <time>2020-08-23T07:32:06.000Z</time>
      </trkpt>
      <trkpt lat="47.23888" lon="-2.30081">
        <ele>32.599998474121</ele>
        <time>2020-08-23T07:32:07.000Z</time>
      </trkpt>
      <trkpt lat="47.23895" lon="-2.30084">
        <ele>32.599998474121</ele>
        <time>2020-08-23T07:32:10.000Z</time>
      </trkpt>
      <trkpt lat="47.23898" lon="-2.30086">
        <ele>32.599998474121</ele>
        <time>2020-08-23T07:32:12.000Z</time>
      </trkpt>
      <trkpt lat="47.23901" lon="-2.30089">
        <ele>32.599998474121</ele>
        <time>2020-08-23T07:32:15.000Z</time>
      </trkpt>
      <trkpt lat="47.23903" lon="-2.30093">
        <ele>32.599998474121</ele>
        <time>2020-08-23T07:32:17.000Z</time>
      </trkpt>
      <trkpt lat="47.23901" lon="-2.301">
        <ele>32.599998474121</ele>
        <time>2020-08-23T07:32:20.000Z</time>
      </trkpt>
      <trkpt lat="47.23904" lon="-2.30107">
        <ele>32.599998474121</ele>
        <time>2020-08-23T07:32:23.000Z</time>
      </trkpt>
      <trkpt lat="47.23906" lon="-2.3011">
        <ele>32.599998474121</ele>
        <time>2020-08-23T07:32:24.000Z</time>
      </trkpt>
      <trkpt lat="47.23915" lon="-2.30116">
        <ele>32.599998474121</ele>
        <time>2020-08-23T07:32:28.000Z</time>
      </trkpt>
      <trkpt lat="47.23918" lon="-2.30118">
        <ele>32.599998474121</ele>
        <time>2020-08-23T07:32:30.000Z</time>
      </trkpt>
      <trkpt lat="47.23931" lon="-2.3013">
        <ele>32.599998474121</ele>
        <time>2020-08-23T07:32:35.000Z</time>
      </trkpt>
      <trkpt lat="47.23946" lon="-2.30132">
        <ele>32.599998474121</ele>
        <time>2020-08-23T07:32:40.000Z</time>
      </trkpt>
      <trkpt lat="47.23963" lon="-2.30141">
        <ele>32.599998474121</ele>
        <time>2020-08-23T07:32:45.000Z</time>
      </trkpt>
      <trkpt lat="47.23972" lon="-2.30145">
        <ele>33</ele>
        <time>2020-08-23T07:32:48.000Z</time>
      </trkpt>
      <trkpt lat="47.23975" lon="-2.30146">
        <ele>33.400001525879</ele>
        <time>2020-08-23T07:32:49.000Z</time>
      </trkpt>
      <trkpt lat="47.23979" lon="-2.30147">
        <ele>33.799999237061</ele>
        <time>2020-08-23T07:32:50.000Z</time>
      </trkpt>
      <trkpt lat="47.23982" lon="-2.30149">
        <ele>34.200000762939</ele>
        <time>2020-08-23T07:32:51.000Z</time>
      </trkpt>
      <trkpt lat="47.23986" lon="-2.3015">
        <ele>34.599998474121</ele>
        <time>2020-08-23T07:32:52.000Z</time>
      </trkpt>
      <trkpt lat="47.24003" lon="-2.3016">
        <ele>34.599998474121</ele>
        <time>2020-08-23T07:32:57.000Z</time>
      </trkpt>
      <trkpt lat="47.24024" lon="-2.30177">
        <ele>34.599998474121</ele>
        <time>2020-08-23T07:33:03.000Z</time>
      </trkpt>
      <trkpt lat="47.24043" lon="-2.30179">
        <ele>34.599998474121</ele>
        <time>2020-08-23T07:33:06.000Z</time>
      </trkpt>
      <trkpt lat="47.24048" lon="-2.30178">
        <ele>34.599998474121</ele>
        <time>2020-08-23T07:33:07.000Z</time>
      </trkpt>
      <trkpt lat="47.24061" lon="-2.30173">
        <ele>34.599998474121</ele>
        <time>2020-08-23T07:33:10.000Z</time>
      </trkpt>
      <trkpt lat="47.24072" lon="-2.30172">
        <ele>34.599998474121</ele>
        <time>2020-08-23T07:33:13.000Z</time>
      </trkpt>
      <trkpt lat="47.24077" lon="-2.30168">
        <ele>34.599998474121</ele>
        <time>2020-08-23T07:33:15.000Z</time>
      </trkpt>
      <trkpt lat="47.24083" lon="-2.30162">
        <ele>34.599998474121</ele>
        <time>2020-08-23T07:33:17.000Z</time>
      </trkpt>
      <trkpt lat="47.24093" lon="-2.30162">
        <ele>34.599998474121</ele>
        <time>2020-08-23T07:33:20.000Z</time>
      </trkpt>
      <trkpt lat="47.24097" lon="-2.30163">
        <ele>34.599998474121</ele>
        <time>2020-08-23T07:33:21.000Z</time>
      </trkpt>
      <trkpt lat="47.24114" lon="-2.30165">
        <ele>34.599998474121</ele>
        <time>2020-08-23T07:33:26.000Z</time>
      </trkpt>
      <trkpt lat="47.24121" lon="-2.30164">
        <ele>34.200000762939</ele>
        <time>2020-08-23T07:33:28.000Z</time>
      </trkpt>
      <trkpt lat="47.24124" lon="-2.30164">
        <ele>33.799999237061</ele>
        <time>2020-08-23T07:33:29.000Z</time>
      </trkpt>
      <trkpt lat="47.24126" lon="-2.30164">
        <ele>33.400001525879</ele>
        <time>2020-08-23T07:33:30.000Z</time>
      </trkpt>
      <trkpt lat="47.24129" lon="-2.30163">
        <ele>33</ele>
        <time>2020-08-23T07:33:31.000Z</time>
      </trkpt>
      <trkpt lat="47.2413" lon="-2.30161">
        <ele>32.400001525879</ele>
        <time>2020-08-23T07:33:32.000Z</time>
      </trkpt>
      <trkpt lat="47.24132" lon="-2.30157">
        <ele>31.799999237061</ele>
        <time>2020-08-23T07:33:33.000Z</time>
      </trkpt>
      <trkpt lat="47.24133" lon="-2.30154">
        <ele>31.200000762939</ele>
        <time>2020-08-23T07:33:34.000Z</time>
      </trkpt>
      <trkpt lat="47.24132" lon="-2.30149">
        <ele>30.60000038147</ele>
        <time>2020-08-23T07:33:35.000Z</time>
      </trkpt>
      <trkpt lat="47.24132" lon="-2.30146">
        <ele>30.200000762939</ele>
        <time>2020-08-23T07:33:36.000Z</time>
      </trkpt>
      <trkpt lat="47.24131" lon="-2.3014">
        <ele>30.200000762939</ele>
        <time>2020-08-23T07:33:38.000Z</time>
      </trkpt>
      <trkpt lat="47.24127" lon="-2.30135">
        <ele>30.60000038147</ele>
        <time>2020-08-23T07:33:44.000Z</time>
      </trkpt>
      <trkpt lat="47.24127" lon="-2.30135">
        <ele>31</ele>
        <time>2020-08-23T07:33:45.000Z</time>
      </trkpt>
      <trkpt lat="47.24126" lon="-2.30137">
        <ele>32</ele>
        <time>2020-08-23T07:33:46.000Z</time>
      </trkpt>
      <trkpt lat="47.24126" lon="-2.30138">
        <ele>32.400001525879</ele>
        <time>2020-08-23T07:33:47.000Z</time>
      </trkpt>
      <trkpt lat="47.24124" lon="-2.30145">
        <ele>32.400001525879</ele>
        <time>2020-08-23T07:33:49.000Z</time>
      </trkpt>
      <trkpt lat="47.24124" lon="-2.30149">
        <ele>32.400001525879</ele>
        <time>2020-08-23T07:33:51.000Z</time>
      </trkpt>
      <trkpt lat="47.24125" lon="-2.30151">
        <ele>32.400001525879</ele>
        <time>2020-08-23T07:33:53.000Z</time>
      </trkpt>
      <trkpt lat="47.2413" lon="-2.30157">
        <ele>32.400001525879</ele>
        <time>2020-08-23T07:33:56.000Z</time>
      </trkpt>
      <trkpt lat="47.24132" lon="-2.30157">
        <ele>32</ele>
        <time>2020-08-23T07:33:57.000Z</time>
      </trkpt>
      <trkpt lat="47.24134" lon="-2.30156">
        <ele>31.39999961853</ele>
        <time>2020-08-23T07:33:58.000Z</time>
      </trkpt>
      <trkpt lat="47.24134" lon="-2.30155">
        <ele>31</ele>
        <time>2020-08-23T07:33:59.000Z</time>
      </trkpt>
      <trkpt lat="47.24135" lon="-2.30153">
        <ele>30.60000038147</ele>
        <time>2020-08-23T07:34:00.000Z</time>
      </trkpt>
      <trkpt lat="47.24135" lon="-2.30152">
        <ele>30</ele>
        <time>2020-08-23T07:34:01.000Z</time>
      </trkpt>
      <trkpt lat="47.24136" lon="-2.30143">
        <ele>30</ele>
        <time>2020-08-23T07:34:06.000Z</time>
      </trkpt>
      <trkpt lat="47.2414" lon="-2.30127">
        <ele>30</ele>
        <time>2020-08-23T07:34:12.000Z</time>
      </trkpt>
      <trkpt lat="47.2414" lon="-2.30125">
        <ele>30</ele>
        <time>2020-08-23T07:34:13.000Z</time>
      </trkpt>
      <trkpt lat="47.2414" lon="-2.30109">
        <ele>30</ele>
        <time>2020-08-23T07:34:18.000Z</time>
      </trkpt>
      <trkpt lat="47.2414" lon="-2.30098">
        <ele>30</ele>
        <time>2020-08-23T07:34:21.000Z</time>
      </trkpt>
      <trkpt lat="47.24139" lon="-2.30095">
        <ele>30.39999961853</ele>
        <time>2020-08-23T07:34:22.000Z</time>
      </trkpt>
      <trkpt lat="47.24139" lon="-2.30091">
        <ele>30.799999237061</ele>
        <time>2020-08-23T07:34:23.000Z</time>
      </trkpt>
      <trkpt lat="47.24139" lon="-2.30089">
        <ele>31.39999961853</ele>
        <time>2020-08-23T07:34:24.000Z</time>
      </trkpt>
      <trkpt lat="47.24139" lon="-2.30086">
        <ele>31.799999237061</ele>
        <time>2020-08-23T07:34:25.000Z</time>
      </trkpt>
      <trkpt lat="47.24139" lon="-2.30083">
        <ele>32.200000762939</ele>
        <time>2020-08-23T07:34:26.000Z</time>
      </trkpt>
      <trkpt lat="47.24135" lon="-2.30065">
        <ele>32.200000762939</ele>
        <time>2020-08-23T07:34:32.000Z</time>
      </trkpt>
      <trkpt lat="47.24135" lon="-2.3006">
        <ele>32.599998474121</ele>
        <time>2020-08-23T07:34:33.000Z</time>
      </trkpt>
      <trkpt lat="47.24136" lon="-2.30057">
        <ele>33.200000762939</ele>
        <time>2020-08-23T07:34:34.000Z</time>
      </trkpt>
      <trkpt lat="47.24136" lon="-2.30054">
        <ele>33.599998474121</ele>
        <time>2020-08-23T07:34:35.000Z</time>
      </trkpt>
      <trkpt lat="47.24138" lon="-2.30052">
        <ele>34.599998474121</ele>
        <time>2020-08-23T07:34:36.000Z</time>
      </trkpt>
      <trkpt lat="47.24141" lon="-2.3005">
        <ele>34.599998474121</ele>
        <time>2020-08-23T07:34:38.000Z</time>
      </trkpt>
      <trkpt lat="47.24143" lon="-2.30051">
        <ele>34.599998474121</ele>
        <time>2020-08-23T07:34:39.000Z</time>
      </trkpt>
      <trkpt lat="47.24154" lon="-2.3006">
        <ele>34.599998474121</ele>
        <time>2020-08-23T07:34:45.000Z</time>
      </trkpt>
      <trkpt lat="47.24158" lon="-2.30055">
        <ele>34.599998474121</ele>
        <time>2020-08-23T07:34:49.000Z</time>
      </trkpt>
      <trkpt lat="47.24167" lon="-2.30049">
        <ele>34.599998474121</ele>
        <time>2020-08-23T07:34:57.000Z</time>
      </trkpt>
      <trkpt lat="47.24179" lon="-2.30036">
        <ele>34.599998474121</ele>
        <time>2020-08-23T07:35:08.000Z</time>
      </trkpt>
      <trkpt lat="47.24181" lon="-2.30028">
        <ele>34.599998474121</ele>
        <time>2020-08-23T07:35:10.000Z</time>
      </trkpt>
      <trkpt lat="47.2418" lon="-2.30019">
        <ele>34.599998474121</ele>
        <time>2020-08-23T07:35:13.000Z</time>
      </trkpt>
      <trkpt lat="47.24177" lon="-2.3001">
        <ele>34.599998474121</ele>
        <time>2020-08-23T07:35:17.000Z</time>
      </trkpt>
      <trkpt lat="47.24169" lon="-2.29994">
        <ele>34.599998474121</ele>
        <time>2020-08-23T07:35:24.000Z</time>
      </trkpt>
      <trkpt lat="47.24168" lon="-2.29993">
        <ele>35.400001525879</ele>
        <time>2020-08-23T07:35:25.000Z</time>
      </trkpt>
      <trkpt lat="47.24166" lon="-2.29991">
        <ele>35.799999237061</ele>
        <time>2020-08-23T07:35:26.000Z</time>
      </trkpt>
      <trkpt lat="47.24165" lon="-2.29989">
        <ele>36.200000762939</ele>
        <time>2020-08-23T07:35:27.000Z</time>
      </trkpt>
      <trkpt lat="47.24164" lon="-2.29988">
        <ele>36.599998474121</ele>
        <time>2020-08-23T07:35:28.000Z</time>
      </trkpt>
      <trkpt lat="47.24157" lon="-2.29986">
        <ele>36.599998474121</ele>
        <time>2020-08-23T07:35:51.000Z</time>
      </trkpt>
      <trkpt lat="47.24155" lon="-2.29986">
        <ele>36.599998474121</ele>
        <time>2020-08-23T07:35:52.000Z</time>
      </trkpt>
      <trkpt lat="47.24142" lon="-2.29989">
        <ele>36.599998474121</ele>
        <time>2020-08-23T07:35:58.000Z</time>
      </trkpt>
      <trkpt lat="47.24122" lon="-2.29989">
        <ele>36.599998474121</ele>
        <time>2020-08-23T07:36:04.000Z</time>
      </trkpt>
      <trkpt lat="47.24119" lon="-2.29987">
        <ele>36.599998474121</ele>
        <time>2020-08-23T07:36:05.000Z</time>
      </trkpt>
      <trkpt lat="47.24109" lon="-2.29983">
        <ele>36.599998474121</ele>
        <time>2020-08-23T07:36:08.000Z</time>
      </trkpt>
      <trkpt lat="47.24106" lon="-2.29983">
        <ele>36.599998474121</ele>
        <time>2020-08-23T07:36:09.000Z</time>
      </trkpt>
      <trkpt lat="47.24097" lon="-2.29981">
        <ele>36.599998474121</ele>
        <time>2020-08-23T07:36:12.000Z</time>
      </trkpt>
      <trkpt lat="47.24094" lon="-2.29981">
        <ele>36.599998474121</ele>
        <time>2020-08-23T07:36:13.000Z</time>
      </trkpt>
      <trkpt lat="47.24077" lon="-2.29982">
        <ele>36.599998474121</ele>
        <time>2020-08-23T07:36:18.000Z</time>
      </trkpt>
      <trkpt lat="47.24068" lon="-2.29972">
        <ele>36.599998474121</ele>
        <time>2020-08-23T07:36:22.000Z</time>
      </trkpt>
      <trkpt lat="47.24068" lon="-2.2996">
        <ele>36.599998474121</ele>
        <time>2020-08-23T07:36:25.000Z</time>
      </trkpt>
      <trkpt lat="47.24068" lon="-2.2995">
        <ele>36.599998474121</ele>
        <time>2020-08-23T07:36:27.000Z</time>
      </trkpt>
      <trkpt lat="47.24073" lon="-2.29925">
        <ele>36.599998474121</ele>
        <time>2020-08-23T07:36:33.000Z</time>
      </trkpt>
      <trkpt lat="47.24071" lon="-2.29893">
        <ele>36.599998474121</ele>
        <time>2020-08-23T07:36:38.000Z</time>
      </trkpt>
      <trkpt lat="47.24076" lon="-2.29866">
        <ele>36.599998474121</ele>
        <time>2020-08-23T07:36:43.000Z</time>
      </trkpt>
      <trkpt lat="47.24076" lon="-2.29854">
        <ele>36.599998474121</ele>
        <time>2020-08-23T07:36:47.000Z</time>
      </trkpt>
      <trkpt lat="47.2408" lon="-2.29846">
        <ele>36.599998474121</ele>
        <time>2020-08-23T07:36:52.000Z</time>
      </trkpt>
      <trkpt lat="47.24086" lon="-2.29847">
        <ele>36.599998474121</ele>
        <time>2020-08-23T07:36:57.000Z</time>
      </trkpt>
      <trkpt lat="47.24102" lon="-2.2985">
        <ele>36.599998474121</ele>
        <time>2020-08-23T07:37:03.000Z</time>
      </trkpt>
      <trkpt lat="47.24109" lon="-2.29849">
        <ele>37</ele>
        <time>2020-08-23T07:37:05.000Z</time>
      </trkpt>
      <trkpt lat="47.24112" lon="-2.29848">
        <ele>37.400001525879</ele>
        <time>2020-08-23T07:37:06.000Z</time>
      </trkpt>
      <trkpt lat="47.24116" lon="-2.29847">
        <ele>38</ele>
        <time>2020-08-23T07:37:07.000Z</time>
      </trkpt>
      <trkpt lat="47.24119" lon="-2.29847">
        <ele>38.400001525879</ele>
        <time>2020-08-23T07:37:08.000Z</time>
      </trkpt>
      <trkpt lat="47.24123" lon="-2.29847">
        <ele>38.799999237061</ele>
        <time>2020-08-23T07:37:09.000Z</time>
      </trkpt>
      <trkpt lat="47.24128" lon="-2.29844">
        <ele>38.799999237061</ele>
        <time>2020-08-23T07:37:10.000Z</time>
      </trkpt>
      <trkpt lat="47.24153" lon="-2.2984">
        <ele>38.799999237061</ele>
        <time>2020-08-23T07:37:15.000Z</time>
      </trkpt>
      <trkpt lat="47.24168" lon="-2.29847">
        <ele>38.799999237061</ele>
        <time>2020-08-23T07:37:20.000Z</time>
      </trkpt>
      <trkpt lat="47.24172" lon="-2.29854">
        <ele>38.799999237061</ele>
        <time>2020-08-23T07:37:23.000Z</time>
      </trkpt>
      <trkpt lat="47.24174" lon="-2.2986">
        <ele>38.799999237061</ele>
        <time>2020-08-23T07:37:25.000Z</time>
      </trkpt>
      <trkpt lat="47.24178" lon="-2.29881">
        <ele>38.799999237061</ele>
        <time>2020-08-23T07:37:32.000Z</time>
      </trkpt>
      <trkpt lat="47.24172" lon="-2.29904">
        <ele>38.799999237061</ele>
        <time>2020-08-23T07:37:38.000Z</time>
      </trkpt>
      <trkpt lat="47.24169" lon="-2.29925">
        <ele>38.799999237061</ele>
        <time>2020-08-23T07:37:42.000Z</time>
      </trkpt>
      <trkpt lat="47.24171" lon="-2.29931">
        <ele>38.799999237061</ele>
        <time>2020-08-23T07:37:43.000Z</time>
      </trkpt>
      <trkpt lat="47.24175" lon="-2.29949">
        <ele>38.799999237061</ele>
        <time>2020-08-23T07:37:46.000Z</time>
      </trkpt>
      <trkpt lat="47.24178" lon="-2.29958">
        <ele>38.799999237061</ele>
        <time>2020-08-23T07:37:48.000Z</time>
      </trkpt>
      <trkpt lat="47.24193" lon="-2.29964">
        <ele>38</ele>
        <time>2020-08-23T07:37:53.000Z</time>
      </trkpt>
      <trkpt lat="47.24196" lon="-2.29963">
        <ele>37.599998474121</ele>
        <time>2020-08-23T07:37:54.000Z</time>
      </trkpt>
      <trkpt lat="47.24199" lon="-2.29961">
        <ele>37.200000762939</ele>
        <time>2020-08-23T07:37:55.000Z</time>
      </trkpt>
      <trkpt lat="47.24202" lon="-2.29959">
        <ele>36.799999237061</ele>
        <time>2020-08-23T07:37:56.000Z</time>
      </trkpt>
      <trkpt lat="47.2421" lon="-2.29955">
        <ele>36.799999237061</ele>
        <time>2020-08-23T07:37:58.000Z</time>
      </trkpt>
      <trkpt lat="47.24215" lon="-2.29954">
        <ele>36.799999237061</ele>
        <time>2020-08-23T07:37:59.000Z</time>
      </trkpt>
      <trkpt lat="47.24246" lon="-2.29937">
        <ele>36.799999237061</ele>
        <time>2020-08-23T07:38:05.000Z</time>
      </trkpt>
      <trkpt lat="47.24251" lon="-2.29932">
        <ele>36.400001525879</ele>
        <time>2020-08-23T07:38:06.000Z</time>
      </trkpt>
      <trkpt lat="47.24258" lon="-2.29926">
        <ele>36</ele>
        <time>2020-08-23T07:38:07.000Z</time>
      </trkpt>
      <trkpt lat="47.24262" lon="-2.29922">
        <ele>35.599998474121</ele>
        <time>2020-08-23T07:38:08.000Z</time>
      </trkpt>
      <trkpt lat="47.24267" lon="-2.29918">
        <ele>35.200000762939</ele>
        <time>2020-08-23T07:38:09.000Z</time>
      </trkpt>
      <trkpt lat="47.24272" lon="-2.29914">
        <ele>34.799999237061</ele>
        <time>2020-08-23T07:38:10.000Z</time>
      </trkpt>
      <trkpt lat="47.24286" lon="-2.29903">
        <ele>34.799999237061</ele>
        <time>2020-08-23T07:38:13.000Z</time>
      </trkpt>
      <trkpt lat="47.24307" lon="-2.29886">
        <ele>34.799999237061</ele>
        <time>2020-08-23T07:38:17.000Z</time>
      </trkpt>
      <trkpt lat="47.24313" lon="-2.29874">
        <ele>34.799999237061</ele>
        <time>2020-08-23T07:38:19.000Z</time>
      </trkpt>
      <trkpt lat="47.24316" lon="-2.2985">
        <ele>34.799999237061</ele>
        <time>2020-08-23T07:38:22.000Z</time>
      </trkpt>
      <trkpt lat="47.24315" lon="-2.29842">
        <ele>34.799999237061</ele>
        <time>2020-08-23T07:38:23.000Z</time>
      </trkpt>
      <trkpt lat="47.24317" lon="-2.29826">
        <ele>35.200000762939</ele>
        <time>2020-08-23T07:38:25.000Z</time>
      </trkpt>
      <trkpt lat="47.2432" lon="-2.2982">
        <ele>35.599998474121</ele>
        <time>2020-08-23T07:38:26.000Z</time>
      </trkpt>
      <trkpt lat="47.24325" lon="-2.29815">
        <ele>36</ele>
        <time>2020-08-23T07:38:27.000Z</time>
      </trkpt>
      <trkpt lat="47.24331" lon="-2.29812">
        <ele>36.400001525879</ele>
        <time>2020-08-23T07:38:28.000Z</time>
      </trkpt>
      <trkpt lat="47.24336" lon="-2.29809">
        <ele>36.799999237061</ele>
        <time>2020-08-23T07:38:29.000Z</time>
      </trkpt>
      <trkpt lat="47.24347" lon="-2.29805">
        <ele>36.799999237061</ele>
        <time>2020-08-23T07:38:31.000Z</time>
      </trkpt>
      <trkpt lat="47.24357" lon="-2.29801">
        <ele>36.799999237061</ele>
        <time>2020-08-23T07:38:33.000Z</time>
      </trkpt>
      <trkpt lat="47.24367" lon="-2.29786">
        <ele>36.799999237061</ele>
        <time>2020-08-23T07:38:36.000Z</time>
      </trkpt>
      <trkpt lat="47.2437" lon="-2.29779">
        <ele>36.799999237061</ele>
        <time>2020-08-23T07:38:37.000Z</time>
      </trkpt>
      <trkpt lat="47.24373" lon="-2.29772">
        <ele>36.799999237061</ele>
        <time>2020-08-23T07:38:38.000Z</time>
      </trkpt>
      <trkpt lat="47.24382" lon="-2.29751">
        <ele>36.799999237061</ele>
        <time>2020-08-23T07:38:41.000Z</time>
      </trkpt>
      <trkpt lat="47.24397" lon="-2.29711">
        <ele>36.799999237061</ele>
        <time>2020-08-23T07:38:47.000Z</time>
      </trkpt>
      <trkpt lat="47.24401" lon="-2.29706">
        <ele>36.799999237061</ele>
        <time>2020-08-23T07:38:48.000Z</time>
      </trkpt>
      <trkpt lat="47.24414" lon="-2.29695">
        <ele>36.799999237061</ele>
        <time>2020-08-23T07:38:51.000Z</time>
      </trkpt>
      <trkpt lat="47.24431" lon="-2.2969">
        <ele>36.799999237061</ele>
        <time>2020-08-23T07:38:55.000Z</time>
      </trkpt>
      <trkpt lat="47.24434" lon="-2.2969">
        <ele>36.799999237061</ele>
        <time>2020-08-23T07:38:56.000Z</time>
      </trkpt>
      <trkpt lat="47.24439" lon="-2.29694">
        <ele>36.799999237061</ele>
        <time>2020-08-23T07:38:58.000Z</time>
      </trkpt>
      <trkpt lat="47.24439" lon="-2.29697">
        <ele>36.799999237061</ele>
        <time>2020-08-23T07:38:59.000Z</time>
      </trkpt>
      <trkpt lat="47.24446" lon="-2.29721">
        <ele>36.799999237061</ele>
        <time>2020-08-23T07:39:03.000Z</time>
      </trkpt>
      <trkpt lat="47.24451" lon="-2.29741">
        <ele>36.799999237061</ele>
        <time>2020-08-23T07:39:06.000Z</time>
      </trkpt>
      <trkpt lat="47.24457" lon="-2.29755">
        <ele>36.799999237061</ele>
        <time>2020-08-23T07:39:08.000Z</time>
      </trkpt>
      <trkpt lat="47.2446" lon="-2.2977">
        <ele>36.799999237061</ele>
        <time>2020-08-23T07:39:10.000Z</time>
      </trkpt>
      <trkpt lat="47.24461" lon="-2.29777">
        <ele>37.200000762939</ele>
        <time>2020-08-23T07:39:11.000Z</time>
      </trkpt>
      <trkpt lat="47.24463" lon="-2.29785">
        <ele>37.599998474121</ele>
        <time>2020-08-23T07:39:12.000Z</time>
      </trkpt>
      <trkpt lat="47.24465" lon="-2.29792">
        <ele>38</ele>
        <time>2020-08-23T07:39:13.000Z</time>
      </trkpt>
      <trkpt lat="47.24467" lon="-2.29799">
        <ele>38.400001525879</ele>
        <time>2020-08-23T07:39:14.000Z</time>
      </trkpt>
      <trkpt lat="47.2447" lon="-2.29806">
        <ele>38.799999237061</ele>
        <time>2020-08-23T07:39:15.000Z</time>
      </trkpt>
      <trkpt lat="47.24473" lon="-2.29813">
        <ele>38.799999237061</ele>
        <time>2020-08-23T07:39:16.000Z</time>
      </trkpt>
      <trkpt lat="47.24479" lon="-2.29825">
        <ele>38.799999237061</ele>
        <time>2020-08-23T07:39:18.000Z</time>
      </trkpt>
      <trkpt lat="47.24491" lon="-2.29841">
        <ele>38.799999237061</ele>
        <time>2020-08-23T07:39:21.000Z</time>
      </trkpt>
      <trkpt lat="47.245" lon="-2.29848">
        <ele>38.799999237061</ele>
        <time>2020-08-23T07:39:23.000Z</time>
      </trkpt>
      <trkpt lat="47.24541" lon="-2.29868">
        <ele>38.799999237061</ele>
        <time>2020-08-23T07:39:31.000Z</time>
      </trkpt>
      <trkpt lat="47.24557" lon="-2.29875">
        <ele>38.799999237061</ele>
        <time>2020-08-23T07:39:35.000Z</time>
      </trkpt>
      <trkpt lat="47.24562" lon="-2.29879">
        <ele>38.799999237061</ele>
        <time>2020-08-23T07:39:37.000Z</time>
      </trkpt>
      <trkpt lat="47.24565" lon="-2.29869">
        <ele>38.799999237061</ele>
        <time>2020-08-23T07:39:40.000Z</time>
      </trkpt>
      <trkpt lat="47.24564" lon="-2.29848">
        <ele>38.799999237061</ele>
        <time>2020-08-23T07:39:44.000Z</time>
      </trkpt>
      <trkpt lat="47.24563" lon="-2.29844">
        <ele>38.799999237061</ele>
        <time>2020-08-23T07:39:45.000Z</time>
      </trkpt>
      <trkpt lat="47.24561" lon="-2.29799">
        <ele>38.799999237061</ele>
        <time>2020-08-23T07:39:54.000Z</time>
      </trkpt>
      <trkpt lat="47.24561" lon="-2.29761">
        <ele>38.799999237061</ele>
        <time>2020-08-23T07:40:00.000Z</time>
      </trkpt>
      <trkpt lat="47.24558" lon="-2.29704">
        <ele>38.799999237061</ele>
        <time>2020-08-23T07:40:08.000Z</time>
      </trkpt>
      <trkpt lat="47.24553" lon="-2.29671">
        <ele>38.799999237061</ele>
        <time>2020-08-23T07:40:13.000Z</time>
      </trkpt>
      <trkpt lat="47.24551" lon="-2.29664">
        <ele>38.799999237061</ele>
        <time>2020-08-23T07:40:14.000Z</time>
      </trkpt>
      <trkpt lat="47.24539" lon="-2.29614">
        <ele>38.799999237061</ele>
        <time>2020-08-23T07:40:21.000Z</time>
      </trkpt>
      <trkpt lat="47.24528" lon="-2.29569">
        <ele>38.799999237061</ele>
        <time>2020-08-23T07:40:28.000Z</time>
      </trkpt>
      <trkpt lat="47.24526" lon="-2.29556">
        <ele>38.799999237061</ele>
        <time>2020-08-23T07:40:30.000Z</time>
      </trkpt>
      <trkpt lat="47.24522" lon="-2.2953">
        <ele>38.799999237061</ele>
        <time>2020-08-23T07:40:34.000Z</time>
      </trkpt>
      <trkpt lat="47.2452" lon="-2.29487">
        <ele>38.799999237061</ele>
        <time>2020-08-23T07:40:41.000Z</time>
      </trkpt>
      <trkpt lat="47.2452" lon="-2.2948">
        <ele>38.799999237061</ele>
        <time>2020-08-23T07:40:42.000Z</time>
      </trkpt>
      <trkpt lat="47.24521" lon="-2.29448">
        <ele>38.799999237061</ele>
        <time>2020-08-23T07:40:47.000Z</time>
      </trkpt>
      <trkpt lat="47.24521" lon="-2.29406">
        <ele>38.799999237061</ele>
        <time>2020-08-23T07:40:53.000Z</time>
      </trkpt>
      <trkpt lat="47.24519" lon="-2.29371">
        <ele>38.799999237061</ele>
        <time>2020-08-23T07:40:58.000Z</time>
      </trkpt>
      <trkpt lat="47.24518" lon="-2.29364">
        <ele>38.799999237061</ele>
        <time>2020-08-23T07:40:59.000Z</time>
      </trkpt>
      <trkpt lat="47.24515" lon="-2.29343">
        <ele>38.799999237061</ele>
        <time>2020-08-23T07:41:02.000Z</time>
      </trkpt>
      <trkpt lat="47.24515" lon="-2.2933">
        <ele>38.799999237061</ele>
        <time>2020-08-23T07:41:04.000Z</time>
      </trkpt>
      <trkpt lat="47.24513" lon="-2.29282">
        <ele>38.799999237061</ele>
        <time>2020-08-23T07:41:10.000Z</time>
      </trkpt>
      <trkpt lat="47.24515" lon="-2.29226">
        <ele>38.799999237061</ele>
        <time>2020-08-23T07:41:17.000Z</time>
      </trkpt>
      <trkpt lat="47.24518" lon="-2.29202">
        <ele>38.799999237061</ele>
        <time>2020-08-23T07:41:20.000Z</time>
      </trkpt>
      <trkpt lat="47.24526" lon="-2.29163">
        <ele>38.799999237061</ele>
        <time>2020-08-23T07:41:25.000Z</time>
      </trkpt>
      <trkpt lat="47.24546" lon="-2.29091">
        <ele>38.799999237061</ele>
        <time>2020-08-23T07:41:34.000Z</time>
      </trkpt>
      <trkpt lat="47.24554" lon="-2.29033">
        <ele>38.799999237061</ele>
        <time>2020-08-23T07:41:41.000Z</time>
      </trkpt>
      <trkpt lat="47.24554" lon="-2.29016">
        <ele>38.400001525879</ele>
        <time>2020-08-23T07:41:43.000Z</time>
      </trkpt>
      <trkpt lat="47.24555" lon="-2.29008">
        <ele>38</ele>
        <time>2020-08-23T07:41:44.000Z</time>
      </trkpt>
      <trkpt lat="47.24553" lon="-2.28999">
        <ele>37.599998474121</ele>
        <time>2020-08-23T07:41:45.000Z</time>
      </trkpt>
      <trkpt lat="47.24552" lon="-2.28991">
        <ele>37.200000762939</ele>
        <time>2020-08-23T07:41:46.000Z</time>
      </trkpt>
      <trkpt lat="47.2455" lon="-2.28984">
        <ele>36.799999237061</ele>
        <time>2020-08-23T07:41:47.000Z</time>
      </trkpt>
      <trkpt lat="47.24539" lon="-2.28937">
        <ele>36.799999237061</ele>
        <time>2020-08-23T07:41:53.000Z</time>
      </trkpt>
      <trkpt lat="47.24526" lon="-2.289">
        <ele>36.799999237061</ele>
        <time>2020-08-23T07:41:58.000Z</time>
      </trkpt>
      <trkpt lat="47.24524" lon="-2.28892">
        <ele>36.400001525879</ele>
        <time>2020-08-23T07:41:59.000Z</time>
      </trkpt>
      <trkpt lat="47.24522" lon="-2.28884">
        <ele>36</ele>
        <time>2020-08-23T07:42:00.000Z</time>
      </trkpt>
      <trkpt lat="47.24523" lon="-2.28876">
        <ele>35.599998474121</ele>
        <time>2020-08-23T07:42:01.000Z</time>
      </trkpt>
      <trkpt lat="47.24524" lon="-2.28868">
        <ele>35.200000762939</ele>
        <time>2020-08-23T07:42:02.000Z</time>
      </trkpt>
      <trkpt lat="47.24527" lon="-2.28861">
        <ele>34.799999237061</ele>
        <time>2020-08-23T07:42:03.000Z</time>
      </trkpt>
      <trkpt lat="47.2454" lon="-2.28848">
        <ele>34.799999237061</ele>
        <time>2020-08-23T07:42:06.000Z</time>
      </trkpt>
      <trkpt lat="47.24557" lon="-2.28832">
        <ele>34.799999237061</ele>
        <time>2020-08-23T07:42:10.000Z</time>
      </trkpt>
      <trkpt lat="47.2456" lon="-2.28827">
        <ele>34.799999237061</ele>
        <time>2020-08-23T07:42:11.000Z</time>
      </trkpt>
      <trkpt lat="47.2457" lon="-2.28814">
        <ele>34.799999237061</ele>
        <time>2020-08-23T07:42:14.000Z</time>
      </trkpt>
      <trkpt lat="47.24575" lon="-2.28811">
        <ele>34.799999237061</ele>
        <time>2020-08-23T07:42:15.000Z</time>
      </trkpt>
      <trkpt lat="47.2458" lon="-2.28807">
        <ele>34.799999237061</ele>
        <time>2020-08-23T07:42:16.000Z</time>
      </trkpt>
      <trkpt lat="47.24599" lon="-2.28793">
        <ele>34.799999237061</ele>
        <time>2020-08-23T07:42:20.000Z</time>
      </trkpt>
      <trkpt lat="47.24613" lon="-2.28782">
        <ele>34.799999237061</ele>
        <time>2020-08-23T07:42:23.000Z</time>
      </trkpt>
      <trkpt lat="47.24636" lon="-2.28748">
        <ele>34.799999237061</ele>
        <time>2020-08-23T07:42:29.000Z</time>
      </trkpt>
      <trkpt lat="47.24661" lon="-2.28712">
        <ele>34.799999237061</ele>
        <time>2020-08-23T07:42:35.000Z</time>
      </trkpt>
      <trkpt lat="47.24666" lon="-2.28708">
        <ele>34.799999237061</ele>
        <time>2020-08-23T07:42:36.000Z</time>
      </trkpt>
      <trkpt lat="47.24685" lon="-2.28685">
        <ele>34.799999237061</ele>
        <time>2020-08-23T07:42:40.000Z</time>
      </trkpt>
      <trkpt lat="47.24709" lon="-2.28651">
        <ele>34.799999237061</ele>
        <time>2020-08-23T07:42:46.000Z</time>
      </trkpt>
      <trkpt lat="47.24733" lon="-2.28626">
        <ele>35.200000762939</ele>
        <time>2020-08-23T07:42:51.000Z</time>
      </trkpt>
      <trkpt lat="47.24736" lon="-2.2862">
        <ele>35.599998474121</ele>
        <time>2020-08-23T07:42:52.000Z</time>
      </trkpt>
      <trkpt lat="47.24739" lon="-2.28613">
        <ele>36</ele>
        <time>2020-08-23T07:42:53.000Z</time>
      </trkpt>
      <trkpt lat="47.24741" lon="-2.28605">
        <ele>36.400001525879</ele>
        <time>2020-08-23T07:42:54.000Z</time>
      </trkpt>
      <trkpt lat="47.24743" lon="-2.28597">
        <ele>36.799999237061</ele>
        <time>2020-08-23T07:42:55.000Z</time>
      </trkpt>
      <trkpt lat="47.24745" lon="-2.28589">
        <ele>36.799999237061</ele>
        <time>2020-08-23T07:42:56.000Z</time>
      </trkpt>
      <trkpt lat="47.24752" lon="-2.28566">
        <ele>36.799999237061</ele>
        <time>2020-08-23T07:42:59.000Z</time>
      </trkpt>
      <trkpt lat="47.24757" lon="-2.2856">
        <ele>36.799999237061</ele>
        <time>2020-08-23T07:43:00.000Z</time>
      </trkpt>
      <trkpt lat="47.24766" lon="-2.28548">
        <ele>36.799999237061</ele>
        <time>2020-08-23T07:43:02.000Z</time>
      </trkpt>
      <trkpt lat="47.24786" lon="-2.2853">
        <ele>36.799999237061</ele>
        <time>2020-08-23T07:43:06.000Z</time>
      </trkpt>
      <trkpt lat="47.24802" lon="-2.28515">
        <ele>36.799999237061</ele>
        <time>2020-08-23T07:43:09.000Z</time>
      </trkpt>
      <trkpt lat="47.24819" lon="-2.28502">
        <ele>36.799999237061</ele>
        <time>2020-08-23T07:43:12.000Z</time>
      </trkpt>
      <trkpt lat="47.24866" lon="-2.28462">
        <ele>36.799999237061</ele>
        <time>2020-08-23T07:43:20.000Z</time>
      </trkpt>
      <trkpt lat="47.24882" lon="-2.28443">
        <ele>36.799999237061</ele>
        <time>2020-08-23T07:43:23.000Z</time>
      </trkpt>
      <trkpt lat="47.24893" lon="-2.28431">
        <ele>36.799999237061</ele>
        <time>2020-08-23T07:43:25.000Z</time>
      </trkpt>
      <trkpt lat="47.249" lon="-2.28427">
        <ele>36.799999237061</ele>
        <time>2020-08-23T07:43:26.000Z</time>
      </trkpt>
      <trkpt lat="47.24915" lon="-2.28419">
        <ele>36.400001525879</ele>
        <time>2020-08-23T07:43:28.000Z</time>
      </trkpt>
      <trkpt lat="47.24923" lon="-2.28415">
        <ele>35.799999237061</ele>
        <time>2020-08-23T07:43:29.000Z</time>
      </trkpt>
      <trkpt lat="47.24931" lon="-2.28412">
        <ele>35.400001525879</ele>
        <time>2020-08-23T07:43:30.000Z</time>
      </trkpt>
      <trkpt lat="47.24938" lon="-2.28409">
        <ele>35</ele>
        <time>2020-08-23T07:43:31.000Z</time>
      </trkpt>
      <trkpt lat="47.24946" lon="-2.28407">
        <ele>34.599998474121</ele>
        <time>2020-08-23T07:43:32.000Z</time>
      </trkpt>
      <trkpt lat="47.2496" lon="-2.28402">
        <ele>34</ele>
        <time>2020-08-23T07:43:34.000Z</time>
      </trkpt>
      <trkpt lat="47.24967" lon="-2.28399">
        <ele>33.599998474121</ele>
        <time>2020-08-23T07:43:35.000Z</time>
      </trkpt>
      <trkpt lat="47.24975" lon="-2.28396">
        <ele>33</ele>
        <time>2020-08-23T07:43:36.000Z</time>
      </trkpt>
      <trkpt lat="47.24982" lon="-2.28391">
        <ele>32</ele>
        <time>2020-08-23T07:43:37.000Z</time>
      </trkpt>
      <trkpt lat="47.24989" lon="-2.28386">
        <ele>32</ele>
        <time>2020-08-23T07:43:38.000Z</time>
      </trkpt>
      <trkpt lat="47.25002" lon="-2.2836">
        <ele>31.60000038147</ele>
        <time>2020-08-23T07:43:41.000Z</time>
      </trkpt>
      <trkpt lat="47.25006" lon="-2.28352">
        <ele>31.200000762939</ele>
        <time>2020-08-23T07:43:42.000Z</time>
      </trkpt>
      <trkpt lat="47.2501" lon="-2.28345">
        <ele>30.799999237061</ele>
        <time>2020-08-23T07:43:43.000Z</time>
      </trkpt>
      <trkpt lat="47.25015" lon="-2.28338">
        <ele>30.39999961853</ele>
        <time>2020-08-23T07:43:44.000Z</time>
      </trkpt>
      <trkpt lat="47.2502" lon="-2.28333">
        <ele>29.799999237061</ele>
        <time>2020-08-23T07:43:45.000Z</time>
      </trkpt>
      <trkpt lat="47.25033" lon="-2.28314">
        <ele>29.799999237061</ele>
        <time>2020-08-23T07:43:49.000Z</time>
      </trkpt>
      <trkpt lat="47.25031" lon="-2.28302">
        <ele>29.799999237061</ele>
        <time>2020-08-23T07:43:51.000Z</time>
      </trkpt>
      <trkpt lat="47.25031" lon="-2.28297">
        <ele>30.39999961853</ele>
        <time>2020-08-23T07:43:52.000Z</time>
      </trkpt>
      <trkpt lat="47.25031" lon="-2.2829">
        <ele>30.799999237061</ele>
        <time>2020-08-23T07:43:53.000Z</time>
      </trkpt>
      <trkpt lat="47.25031" lon="-2.28284">
        <ele>31.200000762939</ele>
        <time>2020-08-23T07:43:54.000Z</time>
      </trkpt>
      <trkpt lat="47.25031" lon="-2.28277">
        <ele>31.60000038147</ele>
        <time>2020-08-23T07:43:55.000Z</time>
      </trkpt>
      <trkpt lat="47.25032" lon="-2.28271">
        <ele>32</ele>
        <time>2020-08-23T07:43:56.000Z</time>
      </trkpt>
      <trkpt lat="47.25035" lon="-2.28249">
        <ele>32</ele>
        <time>2020-08-23T07:43:59.000Z</time>
      </trkpt>
      <trkpt lat="47.25037" lon="-2.28242">
        <ele>32</ele>
        <time>2020-08-23T07:44:00.000Z</time>
      </trkpt>
      <trkpt lat="47.25043" lon="-2.28215">
        <ele>32</ele>
        <time>2020-08-23T07:44:04.000Z</time>
      </trkpt>
      <trkpt lat="47.25046" lon="-2.28202">
        <ele>32</ele>
        <time>2020-08-23T07:44:06.000Z</time>
      </trkpt>
      <trkpt lat="47.25053" lon="-2.28175">
        <ele>32</ele>
        <time>2020-08-23T07:44:10.000Z</time>
      </trkpt>
      <trkpt lat="47.25068" lon="-2.2813">
        <ele>32</ele>
        <time>2020-08-23T07:44:17.000Z</time>
      </trkpt>
      <trkpt lat="47.2507" lon="-2.28124">
        <ele>32</ele>
        <time>2020-08-23T07:44:18.000Z</time>
      </trkpt>
      <trkpt lat="47.25074" lon="-2.28098">
        <ele>32</ele>
        <time>2020-08-23T07:44:22.000Z</time>
      </trkpt>
      <trkpt lat="47.25078" lon="-2.28083">
        <ele>32</ele>
        <time>2020-08-23T07:44:24.000Z</time>
      </trkpt>
      <trkpt lat="47.25084" lon="-2.28069">
        <ele>32</ele>
        <time>2020-08-23T07:44:26.000Z</time>
      </trkpt>
      <trkpt lat="47.25101" lon="-2.28024">
        <ele>32</ele>
        <time>2020-08-23T07:44:33.000Z</time>
      </trkpt>
      <trkpt lat="47.25106" lon="-2.28012">
        <ele>32</ele>
        <time>2020-08-23T07:44:35.000Z</time>
      </trkpt>
      <trkpt lat="47.25111" lon="-2.28001">
        <ele>32.400001525879</ele>
        <time>2020-08-23T07:44:37.000Z</time>
      </trkpt>
      <trkpt lat="47.25113" lon="-2.27995">
        <ele>32.799999237061</ele>
        <time>2020-08-23T07:44:38.000Z</time>
      </trkpt>
      <trkpt lat="47.25116" lon="-2.27989">
        <ele>33.200000762939</ele>
        <time>2020-08-23T07:44:39.000Z</time>
      </trkpt>
      <trkpt lat="47.2512" lon="-2.27984">
        <ele>33.599998474121</ele>
        <time>2020-08-23T07:44:40.000Z</time>
      </trkpt>
      <trkpt lat="47.25124" lon="-2.27978">
        <ele>34.200000762939</ele>
        <time>2020-08-23T07:44:41.000Z</time>
      </trkpt>
      <trkpt lat="47.25132" lon="-2.27967">
        <ele>34.200000762939</ele>
        <time>2020-08-23T07:44:43.000Z</time>
      </trkpt>
      <trkpt lat="47.25141" lon="-2.27957">
        <ele>34.200000762939</ele>
        <time>2020-08-23T07:44:45.000Z</time>
      </trkpt>
      <trkpt lat="47.25156" lon="-2.27945">
        <ele>34.599998474121</ele>
        <time>2020-08-23T07:44:48.000Z</time>
      </trkpt>
      <trkpt lat="47.25161" lon="-2.27942">
        <ele>35</ele>
        <time>2020-08-23T07:44:49.000Z</time>
      </trkpt>
      <trkpt lat="47.25166" lon="-2.27939">
        <ele>35.400001525879</ele>
        <time>2020-08-23T07:44:50.000Z</time>
      </trkpt>
      <trkpt lat="47.25171" lon="-2.27936">
        <ele>35.799999237061</ele>
        <time>2020-08-23T07:44:51.000Z</time>
      </trkpt>
      <trkpt lat="47.25176" lon="-2.27932">
        <ele>36.200000762939</ele>
        <time>2020-08-23T07:44:52.000Z</time>
      </trkpt>
      <trkpt lat="47.252" lon="-2.27915">
        <ele>36.200000762939</ele>
        <time>2020-08-23T07:44:57.000Z</time>
      </trkpt>
      <trkpt lat="47.25205" lon="-2.27912">
        <ele>36.200000762939</ele>
        <time>2020-08-23T07:44:58.000Z</time>
      </trkpt>
      <trkpt lat="47.25218" lon="-2.27904">
        <ele>36.200000762939</ele>
        <time>2020-08-23T07:45:01.000Z</time>
      </trkpt>
      <trkpt lat="47.25227" lon="-2.279">
        <ele>36.200000762939</ele>
        <time>2020-08-23T07:45:03.000Z</time>
      </trkpt>
      <trkpt lat="47.25243" lon="-2.2789">
        <ele>36.200000762939</ele>
        <time>2020-08-23T07:45:06.000Z</time>
      </trkpt>
      <trkpt lat="47.25269" lon="-2.27878">
        <ele>36.200000762939</ele>
        <time>2020-08-23T07:45:11.000Z</time>
      </trkpt>
      <trkpt lat="47.2528" lon="-2.27875">
        <ele>36.200000762939</ele>
        <time>2020-08-23T07:45:13.000Z</time>
      </trkpt>
      <trkpt lat="47.25291" lon="-2.27871">
        <ele>36.599998474121</ele>
        <time>2020-08-23T07:45:15.000Z</time>
      </trkpt>
      <trkpt lat="47.25297" lon="-2.2787">
        <ele>37.400001525879</ele>
        <time>2020-08-23T07:45:16.000Z</time>
      </trkpt>
      <trkpt lat="47.25302" lon="-2.2787">
        <ele>37.799999237061</ele>
        <time>2020-08-23T07:45:17.000Z</time>
      </trkpt>
      <trkpt lat="47.25308" lon="-2.27869">
        <ele>38.400001525879</ele>
        <time>2020-08-23T07:45:18.000Z</time>
      </trkpt>
      <trkpt lat="47.25346" lon="-2.27864">
        <ele>38.400001525879</ele>
        <time>2020-08-23T07:45:25.000Z</time>
      </trkpt>
      <trkpt lat="47.2538" lon="-2.27854">
        <ele>38.400001525879</ele>
        <time>2020-08-23T07:45:31.000Z</time>
      </trkpt>
      <trkpt lat="47.25401" lon="-2.27847">
        <ele>38.799999237061</ele>
        <time>2020-08-23T07:45:35.000Z</time>
      </trkpt>
      <trkpt lat="47.25406" lon="-2.27845">
        <ele>39.200000762939</ele>
        <time>2020-08-23T07:45:36.000Z</time>
      </trkpt>
      <trkpt lat="47.25411" lon="-2.27842">
        <ele>39.599998474121</ele>
        <time>2020-08-23T07:45:37.000Z</time>
      </trkpt>
      <trkpt lat="47.25417" lon="-2.2784">
        <ele>40.200000762939</ele>
        <time>2020-08-23T07:45:38.000Z</time>
      </trkpt>
      <trkpt lat="47.25422" lon="-2.27837">
        <ele>40.599998474121</ele>
        <time>2020-08-23T07:45:39.000Z</time>
      </trkpt>
      <trkpt lat="47.25432" lon="-2.27829">
        <ele>40.599998474121</ele>
        <time>2020-08-23T07:45:41.000Z</time>
      </trkpt>
      <trkpt lat="47.25461" lon="-2.278">
        <ele>40.599998474121</ele>
        <time>2020-08-23T07:45:47.000Z</time>
      </trkpt>
      <trkpt lat="47.2548" lon="-2.27776">
        <ele>40.599998474121</ele>
        <time>2020-08-23T07:45:52.000Z</time>
      </trkpt>
      <trkpt lat="47.25497" lon="-2.27758">
        <ele>41</ele>
        <time>2020-08-23T07:45:56.000Z</time>
      </trkpt>
      <trkpt lat="47.25501" lon="-2.27753">
        <ele>41.400001525879</ele>
        <time>2020-08-23T07:45:57.000Z</time>
      </trkpt>
      <trkpt lat="47.25503" lon="-2.27748">
        <ele>41.799999237061</ele>
        <time>2020-08-23T07:45:58.000Z</time>
      </trkpt>
      <trkpt lat="47.25504" lon="-2.27741">
        <ele>42.200000762939</ele>
        <time>2020-08-23T07:45:59.000Z</time>
      </trkpt>
      <trkpt lat="47.25504" lon="-2.27734">
        <ele>42.599998474121</ele>
        <time>2020-08-23T07:46:00.000Z</time>
      </trkpt>
      <trkpt lat="47.25503" lon="-2.27727">
        <ele>42.599998474121</ele>
        <time>2020-08-23T07:46:01.000Z</time>
      </trkpt>
      <trkpt lat="47.255" lon="-2.2771">
        <ele>42.599998474121</ele>
        <time>2020-08-23T07:46:03.000Z</time>
      </trkpt>
      <trkpt lat="47.25495" lon="-2.27687">
        <ele>42.599998474121</ele>
        <time>2020-08-23T07:46:06.000Z</time>
      </trkpt>
      <trkpt lat="47.25485" lon="-2.27636">
        <ele>42.599998474121</ele>
        <time>2020-08-23T07:46:13.000Z</time>
      </trkpt>
      <trkpt lat="47.25483" lon="-2.27628">
        <ele>42.599998474121</ele>
        <time>2020-08-23T07:46:14.000Z</time>
      </trkpt>
      <trkpt lat="47.25474" lon="-2.2761">
        <ele>42.599998474121</ele>
        <time>2020-08-23T07:46:17.000Z</time>
      </trkpt>
      <trkpt lat="47.2547" lon="-2.27605">
        <ele>42.599998474121</ele>
        <time>2020-08-23T07:46:18.000Z</time>
      </trkpt>
      <trkpt lat="47.25467" lon="-2.276">
        <ele>42.599998474121</ele>
        <time>2020-08-23T07:46:19.000Z</time>
      </trkpt>
      <trkpt lat="47.25458" lon="-2.27584">
        <ele>42.599998474121</ele>
        <time>2020-08-23T07:46:22.000Z</time>
      </trkpt>
      <trkpt lat="47.25451" lon="-2.27566">
        <ele>42.599998474121</ele>
        <time>2020-08-23T07:46:25.000Z</time>
      </trkpt>
      <trkpt lat="47.25448" lon="-2.27553">
        <ele>42.599998474121</ele>
        <time>2020-08-23T07:46:27.000Z</time>
      </trkpt>
      <trkpt lat="47.25441" lon="-2.27522">
        <ele>42.599998474121</ele>
        <time>2020-08-23T07:46:32.000Z</time>
      </trkpt>
      <trkpt lat="47.25438" lon="-2.27511">
        <ele>42.599998474121</ele>
        <time>2020-08-23T07:46:34.000Z</time>
      </trkpt>
      <trkpt lat="47.2543" lon="-2.275">
        <ele>42.599998474121</ele>
        <time>2020-08-23T07:46:36.000Z</time>
      </trkpt>
      <trkpt lat="47.25427" lon="-2.27494">
        <ele>42.599998474121</ele>
        <time>2020-08-23T07:46:37.000Z</time>
      </trkpt>
      <trkpt lat="47.25414" lon="-2.27467">
        <ele>42.599998474121</ele>
        <time>2020-08-23T07:46:41.000Z</time>
      </trkpt>
      <trkpt lat="47.25397" lon="-2.27414">
        <ele>42.599998474121</ele>
        <time>2020-08-23T07:46:48.000Z</time>
      </trkpt>
      <trkpt lat="47.25395" lon="-2.27407">
        <ele>42.599998474121</ele>
        <time>2020-08-23T07:46:49.000Z</time>
      </trkpt>
      <trkpt lat="47.25387" lon="-2.27383">
        <ele>42.599998474121</ele>
        <time>2020-08-23T07:46:53.000Z</time>
      </trkpt>
      <trkpt lat="47.2538" lon="-2.27377">
        <ele>42.599998474121</ele>
        <time>2020-08-23T07:46:55.000Z</time>
      </trkpt>
      <trkpt lat="47.25372" lon="-2.27373">
        <ele>42.599998474121</ele>
        <time>2020-08-23T07:46:57.000Z</time>
      </trkpt>
      <trkpt lat="47.25368" lon="-2.2737">
        <ele>42.599998474121</ele>
        <time>2020-08-23T07:46:58.000Z</time>
      </trkpt>
      <trkpt lat="47.25364" lon="-2.2736">
        <ele>42.599998474121</ele>
        <time>2020-08-23T07:47:00.000Z</time>
      </trkpt>
      <trkpt lat="47.25358" lon="-2.27343">
        <ele>42.599998474121</ele>
        <time>2020-08-23T07:47:03.000Z</time>
      </trkpt>
      <trkpt lat="47.25356" lon="-2.27338">
        <ele>42.599998474121</ele>
        <time>2020-08-23T07:47:04.000Z</time>
      </trkpt>
      <trkpt lat="47.25344" lon="-2.27318">
        <ele>42.599998474121</ele>
        <time>2020-08-23T07:47:08.000Z</time>
      </trkpt>
      <trkpt lat="47.25342" lon="-2.27313">
        <ele>42.599998474121</ele>
        <time>2020-08-23T07:47:09.000Z</time>
      </trkpt>
      <trkpt lat="47.25334" lon="-2.2729">
        <ele>42.599998474121</ele>
        <time>2020-08-23T07:47:15.000Z</time>
      </trkpt>
      <trkpt lat="47.25324" lon="-2.27273">
        <ele>42.599998474121</ele>
        <time>2020-08-23T07:47:20.000Z</time>
      </trkpt>
      <trkpt lat="47.25307" lon="-2.27251">
        <ele>42.599998474121</ele>
        <time>2020-08-23T07:47:26.000Z</time>
      </trkpt>
      <trkpt lat="47.25296" lon="-2.27223">
        <ele>42.599998474121</ele>
        <time>2020-08-23T07:47:32.000Z</time>
      </trkpt>
      <trkpt lat="47.25287" lon="-2.27197">
        <ele>42.599998474121</ele>
        <time>2020-08-23T07:47:38.000Z</time>
      </trkpt>
      <trkpt lat="47.25272" lon="-2.27172">
        <ele>42.599998474121</ele>
        <time>2020-08-23T07:47:44.000Z</time>
      </trkpt>
      <trkpt lat="47.25264" lon="-2.27158">
        <ele>42.599998474121</ele>
        <time>2020-08-23T07:47:49.000Z</time>
      </trkpt>
      <trkpt lat="47.25251" lon="-2.27142">
        <ele>42.599998474121</ele>
        <time>2020-08-23T07:47:54.000Z</time>
      </trkpt>
      <trkpt lat="47.25234" lon="-2.27114">
        <ele>42.599998474121</ele>
        <time>2020-08-23T07:47:59.000Z</time>
      </trkpt>
      <trkpt lat="47.2521" lon="-2.27069">
        <ele>42.599998474121</ele>
        <time>2020-08-23T07:48:07.000Z</time>
      </trkpt>
      <trkpt lat="47.25198" lon="-2.27047">
        <ele>42.599998474121</ele>
        <time>2020-08-23T07:48:12.000Z</time>
      </trkpt>
      <trkpt lat="47.25189" lon="-2.27022">
        <ele>42.599998474121</ele>
        <time>2020-08-23T07:48:18.000Z</time>
      </trkpt>
      <trkpt lat="47.25181" lon="-2.2699">
        <ele>42.599998474121</ele>
        <time>2020-08-23T07:48:24.000Z</time>
      </trkpt>
      <trkpt lat="47.25179" lon="-2.26979">
        <ele>42.599998474121</ele>
        <time>2020-08-23T07:48:26.000Z</time>
      </trkpt>
      <trkpt lat="47.25175" lon="-2.26978">
        <ele>42.599998474121</ele>
        <time>2020-08-23T07:48:27.000Z</time>
      </trkpt>
      <trkpt lat="47.25163" lon="-2.2697">
        <ele>42.599998474121</ele>
        <time>2020-08-23T07:48:31.000Z</time>
      </trkpt>
      <trkpt lat="47.25161" lon="-2.26965">
        <ele>42.599998474121</ele>
        <time>2020-08-23T07:48:32.000Z</time>
      </trkpt>
      <trkpt lat="47.2515" lon="-2.26944">
        <ele>42.599998474121</ele>
        <time>2020-08-23T07:48:36.000Z</time>
      </trkpt>
      <trkpt lat="47.25149" lon="-2.26938">
        <ele>42.599998474121</ele>
        <time>2020-08-23T07:48:37.000Z</time>
      </trkpt>
      <trkpt lat="47.25149" lon="-2.26915">
        <ele>42.599998474121</ele>
        <time>2020-08-23T07:48:40.000Z</time>
      </trkpt>
      <trkpt lat="47.25149" lon="-2.26906">
        <ele>42.599998474121</ele>
        <time>2020-08-23T07:48:41.000Z</time>
      </trkpt>
      <trkpt lat="47.2515" lon="-2.2689">
        <ele>42.599998474121</ele>
        <time>2020-08-23T07:48:43.000Z</time>
      </trkpt>
      <trkpt lat="47.2515" lon="-2.26867">
        <ele>42.599998474121</ele>
        <time>2020-08-23T07:48:46.000Z</time>
      </trkpt>
      <trkpt lat="47.25155" lon="-2.26851">
        <ele>42.599998474121</ele>
        <time>2020-08-23T07:48:49.000Z</time>
      </trkpt>
      <trkpt lat="47.25156" lon="-2.26846">
        <ele>42.599998474121</ele>
        <time>2020-08-23T07:48:50.000Z</time>
      </trkpt>
      <trkpt lat="47.25152" lon="-2.2684">
        <ele>42.599998474121</ele>
        <time>2020-08-23T07:48:53.000Z</time>
      </trkpt>
      <trkpt lat="47.25144" lon="-2.26846">
        <ele>42.599998474121</ele>
        <time>2020-08-23T07:48:56.000Z</time>
      </trkpt>
      <trkpt lat="47.25141" lon="-2.26849">
        <ele>42.599998474121</ele>
        <time>2020-08-23T07:48:57.000Z</time>
      </trkpt>
      <trkpt lat="47.25114" lon="-2.26868">
        <ele>42.599998474121</ele>
        <time>2020-08-23T07:49:04.000Z</time>
      </trkpt>
      <trkpt lat="47.2511" lon="-2.26871">
        <ele>42.599998474121</ele>
        <time>2020-08-23T07:49:05.000Z</time>
      </trkpt>
      <trkpt lat="47.25095" lon="-2.26873">
        <ele>42.599998474121</ele>
        <time>2020-08-23T07:49:08.000Z</time>
      </trkpt>
      <trkpt lat="47.25089" lon="-2.26872">
        <ele>42.599998474121</ele>
        <time>2020-08-23T07:49:09.000Z</time>
      </trkpt>
      <trkpt lat="47.25073" lon="-2.26866">
        <ele>42.599998474121</ele>
        <time>2020-08-23T07:49:12.000Z</time>
      </trkpt>
      <trkpt lat="47.25068" lon="-2.26864">
        <ele>42.599998474121</ele>
        <time>2020-08-23T07:49:13.000Z</time>
      </trkpt>
      <trkpt lat="47.25049" lon="-2.2686">
        <ele>42.599998474121</ele>
        <time>2020-08-23T07:49:17.000Z</time>
      </trkpt>
      <trkpt lat="47.25038" lon="-2.26864">
        <ele>42.599998474121</ele>
        <time>2020-08-23T07:49:20.000Z</time>
      </trkpt>
      <trkpt lat="47.25033" lon="-2.26865">
        <ele>42.599998474121</ele>
        <time>2020-08-23T07:49:21.000Z</time>
      </trkpt>
      <trkpt lat="47.25002" lon="-2.26871">
        <ele>42.599998474121</ele>
        <time>2020-08-23T07:49:27.000Z</time>
      </trkpt>
      <trkpt lat="47.2498" lon="-2.26873">
        <ele>42.599998474121</ele>
        <time>2020-08-23T07:49:31.000Z</time>
      </trkpt>
      <trkpt lat="47.24974" lon="-2.26871">
        <ele>42.599998474121</ele>
        <time>2020-08-23T07:49:32.000Z</time>
      </trkpt>
      <trkpt lat="47.24959" lon="-2.26859">
        <ele>42.599998474121</ele>
        <time>2020-08-23T07:49:35.000Z</time>
      </trkpt>
      <trkpt lat="47.24954" lon="-2.26854">
        <ele>42.599998474121</ele>
        <time>2020-08-23T07:49:36.000Z</time>
      </trkpt>
      <trkpt lat="47.2495" lon="-2.26851">
        <ele>42.599998474121</ele>
        <time>2020-08-23T07:49:37.000Z</time>
      </trkpt>
      <trkpt lat="47.24924" lon="-2.26835">
        <ele>42.599998474121</ele>
        <time>2020-08-23T07:49:42.000Z</time>
      </trkpt>
      <trkpt lat="47.2492" lon="-2.26832">
        <ele>42.599998474121</ele>
        <time>2020-08-23T07:49:43.000Z</time>
      </trkpt>
      <trkpt lat="47.24909" lon="-2.26827">
        <ele>42.599998474121</ele>
        <time>2020-08-23T07:49:46.000Z</time>
      </trkpt>
      <trkpt lat="47.24898" lon="-2.26823">
        <ele>42.599998474121</ele>
        <time>2020-08-23T07:49:49.000Z</time>
      </trkpt>
      <trkpt lat="47.24893" lon="-2.26822">
        <ele>42.599998474121</ele>
        <time>2020-08-23T07:49:50.000Z</time>
      </trkpt>
      <trkpt lat="47.24888" lon="-2.26819">
        <ele>42.599998474121</ele>
        <time>2020-08-23T07:49:51.000Z</time>
      </trkpt>
      <trkpt lat="47.24872" lon="-2.26812">
        <ele>42.599998474121</ele>
        <time>2020-08-23T07:49:54.000Z</time>
      </trkpt>
      <trkpt lat="47.24867" lon="-2.26811">
        <ele>42.599998474121</ele>
        <time>2020-08-23T07:49:55.000Z</time>
      </trkpt>
      <trkpt lat="47.24852" lon="-2.26801">
        <ele>42.599998474121</ele>
        <time>2020-08-23T07:49:58.000Z</time>
      </trkpt>
      <trkpt lat="47.24846" lon="-2.268">
        <ele>42.200000762939</ele>
        <time>2020-08-23T07:49:59.000Z</time>
      </trkpt>
      <trkpt lat="47.2484" lon="-2.26801">
        <ele>41.799999237061</ele>
        <time>2020-08-23T07:50:00.000Z</time>
      </trkpt>
      <trkpt lat="47.24834" lon="-2.26801">
        <ele>41.400001525879</ele>
        <time>2020-08-23T07:50:01.000Z</time>
      </trkpt>
      <trkpt lat="47.24828" lon="-2.26801">
        <ele>41</ele>
        <time>2020-08-23T07:50:02.000Z</time>
      </trkpt>
      <trkpt lat="47.24822" lon="-2.26799">
        <ele>40.599998474121</ele>
        <time>2020-08-23T07:50:03.000Z</time>
      </trkpt>
      <trkpt lat="47.24815" lon="-2.26797">
        <ele>40.599998474121</ele>
        <time>2020-08-23T07:50:04.000Z</time>
      </trkpt>
      <trkpt lat="47.24809" lon="-2.26795">
        <ele>40.599998474121</ele>
        <time>2020-08-23T07:50:05.000Z</time>
      </trkpt>
      <trkpt lat="47.24774" lon="-2.26783">
        <ele>40.599998474121</ele>
        <time>2020-08-23T07:50:11.000Z</time>
      </trkpt>
      <trkpt lat="47.24769" lon="-2.26782">
        <ele>40.200000762939</ele>
        <time>2020-08-23T07:50:12.000Z</time>
      </trkpt>
      <trkpt lat="47.24764" lon="-2.2678">
        <ele>39.599998474121</ele>
        <time>2020-08-23T07:50:13.000Z</time>
      </trkpt>
      <trkpt lat="47.24758" lon="-2.2678">
        <ele>39.200000762939</ele>
        <time>2020-08-23T07:50:14.000Z</time>
      </trkpt>
      <trkpt lat="47.24752" lon="-2.26779">
        <ele>38.799999237061</ele>
        <time>2020-08-23T07:50:15.000Z</time>
      </trkpt>
      <trkpt lat="47.24746" lon="-2.26779">
        <ele>38.200000762939</ele>
        <time>2020-08-23T07:50:16.000Z</time>
      </trkpt>
      <trkpt lat="47.24708" lon="-2.26776">
        <ele>38.200000762939</ele>
        <time>2020-08-23T07:50:22.000Z</time>
      </trkpt>
      <trkpt lat="47.24684" lon="-2.26779">
        <ele>38.200000762939</ele>
        <time>2020-08-23T07:50:26.000Z</time>
      </trkpt>
      <trkpt lat="47.2468" lon="-2.26783">
        <ele>38.200000762939</ele>
        <time>2020-08-23T07:50:27.000Z</time>
      </trkpt>
      <trkpt lat="47.24668" lon="-2.26798">
        <ele>37.799999237061</ele>
        <time>2020-08-23T07:50:30.000Z</time>
      </trkpt>
      <trkpt lat="47.24663" lon="-2.26801">
        <ele>37.400001525879</ele>
        <time>2020-08-23T07:50:31.000Z</time>
      </trkpt>
      <trkpt lat="47.24658" lon="-2.26805">
        <ele>37</ele>
        <time>2020-08-23T07:50:32.000Z</time>
      </trkpt>
      <trkpt lat="47.24653" lon="-2.26808">
        <ele>36.599998474121</ele>
        <time>2020-08-23T07:50:33.000Z</time>
      </trkpt>
      <trkpt lat="47.24647" lon="-2.2681">
        <ele>36.200000762939</ele>
        <time>2020-08-23T07:50:34.000Z</time>
      </trkpt>
      <trkpt lat="47.24641" lon="-2.26811">
        <ele>36.200000762939</ele>
        <time>2020-08-23T07:50:35.000Z</time>
      </trkpt>
      <trkpt lat="47.24634" lon="-2.26813">
        <ele>36.200000762939</ele>
        <time>2020-08-23T07:50:36.000Z</time>
      </trkpt>
      <trkpt lat="47.24623" lon="-2.26821">
        <ele>36.200000762939</ele>
        <time>2020-08-23T07:50:38.000Z</time>
      </trkpt>
      <trkpt lat="47.24612" lon="-2.26829">
        <ele>36.200000762939</ele>
        <time>2020-08-23T07:50:40.000Z</time>
      </trkpt>
      <trkpt lat="47.24607" lon="-2.26834">
        <ele>35.799999237061</ele>
        <time>2020-08-23T07:50:41.000Z</time>
      </trkpt>
      <trkpt lat="47.24602" lon="-2.26838">
        <ele>35.400001525879</ele>
        <time>2020-08-23T07:50:42.000Z</time>
      </trkpt>
      <trkpt lat="47.24596" lon="-2.2684">
        <ele>35</ele>
        <time>2020-08-23T07:50:43.000Z</time>
      </trkpt>
      <trkpt lat="47.24591" lon="-2.26839">
        <ele>34.599998474121</ele>
        <time>2020-08-23T07:50:44.000Z</time>
      </trkpt>
      <trkpt lat="47.24586" lon="-2.26838">
        <ele>34</ele>
        <time>2020-08-23T07:50:45.000Z</time>
      </trkpt>
      <trkpt lat="47.24581" lon="-2.26839">
        <ele>33.599998474121</ele>
        <time>2020-08-23T07:50:46.000Z</time>
      </trkpt>
      <trkpt lat="47.24577" lon="-2.2684">
        <ele>33</ele>
        <time>2020-08-23T07:50:47.000Z</time>
      </trkpt>
      <trkpt lat="47.24573" lon="-2.26842">
        <ele>32.599998474121</ele>
        <time>2020-08-23T07:50:48.000Z</time>
      </trkpt>
      <trkpt lat="47.24568" lon="-2.26845">
        <ele>32.200000762939</ele>
        <time>2020-08-23T07:50:49.000Z</time>
      </trkpt>
      <trkpt lat="47.24559" lon="-2.26854">
        <ele>32.200000762939</ele>
        <time>2020-08-23T07:50:51.000Z</time>
      </trkpt>
      <trkpt lat="47.24555" lon="-2.26858">
        <ele>32.200000762939</ele>
        <time>2020-08-23T07:50:52.000Z</time>
      </trkpt>
      <trkpt lat="47.24539" lon="-2.26879">
        <ele>32.200000762939</ele>
        <time>2020-08-23T07:50:57.000Z</time>
      </trkpt>
      <trkpt lat="47.24528" lon="-2.26897">
        <ele>32.200000762939</ele>
        <time>2020-08-23T07:51:01.000Z</time>
      </trkpt>
      <trkpt lat="47.24525" lon="-2.26903">
        <ele>32.200000762939</ele>
        <time>2020-08-23T07:51:02.000Z</time>
      </trkpt>
      <trkpt lat="47.24513" lon="-2.26921">
        <ele>31.60000038147</ele>
        <time>2020-08-23T07:51:05.000Z</time>
      </trkpt>
      <trkpt lat="47.24508" lon="-2.26925">
        <ele>31.200000762939</ele>
        <time>2020-08-23T07:51:06.000Z</time>
      </trkpt>
      <trkpt lat="47.24503" lon="-2.26928">
        <ele>30.799999237061</ele>
        <time>2020-08-23T07:51:07.000Z</time>
      </trkpt>
      <trkpt lat="47.24497" lon="-2.26932">
        <ele>30.39999961853</ele>
        <time>2020-08-23T07:51:08.000Z</time>
      </trkpt>
      <trkpt lat="47.24493" lon="-2.26936">
        <ele>30</ele>
        <time>2020-08-23T07:51:09.000Z</time>
      </trkpt>
      <trkpt lat="47.24487" lon="-2.26946">
        <ele>30</ele>
        <time>2020-08-23T07:51:11.000Z</time>
      </trkpt>
      <trkpt lat="47.24484" lon="-2.26952">
        <ele>30</ele>
        <time>2020-08-23T07:51:12.000Z</time>
      </trkpt>
      <trkpt lat="47.24481" lon="-2.26957">
        <ele>30</ele>
        <time>2020-08-23T07:51:13.000Z</time>
      </trkpt>
      <trkpt lat="47.24471" lon="-2.26966">
        <ele>29.60000038147</ele>
        <time>2020-08-23T07:51:15.000Z</time>
      </trkpt>
      <trkpt lat="47.24466" lon="-2.26968">
        <ele>29.200000762939</ele>
        <time>2020-08-23T07:51:16.000Z</time>
      </trkpt>
      <trkpt lat="47.2446" lon="-2.26972">
        <ele>28.799999237061</ele>
        <time>2020-08-23T07:51:17.000Z</time>
      </trkpt>
      <trkpt lat="47.24455" lon="-2.26976">
        <ele>28.39999961853</ele>
        <time>2020-08-23T07:51:18.000Z</time>
      </trkpt>
      <trkpt lat="47.2445" lon="-2.26979">
        <ele>28</ele>
        <time>2020-08-23T07:51:19.000Z</time>
      </trkpt>
      <trkpt lat="47.2444" lon="-2.26986">
        <ele>28</ele>
        <time>2020-08-23T07:51:21.000Z</time>
      </trkpt>
      <trkpt lat="47.24436" lon="-2.26989">
        <ele>28</ele>
        <time>2020-08-23T07:51:22.000Z</time>
      </trkpt>
      <trkpt lat="47.24429" lon="-2.27005">
        <ele>28</ele>
        <time>2020-08-23T07:51:25.000Z</time>
      </trkpt>
      <trkpt lat="47.24427" lon="-2.27019">
        <ele>28</ele>
        <time>2020-08-23T07:51:27.000Z</time>
      </trkpt>
      <trkpt lat="47.24426" lon="-2.27027">
        <ele>28</ele>
        <time>2020-08-23T07:51:28.000Z</time>
      </trkpt>
      <trkpt lat="47.24426" lon="-2.27044">
        <ele>28</ele>
        <time>2020-08-23T07:51:30.000Z</time>
      </trkpt>
      <trkpt lat="47.2442" lon="-2.27066">
        <ele>28</ele>
        <time>2020-08-23T07:51:33.000Z</time>
      </trkpt>
      <trkpt lat="47.24417" lon="-2.27073">
        <ele>27.60000038147</ele>
        <time>2020-08-23T07:51:34.000Z</time>
      </trkpt>
      <trkpt lat="47.24413" lon="-2.27081">
        <ele>27.200000762939</ele>
        <time>2020-08-23T07:51:35.000Z</time>
      </trkpt>
      <trkpt lat="47.2441" lon="-2.27089">
        <ele>26.799999237061</ele>
        <time>2020-08-23T07:51:36.000Z</time>
      </trkpt>
      <trkpt lat="47.24406" lon="-2.27097">
        <ele>26.39999961853</ele>
        <time>2020-08-23T07:51:37.000Z</time>
      </trkpt>
      <trkpt lat="47.24401" lon="-2.27103">
        <ele>26</ele>
        <time>2020-08-23T07:51:38.000Z</time>
      </trkpt>
      <trkpt lat="47.24389" lon="-2.27111">
        <ele>26</ele>
        <time>2020-08-23T07:51:40.000Z</time>
      </trkpt>
      <trkpt lat="47.2436" lon="-2.27131">
        <ele>26</ele>
        <time>2020-08-23T07:51:45.000Z</time>
      </trkpt>
      <trkpt lat="47.24344" lon="-2.27145">
        <ele>26</ele>
        <time>2020-08-23T07:51:48.000Z</time>
      </trkpt>
      <trkpt lat="47.24338" lon="-2.27147">
        <ele>26</ele>
        <time>2020-08-23T07:51:49.000Z</time>
      </trkpt>
      <trkpt lat="47.24318" lon="-2.27154">
        <ele>26</ele>
        <time>2020-08-23T07:51:53.000Z</time>
      </trkpt>
      <trkpt lat="47.2431" lon="-2.2716">
        <ele>26</ele>
        <time>2020-08-23T07:51:57.000Z</time>
      </trkpt>
      <trkpt lat="47.24308" lon="-2.27153">
        <ele>26</ele>
        <time>2020-08-23T07:52:00.000Z</time>
      </trkpt>
      <trkpt lat="47.24308" lon="-2.27148">
        <ele>26</ele>
        <time>2020-08-23T07:52:01.000Z</time>
      </trkpt>
      <trkpt lat="47.24302" lon="-2.27117">
        <ele>26</ele>
        <time>2020-08-23T07:52:07.000Z</time>
      </trkpt>
      <trkpt lat="47.243" lon="-2.27115">
        <ele>26</ele>
        <time>2020-08-23T07:52:08.000Z</time>
      </trkpt>
      <trkpt lat="47.24293" lon="-2.27116">
        <ele>26</ele>
        <time>2020-08-23T07:52:10.000Z</time>
      </trkpt>
      <trkpt lat="47.24275" lon="-2.27111">
        <ele>26</ele>
        <time>2020-08-23T07:52:14.000Z</time>
      </trkpt>
      <trkpt lat="47.24251" lon="-2.27119">
        <ele>26</ele>
        <time>2020-08-23T07:52:18.000Z</time>
      </trkpt>
      <trkpt lat="47.24239" lon="-2.27127">
        <ele>26</ele>
        <time>2020-08-23T07:52:20.000Z</time>
      </trkpt>
      <trkpt lat="47.24216" lon="-2.27145">
        <ele>26</ele>
        <time>2020-08-23T07:52:24.000Z</time>
      </trkpt>
      <trkpt lat="47.24187" lon="-2.2716">
        <ele>26</ele>
        <time>2020-08-23T07:52:29.000Z</time>
      </trkpt>
      <trkpt lat="47.24152" lon="-2.27175">
        <ele>26</ele>
        <time>2020-08-23T07:52:35.000Z</time>
      </trkpt>
      <trkpt lat="47.2412" lon="-2.27188">
        <ele>26</ele>
        <time>2020-08-23T07:52:42.000Z</time>
      </trkpt>
      <trkpt lat="47.24111" lon="-2.2719">
        <ele>26</ele>
        <time>2020-08-23T07:52:46.000Z</time>
      </trkpt>
      <trkpt lat="47.24108" lon="-2.2719">
        <ele>25.60000038147</ele>
        <time>2020-08-23T07:52:48.000Z</time>
      </trkpt>
      <trkpt lat="47.24107" lon="-2.2719">
        <ele>25</ele>
        <time>2020-08-23T07:52:49.000Z</time>
      </trkpt>
      <trkpt lat="47.24106" lon="-2.2719">
        <ele>24.60000038147</ele>
        <time>2020-08-23T07:52:50.000Z</time>
      </trkpt>
      <trkpt lat="47.24103" lon="-2.27188">
        <ele>24.200000762939</ele>
        <time>2020-08-23T07:52:51.000Z</time>
      </trkpt>
      <trkpt lat="47.24101" lon="-2.27186">
        <ele>23.799999237061</ele>
        <time>2020-08-23T07:52:52.000Z</time>
      </trkpt>
      <trkpt lat="47.241" lon="-2.27177">
        <ele>23.799999237061</ele>
        <time>2020-08-23T07:52:54.000Z</time>
      </trkpt>
      <trkpt lat="47.241" lon="-2.27163">
        <ele>23.799999237061</ele>
        <time>2020-08-23T07:52:57.000Z</time>
      </trkpt>
      <trkpt lat="47.241" lon="-2.27149">
        <ele>23.799999237061</ele>
        <time>2020-08-23T07:53:00.000Z</time>
      </trkpt>
      <trkpt lat="47.24101" lon="-2.27107">
        <ele>23.799999237061</ele>
        <time>2020-08-23T07:53:08.000Z</time>
      </trkpt>
      <trkpt lat="47.24101" lon="-2.27085">
        <ele>23.799999237061</ele>
        <time>2020-08-23T07:53:12.000Z</time>
      </trkpt>
      <trkpt lat="47.241" lon="-2.27071">
        <ele>23.799999237061</ele>
        <time>2020-08-23T07:53:14.000Z</time>
      </trkpt>
      <trkpt lat="47.24101" lon="-2.27012">
        <ele>23.799999237061</ele>
        <time>2020-08-23T07:53:22.000Z</time>
      </trkpt>
      <trkpt lat="47.241" lon="-2.26975">
        <ele>23.799999237061</ele>
        <time>2020-08-23T07:53:27.000Z</time>
      </trkpt>
      <trkpt lat="47.241" lon="-2.26967">
        <ele>23.799999237061</ele>
        <time>2020-08-23T07:53:28.000Z</time>
      </trkpt>
      <trkpt lat="47.241" lon="-2.26912">
        <ele>24.200000762939</ele>
        <time>2020-08-23T07:53:35.000Z</time>
      </trkpt>
      <trkpt lat="47.241" lon="-2.26905">
        <ele>24.60000038147</ele>
        <time>2020-08-23T07:53:36.000Z</time>
      </trkpt>
      <trkpt lat="47.24101" lon="-2.26896">
        <ele>25.200000762939</ele>
        <time>2020-08-23T07:53:37.000Z</time>
      </trkpt>
      <trkpt lat="47.24101" lon="-2.26888">
        <ele>25.60000038147</ele>
        <time>2020-08-23T07:53:38.000Z</time>
      </trkpt>
      <trkpt lat="47.24102" lon="-2.26881">
        <ele>26</ele>
        <time>2020-08-23T07:53:39.000Z</time>
      </trkpt>
      <trkpt lat="47.24103" lon="-2.26869">
        <ele>26</ele>
        <time>2020-08-23T07:53:41.000Z</time>
      </trkpt>
      <trkpt lat="47.24104" lon="-2.26859">
        <ele>26.39999961853</ele>
        <time>2020-08-23T07:53:43.000Z</time>
      </trkpt>
      <trkpt lat="47.24104" lon="-2.26855">
        <ele>26.799999237061</ele>
        <time>2020-08-23T07:53:44.000Z</time>
      </trkpt>
      <trkpt lat="47.24104" lon="-2.26851">
        <ele>27.200000762939</ele>
        <time>2020-08-23T07:53:45.000Z</time>
      </trkpt>
      <trkpt lat="47.24104" lon="-2.26847">
        <ele>27.60000038147</ele>
        <time>2020-08-23T07:53:46.000Z</time>
      </trkpt>
      <trkpt lat="47.24103" lon="-2.26844">
        <ele>28.200000762939</ele>
        <time>2020-08-23T07:53:47.000Z</time>
      </trkpt>
      <trkpt lat="47.24095" lon="-2.26835">
        <ele>28.200000762939</ele>
        <time>2020-08-23T07:53:51.000Z</time>
      </trkpt>
      <trkpt lat="47.24081" lon="-2.26838">
        <ele>28.200000762939</ele>
        <time>2020-08-23T07:53:55.000Z</time>
      </trkpt>
      <trkpt lat="47.24063" lon="-2.26842">
        <ele>28.200000762939</ele>
        <time>2020-08-23T07:54:00.000Z</time>
      </trkpt>
      <trkpt lat="47.24059" lon="-2.26857">
        <ele>28.200000762939</ele>
        <time>2020-08-23T07:54:03.000Z</time>
      </trkpt>
      <trkpt lat="47.24059" lon="-2.26862">
        <ele>28.60000038147</ele>
        <time>2020-08-23T07:54:04.000Z</time>
      </trkpt>
      <trkpt lat="47.24058" lon="-2.26867">
        <ele>29</ele>
        <time>2020-08-23T07:54:05.000Z</time>
      </trkpt>
      <trkpt lat="47.24057" lon="-2.26872">
        <ele>29.39999961853</ele>
        <time>2020-08-23T07:54:06.000Z</time>
      </trkpt>
      <trkpt lat="47.24056" lon="-2.26878">
        <ele>29.799999237061</ele>
        <time>2020-08-23T07:54:07.000Z</time>
      </trkpt>
      <trkpt lat="47.24055" lon="-2.26883">
        <ele>30.200000762939</ele>
        <time>2020-08-23T07:54:08.000Z</time>
      </trkpt>
      <trkpt lat="47.24053" lon="-2.26897">
        <ele>30.200000762939</ele>
        <time>2020-08-23T07:54:10.000Z</time>
      </trkpt>
      <trkpt lat="47.2405" lon="-2.26912">
        <ele>30.200000762939</ele>
        <time>2020-08-23T07:54:12.000Z</time>
      </trkpt>
      <trkpt lat="47.24047" lon="-2.26925">
        <ele>29.799999237061</ele>
        <time>2020-08-23T07:54:14.000Z</time>
      </trkpt>
      <trkpt lat="47.24046" lon="-2.26932">
        <ele>29.39999961853</ele>
        <time>2020-08-23T07:54:15.000Z</time>
      </trkpt>
      <trkpt lat="47.24045" lon="-2.26939">
        <ele>28.799999237061</ele>
        <time>2020-08-23T07:54:16.000Z</time>
      </trkpt>
      <trkpt lat="47.24045" lon="-2.26946">
        <ele>28.39999961853</ele>
        <time>2020-08-23T07:54:17.000Z</time>
      </trkpt>
      <trkpt lat="47.24045" lon="-2.26954">
        <ele>28</ele>
        <time>2020-08-23T07:54:18.000Z</time>
      </trkpt>
      <trkpt lat="47.24045" lon="-2.26962">
        <ele>27.39999961853</ele>
        <time>2020-08-23T07:54:19.000Z</time>
      </trkpt>
      <trkpt lat="47.24045" lon="-2.26969">
        <ele>27</ele>
        <time>2020-08-23T07:54:20.000Z</time>
      </trkpt>
      <trkpt lat="47.24045" lon="-2.26976">
        <ele>26.39999961853</ele>
        <time>2020-08-23T07:54:21.000Z</time>
      </trkpt>
      <trkpt lat="47.24045" lon="-2.26981">
        <ele>25.799999237061</ele>
        <time>2020-08-23T07:54:22.000Z</time>
      </trkpt>
      <trkpt lat="47.24045" lon="-2.26987">
        <ele>25.200000762939</ele>
        <time>2020-08-23T07:54:23.000Z</time>
      </trkpt>
      <trkpt lat="47.24044" lon="-2.26991">
        <ele>24.60000038147</ele>
        <time>2020-08-23T07:54:24.000Z</time>
      </trkpt>
      <trkpt lat="47.24042" lon="-2.26996">
        <ele>24</ele>
        <time>2020-08-23T07:54:25.000Z</time>
      </trkpt>
      <trkpt lat="47.24038" lon="-2.26999">
        <ele>23.200000762939</ele>
        <time>2020-08-23T07:54:26.000Z</time>
      </trkpt>
      <trkpt lat="47.24034" lon="-2.27002">
        <ele>22.60000038147</ele>
        <time>2020-08-23T07:54:27.000Z</time>
      </trkpt>
      <trkpt lat="47.24029" lon="-2.27004">
        <ele>22</ele>
        <time>2020-08-23T07:54:28.000Z</time>
      </trkpt>
      <trkpt lat="47.24025" lon="-2.27006">
        <ele>21.200000762939</ele>
        <time>2020-08-23T07:54:29.000Z</time>
      </trkpt>
      <trkpt lat="47.2402" lon="-2.27006">
        <ele>21.200000762939</ele>
        <time>2020-08-23T07:54:30.000Z</time>
      </trkpt>
      <trkpt lat="47.24017" lon="-2.27004">
        <ele>21.200000762939</ele>
        <time>2020-08-23T07:54:31.000Z</time>
      </trkpt>
      <trkpt lat="47.24015" lon="-2.27001">
        <ele>20.799999237061</ele>
        <time>2020-08-23T07:54:32.000Z</time>
      </trkpt>
      <trkpt lat="47.24013" lon="-2.26996">
        <ele>20.39999961853</ele>
        <time>2020-08-23T07:54:33.000Z</time>
      </trkpt>
      <trkpt lat="47.24011" lon="-2.26991">
        <ele>20</ele>
        <time>2020-08-23T07:54:34.000Z</time>
      </trkpt>
      <trkpt lat="47.2401" lon="-2.26986">
        <ele>19.60000038147</ele>
        <time>2020-08-23T07:54:35.000Z</time>
      </trkpt>
      <trkpt lat="47.24008" lon="-2.26981">
        <ele>19</ele>
        <time>2020-08-23T07:54:36.000Z</time>
      </trkpt>
      <trkpt lat="47.24003" lon="-2.26973">
        <ele>19</ele>
        <time>2020-08-23T07:54:38.000Z</time>
      </trkpt>
      <trkpt lat="47.23999" lon="-2.2697">
        <ele>19</ele>
        <time>2020-08-23T07:54:39.000Z</time>
      </trkpt>
      <trkpt lat="47.23971" lon="-2.26955">
        <ele>19</ele>
        <time>2020-08-23T07:54:45.000Z</time>
      </trkpt>
      <trkpt lat="47.23954" lon="-2.26948">
        <ele>19</ele>
        <time>2020-08-23T07:54:49.000Z</time>
      </trkpt>
      <trkpt lat="47.23951" lon="-2.26944">
        <ele>19</ele>
        <time>2020-08-23T07:54:50.000Z</time>
      </trkpt>
      <trkpt lat="47.23947" lon="-2.26926">
        <ele>19</ele>
        <time>2020-08-23T07:54:53.000Z</time>
      </trkpt>
      <trkpt lat="47.23947" lon="-2.26919">
        <ele>19.60000038147</ele>
        <time>2020-08-23T07:54:54.000Z</time>
      </trkpt>
      <trkpt lat="47.23946" lon="-2.26913">
        <ele>20</ele>
        <time>2020-08-23T07:54:55.000Z</time>
      </trkpt>
      <trkpt lat="47.23946" lon="-2.26908">
        <ele>20.39999961853</ele>
        <time>2020-08-23T07:54:56.000Z</time>
      </trkpt>
      <trkpt lat="47.23945" lon="-2.26902">
        <ele>20.799999237061</ele>
        <time>2020-08-23T07:54:57.000Z</time>
      </trkpt>
      <trkpt lat="47.23943" lon="-2.26897">
        <ele>21.39999961853</ele>
        <time>2020-08-23T07:54:58.000Z</time>
      </trkpt>
      <trkpt lat="47.2394" lon="-2.26893">
        <ele>22</ele>
        <time>2020-08-23T07:54:59.000Z</time>
      </trkpt>
      <trkpt lat="47.23936" lon="-2.26891">
        <ele>22.60000038147</ele>
        <time>2020-08-23T07:55:00.000Z</time>
      </trkpt>
      <trkpt lat="47.23932" lon="-2.26889">
        <ele>23.200000762939</ele>
        <time>2020-08-23T07:55:01.000Z</time>
      </trkpt>
      <trkpt lat="47.23928" lon="-2.26887">
        <ele>23.799999237061</ele>
        <time>2020-08-23T07:55:02.000Z</time>
      </trkpt>
      <trkpt lat="47.23924" lon="-2.26885">
        <ele>23.799999237061</ele>
        <time>2020-08-23T07:55:03.000Z</time>
      </trkpt>
      <trkpt lat="47.2392" lon="-2.26884">
        <ele>23.799999237061</ele>
        <time>2020-08-23T07:55:04.000Z</time>
      </trkpt>
      <trkpt lat="47.23887" lon="-2.26872">
        <ele>23.799999237061</ele>
        <time>2020-08-23T07:55:11.000Z</time>
      </trkpt>
      <trkpt lat="47.23874" lon="-2.26868">
        <ele>23.799999237061</ele>
        <time>2020-08-23T07:55:14.000Z</time>
      </trkpt>
      <trkpt lat="47.23868" lon="-2.26861">
        <ele>23.799999237061</ele>
        <time>2020-08-23T07:55:16.000Z</time>
      </trkpt>
      <trkpt lat="47.23867" lon="-2.26846">
        <ele>23.39999961853</ele>
        <time>2020-08-23T07:55:19.000Z</time>
      </trkpt>
      <trkpt lat="47.2387" lon="-2.26843">
        <ele>22.799999237061</ele>
        <time>2020-08-23T07:55:20.000Z</time>
      </trkpt>
      <trkpt lat="47.23874" lon="-2.2684">
        <ele>22.39999961853</ele>
        <time>2020-08-23T07:55:21.000Z</time>
      </trkpt>
      <trkpt lat="47.23878" lon="-2.26837">
        <ele>22</ele>
        <time>2020-08-23T07:55:22.000Z</time>
      </trkpt>
      <trkpt lat="47.23882" lon="-2.26836">
        <ele>21.39999961853</ele>
        <time>2020-08-23T07:55:23.000Z</time>
      </trkpt>
      <trkpt lat="47.23894" lon="-2.26832">
        <ele>21.39999961853</ele>
        <time>2020-08-23T07:55:26.000Z</time>
      </trkpt>
      <trkpt lat="47.239" lon="-2.26818">
        <ele>21.39999961853</ele>
        <time>2020-08-23T07:55:29.000Z</time>
      </trkpt>
      <trkpt lat="47.23897" lon="-2.26793">
        <ele>21.39999961853</ele>
        <time>2020-08-23T07:55:34.000Z</time>
      </trkpt>
      <trkpt lat="47.23894" lon="-2.26781">
        <ele>21.39999961853</ele>
        <time>2020-08-23T07:55:38.000Z</time>
      </trkpt>
      <trkpt lat="47.23894" lon="-2.2678">
        <ele>21.39999961853</ele>
        <time>2020-08-23T07:55:39.000Z</time>
      </trkpt>
      <trkpt lat="47.23894" lon="-2.26778">
        <ele>23.60000038147</ele>
        <time>2020-08-23T07:58:01.000Z</time>
      </trkpt>
      <trkpt lat="47.23895" lon="-2.26771">
        <ele>23.60000038147</ele>
        <time>2020-08-23T07:58:04.000Z</time>
      </trkpt>
      <trkpt lat="47.23897" lon="-2.26767">
        <ele>23.60000038147</ele>
        <time>2020-08-23T07:58:06.000Z</time>
      </trkpt>
      <trkpt lat="47.23901" lon="-2.26764">
        <ele>23.60000038147</ele>
        <time>2020-08-23T07:58:08.000Z</time>
      </trkpt>
      <trkpt lat="47.23905" lon="-2.2676">
        <ele>23.60000038147</ele>
        <time>2020-08-23T07:58:10.000Z</time>
      </trkpt>
      <trkpt lat="47.23914" lon="-2.26754">
        <ele>23.60000038147</ele>
        <time>2020-08-23T07:58:13.000Z</time>
      </trkpt>
      <trkpt lat="47.23921" lon="-2.26751">
        <ele>23.60000038147</ele>
        <time>2020-08-23T07:58:15.000Z</time>
      </trkpt>
      <trkpt lat="47.2393" lon="-2.26749">
        <ele>23.60000038147</ele>
        <time>2020-08-23T07:58:17.000Z</time>
      </trkpt>
      <trkpt lat="47.23938" lon="-2.26745">
        <ele>23.60000038147</ele>
        <time>2020-08-23T07:58:19.000Z</time>
      </trkpt>
      <trkpt lat="47.23954" lon="-2.26736">
        <ele>23.60000038147</ele>
        <time>2020-08-23T07:58:23.000Z</time>
      </trkpt>
      <trkpt lat="47.23971" lon="-2.26736">
        <ele>23.60000038147</ele>
        <time>2020-08-23T07:58:27.000Z</time>
      </trkpt>
      <trkpt lat="47.23975" lon="-2.26737">
        <ele>23.60000038147</ele>
        <time>2020-08-23T07:58:28.000Z</time>
      </trkpt>
      <trkpt lat="47.23988" lon="-2.26738">
        <ele>23.60000038147</ele>
        <time>2020-08-23T07:58:31.000Z</time>
      </trkpt>
      <trkpt lat="47.23997" lon="-2.26738">
        <ele>24</ele>
        <time>2020-08-23T07:58:33.000Z</time>
      </trkpt>
      <trkpt lat="47.24001" lon="-2.26739">
        <ele>24.39999961853</ele>
        <time>2020-08-23T07:58:34.000Z</time>
      </trkpt>
      <trkpt lat="47.24005" lon="-2.26739">
        <ele>25</ele>
        <time>2020-08-23T07:58:35.000Z</time>
      </trkpt>
      <trkpt lat="47.24009" lon="-2.26738">
        <ele>25.39999961853</ele>
        <time>2020-08-23T07:58:36.000Z</time>
      </trkpt>
      <trkpt lat="47.24013" lon="-2.26739">
        <ele>25.799999237061</ele>
        <time>2020-08-23T07:58:37.000Z</time>
      </trkpt>
      <trkpt lat="47.24025" lon="-2.26737">
        <ele>25.799999237061</ele>
        <time>2020-08-23T07:58:40.000Z</time>
      </trkpt>
      <trkpt lat="47.24029" lon="-2.26735">
        <ele>25.799999237061</ele>
        <time>2020-08-23T07:58:41.000Z</time>
      </trkpt>
      <trkpt lat="47.24037" lon="-2.26731">
        <ele>26.200000762939</ele>
        <time>2020-08-23T07:58:43.000Z</time>
      </trkpt>
      <trkpt lat="47.24041" lon="-2.26729">
        <ele>26.60000038147</ele>
        <time>2020-08-23T07:58:44.000Z</time>
      </trkpt>
      <trkpt lat="47.24045" lon="-2.26727">
        <ele>27</ele>
        <time>2020-08-23T07:58:45.000Z</time>
      </trkpt>
      <trkpt lat="47.24048" lon="-2.26724">
        <ele>27.60000038147</ele>
        <time>2020-08-23T07:58:46.000Z</time>
      </trkpt>
      <trkpt lat="47.24052" lon="-2.26721">
        <ele>28</ele>
        <time>2020-08-23T07:58:47.000Z</time>
      </trkpt>
      <trkpt lat="47.24064" lon="-2.26708">
        <ele>28</ele>
        <time>2020-08-23T07:58:51.000Z</time>
      </trkpt>
      <trkpt lat="47.24067" lon="-2.26705">
        <ele>28.39999961853</ele>
        <time>2020-08-23T07:58:52.000Z</time>
      </trkpt>
      <trkpt lat="47.24069" lon="-2.26702">
        <ele>28.799999237061</ele>
        <time>2020-08-23T07:58:53.000Z</time>
      </trkpt>
      <trkpt lat="47.24071" lon="-2.26699">
        <ele>29.200000762939</ele>
        <time>2020-08-23T07:58:54.000Z</time>
      </trkpt>
      <trkpt lat="47.24073" lon="-2.26696">
        <ele>29.60000038147</ele>
        <time>2020-08-23T07:58:55.000Z</time>
      </trkpt>
      <trkpt lat="47.24075" lon="-2.26692">
        <ele>30</ele>
        <time>2020-08-23T07:58:56.000Z</time>
      </trkpt>
      <trkpt lat="47.24077" lon="-2.26687">
        <ele>30</ele>
        <time>2020-08-23T07:58:57.000Z</time>
      </trkpt>
      <trkpt lat="47.24085" lon="-2.26669">
        <ele>30.60000038147</ele>
        <time>2020-08-23T07:59:02.000Z</time>
      </trkpt>
      <trkpt lat="47.24086" lon="-2.26666">
        <ele>31</ele>
        <time>2020-08-23T07:59:03.000Z</time>
      </trkpt>
      <trkpt lat="47.24088" lon="-2.26663">
        <ele>31.39999961853</ele>
        <time>2020-08-23T07:59:04.000Z</time>
      </trkpt>
      <trkpt lat="47.2409" lon="-2.2666">
        <ele>31.799999237061</ele>
        <time>2020-08-23T07:59:05.000Z</time>
      </trkpt>
      <trkpt lat="47.24091" lon="-2.26657">
        <ele>32.200000762939</ele>
        <time>2020-08-23T07:59:06.000Z</time>
      </trkpt>
      <trkpt lat="47.24095" lon="-2.26652">
        <ele>32.200000762939</ele>
        <time>2020-08-23T07:59:08.000Z</time>
      </trkpt>
      <trkpt lat="47.24104" lon="-2.26653">
        <ele>32.200000762939</ele>
        <time>2020-08-23T07:59:13.000Z</time>
      </trkpt>
      <trkpt lat="47.2411" lon="-2.26645">
        <ele>32.200000762939</ele>
        <time>2020-08-23T07:59:17.000Z</time>
      </trkpt>
      <trkpt lat="47.24112" lon="-2.2664">
        <ele>32.200000762939</ele>
        <time>2020-08-23T07:59:20.000Z</time>
      </trkpt>
      <trkpt lat="47.24114" lon="-2.26639">
        <ele>32.200000762939</ele>
        <time>2020-08-23T07:59:22.000Z</time>
      </trkpt>
      <trkpt lat="47.24117" lon="-2.26641">
        <ele>31.799999237061</ele>
        <time>2020-08-23T07:59:24.000Z</time>
      </trkpt>
      <trkpt lat="47.24119" lon="-2.26641">
        <ele>31.39999961853</ele>
        <time>2020-08-23T07:59:25.000Z</time>
      </trkpt>
      <trkpt lat="47.2412" lon="-2.26638">
        <ele>31</ele>
        <time>2020-08-23T07:59:26.000Z</time>
      </trkpt>
      <trkpt lat="47.24121" lon="-2.26635">
        <ele>30.60000038147</ele>
        <time>2020-08-23T07:59:27.000Z</time>
      </trkpt>
      <trkpt lat="47.24122" lon="-2.26632">
        <ele>30.200000762939</ele>
        <time>2020-08-23T07:59:28.000Z</time>
      </trkpt>
      <trkpt lat="47.24126" lon="-2.26618">
        <ele>30.200000762939</ele>
        <time>2020-08-23T07:59:31.000Z</time>
      </trkpt>
      <trkpt lat="47.2413" lon="-2.26608">
        <ele>30.200000762939</ele>
        <time>2020-08-23T07:59:33.000Z</time>
      </trkpt>
      <trkpt lat="47.24134" lon="-2.26598">
        <ele>29.799999237061</ele>
        <time>2020-08-23T07:59:35.000Z</time>
      </trkpt>
      <trkpt lat="47.24136" lon="-2.26596">
        <ele>29.39999961853</ele>
        <time>2020-08-23T07:59:36.000Z</time>
      </trkpt>
      <trkpt lat="47.24137" lon="-2.26593">
        <ele>29</ele>
        <time>2020-08-23T07:59:37.000Z</time>
      </trkpt>
      <trkpt lat="47.24137" lon="-2.2659">
        <ele>28.200000762939</ele>
        <time>2020-08-23T07:59:38.000Z</time>
      </trkpt>
      <trkpt lat="47.24137" lon="-2.26587">
        <ele>28.200000762939</ele>
        <time>2020-08-23T07:59:39.000Z</time>
      </trkpt>
      <trkpt lat="47.24137" lon="-2.26583">
        <ele>28.200000762939</ele>
        <time>2020-08-23T07:59:40.000Z</time>
      </trkpt>
      <trkpt lat="47.24138" lon="-2.26581">
        <ele>28.200000762939</ele>
        <time>2020-08-23T07:59:41.000Z</time>
      </trkpt>
      <trkpt lat="47.24142" lon="-2.26577">
        <ele>28.200000762939</ele>
        <time>2020-08-23T07:59:44.000Z</time>
      </trkpt>
      <trkpt lat="47.24144" lon="-2.26576">
        <ele>28.200000762939</ele>
        <time>2020-08-23T07:59:45.000Z</time>
      </trkpt>
      <trkpt lat="47.24154" lon="-2.26577">
        <ele>28.200000762939</ele>
        <time>2020-08-23T07:59:50.000Z</time>
      </trkpt>
      <trkpt lat="47.24159" lon="-2.26583">
        <ele>28.200000762939</ele>
        <time>2020-08-23T07:59:53.000Z</time>
      </trkpt>
      <trkpt lat="47.2416" lon="-2.26586">
        <ele>28.200000762939</ele>
        <time>2020-08-23T07:59:54.000Z</time>
      </trkpt>
      <trkpt lat="47.24158" lon="-2.26596">
        <ele>28.200000762939</ele>
        <time>2020-08-23T07:59:57.000Z</time>
      </trkpt>
      <trkpt lat="47.24157" lon="-2.26598">
        <ele>28.60000038147</ele>
        <time>2020-08-23T07:59:58.000Z</time>
      </trkpt>
      <trkpt lat="47.24157" lon="-2.26601">
        <ele>29</ele>
        <time>2020-08-23T07:59:59.000Z</time>
      </trkpt>
      <trkpt lat="47.24156" lon="-2.26603">
        <ele>29.39999961853</ele>
        <time>2020-08-23T08:00:00.000Z</time>
      </trkpt>
      <trkpt lat="47.24155" lon="-2.26606">
        <ele>29.799999237061</ele>
        <time>2020-08-23T08:00:01.000Z</time>
      </trkpt>
      <trkpt lat="47.24155" lon="-2.26608">
        <ele>30.200000762939</ele>
        <time>2020-08-23T08:00:02.000Z</time>
      </trkpt>
      <trkpt lat="47.24155" lon="-2.26611">
        <ele>30.200000762939</ele>
        <time>2020-08-23T08:00:03.000Z</time>
      </trkpt>
      <trkpt lat="47.24155" lon="-2.26614">
        <ele>30.200000762939</ele>
        <time>2020-08-23T08:00:04.000Z</time>
      </trkpt>
      <trkpt lat="47.24159" lon="-2.26616">
        <ele>30.60000038147</ele>
        <time>2020-08-23T08:00:06.000Z</time>
      </trkpt>
      <trkpt lat="47.24161" lon="-2.26617">
        <ele>31</ele>
        <time>2020-08-23T08:00:07.000Z</time>
      </trkpt>
      <trkpt lat="47.24165" lon="-2.26616">
        <ele>31.39999961853</ele>
        <time>2020-08-23T08:00:08.000Z</time>
      </trkpt>
      <trkpt lat="47.24169" lon="-2.26616">
        <ele>31.799999237061</ele>
        <time>2020-08-23T08:00:09.000Z</time>
      </trkpt>
      <trkpt lat="47.24173" lon="-2.26617">
        <ele>32.200000762939</ele>
        <time>2020-08-23T08:00:10.000Z</time>
      </trkpt>
      <trkpt lat="47.24192" lon="-2.26621">
        <ele>32.200000762939</ele>
        <time>2020-08-23T08:00:15.000Z</time>
      </trkpt>
      <trkpt lat="47.24214" lon="-2.26628">
        <ele>32.200000762939</ele>
        <time>2020-08-23T08:00:21.000Z</time>
      </trkpt>
      <trkpt lat="47.24229" lon="-2.26622">
        <ele>32.200000762939</ele>
        <time>2020-08-23T08:00:25.000Z</time>
      </trkpt>
      <trkpt lat="47.24251" lon="-2.266">
        <ele>32.200000762939</ele>
        <time>2020-08-23T08:00:31.000Z</time>
      </trkpt>
      <trkpt lat="47.24279" lon="-2.26576">
        <ele>32.200000762939</ele>
        <time>2020-08-23T08:00:38.000Z</time>
      </trkpt>
      <trkpt lat="47.24311" lon="-2.26547">
        <ele>32.200000762939</ele>
        <time>2020-08-23T08:00:45.000Z</time>
      </trkpt>
      <trkpt lat="47.24338" lon="-2.26522">
        <ele>32.200000762939</ele>
        <time>2020-08-23T08:00:52.000Z</time>
      </trkpt>
      <trkpt lat="47.24367" lon="-2.26497">
        <ele>32.200000762939</ele>
        <time>2020-08-23T08:00:59.000Z</time>
      </trkpt>
      <trkpt lat="47.24385" lon="-2.26485">
        <ele>32.200000762939</ele>
        <time>2020-08-23T08:01:05.000Z</time>
      </trkpt>
      <trkpt lat="47.24412" lon="-2.26465">
        <ele>32.200000762939</ele>
        <time>2020-08-23T08:01:12.000Z</time>
      </trkpt>
      <trkpt lat="47.24444" lon="-2.26444">
        <ele>32.200000762939</ele>
        <time>2020-08-23T08:01:19.000Z</time>
      </trkpt>
      <trkpt lat="47.24477" lon="-2.26426">
        <ele>32.200000762939</ele>
        <time>2020-08-23T08:01:26.000Z</time>
      </trkpt>
      <trkpt lat="47.24512" lon="-2.26408">
        <ele>32.599998474121</ele>
        <time>2020-08-23T08:01:33.000Z</time>
      </trkpt>
      <trkpt lat="47.24518" lon="-2.26405">
        <ele>33</ele>
        <time>2020-08-23T08:01:34.000Z</time>
      </trkpt>
      <trkpt lat="47.24524" lon="-2.26402">
        <ele>33.400001525879</ele>
        <time>2020-08-23T08:01:35.000Z</time>
      </trkpt>
      <trkpt lat="47.24529" lon="-2.264">
        <ele>33.799999237061</ele>
        <time>2020-08-23T08:01:36.000Z</time>
      </trkpt>
      <trkpt lat="47.24535" lon="-2.26397">
        <ele>34.400001525879</ele>
        <time>2020-08-23T08:01:37.000Z</time>
      </trkpt>
      <trkpt lat="47.24552" lon="-2.26389">
        <ele>34.400001525879</ele>
        <time>2020-08-23T08:01:40.000Z</time>
      </trkpt>
      <trkpt lat="47.24592" lon="-2.26377">
        <ele>34.400001525879</ele>
        <time>2020-08-23T08:01:46.000Z</time>
      </trkpt>
      <trkpt lat="47.24633" lon="-2.26376">
        <ele>34.400001525879</ele>
        <time>2020-08-23T08:01:52.000Z</time>
      </trkpt>
      <trkpt lat="47.24667" lon="-2.26386">
        <ele>34.400001525879</ele>
        <time>2020-08-23T08:01:57.000Z</time>
      </trkpt>
      <trkpt lat="47.24711" lon="-2.26409">
        <ele>34.400001525879</ele>
        <time>2020-08-23T08:02:04.000Z</time>
      </trkpt>
      <trkpt lat="47.24764" lon="-2.26436">
        <ele>34.400001525879</ele>
        <time>2020-08-23T08:02:13.000Z</time>
      </trkpt>
      <trkpt lat="47.24802" lon="-2.26451">
        <ele>34.400001525879</ele>
        <time>2020-08-23T08:02:19.000Z</time>
      </trkpt>
      <trkpt lat="47.24816" lon="-2.26453">
        <ele>34.799999237061</ele>
        <time>2020-08-23T08:02:21.000Z</time>
      </trkpt>
      <trkpt lat="47.24823" lon="-2.26453">
        <ele>35.200000762939</ele>
        <time>2020-08-23T08:02:22.000Z</time>
      </trkpt>
      <trkpt lat="47.2483" lon="-2.26453">
        <ele>35.599998474121</ele>
        <time>2020-08-23T08:02:23.000Z</time>
      </trkpt>
      <trkpt lat="47.24837" lon="-2.26453">
        <ele>36</ele>
        <time>2020-08-23T08:02:24.000Z</time>
      </trkpt>
      <trkpt lat="47.24844" lon="-2.26452">
        <ele>36.400001525879</ele>
        <time>2020-08-23T08:02:25.000Z</time>
      </trkpt>
      <trkpt lat="47.24888" lon="-2.26441">
        <ele>36.400001525879</ele>
        <time>2020-08-23T08:02:32.000Z</time>
      </trkpt>
      <trkpt lat="47.24916" lon="-2.26432">
        <ele>36.400001525879</ele>
        <time>2020-08-23T08:02:38.000Z</time>
      </trkpt>
      <trkpt lat="47.24939" lon="-2.26421">
        <ele>36.400001525879</ele>
        <time>2020-08-23T08:02:43.000Z</time>
      </trkpt>
      <trkpt lat="47.24954" lon="-2.26423">
        <ele>36.400001525879</ele>
        <time>2020-08-23T08:02:46.000Z</time>
      </trkpt>
      <trkpt lat="47.24959" lon="-2.26423">
        <ele>36.400001525879</ele>
        <time>2020-08-23T08:02:47.000Z</time>
      </trkpt>
      <trkpt lat="47.24966" lon="-2.26414">
        <ele>36.400001525879</ele>
        <time>2020-08-23T08:02:49.000Z</time>
      </trkpt>
      <trkpt lat="47.24972" lon="-2.26395">
        <ele>36.400001525879</ele>
        <time>2020-08-23T08:02:52.000Z</time>
      </trkpt>
      <trkpt lat="47.24981" lon="-2.26386">
        <ele>36.400001525879</ele>
        <time>2020-08-23T08:02:54.000Z</time>
      </trkpt>
      <trkpt lat="47.24986" lon="-2.26382">
        <ele>36.400001525879</ele>
        <time>2020-08-23T08:02:55.000Z</time>
      </trkpt>
      <trkpt lat="47.24991" lon="-2.26379">
        <ele>36.400001525879</ele>
        <time>2020-08-23T08:02:56.000Z</time>
      </trkpt>
      <trkpt lat="47.25016" lon="-2.26364">
        <ele>36</ele>
        <time>2020-08-23T08:03:00.000Z</time>
      </trkpt>
      <trkpt lat="47.25022" lon="-2.2636">
        <ele>35.599998474121</ele>
        <time>2020-08-23T08:03:01.000Z</time>
      </trkpt>
      <trkpt lat="47.25029" lon="-2.26357">
        <ele>35.200000762939</ele>
        <time>2020-08-23T08:03:02.000Z</time>
      </trkpt>
      <trkpt lat="47.25035" lon="-2.26354">
        <ele>34.799999237061</ele>
        <time>2020-08-23T08:03:03.000Z</time>
      </trkpt>
      <trkpt lat="47.25042" lon="-2.26351">
        <ele>34.400001525879</ele>
        <time>2020-08-23T08:03:04.000Z</time>
      </trkpt>
      <trkpt lat="47.25053" lon="-2.26335">
        <ele>34.400001525879</ele>
        <time>2020-08-23T08:03:06.000Z</time>
      </trkpt>
      <trkpt lat="47.2506" lon="-2.26307">
        <ele>34.400001525879</ele>
        <time>2020-08-23T08:03:09.000Z</time>
      </trkpt>
      <trkpt lat="47.25061" lon="-2.26297">
        <ele>34.400001525879</ele>
        <time>2020-08-23T08:03:10.000Z</time>
      </trkpt>
      <trkpt lat="47.25065" lon="-2.26267">
        <ele>34.400001525879</ele>
        <time>2020-08-23T08:03:13.000Z</time>
      </trkpt>
      <trkpt lat="47.25067" lon="-2.26258">
        <ele>34.400001525879</ele>
        <time>2020-08-23T08:03:14.000Z</time>
      </trkpt>
      <trkpt lat="47.25081" lon="-2.26217">
        <ele>34.400001525879</ele>
        <time>2020-08-23T08:03:19.000Z</time>
      </trkpt>
      <trkpt lat="47.25083" lon="-2.26181">
        <ele>34.400001525879</ele>
        <time>2020-08-23T08:03:23.000Z</time>
      </trkpt>
      <trkpt lat="47.25084" lon="-2.26107">
        <ele>34.400001525879</ele>
        <time>2020-08-23T08:03:31.000Z</time>
      </trkpt>
      <trkpt lat="47.25085" lon="-2.26098">
        <ele>34.400001525879</ele>
        <time>2020-08-23T08:03:32.000Z</time>
      </trkpt>
      <trkpt lat="47.25087" lon="-2.26088">
        <ele>34</ele>
        <time>2020-08-23T08:03:33.000Z</time>
      </trkpt>
      <trkpt lat="47.25089" lon="-2.26078">
        <ele>33.599998474121</ele>
        <time>2020-08-23T08:03:34.000Z</time>
      </trkpt>
      <trkpt lat="47.25091" lon="-2.26068">
        <ele>33.200000762939</ele>
        <time>2020-08-23T08:03:35.000Z</time>
      </trkpt>
      <trkpt lat="47.25093" lon="-2.26057">
        <ele>32.799999237061</ele>
        <time>2020-08-23T08:03:36.000Z</time>
      </trkpt>
      <trkpt lat="47.25095" lon="-2.26046">
        <ele>32.400001525879</ele>
        <time>2020-08-23T08:03:37.000Z</time>
      </trkpt>
      <trkpt lat="47.25107" lon="-2.2599">
        <ele>32.400001525879</ele>
        <time>2020-08-23T08:03:42.000Z</time>
      </trkpt>
      <trkpt lat="47.25111" lon="-2.25979">
        <ele>31.799999237061</ele>
        <time>2020-08-23T08:03:43.000Z</time>
      </trkpt>
      <trkpt lat="47.25115" lon="-2.25968">
        <ele>31.39999961853</ele>
        <time>2020-08-23T08:03:44.000Z</time>
      </trkpt>
      <trkpt lat="47.2512" lon="-2.25958">
        <ele>30.39999961853</ele>
        <time>2020-08-23T08:03:45.000Z</time>
      </trkpt>
      <trkpt lat="47.25124" lon="-2.25949">
        <ele>29.799999237061</ele>
        <time>2020-08-23T08:03:46.000Z</time>
      </trkpt>
      <trkpt lat="47.25129" lon="-2.2594">
        <ele>29.799999237061</ele>
        <time>2020-08-23T08:03:47.000Z</time>
      </trkpt>
      <trkpt lat="47.25158" lon="-2.25891">
        <ele>29.799999237061</ele>
        <time>2020-08-23T08:03:53.000Z</time>
      </trkpt>
      <trkpt lat="47.25171" lon="-2.25849">
        <ele>29.799999237061</ele>
        <time>2020-08-23T08:03:57.000Z</time>
      </trkpt>
      <trkpt lat="47.25172" lon="-2.25839">
        <ele>29.799999237061</ele>
        <time>2020-08-23T08:03:58.000Z</time>
      </trkpt>
      <trkpt lat="47.25178" lon="-2.25809">
        <ele>29.799999237061</ele>
        <time>2020-08-23T08:04:01.000Z</time>
      </trkpt>
      <trkpt lat="47.25186" lon="-2.25795">
        <ele>29.799999237061</ele>
        <time>2020-08-23T08:04:03.000Z</time>
      </trkpt>
      <trkpt lat="47.25204" lon="-2.25789">
        <ele>29.799999237061</ele>
        <time>2020-08-23T08:04:06.000Z</time>
      </trkpt>
      <trkpt lat="47.25215" lon="-2.25792">
        <ele>29.799999237061</ele>
        <time>2020-08-23T08:04:08.000Z</time>
      </trkpt>
      <trkpt lat="47.25221" lon="-2.25792">
        <ele>29.799999237061</ele>
        <time>2020-08-23T08:04:09.000Z</time>
      </trkpt>
      <trkpt lat="47.25225" lon="-2.25788">
        <ele>29.799999237061</ele>
        <time>2020-08-23T08:04:10.000Z</time>
      </trkpt>
      <trkpt lat="47.25231" lon="-2.2577">
        <ele>29.799999237061</ele>
        <time>2020-08-23T08:04:13.000Z</time>
      </trkpt>
      <trkpt lat="47.25231" lon="-2.25763">
        <ele>29.799999237061</ele>
        <time>2020-08-23T08:04:14.000Z</time>
      </trkpt>
      <trkpt lat="47.25235" lon="-2.25736">
        <ele>29.799999237061</ele>
        <time>2020-08-23T08:04:18.000Z</time>
      </trkpt>
      <trkpt lat="47.25237" lon="-2.25724">
        <ele>29.799999237061</ele>
        <time>2020-08-23T08:04:20.000Z</time>
      </trkpt>
      <trkpt lat="47.25243" lon="-2.2569">
        <ele>29.799999237061</ele>
        <time>2020-08-23T08:04:24.000Z</time>
      </trkpt>
      <trkpt lat="47.25248" lon="-2.25674">
        <ele>29.799999237061</ele>
        <time>2020-08-23T08:04:26.000Z</time>
      </trkpt>
      <trkpt lat="47.25255" lon="-2.25658">
        <ele>29.799999237061</ele>
        <time>2020-08-23T08:04:28.000Z</time>
      </trkpt>
      <trkpt lat="47.25258" lon="-2.25648">
        <ele>29.799999237061</ele>
        <time>2020-08-23T08:04:29.000Z</time>
      </trkpt>
      <trkpt lat="47.25262" lon="-2.2563">
        <ele>29.39999961853</ele>
        <time>2020-08-23T08:04:31.000Z</time>
      </trkpt>
      <trkpt lat="47.25263" lon="-2.25621">
        <ele>29</ele>
        <time>2020-08-23T08:04:32.000Z</time>
      </trkpt>
      <trkpt lat="47.25265" lon="-2.25611">
        <ele>28.60000038147</ele>
        <time>2020-08-23T08:04:33.000Z</time>
      </trkpt>
      <trkpt lat="47.25265" lon="-2.25602">
        <ele>28.200000762939</ele>
        <time>2020-08-23T08:04:34.000Z</time>
      </trkpt>
      <trkpt lat="47.25267" lon="-2.25592">
        <ele>27.799999237061</ele>
        <time>2020-08-23T08:04:35.000Z</time>
      </trkpt>
      <trkpt lat="47.25267" lon="-2.25574">
        <ele>27.799999237061</ele>
        <time>2020-08-23T08:04:37.000Z</time>
      </trkpt>
      <trkpt lat="47.25266" lon="-2.25567">
        <ele>27.39999961853</ele>
        <time>2020-08-23T08:04:38.000Z</time>
      </trkpt>
      <trkpt lat="47.25265" lon="-2.2556">
        <ele>26.799999237061</ele>
        <time>2020-08-23T08:04:39.000Z</time>
      </trkpt>
      <trkpt lat="47.25263" lon="-2.25554">
        <ele>26.39999961853</ele>
        <time>2020-08-23T08:04:40.000Z</time>
      </trkpt>
      <trkpt lat="47.25261" lon="-2.25547">
        <ele>26</ele>
        <time>2020-08-23T08:04:41.000Z</time>
      </trkpt>
      <trkpt lat="47.25259" lon="-2.25539">
        <ele>25.60000038147</ele>
        <time>2020-08-23T08:04:42.000Z</time>
      </trkpt>
      <trkpt lat="47.25257" lon="-2.25531">
        <ele>25.60000038147</ele>
        <time>2020-08-23T08:04:43.000Z</time>
      </trkpt>
      <trkpt lat="47.25254" lon="-2.25514">
        <ele>25</ele>
        <time>2020-08-23T08:04:45.000Z</time>
      </trkpt>
      <trkpt lat="47.25254" lon="-2.25506">
        <ele>24.60000038147</ele>
        <time>2020-08-23T08:04:46.000Z</time>
      </trkpt>
      <trkpt lat="47.25253" lon="-2.25498">
        <ele>24</ele>
        <time>2020-08-23T08:04:47.000Z</time>
      </trkpt>
      <trkpt lat="47.25252" lon="-2.25491">
        <ele>23.60000038147</ele>
        <time>2020-08-23T08:04:48.000Z</time>
      </trkpt>
      <trkpt lat="47.2525" lon="-2.25485">
        <ele>23</ele>
        <time>2020-08-23T08:04:49.000Z</time>
      </trkpt>
      <trkpt lat="47.25247" lon="-2.25482">
        <ele>22.60000038147</ele>
        <time>2020-08-23T08:04:50.000Z</time>
      </trkpt>
      <trkpt lat="47.25245" lon="-2.25479">
        <ele>22.200000762939</ele>
        <time>2020-08-23T08:04:51.000Z</time>
      </trkpt>
      <trkpt lat="47.25242" lon="-2.25476">
        <ele>21.60000038147</ele>
        <time>2020-08-23T08:04:52.000Z</time>
      </trkpt>
      <trkpt lat="47.2524" lon="-2.25475">
        <ele>21.200000762939</ele>
        <time>2020-08-23T08:04:53.000Z</time>
      </trkpt>
      <trkpt lat="47.25238" lon="-2.25474">
        <ele>20.60000038147</ele>
        <time>2020-08-23T08:04:54.000Z</time>
      </trkpt>
      <trkpt lat="47.25237" lon="-2.25473">
        <ele>20</ele>
        <time>2020-08-23T08:04:55.000Z</time>
      </trkpt>
      <trkpt lat="47.25236" lon="-2.25473">
        <ele>19.39999961853</ele>
        <time>2020-08-23T08:04:56.000Z</time>
      </trkpt>
      <trkpt lat="47.25235" lon="-2.25472">
        <ele>19</ele>
        <time>2020-08-23T08:04:57.000Z</time>
      </trkpt>
      <trkpt lat="47.25234" lon="-2.25471">
        <ele>18.39999961853</ele>
        <time>2020-08-23T08:04:58.000Z</time>
      </trkpt>
      <trkpt lat="47.25233" lon="-2.2547">
        <ele>18.39999961853</ele>
        <time>2020-08-23T08:04:59.000Z</time>
      </trkpt>
      <trkpt lat="47.25233" lon="-2.25469">
        <ele>18.39999961853</ele>
        <time>2020-08-23T08:05:00.000Z</time>
      </trkpt>
      <trkpt lat="47.25235" lon="-2.25463">
        <ele>18.39999961853</ele>
        <time>2020-08-23T08:05:03.000Z</time>
      </trkpt>
      <trkpt lat="47.25236" lon="-2.2546">
        <ele>18.39999961853</ele>
        <time>2020-08-23T08:05:04.000Z</time>
      </trkpt>
      <trkpt lat="47.25238" lon="-2.25438">
        <ele>18.39999961853</ele>
        <time>2020-08-23T08:05:08.000Z</time>
      </trkpt>
      <trkpt lat="47.25242" lon="-2.25424">
        <ele>17.799999237061</ele>
        <time>2020-08-23T08:05:12.000Z</time>
      </trkpt>
      <trkpt lat="47.25243" lon="-2.25422">
        <ele>17.39999961853</ele>
        <time>2020-08-23T08:05:13.000Z</time>
      </trkpt>
      <trkpt lat="47.25245" lon="-2.2542">
        <ele>17</ele>
        <time>2020-08-23T08:05:14.000Z</time>
      </trkpt>
      <trkpt lat="47.25246" lon="-2.25419">
        <ele>16.60000038147</ele>
        <time>2020-08-23T08:05:15.000Z</time>
      </trkpt>
      <trkpt lat="47.25248" lon="-2.25416">
        <ele>16</ele>
        <time>2020-08-23T08:05:16.000Z</time>
      </trkpt>
      <trkpt lat="47.25251" lon="-2.25411">
        <ele>16</ele>
        <time>2020-08-23T08:05:18.000Z</time>
      </trkpt>
      <trkpt lat="47.25255" lon="-2.25409">
        <ele>16</ele>
        <time>2020-08-23T08:05:20.000Z</time>
      </trkpt>
      <trkpt lat="47.25258" lon="-2.25409">
        <ele>16</ele>
        <time>2020-08-23T08:05:22.000Z</time>
      </trkpt>
      <trkpt lat="47.25267" lon="-2.25409">
        <ele>16</ele>
        <time>2020-08-23T08:05:28.000Z</time>
      </trkpt>
      <trkpt lat="47.25273" lon="-2.25402">
        <ele>16</ele>
        <time>2020-08-23T08:05:33.000Z</time>
      </trkpt>
      <trkpt lat="47.25272" lon="-2.25399">
        <ele>16</ele>
        <time>2020-08-23T08:05:34.000Z</time>
      </trkpt>
      <trkpt lat="47.25271" lon="-2.25393">
        <ele>15.60000038147</ele>
        <time>2020-08-23T08:05:37.000Z</time>
      </trkpt>
      <trkpt lat="47.2527" lon="-2.2539">
        <ele>15.199999809265</ele>
        <time>2020-08-23T08:05:38.000Z</time>
      </trkpt>
      <trkpt lat="47.2527" lon="-2.25388">
        <ele>14.800000190735</ele>
        <time>2020-08-23T08:05:39.000Z</time>
      </trkpt>
      <trkpt lat="47.25271" lon="-2.25384">
        <ele>14.39999961853</ele>
        <time>2020-08-23T08:05:40.000Z</time>
      </trkpt>
      <trkpt lat="47.25273" lon="-2.2538">
        <ele>14</ele>
        <time>2020-08-23T08:05:41.000Z</time>
      </trkpt>
      <trkpt lat="47.25277" lon="-2.25373">
        <ele>14</ele>
        <time>2020-08-23T08:05:44.000Z</time>
      </trkpt>
      <trkpt lat="47.25279" lon="-2.25373">
        <ele>14</ele>
        <time>2020-08-23T08:05:45.000Z</time>
      </trkpt>
      <trkpt lat="47.25283" lon="-2.2538">
        <ele>14</ele>
        <time>2020-08-23T08:05:50.000Z</time>
      </trkpt>
      <trkpt lat="47.25283" lon="-2.25382">
        <ele>14</ele>
        <time>2020-08-23T08:05:51.000Z</time>
      </trkpt>
      <trkpt lat="47.25286" lon="-2.2539">
        <ele>14</ele>
        <time>2020-08-23T08:05:56.000Z</time>
      </trkpt>
      <trkpt lat="47.25287" lon="-2.2539">
        <ele>14</ele>
        <time>2020-08-23T08:05:57.000Z</time>
      </trkpt>
      <trkpt lat="47.25293" lon="-2.25396">
        <ele>14</ele>
        <time>2020-08-23T08:06:03.000Z</time>
      </trkpt>
      <trkpt lat="47.25302" lon="-2.25403">
        <ele>14</ele>
        <time>2020-08-23T08:06:10.000Z</time>
      </trkpt>
      <trkpt lat="47.2531" lon="-2.25412">
        <ele>14</ele>
        <time>2020-08-23T08:06:17.000Z</time>
      </trkpt>
      <trkpt lat="47.25312" lon="-2.25414">
        <ele>14</ele>
        <time>2020-08-23T08:06:20.000Z</time>
      </trkpt>
      <trkpt lat="47.25317" lon="-2.25413">
        <ele>14</ele>
        <time>2020-08-23T08:06:23.000Z</time>
      </trkpt>
      <trkpt lat="47.25325" lon="-2.25412">
        <ele>13.60000038147</ele>
        <time>2020-08-23T08:06:28.000Z</time>
      </trkpt>
      <trkpt lat="47.25327" lon="-2.25412">
        <ele>13</ele>
        <time>2020-08-23T08:06:29.000Z</time>
      </trkpt>
      <trkpt lat="47.25328" lon="-2.25412">
        <ele>12.60000038147</ele>
        <time>2020-08-23T08:06:30.000Z</time>
      </trkpt>
      <trkpt lat="47.2533" lon="-2.25412">
        <ele>12.199999809265</ele>
        <time>2020-08-23T08:06:31.000Z</time>
      </trkpt>
      <trkpt lat="47.25332" lon="-2.25413">
        <ele>11.800000190735</ele>
        <time>2020-08-23T08:06:32.000Z</time>
      </trkpt>
      <trkpt lat="47.25339" lon="-2.25416">
        <ele>11.199999809265</ele>
        <time>2020-08-23T08:06:35.000Z</time>
      </trkpt>
      <trkpt lat="47.2534" lon="-2.25417">
        <ele>10.800000190735</ele>
        <time>2020-08-23T08:06:36.000Z</time>
      </trkpt>
      <trkpt lat="47.25342" lon="-2.25417">
        <ele>10.39999961853</ele>
        <time>2020-08-23T08:06:37.000Z</time>
      </trkpt>
      <trkpt lat="47.25343" lon="-2.25417">
        <ele>9.3999996185303</ele>
        <time>2020-08-23T08:06:38.000Z</time>
      </trkpt>
      <trkpt lat="47.25345" lon="-2.25417">
        <ele>9.3999996185303</ele>
        <time>2020-08-23T08:06:40.000Z</time>
      </trkpt>
      <trkpt lat="47.25348" lon="-2.25416">
        <ele>9.3999996185303</ele>
        <time>2020-08-23T08:06:45.000Z</time>
      </trkpt>
      <trkpt lat="47.25348" lon="-2.25413">
        <ele>9.3999996185303</ele>
        <time>2020-08-23T08:06:46.000Z</time>
      </trkpt>
      <trkpt lat="47.25353" lon="-2.25396">
        <ele>9.3999996185303</ele>
        <time>2020-08-23T08:06:49.000Z</time>
      </trkpt>
      <trkpt lat="47.25357" lon="-2.25385">
        <ele>9.3999996185303</ele>
        <time>2020-08-23T08:06:51.000Z</time>
      </trkpt>
      <trkpt lat="47.25366" lon="-2.25378">
        <ele>9.3999996185303</ele>
        <time>2020-08-23T08:06:54.000Z</time>
      </trkpt>
      <trkpt lat="47.25375" lon="-2.25377">
        <ele>9.3999996185303</ele>
        <time>2020-08-23T08:06:57.000Z</time>
      </trkpt>
      <trkpt lat="47.25381" lon="-2.25376">
        <ele>9.3999996185303</ele>
        <time>2020-08-23T08:06:59.000Z</time>
      </trkpt>
      <trkpt lat="47.25396" lon="-2.25373">
        <ele>9.3999996185303</ele>
        <time>2020-08-23T08:07:06.000Z</time>
      </trkpt>
      <trkpt lat="47.25408" lon="-2.25375">
        <ele>9.3999996185303</ele>
        <time>2020-08-23T08:07:12.000Z</time>
      </trkpt>
      <trkpt lat="47.2542" lon="-2.25373">
        <ele>9.8000001907349</ele>
        <time>2020-08-23T08:07:18.000Z</time>
      </trkpt>
      <trkpt lat="47.25422" lon="-2.25374">
        <ele>10.199999809265</ele>
        <time>2020-08-23T08:07:19.000Z</time>
      </trkpt>
      <trkpt lat="47.25424" lon="-2.25373">
        <ele>10.60000038147</ele>
        <time>2020-08-23T08:07:20.000Z</time>
      </trkpt>
      <trkpt lat="47.25426" lon="-2.25374">
        <ele>11</ele>
        <time>2020-08-23T08:07:21.000Z</time>
      </trkpt>
      <trkpt lat="47.25427" lon="-2.25374">
        <ele>11.39999961853</ele>
        <time>2020-08-23T08:07:22.000Z</time>
      </trkpt>
      <trkpt lat="47.25433" lon="-2.25376">
        <ele>11.39999961853</ele>
        <time>2020-08-23T08:07:25.000Z</time>
      </trkpt>
      <trkpt lat="47.25442" lon="-2.25374">
        <ele>11.800000190735</ele>
        <time>2020-08-23T08:07:29.000Z</time>
      </trkpt>
      <trkpt lat="47.25444" lon="-2.25374">
        <ele>12.199999809265</ele>
        <time>2020-08-23T08:07:30.000Z</time>
      </trkpt>
      <trkpt lat="47.25446" lon="-2.25375">
        <ele>12.800000190735</ele>
        <time>2020-08-23T08:07:31.000Z</time>
      </trkpt>
      <trkpt lat="47.25447" lon="-2.25376">
        <ele>13.199999809265</ele>
        <time>2020-08-23T08:07:32.000Z</time>
      </trkpt>
      <trkpt lat="47.25449" lon="-2.25378">
        <ele>13.60000038147</ele>
        <time>2020-08-23T08:07:33.000Z</time>
      </trkpt>
      <trkpt lat="47.25457" lon="-2.25377">
        <ele>13.60000038147</ele>
        <time>2020-08-23T08:07:37.000Z</time>
      </trkpt>
      <trkpt lat="47.25459" lon="-2.25378">
        <ele>14</ele>
        <time>2020-08-23T08:07:38.000Z</time>
      </trkpt>
      <trkpt lat="47.25461" lon="-2.25378">
        <ele>14.39999961853</ele>
        <time>2020-08-23T08:07:39.000Z</time>
      </trkpt>
      <trkpt lat="47.25462" lon="-2.25378">
        <ele>14.800000190735</ele>
        <time>2020-08-23T08:07:40.000Z</time>
      </trkpt>
      <trkpt lat="47.25464" lon="-2.25379">
        <ele>15.199999809265</ele>
        <time>2020-08-23T08:07:41.000Z</time>
      </trkpt>
      <trkpt lat="47.25465" lon="-2.2538">
        <ele>15.60000038147</ele>
        <time>2020-08-23T08:07:42.000Z</time>
      </trkpt>
      <trkpt lat="47.25472" lon="-2.25382">
        <ele>15.60000038147</ele>
        <time>2020-08-23T08:07:46.000Z</time>
      </trkpt>
      <trkpt lat="47.25473" lon="-2.25383">
        <ele>16</ele>
        <time>2020-08-23T08:07:47.000Z</time>
      </trkpt>
      <trkpt lat="47.25475" lon="-2.25383">
        <ele>16.60000038147</ele>
        <time>2020-08-23T08:07:48.000Z</time>
      </trkpt>
      <trkpt lat="47.25477" lon="-2.25383">
        <ele>17</ele>
        <time>2020-08-23T08:07:49.000Z</time>
      </trkpt>
      <trkpt lat="47.25479" lon="-2.25383">
        <ele>17.39999961853</ele>
        <time>2020-08-23T08:07:50.000Z</time>
      </trkpt>
      <trkpt lat="47.2548" lon="-2.25384">
        <ele>17.799999237061</ele>
        <time>2020-08-23T08:07:51.000Z</time>
      </trkpt>
      <trkpt lat="47.25487" lon="-2.25388">
        <ele>17.799999237061</ele>
        <time>2020-08-23T08:07:55.000Z</time>
      </trkpt>
      <trkpt lat="47.25492" lon="-2.25391">
        <ele>18.200000762939</ele>
        <time>2020-08-23T08:07:58.000Z</time>
      </trkpt>
      <trkpt lat="47.25494" lon="-2.25391">
        <ele>18.60000038147</ele>
        <time>2020-08-23T08:07:59.000Z</time>
      </trkpt>
      <trkpt lat="47.25497" lon="-2.2539">
        <ele>19</ele>
        <time>2020-08-23T08:08:00.000Z</time>
      </trkpt>
      <trkpt lat="47.255" lon="-2.2539">
        <ele>19.39999961853</ele>
        <time>2020-08-23T08:08:01.000Z</time>
      </trkpt>
      <trkpt lat="47.25501" lon="-2.25391">
        <ele>20</ele>
        <time>2020-08-23T08:08:02.000Z</time>
      </trkpt>
      <trkpt lat="47.25503" lon="-2.25392">
        <ele>20</ele>
        <time>2020-08-23T08:08:03.000Z</time>
      </trkpt>
      <trkpt lat="47.2551" lon="-2.25396">
        <ele>20</ele>
        <time>2020-08-23T08:08:07.000Z</time>
      </trkpt>
      <trkpt lat="47.25516" lon="-2.254">
        <ele>20.39999961853</ele>
        <time>2020-08-23T08:08:10.000Z</time>
      </trkpt>
      <trkpt lat="47.25517" lon="-2.25401">
        <ele>20.799999237061</ele>
        <time>2020-08-23T08:08:11.000Z</time>
      </trkpt>
      <trkpt lat="47.25518" lon="-2.25403">
        <ele>21.200000762939</ele>
        <time>2020-08-23T08:08:12.000Z</time>
      </trkpt>
      <trkpt lat="47.2552" lon="-2.25404">
        <ele>21.60000038147</ele>
        <time>2020-08-23T08:08:13.000Z</time>
      </trkpt>
      <trkpt lat="47.25521" lon="-2.25405">
        <ele>22</ele>
        <time>2020-08-23T08:08:14.000Z</time>
      </trkpt>
      <trkpt lat="47.25532" lon="-2.25413">
        <ele>22.39999961853</ele>
        <time>2020-08-23T08:08:20.000Z</time>
      </trkpt>
      <trkpt lat="47.25534" lon="-2.25415">
        <ele>22.799999237061</ele>
        <time>2020-08-23T08:08:21.000Z</time>
      </trkpt>
      <trkpt lat="47.25535" lon="-2.25416">
        <ele>23.200000762939</ele>
        <time>2020-08-23T08:08:22.000Z</time>
      </trkpt>
      <trkpt lat="47.25537" lon="-2.25418">
        <ele>23.799999237061</ele>
        <time>2020-08-23T08:08:23.000Z</time>
      </trkpt>
      <trkpt lat="47.25538" lon="-2.25418">
        <ele>24.200000762939</ele>
        <time>2020-08-23T08:08:24.000Z</time>
      </trkpt>
      <trkpt lat="47.25545" lon="-2.25424">
        <ele>24.200000762939</ele>
        <time>2020-08-23T08:08:28.000Z</time>
      </trkpt>
      <trkpt lat="47.25548" lon="-2.25428">
        <ele>24.60000038147</ele>
        <time>2020-08-23T08:08:30.000Z</time>
      </trkpt>
      <trkpt lat="47.25548" lon="-2.2543">
        <ele>25</ele>
        <time>2020-08-23T08:08:31.000Z</time>
      </trkpt>
      <trkpt lat="47.25549" lon="-2.25432">
        <ele>25.39999961853</ele>
        <time>2020-08-23T08:08:32.000Z</time>
      </trkpt>
      <trkpt lat="47.2555" lon="-2.25435">
        <ele>26</ele>
        <time>2020-08-23T08:08:33.000Z</time>
      </trkpt>
      <trkpt lat="47.25553" lon="-2.25437">
        <ele>26.39999961853</ele>
        <time>2020-08-23T08:08:34.000Z</time>
      </trkpt>
      <trkpt lat="47.25562" lon="-2.25447">
        <ele>26.799999237061</ele>
        <time>2020-08-23T08:08:39.000Z</time>
      </trkpt>
      <trkpt lat="47.25564" lon="-2.25449">
        <ele>27.200000762939</ele>
        <time>2020-08-23T08:08:40.000Z</time>
      </trkpt>
      <trkpt lat="47.25566" lon="-2.2545">
        <ele>28.200000762939</ele>
        <time>2020-08-23T08:08:41.000Z</time>
      </trkpt>
      <trkpt lat="47.25568" lon="-2.25452">
        <ele>28.60000038147</ele>
        <time>2020-08-23T08:08:42.000Z</time>
      </trkpt>
      <trkpt lat="47.2557" lon="-2.25453">
        <ele>28.60000038147</ele>
        <time>2020-08-23T08:08:43.000Z</time>
      </trkpt>
      <trkpt lat="47.25572" lon="-2.25459">
        <ele>28.60000038147</ele>
        <time>2020-08-23T08:08:45.000Z</time>
      </trkpt>
      <trkpt lat="47.25575" lon="-2.25466">
        <ele>29</ele>
        <time>2020-08-23T08:08:47.000Z</time>
      </trkpt>
      <trkpt lat="47.25575" lon="-2.2547">
        <ele>29.39999961853</ele>
        <time>2020-08-23T08:08:48.000Z</time>
      </trkpt>
      <trkpt lat="47.25575" lon="-2.25473">
        <ele>30</ele>
        <time>2020-08-23T08:08:49.000Z</time>
      </trkpt>
      <trkpt lat="47.25574" lon="-2.25476">
        <ele>30.39999961853</ele>
        <time>2020-08-23T08:08:50.000Z</time>
      </trkpt>
      <trkpt lat="47.25573" lon="-2.25477">
        <ele>30.799999237061</ele>
        <time>2020-08-23T08:08:51.000Z</time>
      </trkpt>
      <trkpt lat="47.25569" lon="-2.25488">
        <ele>30.799999237061</ele>
        <time>2020-08-23T08:08:55.000Z</time>
      </trkpt>
      <trkpt lat="47.25569" lon="-2.2549">
        <ele>30.799999237061</ele>
        <time>2020-08-23T08:08:57.000Z</time>
      </trkpt>
      <trkpt lat="47.25573" lon="-2.25489">
        <ele>30.799999237061</ele>
        <time>2020-08-23T08:09:34.000Z</time>
      </trkpt>
      <trkpt lat="47.25574" lon="-2.25487">
        <ele>30.799999237061</ele>
        <time>2020-08-23T08:09:35.000Z</time>
      </trkpt>
      <trkpt lat="47.2558" lon="-2.25473">
        <ele>30.799999237061</ele>
        <time>2020-08-23T08:09:40.000Z</time>
      </trkpt>
      <trkpt lat="47.25582" lon="-2.2547">
        <ele>30.799999237061</ele>
        <time>2020-08-23T08:09:44.000Z</time>
      </trkpt>
      <trkpt lat="47.25579" lon="-2.25472">
        <ele>30.799999237061</ele>
        <time>2020-08-23T08:10:02.000Z</time>
      </trkpt>
      <trkpt lat="47.25572" lon="-2.25481">
        <ele>30.799999237061</ele>
        <time>2020-08-23T08:10:06.000Z</time>
      </trkpt>
      <trkpt lat="47.25571" lon="-2.25483">
        <ele>30.799999237061</ele>
        <time>2020-08-23T08:10:07.000Z</time>
      </trkpt>
      <trkpt lat="47.2557" lon="-2.25487">
        <ele>30.799999237061</ele>
        <time>2020-08-23T08:10:10.000Z</time>
      </trkpt>
      <trkpt lat="47.25575" lon="-2.25492">
        <ele>30.799999237061</ele>
        <time>2020-08-23T08:11:27.000Z</time>
      </trkpt>
      <trkpt lat="47.25579" lon="-2.25492">
        <ele>30.799999237061</ele>
        <time>2020-08-23T08:11:32.000Z</time>
      </trkpt>
      <trkpt lat="47.2558" lon="-2.25491">
        <ele>31.39999961853</ele>
        <time>2020-08-23T08:11:34.000Z</time>
      </trkpt>
      <trkpt lat="47.25581" lon="-2.25488">
        <ele>31.60000038147</ele>
        <time>2020-08-23T08:11:35.000Z</time>
      </trkpt>
      <trkpt lat="47.25582" lon="-2.25487">
        <ele>31.799999237061</ele>
        <time>2020-08-23T08:11:36.000Z</time>
      </trkpt>
      <trkpt lat="47.25582" lon="-2.25486">
        <ele>31.799999237061</ele>
        <time>2020-08-23T08:11:37.000Z</time>
      </trkpt>
      <trkpt lat="47.25582" lon="-2.25486">
        <ele>31.799999237061</ele>
        <time>2020-08-23T08:11:38.000Z</time>
      </trkpt>
      <trkpt lat="47.25582" lon="-2.2547">
        <ele>31.799999237061</ele>
        <time>2020-08-23T08:11:59.000Z</time>
      </trkpt>
      <trkpt lat="47.25586" lon="-2.25471">
        <ele>31.799999237061</ele>
        <time>2020-08-23T08:12:01.000Z</time>
      </trkpt>
      <trkpt lat="47.2559" lon="-2.25471">
        <ele>31.799999237061</ele>
        <time>2020-08-23T08:12:03.000Z</time>
      </trkpt>
      <trkpt lat="47.25596" lon="-2.25465">
        <ele>31.799999237061</ele>
        <time>2020-08-23T08:12:07.000Z</time>
      </trkpt>
      <trkpt lat="47.25602" lon="-2.25455">
        <ele>31.799999237061</ele>
        <time>2020-08-23T08:12:12.000Z</time>
      </trkpt>
      <trkpt lat="47.25612" lon="-2.2544">
        <ele>31.799999237061</ele>
        <time>2020-08-23T08:12:19.000Z</time>
      </trkpt>
      <trkpt lat="47.25622" lon="-2.2542">
        <ele>31.799999237061</ele>
        <time>2020-08-23T08:12:28.000Z</time>
      </trkpt>
      <trkpt lat="47.25627" lon="-2.25397">
        <ele>31.799999237061</ele>
        <time>2020-08-23T08:12:35.000Z</time>
      </trkpt>
      <trkpt lat="47.25628" lon="-2.25378">
        <ele>31.799999237061</ele>
        <time>2020-08-23T08:12:41.000Z</time>
      </trkpt>
      <trkpt lat="47.25632" lon="-2.2535">
        <ele>31.799999237061</ele>
        <time>2020-08-23T08:12:49.000Z</time>
      </trkpt>
      <trkpt lat="47.25638" lon="-2.25321">
        <ele>31.799999237061</ele>
        <time>2020-08-23T08:12:55.000Z</time>
      </trkpt>
      <trkpt lat="47.25641" lon="-2.25292">
        <ele>31.799999237061</ele>
        <time>2020-08-23T08:13:01.000Z</time>
      </trkpt>
      <trkpt lat="47.25645" lon="-2.2526">
        <ele>31.799999237061</ele>
        <time>2020-08-23T08:13:09.000Z</time>
      </trkpt>
      <trkpt lat="47.2565" lon="-2.25246">
        <ele>31.799999237061</ele>
        <time>2020-08-23T08:13:14.000Z</time>
      </trkpt>
      <trkpt lat="47.25652" lon="-2.25246">
        <ele>31.799999237061</ele>
        <time>2020-08-23T08:13:15.000Z</time>
      </trkpt>
      <trkpt lat="47.25652" lon="-2.25249">
        <ele>31.799999237061</ele>
        <time>2020-08-23T08:13:17.000Z</time>
      </trkpt>
      <trkpt lat="47.25651" lon="-2.25252">
        <ele>31.799999237061</ele>
        <time>2020-08-23T08:13:18.000Z</time>
      </trkpt>
      <trkpt lat="47.25649" lon="-2.25274">
        <ele>31.799999237061</ele>
        <time>2020-08-23T08:13:23.000Z</time>
      </trkpt>
      <trkpt lat="47.25644" lon="-2.25313">
        <ele>31.799999237061</ele>
        <time>2020-08-23T08:13:30.000Z</time>
      </trkpt>
      <trkpt lat="47.25644" lon="-2.25325">
        <ele>31.799999237061</ele>
        <time>2020-08-23T08:13:32.000Z</time>
      </trkpt>
      <trkpt lat="47.2564" lon="-2.25346">
        <ele>31.799999237061</ele>
        <time>2020-08-23T08:13:35.000Z</time>
      </trkpt>
      <trkpt lat="47.25632" lon="-2.2539">
        <ele>32.200000762939</ele>
        <time>2020-08-23T08:13:41.000Z</time>
      </trkpt>
      <trkpt lat="47.2563" lon="-2.25397">
        <ele>32.799999237061</ele>
        <time>2020-08-23T08:13:42.000Z</time>
      </trkpt>
      <trkpt lat="47.25628" lon="-2.25404">
        <ele>33.200000762939</ele>
        <time>2020-08-23T08:13:43.000Z</time>
      </trkpt>
      <trkpt lat="47.25625" lon="-2.25411">
        <ele>33.599998474121</ele>
        <time>2020-08-23T08:13:44.000Z</time>
      </trkpt>
      <trkpt lat="47.25623" lon="-2.25417">
        <ele>34</ele>
        <time>2020-08-23T08:13:45.000Z</time>
      </trkpt>
      <trkpt lat="47.25618" lon="-2.25428">
        <ele>34</ele>
        <time>2020-08-23T08:13:47.000Z</time>
      </trkpt>
      <trkpt lat="47.25601" lon="-2.25459">
        <ele>34</ele>
        <time>2020-08-23T08:13:53.000Z</time>
      </trkpt>
      <trkpt lat="47.25597" lon="-2.25464">
        <ele>33.599998474121</ele>
        <time>2020-08-23T08:13:54.000Z</time>
      </trkpt>
      <trkpt lat="47.25593" lon="-2.2547">
        <ele>33.200000762939</ele>
        <time>2020-08-23T08:13:55.000Z</time>
      </trkpt>
      <trkpt lat="47.2559" lon="-2.25476">
        <ele>32.799999237061</ele>
        <time>2020-08-23T08:13:56.000Z</time>
      </trkpt>
      <trkpt lat="47.25586" lon="-2.25483">
        <ele>32.200000762939</ele>
        <time>2020-08-23T08:13:57.000Z</time>
      </trkpt>
      <trkpt lat="47.25582" lon="-2.25489">
        <ele>31.799999237061</ele>
        <time>2020-08-23T08:13:58.000Z</time>
      </trkpt>
      <trkpt lat="47.25576" lon="-2.25503">
        <ele>31.799999237061</ele>
        <time>2020-08-23T08:14:00.000Z</time>
      </trkpt>
      <trkpt lat="47.25568" lon="-2.25515">
        <ele>31.799999237061</ele>
        <time>2020-08-23T08:14:02.000Z</time>
      </trkpt>
      <trkpt lat="47.25553" lon="-2.25536">
        <ele>31.799999237061</ele>
        <time>2020-08-23T08:14:05.000Z</time>
      </trkpt>
      <trkpt lat="47.25533" lon="-2.25567">
        <ele>31.200000762939</ele>
        <time>2020-08-23T08:14:09.000Z</time>
      </trkpt>
      <trkpt lat="47.2553" lon="-2.25577">
        <ele>30.799999237061</ele>
        <time>2020-08-23T08:14:10.000Z</time>
      </trkpt>
      <trkpt lat="47.25526" lon="-2.25585">
        <ele>30.200000762939</ele>
        <time>2020-08-23T08:14:11.000Z</time>
      </trkpt>
      <trkpt lat="47.25523" lon="-2.25593">
        <ele>29.39999961853</ele>
        <time>2020-08-23T08:14:12.000Z</time>
      </trkpt>
      <trkpt lat="47.25519" lon="-2.256">
        <ele>28.799999237061</ele>
        <time>2020-08-23T08:14:13.000Z</time>
      </trkpt>
      <trkpt lat="47.25514" lon="-2.25607">
        <ele>28</ele>
        <time>2020-08-23T08:14:14.000Z</time>
      </trkpt>
      <trkpt lat="47.25511" lon="-2.25614">
        <ele>27.200000762939</ele>
        <time>2020-08-23T08:14:15.000Z</time>
      </trkpt>
      <trkpt lat="47.25507" lon="-2.25622">
        <ele>26.39999961853</ele>
        <time>2020-08-23T08:14:16.000Z</time>
      </trkpt>
      <trkpt lat="47.25504" lon="-2.2563">
        <ele>25.60000038147</ele>
        <time>2020-08-23T08:14:17.000Z</time>
      </trkpt>
      <trkpt lat="47.25498" lon="-2.25636">
        <ele>24.799999237061</ele>
        <time>2020-08-23T08:14:18.000Z</time>
      </trkpt>
      <trkpt lat="47.25492" lon="-2.25641">
        <ele>24</ele>
        <time>2020-08-23T08:14:19.000Z</time>
      </trkpt>
      <trkpt lat="47.25487" lon="-2.25646">
        <ele>23.60000038147</ele>
        <time>2020-08-23T08:14:20.000Z</time>
      </trkpt>
      <trkpt lat="47.25482" lon="-2.2565">
        <ele>23</ele>
        <time>2020-08-23T08:14:21.000Z</time>
      </trkpt>
      <trkpt lat="47.25477" lon="-2.25653">
        <ele>22.60000038147</ele>
        <time>2020-08-23T08:14:22.000Z</time>
      </trkpt>
      <trkpt lat="47.25473" lon="-2.25657">
        <ele>22</ele>
        <time>2020-08-23T08:14:23.000Z</time>
      </trkpt>
      <trkpt lat="47.25471" lon="-2.25659">
        <ele>21.200000762939</ele>
        <time>2020-08-23T08:14:24.000Z</time>
      </trkpt>
      <trkpt lat="47.25469" lon="-2.25661">
        <ele>20.60000038147</ele>
        <time>2020-08-23T08:14:25.000Z</time>
      </trkpt>
      <trkpt lat="47.25468" lon="-2.25661">
        <ele>20</ele>
        <time>2020-08-23T08:14:26.000Z</time>
      </trkpt>
      <trkpt lat="47.25468" lon="-2.25662">
        <ele>19.39999961853</ele>
        <time>2020-08-23T08:14:27.000Z</time>
      </trkpt>
      <trkpt lat="47.25469" lon="-2.25663">
        <ele>19.39999961853</ele>
        <time>2020-08-23T08:14:29.000Z</time>
      </trkpt>
      <trkpt lat="47.25467" lon="-2.25665">
        <ele>19.39999961853</ele>
        <time>2020-08-23T08:14:34.000Z</time>
      </trkpt>
      <trkpt lat="47.25465" lon="-2.25669">
        <ele>19.39999961853</ele>
        <time>2020-08-23T08:14:36.000Z</time>
      </trkpt>
      <trkpt lat="47.25462" lon="-2.25679">
        <ele>19</ele>
        <time>2020-08-23T08:14:39.000Z</time>
      </trkpt>
      <trkpt lat="47.25462" lon="-2.25682">
        <ele>18.60000038147</ele>
        <time>2020-08-23T08:14:40.000Z</time>
      </trkpt>
      <trkpt lat="47.2546" lon="-2.25684">
        <ele>18.200000762939</ele>
        <time>2020-08-23T08:14:41.000Z</time>
      </trkpt>
      <trkpt lat="47.2546" lon="-2.25687">
        <ele>17.799999237061</ele>
        <time>2020-08-23T08:14:42.000Z</time>
      </trkpt>
      <trkpt lat="47.25459" lon="-2.25693">
        <ele>17.39999961853</ele>
        <time>2020-08-23T08:14:43.000Z</time>
      </trkpt>
      <trkpt lat="47.25454" lon="-2.25703">
        <ele>17.39999961853</ele>
        <time>2020-08-23T08:14:45.000Z</time>
      </trkpt>
      <trkpt lat="47.25453" lon="-2.25707">
        <ele>17.39999961853</ele>
        <time>2020-08-23T08:14:46.000Z</time>
      </trkpt>
      <trkpt lat="47.25444" lon="-2.25727">
        <ele>17.39999961853</ele>
        <time>2020-08-23T08:14:51.000Z</time>
      </trkpt>
      <trkpt lat="47.25432" lon="-2.25748">
        <ele>17.39999961853</ele>
        <time>2020-08-23T08:14:56.000Z</time>
      </trkpt>
      <trkpt lat="47.25427" lon="-2.25764">
        <ele>17</ele>
        <time>2020-08-23T08:14:59.000Z</time>
      </trkpt>
      <trkpt lat="47.25425" lon="-2.25769">
        <ele>16.60000038147</ele>
        <time>2020-08-23T08:15:00.000Z</time>
      </trkpt>
      <trkpt lat="47.25423" lon="-2.25774">
        <ele>16.200000762939</ele>
        <time>2020-08-23T08:15:01.000Z</time>
      </trkpt>
      <trkpt lat="47.25422" lon="-2.25779">
        <ele>15.800000190735</ele>
        <time>2020-08-23T08:15:02.000Z</time>
      </trkpt>
      <trkpt lat="47.2542" lon="-2.25784">
        <ele>15.39999961853</ele>
        <time>2020-08-23T08:15:03.000Z</time>
      </trkpt>
      <trkpt lat="47.25414" lon="-2.25798">
        <ele>15.39999961853</ele>
        <time>2020-08-23T08:15:06.000Z</time>
      </trkpt>
      <trkpt lat="47.25409" lon="-2.25834">
        <ele>15.39999961853</ele>
        <time>2020-08-23T08:15:12.000Z</time>
      </trkpt>
      <trkpt lat="47.2541" lon="-2.25866">
        <ele>15.39999961853</ele>
        <time>2020-08-23T08:15:17.000Z</time>
      </trkpt>
      <trkpt lat="47.25413" lon="-2.25921">
        <ele>15.39999961853</ele>
        <time>2020-08-23T08:15:24.000Z</time>
      </trkpt>
      <trkpt lat="47.25415" lon="-2.25929">
        <ele>15.39999961853</ele>
        <time>2020-08-23T08:15:25.000Z</time>
      </trkpt>
      <trkpt lat="47.25416" lon="-2.25958">
        <ele>15.39999961853</ele>
        <time>2020-08-23T08:15:29.000Z</time>
      </trkpt>
      <trkpt lat="47.25407" lon="-2.25982">
        <ele>15.39999961853</ele>
        <time>2020-08-23T08:15:33.000Z</time>
      </trkpt>
      <trkpt lat="47.25402" lon="-2.2599">
        <ele>15.800000190735</ele>
        <time>2020-08-23T08:15:35.000Z</time>
      </trkpt>
      <trkpt lat="47.254" lon="-2.25992">
        <ele>16.200000762939</ele>
        <time>2020-08-23T08:15:36.000Z</time>
      </trkpt>
      <trkpt lat="47.25397" lon="-2.25994">
        <ele>16.60000038147</ele>
        <time>2020-08-23T08:15:37.000Z</time>
      </trkpt>
      <trkpt lat="47.25395" lon="-2.25998">
        <ele>17</ele>
        <time>2020-08-23T08:15:38.000Z</time>
      </trkpt>
      <trkpt lat="47.25394" lon="-2.26001">
        <ele>17.39999961853</ele>
        <time>2020-08-23T08:15:39.000Z</time>
      </trkpt>
      <trkpt lat="47.25392" lon="-2.2601">
        <ele>18</ele>
        <time>2020-08-23T08:15:41.000Z</time>
      </trkpt>
      <trkpt lat="47.25391" lon="-2.26014">
        <ele>18.39999961853</ele>
        <time>2020-08-23T08:15:42.000Z</time>
      </trkpt>
      <trkpt lat="47.25391" lon="-2.26017">
        <ele>19.39999961853</ele>
        <time>2020-08-23T08:15:43.000Z</time>
      </trkpt>
      <trkpt lat="47.25391" lon="-2.26021">
        <ele>19.799999237061</ele>
        <time>2020-08-23T08:15:44.000Z</time>
      </trkpt>
      <trkpt lat="47.2539" lon="-2.26023">
        <ele>20.200000762939</ele>
        <time>2020-08-23T08:15:45.000Z</time>
      </trkpt>
      <trkpt lat="47.2539" lon="-2.26025">
        <ele>20.799999237061</ele>
        <time>2020-08-23T08:15:46.000Z</time>
      </trkpt>
      <trkpt lat="47.25391" lon="-2.26027">
        <ele>21.200000762939</ele>
        <time>2020-08-23T08:15:47.000Z</time>
      </trkpt>
      <trkpt lat="47.2539" lon="-2.26029">
        <ele>21.60000038147</ele>
        <time>2020-08-23T08:15:48.000Z</time>
      </trkpt>
      <trkpt lat="47.2539" lon="-2.26031">
        <ele>22</ele>
        <time>2020-08-23T08:15:49.000Z</time>
      </trkpt>
      <trkpt lat="47.25393" lon="-2.26043">
        <ele>22</ele>
        <time>2020-08-23T08:15:53.000Z</time>
      </trkpt>
      <trkpt lat="47.25394" lon="-2.26045">
        <ele>22.39999961853</ele>
        <time>2020-08-23T08:15:54.000Z</time>
      </trkpt>
      <trkpt lat="47.25394" lon="-2.26053">
        <ele>22.799999237061</ele>
        <time>2020-08-23T08:15:55.000Z</time>
      </trkpt>
      <trkpt lat="47.25394" lon="-2.26061">
        <ele>23.39999961853</ele>
        <time>2020-08-23T08:15:56.000Z</time>
      </trkpt>
      <trkpt lat="47.25394" lon="-2.26068">
        <ele>23.799999237061</ele>
        <time>2020-08-23T08:15:57.000Z</time>
      </trkpt>
      <trkpt lat="47.25394" lon="-2.26074">
        <ele>24.200000762939</ele>
        <time>2020-08-23T08:15:58.000Z</time>
      </trkpt>
      <trkpt lat="47.25396" lon="-2.26095">
        <ele>24.200000762939</ele>
        <time>2020-08-23T08:16:02.000Z</time>
      </trkpt>
      <trkpt lat="47.25403" lon="-2.26111">
        <ele>23.60000038147</ele>
        <time>2020-08-23T08:16:07.000Z</time>
      </trkpt>
      <trkpt lat="47.25405" lon="-2.26116">
        <ele>23.200000762939</ele>
        <time>2020-08-23T08:16:08.000Z</time>
      </trkpt>
      <trkpt lat="47.25407" lon="-2.26121">
        <ele>22.799999237061</ele>
        <time>2020-08-23T08:16:09.000Z</time>
      </trkpt>
      <trkpt lat="47.25409" lon="-2.26127">
        <ele>22.39999961853</ele>
        <time>2020-08-23T08:16:10.000Z</time>
      </trkpt>
      <trkpt lat="47.2541" lon="-2.26132">
        <ele>22</ele>
        <time>2020-08-23T08:16:11.000Z</time>
      </trkpt>
      <trkpt lat="47.25412" lon="-2.26138">
        <ele>22</ele>
        <time>2020-08-23T08:16:12.000Z</time>
      </trkpt>
      <trkpt lat="47.25418" lon="-2.26163">
        <ele>22</ele>
        <time>2020-08-23T08:16:16.000Z</time>
      </trkpt>
      <trkpt lat="47.25424" lon="-2.26199">
        <ele>22</ele>
        <time>2020-08-23T08:16:22.000Z</time>
      </trkpt>
      <trkpt lat="47.25423" lon="-2.26217">
        <ele>22</ele>
        <time>2020-08-23T08:16:26.000Z</time>
      </trkpt>
      <trkpt lat="47.25422" lon="-2.26232">
        <ele>22.39999961853</ele>
        <time>2020-08-23T08:16:29.000Z</time>
      </trkpt>
      <trkpt lat="47.25422" lon="-2.26238">
        <ele>22.799999237061</ele>
        <time>2020-08-23T08:16:30.000Z</time>
      </trkpt>
      <trkpt lat="47.25422" lon="-2.26245">
        <ele>23.200000762939</ele>
        <time>2020-08-23T08:16:31.000Z</time>
      </trkpt>
      <trkpt lat="47.25421" lon="-2.26252">
        <ele>24.200000762939</ele>
        <time>2020-08-23T08:16:32.000Z</time>
      </trkpt>
      <trkpt lat="47.25424" lon="-2.26291">
        <ele>24.200000762939</ele>
        <time>2020-08-23T08:16:38.000Z</time>
      </trkpt>
      <trkpt lat="47.25428" lon="-2.26298">
        <ele>24.200000762939</ele>
        <time>2020-08-23T08:16:40.000Z</time>
      </trkpt>
      <trkpt lat="47.2543" lon="-2.26301">
        <ele>24.60000038147</ele>
        <time>2020-08-23T08:16:41.000Z</time>
      </trkpt>
      <trkpt lat="47.25432" lon="-2.26302">
        <ele>25.200000762939</ele>
        <time>2020-08-23T08:16:42.000Z</time>
      </trkpt>
      <trkpt lat="47.25435" lon="-2.26303">
        <ele>25.60000038147</ele>
        <time>2020-08-23T08:16:43.000Z</time>
      </trkpt>
      <trkpt lat="47.25437" lon="-2.26304">
        <ele>26</ele>
        <time>2020-08-23T08:16:44.000Z</time>
      </trkpt>
      <trkpt lat="47.25441" lon="-2.26304">
        <ele>26.60000038147</ele>
        <time>2020-08-23T08:16:45.000Z</time>
      </trkpt>
      <trkpt lat="47.25445" lon="-2.26304">
        <ele>26.60000038147</ele>
        <time>2020-08-23T08:16:46.000Z</time>
      </trkpt>
      <trkpt lat="47.25458" lon="-2.26312">
        <ele>26.60000038147</ele>
        <time>2020-08-23T08:16:50.000Z</time>
      </trkpt>
      <trkpt lat="47.25459" lon="-2.26317">
        <ele>26.60000038147</ele>
        <time>2020-08-23T08:16:51.000Z</time>
      </trkpt>
      <trkpt lat="47.25459" lon="-2.26342">
        <ele>26.60000038147</ele>
        <time>2020-08-23T08:16:55.000Z</time>
      </trkpt>
      <trkpt lat="47.25456" lon="-2.26372">
        <ele>26.60000038147</ele>
        <time>2020-08-23T08:17:00.000Z</time>
      </trkpt>
      <trkpt lat="47.25452" lon="-2.26426">
        <ele>26.60000038147</ele>
        <time>2020-08-23T08:17:08.000Z</time>
      </trkpt>
      <trkpt lat="47.25453" lon="-2.26442">
        <ele>27</ele>
        <time>2020-08-23T08:17:11.000Z</time>
      </trkpt>
      <trkpt lat="47.25454" lon="-2.26448">
        <ele>27.39999961853</ele>
        <time>2020-08-23T08:17:12.000Z</time>
      </trkpt>
      <trkpt lat="47.25456" lon="-2.26453">
        <ele>27.799999237061</ele>
        <time>2020-08-23T08:17:13.000Z</time>
      </trkpt>
      <trkpt lat="47.25457" lon="-2.26459">
        <ele>28.200000762939</ele>
        <time>2020-08-23T08:17:14.000Z</time>
      </trkpt>
      <trkpt lat="47.25459" lon="-2.26465">
        <ele>28.60000038147</ele>
        <time>2020-08-23T08:17:15.000Z</time>
      </trkpt>
      <trkpt lat="47.2546" lon="-2.26472">
        <ele>28.60000038147</ele>
        <time>2020-08-23T08:17:16.000Z</time>
      </trkpt>
      <trkpt lat="47.25465" lon="-2.26483">
        <ele>28.60000038147</ele>
        <time>2020-08-23T08:17:18.000Z</time>
      </trkpt>
      <trkpt lat="47.25467" lon="-2.26487">
        <ele>28.60000038147</ele>
        <time>2020-08-23T08:17:19.000Z</time>
      </trkpt>
      <trkpt lat="47.25471" lon="-2.26494">
        <ele>29.60000038147</ele>
        <time>2020-08-23T08:17:21.000Z</time>
      </trkpt>
      <trkpt lat="47.25473" lon="-2.26498">
        <ele>30</ele>
        <time>2020-08-23T08:17:22.000Z</time>
      </trkpt>
      <trkpt lat="47.25474" lon="-2.26501">
        <ele>30.39999961853</ele>
        <time>2020-08-23T08:17:23.000Z</time>
      </trkpt>
      <trkpt lat="47.25475" lon="-2.26505">
        <ele>30.799999237061</ele>
        <time>2020-08-23T08:17:24.000Z</time>
      </trkpt>
      <trkpt lat="47.25477" lon="-2.26512">
        <ele>31.200000762939</ele>
        <time>2020-08-23T08:17:26.000Z</time>
      </trkpt>
      <trkpt lat="47.25478" lon="-2.26516">
        <ele>31.60000038147</ele>
        <time>2020-08-23T08:17:27.000Z</time>
      </trkpt>
      <trkpt lat="47.25478" lon="-2.26519">
        <ele>32</ele>
        <time>2020-08-23T08:17:28.000Z</time>
      </trkpt>
      <trkpt lat="47.25479" lon="-2.26524">
        <ele>32.400001525879</ele>
        <time>2020-08-23T08:17:29.000Z</time>
      </trkpt>
      <trkpt lat="47.25479" lon="-2.26529">
        <ele>32.799999237061</ele>
        <time>2020-08-23T08:17:30.000Z</time>
      </trkpt>
      <trkpt lat="47.25484" lon="-2.26562">
        <ele>33.400001525879</ele>
        <time>2020-08-23T08:17:36.000Z</time>
      </trkpt>
      <trkpt lat="47.25485" lon="-2.26568">
        <ele>33.799999237061</ele>
        <time>2020-08-23T08:17:37.000Z</time>
      </trkpt>
      <trkpt lat="47.25486" lon="-2.26573">
        <ele>34.200000762939</ele>
        <time>2020-08-23T08:17:38.000Z</time>
      </trkpt>
      <trkpt lat="47.25487" lon="-2.26579">
        <ele>34.599998474121</ele>
        <time>2020-08-23T08:17:39.000Z</time>
      </trkpt>
      <trkpt lat="47.25488" lon="-2.26584">
        <ele>35</ele>
        <time>2020-08-23T08:17:40.000Z</time>
      </trkpt>
      <trkpt lat="47.25487" lon="-2.26608">
        <ele>35</ele>
        <time>2020-08-23T08:17:44.000Z</time>
      </trkpt>
      <trkpt lat="47.25488" lon="-2.2662">
        <ele>35</ele>
        <time>2020-08-23T08:17:46.000Z</time>
      </trkpt>
      <trkpt lat="47.25488" lon="-2.26647">
        <ele>35</ele>
        <time>2020-08-23T08:17:50.000Z</time>
      </trkpt>
      <trkpt lat="47.25487" lon="-2.26673">
        <ele>35</ele>
        <time>2020-08-23T08:17:54.000Z</time>
      </trkpt>
      <trkpt lat="47.25485" lon="-2.26684">
        <ele>35</ele>
        <time>2020-08-23T08:17:56.000Z</time>
      </trkpt>
      <trkpt lat="47.25476" lon="-2.26701">
        <ele>35</ele>
        <time>2020-08-23T08:18:02.000Z</time>
      </trkpt>
      <trkpt lat="47.25476" lon="-2.26701">
        <ele>35</ele>
        <time>2020-08-23T08:18:03.000Z</time>
      </trkpt>
      <trkpt lat="47.25476" lon="-2.26699">
        <ele>35</ele>
        <time>2020-08-23T08:18:10.000Z</time>
      </trkpt>
      <trkpt lat="47.25474" lon="-2.26695">
        <ele>35</ele>
        <time>2020-08-23T08:18:12.000Z</time>
      </trkpt>
      <trkpt lat="47.25463" lon="-2.26681">
        <ele>35</ele>
        <time>2020-08-23T08:18:17.000Z</time>
      </trkpt>
      <trkpt lat="47.25455" lon="-2.26673">
        <ele>35.400001525879</ele>
        <time>2020-08-23T08:18:20.000Z</time>
      </trkpt>
      <trkpt lat="47.25453" lon="-2.26669">
        <ele>35.799999237061</ele>
        <time>2020-08-23T08:18:21.000Z</time>
      </trkpt>
      <trkpt lat="47.2545" lon="-2.26666">
        <ele>36.200000762939</ele>
        <time>2020-08-23T08:18:22.000Z</time>
      </trkpt>
      <trkpt lat="47.25448" lon="-2.26664">
        <ele>36.599998474121</ele>
        <time>2020-08-23T08:18:23.000Z</time>
      </trkpt>
      <trkpt lat="47.25445" lon="-2.26663">
        <ele>37</ele>
        <time>2020-08-23T08:18:24.000Z</time>
      </trkpt>
      <trkpt lat="47.25433" lon="-2.26658">
        <ele>37</ele>
        <time>2020-08-23T08:18:29.000Z</time>
      </trkpt>
      <trkpt lat="47.25432" lon="-2.26653">
        <ele>37</ele>
        <time>2020-08-23T08:18:30.000Z</time>
      </trkpt>
      <trkpt lat="47.25435" lon="-2.26644">
        <ele>37</ele>
        <time>2020-08-23T08:18:32.000Z</time>
      </trkpt>
      <trkpt lat="47.25438" lon="-2.26628">
        <ele>37</ele>
        <time>2020-08-23T08:18:35.000Z</time>
      </trkpt>
      <trkpt lat="47.25439" lon="-2.26617">
        <ele>37</ele>
        <time>2020-08-23T08:18:37.000Z</time>
      </trkpt>
      <trkpt lat="47.25439" lon="-2.2661">
        <ele>37</ele>
        <time>2020-08-23T08:18:38.000Z</time>
      </trkpt>
      <trkpt lat="47.25434" lon="-2.26587">
        <ele>37</ele>
        <time>2020-08-23T08:18:41.000Z</time>
      </trkpt>
      <trkpt lat="47.25425" lon="-2.26566">
        <ele>37</ele>
        <time>2020-08-23T08:18:44.000Z</time>
      </trkpt>
      <trkpt lat="47.25421" lon="-2.26555">
        <ele>37</ele>
        <time>2020-08-23T08:18:46.000Z</time>
      </trkpt>
      <trkpt lat="47.25419" lon="-2.2654">
        <ele>37</ele>
        <time>2020-08-23T08:18:49.000Z</time>
      </trkpt>
      <trkpt lat="47.2542" lon="-2.26532">
        <ele>37</ele>
        <time>2020-08-23T08:18:50.000Z</time>
      </trkpt>
      <trkpt lat="47.2542" lon="-2.26525">
        <ele>36.599998474121</ele>
        <time>2020-08-23T08:18:51.000Z</time>
      </trkpt>
      <trkpt lat="47.25421" lon="-2.26519">
        <ele>36.200000762939</ele>
        <time>2020-08-23T08:18:52.000Z</time>
      </trkpt>
      <trkpt lat="47.25421" lon="-2.26513">
        <ele>35.799999237061</ele>
        <time>2020-08-23T08:18:53.000Z</time>
      </trkpt>
      <trkpt lat="47.25422" lon="-2.26506">
        <ele>35.400001525879</ele>
        <time>2020-08-23T08:18:54.000Z</time>
      </trkpt>
      <trkpt lat="47.25422" lon="-2.26497">
        <ele>35</ele>
        <time>2020-08-23T08:18:55.000Z</time>
      </trkpt>
      <trkpt lat="47.25422" lon="-2.26487">
        <ele>35</ele>
        <time>2020-08-23T08:18:56.000Z</time>
      </trkpt>
      <trkpt lat="47.25424" lon="-2.26463">
        <ele>34.599998474121</ele>
        <time>2020-08-23T08:18:58.000Z</time>
      </trkpt>
      <trkpt lat="47.25424" lon="-2.26451">
        <ele>33.599998474121</ele>
        <time>2020-08-23T08:18:59.000Z</time>
      </trkpt>
      <trkpt lat="47.25424" lon="-2.26438">
        <ele>33.200000762939</ele>
        <time>2020-08-23T08:19:00.000Z</time>
      </trkpt>
      <trkpt lat="47.25425" lon="-2.26427">
        <ele>32.799999237061</ele>
        <time>2020-08-23T08:19:01.000Z</time>
      </trkpt>
      <trkpt lat="47.25426" lon="-2.26416">
        <ele>32.400001525879</ele>
        <time>2020-08-23T08:19:02.000Z</time>
      </trkpt>
      <trkpt lat="47.25426" lon="-2.26405">
        <ele>32</ele>
        <time>2020-08-23T08:19:03.000Z</time>
      </trkpt>
      <trkpt lat="47.25424" lon="-2.26396">
        <ele>31.60000038147</ele>
        <time>2020-08-23T08:19:04.000Z</time>
      </trkpt>
      <trkpt lat="47.25422" lon="-2.26389">
        <ele>31</ele>
        <time>2020-08-23T08:19:05.000Z</time>
      </trkpt>
      <trkpt lat="47.25419" lon="-2.26382">
        <ele>30.60000038147</ele>
        <time>2020-08-23T08:19:06.000Z</time>
      </trkpt>
      <trkpt lat="47.25412" lon="-2.26368">
        <ele>30.60000038147</ele>
        <time>2020-08-23T08:19:09.000Z</time>
      </trkpt>
      <trkpt lat="47.25404" lon="-2.26361">
        <ele>30.60000038147</ele>
        <time>2020-08-23T08:19:13.000Z</time>
      </trkpt>
      <trkpt lat="47.25401" lon="-2.26351">
        <ele>30.60000038147</ele>
        <time>2020-08-23T08:19:16.000Z</time>
      </trkpt>
      <trkpt lat="47.254" lon="-2.26347">
        <ele>30.60000038147</ele>
        <time>2020-08-23T08:19:17.000Z</time>
      </trkpt>
      <trkpt lat="47.25394" lon="-2.2632">
        <ele>30.60000038147</ele>
        <time>2020-08-23T08:19:23.000Z</time>
      </trkpt>
      <trkpt lat="47.25386" lon="-2.26287">
        <ele>30.60000038147</ele>
        <time>2020-08-23T08:19:30.000Z</time>
      </trkpt>
      <trkpt lat="47.25388" lon="-2.26262">
        <ele>30.60000038147</ele>
        <time>2020-08-23T08:19:34.000Z</time>
      </trkpt>
      <trkpt lat="47.25383" lon="-2.26233">
        <ele>30.60000038147</ele>
        <time>2020-08-23T08:19:38.000Z</time>
      </trkpt>
      <trkpt lat="47.25377" lon="-2.26217">
        <ele>30.60000038147</ele>
        <time>2020-08-23T08:19:42.000Z</time>
      </trkpt>
      <trkpt lat="47.25373" lon="-2.26193">
        <ele>30.60000038147</ele>
        <time>2020-08-23T08:19:47.000Z</time>
      </trkpt>
      <trkpt lat="47.25374" lon="-2.26176">
        <ele>30.200000762939</ele>
        <time>2020-08-23T08:19:50.000Z</time>
      </trkpt>
      <trkpt lat="47.25374" lon="-2.26169">
        <ele>29.799999237061</ele>
        <time>2020-08-23T08:19:51.000Z</time>
      </trkpt>
      <trkpt lat="47.25375" lon="-2.26163">
        <ele>29.200000762939</ele>
        <time>2020-08-23T08:19:52.000Z</time>
      </trkpt>
      <trkpt lat="47.25376" lon="-2.26158">
        <ele>28.799999237061</ele>
        <time>2020-08-23T08:19:53.000Z</time>
      </trkpt>
      <trkpt lat="47.25377" lon="-2.26152">
        <ele>28.39999961853</ele>
        <time>2020-08-23T08:19:54.000Z</time>
      </trkpt>
      <trkpt lat="47.25379" lon="-2.26149">
        <ele>27.799999237061</ele>
        <time>2020-08-23T08:19:55.000Z</time>
      </trkpt>
      <trkpt lat="47.2538" lon="-2.26147">
        <ele>27.39999961853</ele>
        <time>2020-08-23T08:19:56.000Z</time>
      </trkpt>
      <trkpt lat="47.25382" lon="-2.26144">
        <ele>27</ele>
        <time>2020-08-23T08:19:57.000Z</time>
      </trkpt>
      <trkpt lat="47.25384" lon="-2.26141">
        <ele>26.39999961853</ele>
        <time>2020-08-23T08:19:58.000Z</time>
      </trkpt>
      <trkpt lat="47.25386" lon="-2.26137">
        <ele>26</ele>
        <time>2020-08-23T08:19:59.000Z</time>
      </trkpt>
      <trkpt lat="47.25387" lon="-2.26132">
        <ele>25.60000038147</ele>
        <time>2020-08-23T08:20:00.000Z</time>
      </trkpt>
      <trkpt lat="47.25388" lon="-2.26128">
        <ele>25.200000762939</ele>
        <time>2020-08-23T08:20:01.000Z</time>
      </trkpt>
      <trkpt lat="47.25388" lon="-2.26123">
        <ele>24.799999237061</ele>
        <time>2020-08-23T08:20:02.000Z</time>
      </trkpt>
      <trkpt lat="47.25388" lon="-2.26118">
        <ele>24.39999961853</ele>
        <time>2020-08-23T08:20:03.000Z</time>
      </trkpt>
      <trkpt lat="47.25388" lon="-2.26113">
        <ele>23.799999237061</ele>
        <time>2020-08-23T08:20:04.000Z</time>
      </trkpt>
      <trkpt lat="47.25387" lon="-2.26091">
        <ele>23.799999237061</ele>
        <time>2020-08-23T08:20:07.000Z</time>
      </trkpt>
      <trkpt lat="47.25387" lon="-2.26053">
        <ele>23.799999237061</ele>
        <time>2020-08-23T08:20:12.000Z</time>
      </trkpt>
      <trkpt lat="47.25389" lon="-2.26023">
        <ele>23.799999237061</ele>
        <time>2020-08-23T08:20:18.000Z</time>
      </trkpt>
      <trkpt lat="47.25389" lon="-2.26016">
        <ele>23.39999961853</ele>
        <time>2020-08-23T08:20:19.000Z</time>
      </trkpt>
      <trkpt lat="47.25389" lon="-2.26011">
        <ele>23</ele>
        <time>2020-08-23T08:20:20.000Z</time>
      </trkpt>
      <trkpt lat="47.25389" lon="-2.26006">
        <ele>22.60000038147</ele>
        <time>2020-08-23T08:20:21.000Z</time>
      </trkpt>
      <trkpt lat="47.2539" lon="-2.26002">
        <ele>22.200000762939</ele>
        <time>2020-08-23T08:20:22.000Z</time>
      </trkpt>
      <trkpt lat="47.25394" lon="-2.25999">
        <ele>21.60000038147</ele>
        <time>2020-08-23T08:20:23.000Z</time>
      </trkpt>
      <trkpt lat="47.25397" lon="-2.25998">
        <ele>21</ele>
        <time>2020-08-23T08:20:24.000Z</time>
      </trkpt>
      <trkpt lat="47.254" lon="-2.25995">
        <ele>20.39999961853</ele>
        <time>2020-08-23T08:20:25.000Z</time>
      </trkpt>
      <trkpt lat="47.25401" lon="-2.2599">
        <ele>19.799999237061</ele>
        <time>2020-08-23T08:20:26.000Z</time>
      </trkpt>
      <trkpt lat="47.25403" lon="-2.25984">
        <ele>19.200000762939</ele>
        <time>2020-08-23T08:20:27.000Z</time>
      </trkpt>
      <trkpt lat="47.25407" lon="-2.25973">
        <ele>18.799999237061</ele>
        <time>2020-08-23T08:20:29.000Z</time>
      </trkpt>
      <trkpt lat="47.2541" lon="-2.25967">
        <ele>18.39999961853</ele>
        <time>2020-08-23T08:20:30.000Z</time>
      </trkpt>
      <trkpt lat="47.25413" lon="-2.25962">
        <ele>18</ele>
        <time>2020-08-23T08:20:31.000Z</time>
      </trkpt>
      <trkpt lat="47.25416" lon="-2.25958">
        <ele>17.60000038147</ele>
        <time>2020-08-23T08:20:32.000Z</time>
      </trkpt>
      <trkpt lat="47.2542" lon="-2.25955">
        <ele>17.200000762939</ele>
        <time>2020-08-23T08:20:33.000Z</time>
      </trkpt>
      <trkpt lat="47.25424" lon="-2.25952">
        <ele>17.200000762939</ele>
        <time>2020-08-23T08:20:34.000Z</time>
      </trkpt>
      <trkpt lat="47.2543" lon="-2.25941">
        <ele>17.200000762939</ele>
        <time>2020-08-23T08:20:37.000Z</time>
      </trkpt>
      <trkpt lat="47.2543" lon="-2.25937">
        <ele>17.200000762939</ele>
        <time>2020-08-23T08:20:38.000Z</time>
      </trkpt>
      <trkpt lat="47.25429" lon="-2.25925">
        <ele>17.200000762939</ele>
        <time>2020-08-23T08:20:41.000Z</time>
      </trkpt>
      <trkpt lat="47.25429" lon="-2.25917">
        <ele>17.200000762939</ele>
        <time>2020-08-23T08:20:43.000Z</time>
      </trkpt>
      <trkpt lat="47.25426" lon="-2.25893">
        <ele>17.200000762939</ele>
        <time>2020-08-23T08:20:48.000Z</time>
      </trkpt>
      <trkpt lat="47.25424" lon="-2.25862">
        <ele>17.200000762939</ele>
        <time>2020-08-23T08:20:53.000Z</time>
      </trkpt>
      <trkpt lat="47.25433" lon="-2.25828">
        <ele>17.200000762939</ele>
        <time>2020-08-23T08:20:59.000Z</time>
      </trkpt>
      <trkpt lat="47.25438" lon="-2.25796">
        <ele>17.200000762939</ele>
        <time>2020-08-23T08:21:05.000Z</time>
      </trkpt>
      <trkpt lat="47.25444" lon="-2.25758">
        <ele>17.200000762939</ele>
        <time>2020-08-23T08:21:12.000Z</time>
      </trkpt>
      <trkpt lat="47.25445" lon="-2.25721">
        <ele>17.200000762939</ele>
        <time>2020-08-23T08:21:18.000Z</time>
      </trkpt>
      <trkpt lat="47.25449" lon="-2.25706">
        <ele>17.200000762939</ele>
        <time>2020-08-23T08:21:22.000Z</time>
      </trkpt>
      <trkpt lat="47.25448" lon="-2.25704">
        <ele>16.799999237061</ele>
        <time>2020-08-23T08:21:23.000Z</time>
      </trkpt>
      <trkpt lat="47.25447" lon="-2.25702">
        <ele>16.39999961853</ele>
        <time>2020-08-23T08:21:24.000Z</time>
      </trkpt>
      <trkpt lat="47.25444" lon="-2.25701">
        <ele>16</ele>
        <time>2020-08-23T08:21:25.000Z</time>
      </trkpt>
      <trkpt lat="47.25442" lon="-2.257">
        <ele>15.60000038147</ele>
        <time>2020-08-23T08:21:26.000Z</time>
      </trkpt>
      <trkpt lat="47.25439" lon="-2.25699">
        <ele>15.199999809265</ele>
        <time>2020-08-23T08:21:27.000Z</time>
      </trkpt>
      <trkpt lat="47.25436" lon="-2.25698">
        <ele>15.199999809265</ele>
        <time>2020-08-23T08:21:28.000Z</time>
      </trkpt>
      <trkpt lat="47.25428" lon="-2.25698">
        <ele>15.199999809265</ele>
        <time>2020-08-23T08:21:30.000Z</time>
      </trkpt>
      <trkpt lat="47.25415" lon="-2.25699">
        <ele>14.60000038147</ele>
        <time>2020-08-23T08:21:32.000Z</time>
      </trkpt>
      <trkpt lat="47.2541" lon="-2.25699">
        <ele>14.199999809265</ele>
        <time>2020-08-23T08:21:33.000Z</time>
      </trkpt>
      <trkpt lat="47.25405" lon="-2.25698">
        <ele>13.800000190735</ele>
        <time>2020-08-23T08:21:34.000Z</time>
      </trkpt>
      <trkpt lat="47.254" lon="-2.25696">
        <ele>13.39999961853</ele>
        <time>2020-08-23T08:21:35.000Z</time>
      </trkpt>
      <trkpt lat="47.25396" lon="-2.25693">
        <ele>12.800000190735</ele>
        <time>2020-08-23T08:21:36.000Z</time>
      </trkpt>
      <trkpt lat="47.25395" lon="-2.2568">
        <ele>12.800000190735</ele>
        <time>2020-08-23T08:21:39.000Z</time>
      </trkpt>
      <trkpt lat="47.25405" lon="-2.25669">
        <ele>12.800000190735</ele>
        <time>2020-08-23T08:21:42.000Z</time>
      </trkpt>
      <trkpt lat="47.25431" lon="-2.2565">
        <ele>12.800000190735</ele>
        <time>2020-08-23T08:21:48.000Z</time>
      </trkpt>
      <trkpt lat="47.25435" lon="-2.25647">
        <ele>12.800000190735</ele>
        <time>2020-08-23T08:21:49.000Z</time>
      </trkpt>
      <trkpt lat="47.25451" lon="-2.25645">
        <ele>13.39999961853</ele>
        <time>2020-08-23T08:21:53.000Z</time>
      </trkpt>
      <trkpt lat="47.25455" lon="-2.25645">
        <ele>13.800000190735</ele>
        <time>2020-08-23T08:21:54.000Z</time>
      </trkpt>
      <trkpt lat="47.25458" lon="-2.25646">
        <ele>14.199999809265</ele>
        <time>2020-08-23T08:21:55.000Z</time>
      </trkpt>
      <trkpt lat="47.25461" lon="-2.25647">
        <ele>14.60000038147</ele>
        <time>2020-08-23T08:21:56.000Z</time>
      </trkpt>
      <trkpt lat="47.25464" lon="-2.25647">
        <ele>15.199999809265</ele>
        <time>2020-08-23T08:21:57.000Z</time>
      </trkpt>
      <trkpt lat="47.25469" lon="-2.25647">
        <ele>15.60000038147</ele>
        <time>2020-08-23T08:21:59.000Z</time>
      </trkpt>
      <trkpt lat="47.25471" lon="-2.25648">
        <ele>16</ele>
        <time>2020-08-23T08:22:00.000Z</time>
      </trkpt>
      <trkpt lat="47.25474" lon="-2.25648">
        <ele>16.60000038147</ele>
        <time>2020-08-23T08:22:01.000Z</time>
      </trkpt>
      <trkpt lat="47.25476" lon="-2.25648">
        <ele>17</ele>
        <time>2020-08-23T08:22:02.000Z</time>
      </trkpt>
      <trkpt lat="47.25479" lon="-2.25646">
        <ele>17.60000038147</ele>
        <time>2020-08-23T08:22:03.000Z</time>
      </trkpt>
      <trkpt lat="47.25482" lon="-2.25642">
        <ele>17.60000038147</ele>
        <time>2020-08-23T08:22:04.000Z</time>
      </trkpt>
      <trkpt lat="47.25494" lon="-2.25623">
        <ele>18</ele>
        <time>2020-08-23T08:22:10.000Z</time>
      </trkpt>
      <trkpt lat="47.25496" lon="-2.25619">
        <ele>18.39999961853</ele>
        <time>2020-08-23T08:22:11.000Z</time>
      </trkpt>
      <trkpt lat="47.25499" lon="-2.25616">
        <ele>19</ele>
        <time>2020-08-23T08:22:12.000Z</time>
      </trkpt>
      <trkpt lat="47.25501" lon="-2.25613">
        <ele>19.39999961853</ele>
        <time>2020-08-23T08:22:13.000Z</time>
      </trkpt>
      <trkpt lat="47.25504" lon="-2.2561">
        <ele>19.799999237061</ele>
        <time>2020-08-23T08:22:14.000Z</time>
      </trkpt>
      <trkpt lat="47.25512" lon="-2.25599">
        <ele>19.799999237061</ele>
        <time>2020-08-23T08:22:17.000Z</time>
      </trkpt>
      <trkpt lat="47.25514" lon="-2.25596">
        <ele>20.39999961853</ele>
        <time>2020-08-23T08:22:18.000Z</time>
      </trkpt>
      <trkpt lat="47.25516" lon="-2.25593">
        <ele>20.799999237061</ele>
        <time>2020-08-23T08:22:19.000Z</time>
      </trkpt>
      <trkpt lat="47.25518" lon="-2.25589">
        <ele>21.200000762939</ele>
        <time>2020-08-23T08:22:20.000Z</time>
      </trkpt>
      <trkpt lat="47.2552" lon="-2.25586">
        <ele>21.60000038147</ele>
        <time>2020-08-23T08:22:21.000Z</time>
      </trkpt>
      <trkpt lat="47.25521" lon="-2.25583">
        <ele>22</ele>
        <time>2020-08-23T08:22:22.000Z</time>
      </trkpt>
      <trkpt lat="47.25524" lon="-2.2558">
        <ele>22</ele>
        <time>2020-08-23T08:22:23.000Z</time>
      </trkpt>
      <trkpt lat="47.25526" lon="-2.25577">
        <ele>22.39999961853</ele>
        <time>2020-08-23T08:22:24.000Z</time>
      </trkpt>
      <trkpt lat="47.25528" lon="-2.25573">
        <ele>22.799999237061</ele>
        <time>2020-08-23T08:22:25.000Z</time>
      </trkpt>
      <trkpt lat="47.2553" lon="-2.25569">
        <ele>23.39999961853</ele>
        <time>2020-08-23T08:22:26.000Z</time>
      </trkpt>
      <trkpt lat="47.25532" lon="-2.25565">
        <ele>23.799999237061</ele>
        <time>2020-08-23T08:22:27.000Z</time>
      </trkpt>
      <trkpt lat="47.25534" lon="-2.25561">
        <ele>24.200000762939</ele>
        <time>2020-08-23T08:22:28.000Z</time>
      </trkpt>
      <trkpt lat="47.25537" lon="-2.25553">
        <ele>24.200000762939</ele>
        <time>2020-08-23T08:22:30.000Z</time>
      </trkpt>
      <trkpt lat="47.25538" lon="-2.2555">
        <ele>24.60000038147</ele>
        <time>2020-08-23T08:22:31.000Z</time>
      </trkpt>
      <trkpt lat="47.2554" lon="-2.25546">
        <ele>25</ele>
        <time>2020-08-23T08:22:32.000Z</time>
      </trkpt>
      <trkpt lat="47.25542" lon="-2.25542">
        <ele>25.39999961853</ele>
        <time>2020-08-23T08:22:33.000Z</time>
      </trkpt>
      <trkpt lat="47.25543" lon="-2.25539">
        <ele>25.799999237061</ele>
        <time>2020-08-23T08:22:34.000Z</time>
      </trkpt>
      <trkpt lat="47.25545" lon="-2.25535">
        <ele>26.200000762939</ele>
        <time>2020-08-23T08:22:35.000Z</time>
      </trkpt>
      <trkpt lat="47.25548" lon="-2.25528">
        <ele>26.200000762939</ele>
        <time>2020-08-23T08:22:37.000Z</time>
      </trkpt>
      <trkpt lat="47.2555" lon="-2.25525">
        <ele>26.60000038147</ele>
        <time>2020-08-23T08:22:38.000Z</time>
      </trkpt>
      <trkpt lat="47.25551" lon="-2.25523">
        <ele>27</ele>
        <time>2020-08-23T08:22:39.000Z</time>
      </trkpt>
      <trkpt lat="47.25553" lon="-2.2552">
        <ele>27.39999961853</ele>
        <time>2020-08-23T08:22:40.000Z</time>
      </trkpt>
      <trkpt lat="47.25554" lon="-2.25517">
        <ele>27.799999237061</ele>
        <time>2020-08-23T08:22:41.000Z</time>
      </trkpt>
      <trkpt lat="47.25556" lon="-2.25514">
        <ele>28.200000762939</ele>
        <time>2020-08-23T08:22:42.000Z</time>
      </trkpt>
      <trkpt lat="47.25559" lon="-2.25508">
        <ele>28.200000762939</ele>
        <time>2020-08-23T08:22:44.000Z</time>
      </trkpt>
      <trkpt lat="47.25563" lon="-2.25501">
        <ele>28.60000038147</ele>
        <time>2020-08-23T08:22:47.000Z</time>
      </trkpt>
      <trkpt lat="47.25565" lon="-2.25498">
        <ele>29</ele>
        <time>2020-08-23T08:22:48.000Z</time>
      </trkpt>
      <trkpt lat="47.25567" lon="-2.25496">
        <ele>29.39999961853</ele>
        <time>2020-08-23T08:22:49.000Z</time>
      </trkpt>
      <trkpt lat="47.25569" lon="-2.25494">
        <ele>30</ele>
        <time>2020-08-23T08:22:50.000Z</time>
      </trkpt>
      <trkpt lat="47.2557" lon="-2.25491">
        <ele>30.39999961853</ele>
        <time>2020-08-23T08:22:51.000Z</time>
      </trkpt>
      <trkpt lat="47.25578" lon="-2.25478">
        <ele>30.39999961853</ele>
        <time>2020-08-23T08:22:55.000Z</time>
      </trkpt>
      <trkpt lat="47.25589" lon="-2.25461">
        <ele>30.39999961853</ele>
        <time>2020-08-23T08:23:00.000Z</time>
      </trkpt>
      <trkpt lat="47.25604" lon="-2.25439">
        <ele>30.39999961853</ele>
        <time>2020-08-23T08:23:07.000Z</time>
      </trkpt>
      <trkpt lat="47.25616" lon="-2.25422">
        <ele>30.39999961853</ele>
        <time>2020-08-23T08:23:13.000Z</time>
      </trkpt>
      <trkpt lat="47.2562" lon="-2.25408">
        <ele>30.799999237061</ele>
        <time>2020-08-23T08:23:18.000Z</time>
      </trkpt>
      <trkpt lat="47.2562" lon="-2.25407">
        <ele>31.200000762939</ele>
        <time>2020-08-23T08:23:19.000Z</time>
      </trkpt>
      <trkpt lat="47.25621" lon="-2.25406">
        <ele>32.400001525879</ele>
        <time>2020-08-23T08:24:00.000Z</time>
      </trkpt>
      <trkpt lat="47.25622" lon="-2.25404">
        <ele>32.400001525879</ele>
        <time>2020-08-23T08:24:01.000Z</time>
      </trkpt>
      <trkpt lat="47.25628" lon="-2.25386">
        <ele>32.400001525879</ele>
        <time>2020-08-23T08:24:06.000Z</time>
      </trkpt>
      <trkpt lat="47.25632" lon="-2.25351">
        <ele>32.400001525879</ele>
        <time>2020-08-23T08:24:12.000Z</time>
      </trkpt>
      <trkpt lat="47.2564" lon="-2.253">
        <ele>32.400001525879</ele>
        <time>2020-08-23T08:24:19.000Z</time>
      </trkpt>
      <trkpt lat="47.25648" lon="-2.25245">
        <ele>32.400001525879</ele>
        <time>2020-08-23T08:24:26.000Z</time>
      </trkpt>
      <trkpt lat="47.25658" lon="-2.25192">
        <ele>32.400001525879</ele>
        <time>2020-08-23T08:24:33.000Z</time>
      </trkpt>
      <trkpt lat="47.25666" lon="-2.25144">
        <ele>32.400001525879</ele>
        <time>2020-08-23T08:24:39.000Z</time>
      </trkpt>
      <trkpt lat="47.25669" lon="-2.25117">
        <ele>32.400001525879</ele>
        <time>2020-08-23T08:24:43.000Z</time>
      </trkpt>
      <trkpt lat="47.2567" lon="-2.25101">
        <ele>32.400001525879</ele>
        <time>2020-08-23T08:24:45.000Z</time>
      </trkpt>
      <trkpt lat="47.25673" lon="-2.25082">
        <ele>32.400001525879</ele>
        <time>2020-08-23T08:24:47.000Z</time>
      </trkpt>
      <trkpt lat="47.25678" lon="-2.25055">
        <ele>32.400001525879</ele>
        <time>2020-08-23T08:24:50.000Z</time>
      </trkpt>
      <trkpt lat="47.25691" lon="-2.24999">
        <ele>32.400001525879</ele>
        <time>2020-08-23T08:24:56.000Z</time>
      </trkpt>
      <trkpt lat="47.25705" lon="-2.24923">
        <ele>32.400001525879</ele>
        <time>2020-08-23T08:25:04.000Z</time>
      </trkpt>
      <trkpt lat="47.2571" lon="-2.24899">
        <ele>31.799999237061</ele>
        <time>2020-08-23T08:25:08.000Z</time>
      </trkpt>
      <trkpt lat="47.25712" lon="-2.24897">
        <ele>31.39999961853</ele>
        <time>2020-08-23T08:25:09.000Z</time>
      </trkpt>
      <trkpt lat="47.25715" lon="-2.24895">
        <ele>31</ele>
        <time>2020-08-23T08:25:10.000Z</time>
      </trkpt>
      <trkpt lat="47.25718" lon="-2.24892">
        <ele>30</ele>
        <time>2020-08-23T08:25:11.000Z</time>
      </trkpt>
      <trkpt lat="47.25722" lon="-2.2489">
        <ele>30</ele>
        <time>2020-08-23T08:25:12.000Z</time>
      </trkpt>
      <trkpt lat="47.25745" lon="-2.24879">
        <ele>30</ele>
        <time>2020-08-23T08:25:18.000Z</time>
      </trkpt>
      <trkpt lat="47.25753" lon="-2.24874">
        <ele>30</ele>
        <time>2020-08-23T08:25:20.000Z</time>
      </trkpt>
      <trkpt lat="47.25766" lon="-2.24864">
        <ele>30</ele>
        <time>2020-08-23T08:25:23.000Z</time>
      </trkpt>
      <trkpt lat="47.25769" lon="-2.24858">
        <ele>30</ele>
        <time>2020-08-23T08:25:24.000Z</time>
      </trkpt>
      <trkpt lat="47.25774" lon="-2.24837">
        <ele>30.39999961853</ele>
        <time>2020-08-23T08:25:27.000Z</time>
      </trkpt>
      <trkpt lat="47.25776" lon="-2.2483">
        <ele>31</ele>
        <time>2020-08-23T08:25:28.000Z</time>
      </trkpt>
      <trkpt lat="47.25778" lon="-2.24823">
        <ele>31.39999961853</ele>
        <time>2020-08-23T08:25:29.000Z</time>
      </trkpt>
      <trkpt lat="47.2578" lon="-2.24815">
        <ele>31.799999237061</ele>
        <time>2020-08-23T08:25:30.000Z</time>
      </trkpt>
      <trkpt lat="47.25781" lon="-2.24807">
        <ele>32.200000762939</ele>
        <time>2020-08-23T08:25:31.000Z</time>
      </trkpt>
      <trkpt lat="47.25784" lon="-2.24791">
        <ele>32.200000762939</ele>
        <time>2020-08-23T08:25:33.000Z</time>
      </trkpt>
      <trkpt lat="47.25785" lon="-2.24784">
        <ele>32.200000762939</ele>
        <time>2020-08-23T08:25:34.000Z</time>
      </trkpt>
      <trkpt lat="47.2579" lon="-2.24738">
        <ele>32.200000762939</ele>
        <time>2020-08-23T08:25:40.000Z</time>
      </trkpt>
      <trkpt lat="47.25794" lon="-2.24688">
        <ele>32.200000762939</ele>
        <time>2020-08-23T08:25:46.000Z</time>
      </trkpt>
      <trkpt lat="47.25793" lon="-2.24662">
        <ele>31.799999237061</ele>
        <time>2020-08-23T08:25:49.000Z</time>
      </trkpt>
      <trkpt lat="47.25791" lon="-2.24654">
        <ele>31.39999961853</ele>
        <time>2020-08-23T08:25:50.000Z</time>
      </trkpt>
      <trkpt lat="47.25789" lon="-2.24646">
        <ele>31</ele>
        <time>2020-08-23T08:25:51.000Z</time>
      </trkpt>
      <trkpt lat="47.25787" lon="-2.24639">
        <ele>30.60000038147</ele>
        <time>2020-08-23T08:25:52.000Z</time>
      </trkpt>
      <trkpt lat="47.25785" lon="-2.2463">
        <ele>30.200000762939</ele>
        <time>2020-08-23T08:25:53.000Z</time>
      </trkpt>
      <trkpt lat="47.25772" lon="-2.24583">
        <ele>30.200000762939</ele>
        <time>2020-08-23T08:25:59.000Z</time>
      </trkpt>
      <trkpt lat="47.25765" lon="-2.24558">
        <ele>29.799999237061</ele>
        <time>2020-08-23T08:26:02.000Z</time>
      </trkpt>
      <trkpt lat="47.25762" lon="-2.2455">
        <ele>29.39999961853</ele>
        <time>2020-08-23T08:26:03.000Z</time>
      </trkpt>
      <trkpt lat="47.2576" lon="-2.24542">
        <ele>29</ele>
        <time>2020-08-23T08:26:04.000Z</time>
      </trkpt>
      <trkpt lat="47.25757" lon="-2.24533">
        <ele>28.39999961853</ele>
        <time>2020-08-23T08:26:05.000Z</time>
      </trkpt>
      <trkpt lat="47.25755" lon="-2.24525">
        <ele>28</ele>
        <time>2020-08-23T08:26:06.000Z</time>
      </trkpt>
      <trkpt lat="47.25753" lon="-2.24517">
        <ele>28</ele>
        <time>2020-08-23T08:26:07.000Z</time>
      </trkpt>
      <trkpt lat="47.25753" lon="-2.24495">
        <ele>28</ele>
        <time>2020-08-23T08:26:10.000Z</time>
      </trkpt>
      <trkpt lat="47.25749" lon="-2.24482">
        <ele>28</ele>
        <time>2020-08-23T08:26:12.000Z</time>
      </trkpt>
      <trkpt lat="47.25747" lon="-2.24474">
        <ele>28</ele>
        <time>2020-08-23T08:26:13.000Z</time>
      </trkpt>
      <trkpt lat="47.25746" lon="-2.24467">
        <ele>28</ele>
        <time>2020-08-23T08:26:14.000Z</time>
      </trkpt>
      <trkpt lat="47.25744" lon="-2.24418">
        <ele>28</ele>
        <time>2020-08-23T08:26:20.000Z</time>
      </trkpt>
      <trkpt lat="47.25743" lon="-2.24409">
        <ele>27.60000038147</ele>
        <time>2020-08-23T08:26:21.000Z</time>
      </trkpt>
      <trkpt lat="47.25743" lon="-2.24401">
        <ele>27.200000762939</ele>
        <time>2020-08-23T08:26:22.000Z</time>
      </trkpt>
      <trkpt lat="47.25743" lon="-2.24393">
        <ele>26.799999237061</ele>
        <time>2020-08-23T08:26:23.000Z</time>
      </trkpt>
      <trkpt lat="47.25743" lon="-2.24385">
        <ele>26</ele>
        <time>2020-08-23T08:26:24.000Z</time>
      </trkpt>
      <trkpt lat="47.25743" lon="-2.2436">
        <ele>26</ele>
        <time>2020-08-23T08:26:27.000Z</time>
      </trkpt>
      <trkpt lat="47.25742" lon="-2.24301">
        <ele>26</ele>
        <time>2020-08-23T08:26:34.000Z</time>
      </trkpt>
      <trkpt lat="47.25743" lon="-2.24285">
        <ele>26</ele>
        <time>2020-08-23T08:26:36.000Z</time>
      </trkpt>
      <trkpt lat="47.25743" lon="-2.24251">
        <ele>26</ele>
        <time>2020-08-23T08:26:40.000Z</time>
      </trkpt>
      <trkpt lat="47.25741" lon="-2.2418">
        <ele>26</ele>
        <time>2020-08-23T08:26:48.000Z</time>
      </trkpt>
      <trkpt lat="47.25742" lon="-2.24114">
        <ele>26</ele>
        <time>2020-08-23T08:26:55.000Z</time>
      </trkpt>
      <trkpt lat="47.25743" lon="-2.24083">
        <ele>25.60000038147</ele>
        <time>2020-08-23T08:26:58.000Z</time>
      </trkpt>
      <trkpt lat="47.25743" lon="-2.24073">
        <ele>25</ele>
        <time>2020-08-23T08:26:59.000Z</time>
      </trkpt>
      <trkpt lat="47.25743" lon="-2.24062">
        <ele>24.60000038147</ele>
        <time>2020-08-23T08:27:00.000Z</time>
      </trkpt>
      <trkpt lat="47.25744" lon="-2.24051">
        <ele>24.200000762939</ele>
        <time>2020-08-23T08:27:01.000Z</time>
      </trkpt>
      <trkpt lat="47.25744" lon="-2.2404">
        <ele>23.60000038147</ele>
        <time>2020-08-23T08:27:02.000Z</time>
      </trkpt>
      <trkpt lat="47.25744" lon="-2.24029">
        <ele>23.60000038147</ele>
        <time>2020-08-23T08:27:03.000Z</time>
      </trkpt>
      <trkpt lat="47.25739" lon="-2.23987">
        <ele>23.200000762939</ele>
        <time>2020-08-23T08:27:07.000Z</time>
      </trkpt>
      <trkpt lat="47.25738" lon="-2.23977">
        <ele>22.799999237061</ele>
        <time>2020-08-23T08:27:08.000Z</time>
      </trkpt>
      <trkpt lat="47.25736" lon="-2.23966">
        <ele>22.39999961853</ele>
        <time>2020-08-23T08:27:09.000Z</time>
      </trkpt>
      <trkpt lat="47.25735" lon="-2.23957">
        <ele>22</ele>
        <time>2020-08-23T08:27:10.000Z</time>
      </trkpt>
      <trkpt lat="47.25733" lon="-2.23947">
        <ele>21.60000038147</ele>
        <time>2020-08-23T08:27:11.000Z</time>
      </trkpt>
      <trkpt lat="47.2573" lon="-2.23928">
        <ele>21.60000038147</ele>
        <time>2020-08-23T08:27:13.000Z</time>
      </trkpt>
      <trkpt lat="47.25721" lon="-2.23868">
        <ele>21.60000038147</ele>
        <time>2020-08-23T08:27:19.000Z</time>
      </trkpt>
      <trkpt lat="47.2572" lon="-2.23858">
        <ele>21.200000762939</ele>
        <time>2020-08-23T08:27:20.000Z</time>
      </trkpt>
      <trkpt lat="47.25719" lon="-2.23848">
        <ele>20.799999237061</ele>
        <time>2020-08-23T08:27:21.000Z</time>
      </trkpt>
      <trkpt lat="47.25718" lon="-2.23838">
        <ele>20.39999961853</ele>
        <time>2020-08-23T08:27:22.000Z</time>
      </trkpt>
      <trkpt lat="47.25718" lon="-2.23829">
        <ele>20</ele>
        <time>2020-08-23T08:27:23.000Z</time>
      </trkpt>
      <trkpt lat="47.25717" lon="-2.23819">
        <ele>19.60000038147</ele>
        <time>2020-08-23T08:27:24.000Z</time>
      </trkpt>
      <trkpt lat="47.25717" lon="-2.23809">
        <ele>19.60000038147</ele>
        <time>2020-08-23T08:27:25.000Z</time>
      </trkpt>
      <trkpt lat="47.25713" lon="-2.23739">
        <ele>19.60000038147</ele>
        <time>2020-08-23T08:27:32.000Z</time>
      </trkpt>
      <trkpt lat="47.25709" lon="-2.23688">
        <ele>19.60000038147</ele>
        <time>2020-08-23T08:27:37.000Z</time>
      </trkpt>
      <trkpt lat="47.25705" lon="-2.23608">
        <ele>19.60000038147</ele>
        <time>2020-08-23T08:27:45.000Z</time>
      </trkpt>
      <trkpt lat="47.25704" lon="-2.23578">
        <ele>19.60000038147</ele>
        <time>2020-08-23T08:27:48.000Z</time>
      </trkpt>
      <trkpt lat="47.25702" lon="-2.23538">
        <ele>19</ele>
        <time>2020-08-23T08:27:52.000Z</time>
      </trkpt>
      <trkpt lat="47.25702" lon="-2.23527">
        <ele>18.60000038147</ele>
        <time>2020-08-23T08:27:53.000Z</time>
      </trkpt>
      <trkpt lat="47.25701" lon="-2.23517">
        <ele>18.200000762939</ele>
        <time>2020-08-23T08:27:54.000Z</time>
      </trkpt>
      <trkpt lat="47.257" lon="-2.23507">
        <ele>17.799999237061</ele>
        <time>2020-08-23T08:27:55.000Z</time>
      </trkpt>
      <trkpt lat="47.257" lon="-2.23496">
        <ele>17.39999961853</ele>
        <time>2020-08-23T08:27:56.000Z</time>
      </trkpt>
      <trkpt lat="47.25699" lon="-2.23486">
        <ele>17.39999961853</ele>
        <time>2020-08-23T08:27:57.000Z</time>
      </trkpt>
      <trkpt lat="47.25689" lon="-2.23419">
        <ele>17.39999961853</ele>
        <time>2020-08-23T08:28:04.000Z</time>
      </trkpt>
      <trkpt lat="47.25685" lon="-2.23383">
        <ele>17.39999961853</ele>
        <time>2020-08-23T08:28:08.000Z</time>
      </trkpt>
      <trkpt lat="47.25685" lon="-2.23373">
        <ele>17.39999961853</ele>
        <time>2020-08-23T08:28:09.000Z</time>
      </trkpt>
      <trkpt lat="47.25682" lon="-2.23303">
        <ele>17.39999961853</ele>
        <time>2020-08-23T08:28:16.000Z</time>
      </trkpt>
      <trkpt lat="47.25675" lon="-2.23277">
        <ele>17.39999961853</ele>
        <time>2020-08-23T08:28:19.000Z</time>
      </trkpt>
      <trkpt lat="47.25669" lon="-2.2326">
        <ele>17.39999961853</ele>
        <time>2020-08-23T08:28:21.000Z</time>
      </trkpt>
      <trkpt lat="47.25659" lon="-2.23232">
        <ele>17.39999961853</ele>
        <time>2020-08-23T08:28:24.000Z</time>
      </trkpt>
      <trkpt lat="47.25658" lon="-2.23222">
        <ele>17.39999961853</ele>
        <time>2020-08-23T08:28:25.000Z</time>
      </trkpt>
      <trkpt lat="47.2566" lon="-2.2318">
        <ele>17.39999961853</ele>
        <time>2020-08-23T08:28:29.000Z</time>
      </trkpt>
      <trkpt lat="47.2566" lon="-2.2317">
        <ele>17</ele>
        <time>2020-08-23T08:28:30.000Z</time>
      </trkpt>
      <trkpt lat="47.2566" lon="-2.2316">
        <ele>16.60000038147</ele>
        <time>2020-08-23T08:28:31.000Z</time>
      </trkpt>
      <trkpt lat="47.25661" lon="-2.23149">
        <ele>16</ele>
        <time>2020-08-23T08:28:32.000Z</time>
      </trkpt>
      <trkpt lat="47.25661" lon="-2.23139">
        <ele>15.60000038147</ele>
        <time>2020-08-23T08:28:33.000Z</time>
      </trkpt>
      <trkpt lat="47.25662" lon="-2.23129">
        <ele>15.199999809265</ele>
        <time>2020-08-23T08:28:34.000Z</time>
      </trkpt>
      <trkpt lat="47.25664" lon="-2.23099">
        <ele>14.800000190735</ele>
        <time>2020-08-23T08:28:37.000Z</time>
      </trkpt>
      <trkpt lat="47.25664" lon="-2.23089">
        <ele>14.39999961853</ele>
        <time>2020-08-23T08:28:38.000Z</time>
      </trkpt>
      <trkpt lat="47.25664" lon="-2.23079">
        <ele>14</ele>
        <time>2020-08-23T08:28:39.000Z</time>
      </trkpt>
      <trkpt lat="47.25664" lon="-2.2307">
        <ele>13.39999961853</ele>
        <time>2020-08-23T08:28:40.000Z</time>
      </trkpt>
      <trkpt lat="47.25665" lon="-2.2306">
        <ele>13</ele>
        <time>2020-08-23T08:28:41.000Z</time>
      </trkpt>
      <trkpt lat="47.25666" lon="-2.23033">
        <ele>13</ele>
        <time>2020-08-23T08:28:44.000Z</time>
      </trkpt>
      <trkpt lat="47.25667" lon="-2.22949">
        <ele>13</ele>
        <time>2020-08-23T08:28:53.000Z</time>
      </trkpt>
      <trkpt lat="47.25674" lon="-2.22888">
        <ele>12.60000038147</ele>
        <time>2020-08-23T08:28:59.000Z</time>
      </trkpt>
      <trkpt lat="47.25677" lon="-2.22879">
        <ele>12.199999809265</ele>
        <time>2020-08-23T08:29:00.000Z</time>
      </trkpt>
      <trkpt lat="47.25681" lon="-2.22869">
        <ele>11.800000190735</ele>
        <time>2020-08-23T08:29:01.000Z</time>
      </trkpt>
      <trkpt lat="47.25686" lon="-2.2286">
        <ele>11.39999961853</ele>
        <time>2020-08-23T08:29:02.000Z</time>
      </trkpt>
      <trkpt lat="47.25691" lon="-2.22853">
        <ele>11</ele>
        <time>2020-08-23T08:29:03.000Z</time>
      </trkpt>
      <trkpt lat="47.25711" lon="-2.22837">
        <ele>11</ele>
        <time>2020-08-23T08:29:06.000Z</time>
      </trkpt>
      <trkpt lat="47.25719" lon="-2.22831">
        <ele>11</ele>
        <time>2020-08-23T08:29:07.000Z</time>
      </trkpt>
      <trkpt lat="47.25743" lon="-2.22815">
        <ele>10.39999961853</ele>
        <time>2020-08-23T08:29:10.000Z</time>
      </trkpt>
      <trkpt lat="47.2575" lon="-2.2281">
        <ele>10</ele>
        <time>2020-08-23T08:29:11.000Z</time>
      </trkpt>
      <trkpt lat="47.25757" lon="-2.22805">
        <ele>9.6000003814697</ele>
        <time>2020-08-23T08:29:12.000Z</time>
      </trkpt>
      <trkpt lat="47.25764" lon="-2.22801">
        <ele>9.1999998092651</ele>
        <time>2020-08-23T08:29:13.000Z</time>
      </trkpt>
      <trkpt lat="47.2577" lon="-2.22796">
        <ele>8.8000001907349</ele>
        <time>2020-08-23T08:29:14.000Z</time>
      </trkpt>
      <trkpt lat="47.25799" lon="-2.22774">
        <ele>8.8000001907349</ele>
        <time>2020-08-23T08:29:19.000Z</time>
      </trkpt>
      <trkpt lat="47.25803" lon="-2.22769">
        <ele>8.1999998092651</ele>
        <time>2020-08-23T08:29:20.000Z</time>
      </trkpt>
      <trkpt lat="47.25807" lon="-2.22763">
        <ele>7.8000001907349</ele>
        <time>2020-08-23T08:29:21.000Z</time>
      </trkpt>
      <trkpt lat="47.25809" lon="-2.22755">
        <ele>7.4000000953674</ele>
        <time>2020-08-23T08:29:22.000Z</time>
      </trkpt>
      <trkpt lat="47.25809" lon="-2.22747">
        <ele>7</ele>
        <time>2020-08-23T08:29:23.000Z</time>
      </trkpt>
      <trkpt lat="47.25808" lon="-2.22738">
        <ele>6.5999999046326</ele>
        <time>2020-08-23T08:29:24.000Z</time>
      </trkpt>
      <trkpt lat="47.25807" lon="-2.22729">
        <ele>6.5999999046326</ele>
        <time>2020-08-23T08:29:25.000Z</time>
      </trkpt>
      <trkpt lat="47.25801" lon="-2.22662">
        <ele>6.5999999046326</ele>
        <time>2020-08-23T08:29:32.000Z</time>
      </trkpt>
      <trkpt lat="47.25803" lon="-2.22616">
        <ele>6.5999999046326</ele>
        <time>2020-08-23T08:29:37.000Z</time>
      </trkpt>
      <trkpt lat="47.25802" lon="-2.22589">
        <ele>6.5999999046326</ele>
        <time>2020-08-23T08:29:40.000Z</time>
      </trkpt>
      <trkpt lat="47.25804" lon="-2.2257">
        <ele>6.5999999046326</ele>
        <time>2020-08-23T08:29:42.000Z</time>
      </trkpt>
      <trkpt lat="47.25813" lon="-2.22515">
        <ele>6.5999999046326</ele>
        <time>2020-08-23T08:29:48.000Z</time>
      </trkpt>
      <trkpt lat="47.25823" lon="-2.22461">
        <ele>6.5999999046326</ele>
        <time>2020-08-23T08:29:54.000Z</time>
      </trkpt>
      <trkpt lat="47.25838" lon="-2.22391">
        <ele>6.5999999046326</ele>
        <time>2020-08-23T08:30:02.000Z</time>
      </trkpt>
      <trkpt lat="47.25853" lon="-2.22342">
        <ele>6.5999999046326</ele>
        <time>2020-08-23T08:30:08.000Z</time>
      </trkpt>
      <trkpt lat="47.25857" lon="-2.22336">
        <ele>6.5999999046326</ele>
        <time>2020-08-23T08:30:09.000Z</time>
      </trkpt>
      <trkpt lat="47.25871" lon="-2.22321">
        <ele>6.5999999046326</ele>
        <time>2020-08-23T08:30:12.000Z</time>
      </trkpt>
      <trkpt lat="47.25877" lon="-2.22319">
        <ele>7</ele>
        <time>2020-08-23T08:30:13.000Z</time>
      </trkpt>
      <trkpt lat="47.25882" lon="-2.22317">
        <ele>7.4000000953674</ele>
        <time>2020-08-23T08:30:14.000Z</time>
      </trkpt>
      <trkpt lat="47.25888" lon="-2.22318">
        <ele>7.8000001907349</ele>
        <time>2020-08-23T08:30:15.000Z</time>
      </trkpt>
      <trkpt lat="47.25894" lon="-2.22319">
        <ele>8.1999998092651</ele>
        <time>2020-08-23T08:30:16.000Z</time>
      </trkpt>
      <trkpt lat="47.259" lon="-2.22322">
        <ele>8.6000003814697</ele>
        <time>2020-08-23T08:30:17.000Z</time>
      </trkpt>
      <trkpt lat="47.25916" lon="-2.22334">
        <ele>8.6000003814697</ele>
        <time>2020-08-23T08:30:20.000Z</time>
      </trkpt>
      <trkpt lat="47.25944" lon="-2.22353">
        <ele>8.6000003814697</ele>
        <time>2020-08-23T08:30:26.000Z</time>
      </trkpt>
      <trkpt lat="47.25979" lon="-2.22377">
        <ele>8.6000003814697</ele>
        <time>2020-08-23T08:30:33.000Z</time>
      </trkpt>
      <trkpt lat="47.26002" lon="-2.22381">
        <ele>8.6000003814697</ele>
        <time>2020-08-23T08:30:37.000Z</time>
      </trkpt>
      <trkpt lat="47.26008" lon="-2.22382">
        <ele>8.6000003814697</ele>
        <time>2020-08-23T08:30:38.000Z</time>
      </trkpt>
      <trkpt lat="47.26044" lon="-2.22397">
        <ele>8.6000003814697</ele>
        <time>2020-08-23T08:30:44.000Z</time>
      </trkpt>
      <trkpt lat="47.26049" lon="-2.22402">
        <ele>8.6000003814697</ele>
        <time>2020-08-23T08:30:45.000Z</time>
      </trkpt>
      <trkpt lat="47.26057" lon="-2.22414">
        <ele>8.6000003814697</ele>
        <time>2020-08-23T08:30:47.000Z</time>
      </trkpt>
      <trkpt lat="47.26081" lon="-2.22436">
        <ele>8.6000003814697</ele>
        <time>2020-08-23T08:30:52.000Z</time>
      </trkpt>
      <trkpt lat="47.26087" lon="-2.2244">
        <ele>8.6000003814697</ele>
        <time>2020-08-23T08:30:53.000Z</time>
      </trkpt>
      <trkpt lat="47.26118" lon="-2.22451">
        <ele>8.6000003814697</ele>
        <time>2020-08-23T08:30:58.000Z</time>
      </trkpt>
      <trkpt lat="47.26162" lon="-2.22459">
        <ele>8.6000003814697</ele>
        <time>2020-08-23T08:31:05.000Z</time>
      </trkpt>
      <trkpt lat="47.26193" lon="-2.22459">
        <ele>8.6000003814697</ele>
        <time>2020-08-23T08:31:10.000Z</time>
      </trkpt>
      <trkpt lat="47.26199" lon="-2.2246">
        <ele>8.6000003814697</ele>
        <time>2020-08-23T08:31:11.000Z</time>
      </trkpt>
      <trkpt lat="47.26234" lon="-2.2248">
        <ele>8.6000003814697</ele>
        <time>2020-08-23T08:31:17.000Z</time>
      </trkpt>
      <trkpt lat="47.26245" lon="-2.22489">
        <ele>8.6000003814697</ele>
        <time>2020-08-23T08:31:19.000Z</time>
      </trkpt>
      <trkpt lat="47.26271" lon="-2.22508">
        <ele>8.6000003814697</ele>
        <time>2020-08-23T08:31:24.000Z</time>
      </trkpt>
      <trkpt lat="47.2631" lon="-2.22526">
        <ele>8.6000003814697</ele>
        <time>2020-08-23T08:31:31.000Z</time>
      </trkpt>
      <trkpt lat="47.26352" lon="-2.22537">
        <ele>8.6000003814697</ele>
        <time>2020-08-23T08:31:38.000Z</time>
      </trkpt>
      <trkpt lat="47.26397" lon="-2.22536">
        <ele>8.6000003814697</ele>
        <time>2020-08-23T08:31:45.000Z</time>
      </trkpt>
      <trkpt lat="47.26441" lon="-2.22523">
        <ele>8.6000003814697</ele>
        <time>2020-08-23T08:31:52.000Z</time>
      </trkpt>
      <trkpt lat="47.2647" lon="-2.22513">
        <ele>8.6000003814697</ele>
        <time>2020-08-23T08:31:57.000Z</time>
      </trkpt>
      <trkpt lat="47.26476" lon="-2.22511">
        <ele>8.6000003814697</ele>
        <time>2020-08-23T08:31:58.000Z</time>
      </trkpt>
      <trkpt lat="47.26504" lon="-2.22495">
        <ele>8.6000003814697</ele>
        <time>2020-08-23T08:32:03.000Z</time>
      </trkpt>
      <trkpt lat="47.26525" lon="-2.22471">
        <ele>8.6000003814697</ele>
        <time>2020-08-23T08:32:07.000Z</time>
      </trkpt>
      <trkpt lat="47.26556" lon="-2.22424">
        <ele>8.6000003814697</ele>
        <time>2020-08-23T08:32:14.000Z</time>
      </trkpt>
      <trkpt lat="47.2656" lon="-2.22416">
        <ele>8.6000003814697</ele>
        <time>2020-08-23T08:32:15.000Z</time>
      </trkpt>
      <trkpt lat="47.26571" lon="-2.22392">
        <ele>8.6000003814697</ele>
        <time>2020-08-23T08:32:18.000Z</time>
      </trkpt>
      <trkpt lat="47.26575" lon="-2.22385">
        <ele>8.6000003814697</ele>
        <time>2020-08-23T08:32:19.000Z</time>
      </trkpt>
      <trkpt lat="47.26603" lon="-2.22332">
        <ele>8.6000003814697</ele>
        <time>2020-08-23T08:32:26.000Z</time>
      </trkpt>
      <trkpt lat="47.26635" lon="-2.22275">
        <ele>8.6000003814697</ele>
        <time>2020-08-23T08:32:34.000Z</time>
      </trkpt>
      <trkpt lat="47.26658" lon="-2.22231">
        <ele>8.6000003814697</ele>
        <time>2020-08-23T08:32:40.000Z</time>
      </trkpt>
      <trkpt lat="47.26685" lon="-2.22185">
        <ele>8.6000003814697</ele>
        <time>2020-08-23T08:32:47.000Z</time>
      </trkpt>
      <trkpt lat="47.2669" lon="-2.22173">
        <ele>8.6000003814697</ele>
        <time>2020-08-23T08:32:49.000Z</time>
      </trkpt>
      <trkpt lat="47.26693" lon="-2.2216">
        <ele>8.6000003814697</ele>
        <time>2020-08-23T08:32:51.000Z</time>
      </trkpt>
      <trkpt lat="47.26695" lon="-2.22155">
        <ele>8.6000003814697</ele>
        <time>2020-08-23T08:32:52.000Z</time>
      </trkpt>
      <trkpt lat="47.26704" lon="-2.22138">
        <ele>8.6000003814697</ele>
        <time>2020-08-23T08:32:55.000Z</time>
      </trkpt>
      <trkpt lat="47.26709" lon="-2.22125">
        <ele>8.6000003814697</ele>
        <time>2020-08-23T08:32:57.000Z</time>
      </trkpt>
      <trkpt lat="47.26719" lon="-2.22108">
        <ele>8.6000003814697</ele>
        <time>2020-08-23T08:33:00.000Z</time>
      </trkpt>
      <trkpt lat="47.2673" lon="-2.22083">
        <ele>8.6000003814697</ele>
        <time>2020-08-23T08:33:05.000Z</time>
      </trkpt>
      <trkpt lat="47.26739" lon="-2.22071">
        <ele>8.6000003814697</ele>
        <time>2020-08-23T08:33:09.000Z</time>
      </trkpt>
      <trkpt lat="47.26751" lon="-2.22076">
        <ele>8.6000003814697</ele>
        <time>2020-08-23T08:33:13.000Z</time>
      </trkpt>
      <trkpt lat="47.26754" lon="-2.22074">
        <ele>8.6000003814697</ele>
        <time>2020-08-23T08:33:14.000Z</time>
      </trkpt>
      <trkpt lat="47.26757" lon="-2.22064">
        <ele>8.6000003814697</ele>
        <time>2020-08-23T08:33:16.000Z</time>
      </trkpt>
      <trkpt lat="47.2676" lon="-2.22053">
        <ele>8.6000003814697</ele>
        <time>2020-08-23T08:33:18.000Z</time>
      </trkpt>
      <trkpt lat="47.2676" lon="-2.22046">
        <ele>8.6000003814697</ele>
        <time>2020-08-23T08:33:19.000Z</time>
      </trkpt>
      <trkpt lat="47.26759" lon="-2.22032">
        <ele>8.6000003814697</ele>
        <time>2020-08-23T08:33:21.000Z</time>
      </trkpt>
      <trkpt lat="47.2676" lon="-2.22017">
        <ele>8.6000003814697</ele>
        <time>2020-08-23T08:33:23.000Z</time>
      </trkpt>
      <trkpt lat="47.26765" lon="-2.21992">
        <ele>8.6000003814697</ele>
        <time>2020-08-23T08:33:26.000Z</time>
      </trkpt>
      <trkpt lat="47.2677" lon="-2.21975">
        <ele>8.6000003814697</ele>
        <time>2020-08-23T08:33:28.000Z</time>
      </trkpt>
      <trkpt lat="47.26783" lon="-2.21925">
        <ele>8.6000003814697</ele>
        <time>2020-08-23T08:33:34.000Z</time>
      </trkpt>
      <trkpt lat="47.26798" lon="-2.2187">
        <ele>8.6000003814697</ele>
        <time>2020-08-23T08:33:41.000Z</time>
      </trkpt>
      <trkpt lat="47.26811" lon="-2.21821">
        <ele>8.6000003814697</ele>
        <time>2020-08-23T08:33:48.000Z</time>
      </trkpt>
      <trkpt lat="47.26827" lon="-2.2176">
        <ele>8.6000003814697</ele>
        <time>2020-08-23T08:33:56.000Z</time>
      </trkpt>
      <trkpt lat="47.26837" lon="-2.2172">
        <ele>8.6000003814697</ele>
        <time>2020-08-23T08:34:02.000Z</time>
      </trkpt>
      <trkpt lat="47.26847" lon="-2.21673">
        <ele>8.6000003814697</ele>
        <time>2020-08-23T08:34:09.000Z</time>
      </trkpt>
      <trkpt lat="47.26852" lon="-2.21648">
        <ele>8.6000003814697</ele>
        <time>2020-08-23T08:34:12.000Z</time>
      </trkpt>
      <trkpt lat="47.26857" lon="-2.21631">
        <ele>8.6000003814697</ele>
        <time>2020-08-23T08:34:14.000Z</time>
      </trkpt>
      <trkpt lat="47.26858" lon="-2.21611">
        <ele>8.6000003814697</ele>
        <time>2020-08-23T08:34:16.000Z</time>
      </trkpt>
      <trkpt lat="47.26862" lon="-2.21592">
        <ele>8.6000003814697</ele>
        <time>2020-08-23T08:34:18.000Z</time>
      </trkpt>
      <trkpt lat="47.26877" lon="-2.21511">
        <ele>8.6000003814697</ele>
        <time>2020-08-23T08:34:26.000Z</time>
      </trkpt>
      <trkpt lat="47.26887" lon="-2.21443">
        <ele>8.6000003814697</ele>
        <time>2020-08-23T08:34:33.000Z</time>
      </trkpt>
      <trkpt lat="47.26896" lon="-2.2139">
        <ele>8.6000003814697</ele>
        <time>2020-08-23T08:34:39.000Z</time>
      </trkpt>
      <trkpt lat="47.26906" lon="-2.21333">
        <ele>8.6000003814697</ele>
        <time>2020-08-23T08:34:45.000Z</time>
      </trkpt>
      <trkpt lat="47.2692" lon="-2.2129">
        <ele>8.6000003814697</ele>
        <time>2020-08-23T08:34:50.000Z</time>
      </trkpt>
      <trkpt lat="47.26925" lon="-2.21283">
        <ele>8.6000003814697</ele>
        <time>2020-08-23T08:34:51.000Z</time>
      </trkpt>
      <trkpt lat="47.26957" lon="-2.21235">
        <ele>8.6000003814697</ele>
        <time>2020-08-23T08:34:58.000Z</time>
      </trkpt>
      <trkpt lat="47.26993" lon="-2.21182">
        <ele>8.6000003814697</ele>
        <time>2020-08-23T08:35:06.000Z</time>
      </trkpt>
      <trkpt lat="47.27023" lon="-2.21134">
        <ele>8.6000003814697</ele>
        <time>2020-08-23T08:35:14.000Z</time>
      </trkpt>
      <trkpt lat="47.27026" lon="-2.21127">
        <ele>8.6000003814697</ele>
        <time>2020-08-23T08:35:15.000Z</time>
      </trkpt>
      <trkpt lat="47.27039" lon="-2.21088">
        <ele>8.6000003814697</ele>
        <time>2020-08-23T08:35:20.000Z</time>
      </trkpt>
      <trkpt lat="47.27053" lon="-2.21052">
        <ele>8.6000003814697</ele>
        <time>2020-08-23T08:35:25.000Z</time>
      </trkpt>
      <trkpt lat="47.27057" lon="-2.21047">
        <ele>8.6000003814697</ele>
        <time>2020-08-23T08:35:26.000Z</time>
      </trkpt>
      <trkpt lat="47.27064" lon="-2.21034">
        <ele>8.6000003814697</ele>
        <time>2020-08-23T08:35:28.000Z</time>
      </trkpt>
      <trkpt lat="47.27065" lon="-2.21017">
        <ele>8.6000003814697</ele>
        <time>2020-08-23T08:35:30.000Z</time>
      </trkpt>
      <trkpt lat="47.27066" lon="-2.21001">
        <ele>8.6000003814697</ele>
        <time>2020-08-23T08:35:32.000Z</time>
      </trkpt>
      <trkpt lat="47.27073" lon="-2.20979">
        <ele>8.6000003814697</ele>
        <time>2020-08-23T08:35:35.000Z</time>
      </trkpt>
      <trkpt lat="47.27088" lon="-2.20932">
        <ele>8.6000003814697</ele>
        <time>2020-08-23T08:35:41.000Z</time>
      </trkpt>
      <trkpt lat="47.27105" lon="-2.20876">
        <ele>8.6000003814697</ele>
        <time>2020-08-23T08:35:48.000Z</time>
      </trkpt>
      <trkpt lat="47.27107" lon="-2.20868">
        <ele>8.6000003814697</ele>
        <time>2020-08-23T08:35:49.000Z</time>
      </trkpt>
      <trkpt lat="47.27112" lon="-2.20838">
        <ele>8.6000003814697</ele>
        <time>2020-08-23T08:35:53.000Z</time>
      </trkpt>
      <trkpt lat="47.2712" lon="-2.20795">
        <ele>8.6000003814697</ele>
        <time>2020-08-23T08:35:59.000Z</time>
      </trkpt>
      <trkpt lat="47.27121" lon="-2.20776">
        <ele>8.6000003814697</ele>
        <time>2020-08-23T08:36:01.000Z</time>
      </trkpt>
      <trkpt lat="47.27124" lon="-2.20753">
        <ele>8.6000003814697</ele>
        <time>2020-08-23T08:36:04.000Z</time>
      </trkpt>
      <trkpt lat="47.27128" lon="-2.20725">
        <ele>8.6000003814697</ele>
        <time>2020-08-23T08:36:09.000Z</time>
      </trkpt>
      <trkpt lat="47.27128" lon="-2.20716">
        <ele>8.6000003814697</ele>
        <time>2020-08-23T08:36:13.000Z</time>
      </trkpt>
      <trkpt lat="47.27131" lon="-2.20698">
        <ele>8.6000003814697</ele>
        <time>2020-08-23T08:36:18.000Z</time>
      </trkpt>
      <trkpt lat="47.27134" lon="-2.20662">
        <ele>8.6000003814697</ele>
        <time>2020-08-23T08:36:25.000Z</time>
      </trkpt>
      <trkpt lat="47.27135" lon="-2.20656">
        <ele>8.6000003814697</ele>
        <time>2020-08-23T08:36:26.000Z</time>
      </trkpt>
      <trkpt lat="47.2714" lon="-2.20619">
        <ele>8.6000003814697</ele>
        <time>2020-08-23T08:36:32.000Z</time>
      </trkpt>
      <trkpt lat="47.27146" lon="-2.20572">
        <ele>8.6000003814697</ele>
        <time>2020-08-23T08:36:39.000Z</time>
      </trkpt>
      <trkpt lat="47.27152" lon="-2.20536">
        <ele>8.6000003814697</ele>
        <time>2020-08-23T08:36:45.000Z</time>
      </trkpt>
      <trkpt lat="47.27148" lon="-2.20524">
        <ele>8.6000003814697</ele>
        <time>2020-08-23T08:36:49.000Z</time>
      </trkpt>
      <trkpt lat="47.27147" lon="-2.20521">
        <ele>8.6000003814697</ele>
        <time>2020-08-23T08:36:52.000Z</time>
      </trkpt>
      <trkpt lat="47.27144" lon="-2.20517">
        <ele>8.6000003814697</ele>
        <time>2020-08-23T08:37:07.000Z</time>
      </trkpt>
      <trkpt lat="47.27141" lon="-2.20505">
        <ele>8.6000003814697</ele>
        <time>2020-08-23T08:37:13.000Z</time>
      </trkpt>
      <trkpt lat="47.27135" lon="-2.2049">
        <ele>8.6000003814697</ele>
        <time>2020-08-23T08:37:19.000Z</time>
      </trkpt>
      <trkpt lat="47.27132" lon="-2.2048">
        <ele>8.6000003814697</ele>
        <time>2020-08-23T08:37:25.000Z</time>
      </trkpt>
      <trkpt lat="47.27134" lon="-2.20478">
        <ele>6.5999999046326</ele>
        <time>2020-08-23T08:37:46.000Z</time>
      </trkpt>
      <trkpt lat="47.27137" lon="-2.20474">
        <ele>6.5999999046326</ele>
        <time>2020-08-23T08:37:49.000Z</time>
      </trkpt>
      <trkpt lat="47.27141" lon="-2.2046">
        <ele>6.5999999046326</ele>
        <time>2020-08-23T08:37:53.000Z</time>
      </trkpt>
      <trkpt lat="47.27135" lon="-2.2044">
        <ele>6.5999999046326</ele>
        <time>2020-08-23T08:37:57.000Z</time>
      </trkpt>
      <trkpt lat="47.27132" lon="-2.20422">
        <ele>6.5999999046326</ele>
        <time>2020-08-23T08:38:00.000Z</time>
      </trkpt>
      <trkpt lat="47.27129" lon="-2.20398">
        <ele>6.5999999046326</ele>
        <time>2020-08-23T08:38:04.000Z</time>
      </trkpt>
      <trkpt lat="47.27128" lon="-2.20392">
        <ele>6.5999999046326</ele>
        <time>2020-08-23T08:38:05.000Z</time>
      </trkpt>
      <trkpt lat="47.27119" lon="-2.20353">
        <ele>6.5999999046326</ele>
        <time>2020-08-23T08:38:12.000Z</time>
      </trkpt>
      <trkpt lat="47.27109" lon="-2.203">
        <ele>6.5999999046326</ele>
        <time>2020-08-23T08:38:21.000Z</time>
      </trkpt>
      <trkpt lat="47.27104" lon="-2.20275">
        <ele>6.5999999046326</ele>
        <time>2020-08-23T08:38:27.000Z</time>
      </trkpt>
      <trkpt lat="47.27103" lon="-2.20266">
        <ele>6.5999999046326</ele>
        <time>2020-08-23T08:38:32.000Z</time>
      </trkpt>
      <trkpt lat="47.27103" lon="-2.20264">
        <ele>6.5999999046326</ele>
        <time>2020-08-23T08:38:35.000Z</time>
      </trkpt>
      <trkpt lat="47.271" lon="-2.20256">
        <ele>6.5999999046326</ele>
        <time>2020-08-23T08:39:20.000Z</time>
      </trkpt>
      <trkpt lat="47.271" lon="-2.20254">
        <ele>6.5999999046326</ele>
        <time>2020-08-23T08:39:21.000Z</time>
      </trkpt>
      <trkpt lat="47.27099" lon="-2.20231">
        <ele>6.5999999046326</ele>
        <time>2020-08-23T08:39:26.000Z</time>
      </trkpt>
      <trkpt lat="47.27094" lon="-2.20187">
        <ele>6.5999999046326</ele>
        <time>2020-08-23T08:39:32.000Z</time>
      </trkpt>
      <trkpt lat="47.27091" lon="-2.20168">
        <ele>6.5999999046326</ele>
        <time>2020-08-23T08:39:35.000Z</time>
      </trkpt>
      <trkpt lat="47.27088" lon="-2.20162">
        <ele>6.5999999046326</ele>
        <time>2020-08-23T08:39:37.000Z</time>
      </trkpt>
      <trkpt lat="47.27088" lon="-2.20147">
        <ele>6.5999999046326</ele>
        <time>2020-08-23T08:39:41.000Z</time>
      </trkpt>
      <trkpt lat="47.27087" lon="-2.20121">
        <ele>6.5999999046326</ele>
        <time>2020-08-23T08:39:48.000Z</time>
      </trkpt>
      <trkpt lat="47.27086" lon="-2.20099">
        <ele>6.5999999046326</ele>
        <time>2020-08-23T08:39:57.000Z</time>
      </trkpt>
      <trkpt lat="47.27085" lon="-2.20095">
        <ele>6.5999999046326</ele>
        <time>2020-08-23T08:41:00.000Z</time>
      </trkpt>
      <trkpt lat="47.27085" lon="-2.20087">
        <ele>6.5999999046326</ele>
        <time>2020-08-23T08:41:03.000Z</time>
      </trkpt>
      <trkpt lat="47.27085" lon="-2.20068">
        <ele>6.5999999046326</ele>
        <time>2020-08-23T08:41:07.000Z</time>
      </trkpt>
      <trkpt lat="47.27084" lon="-2.20034">
        <ele>6.5999999046326</ele>
        <time>2020-08-23T08:41:13.000Z</time>
      </trkpt>
      <trkpt lat="47.27084" lon="-2.19991">
        <ele>6.5999999046326</ele>
        <time>2020-08-23T08:41:20.000Z</time>
      </trkpt>
      <trkpt lat="47.27085" lon="-2.19964">
        <ele>6.5999999046326</ele>
        <time>2020-08-23T08:41:25.000Z</time>
      </trkpt>
      <trkpt lat="47.27096" lon="-2.19956">
        <ele>6.5999999046326</ele>
        <time>2020-08-23T08:41:28.000Z</time>
      </trkpt>
      <trkpt lat="47.27121" lon="-2.1994">
        <ele>6.5999999046326</ele>
        <time>2020-08-23T08:41:33.000Z</time>
      </trkpt>
      <trkpt lat="47.27159" lon="-2.19915">
        <ele>6.5999999046326</ele>
        <time>2020-08-23T08:41:41.000Z</time>
      </trkpt>
      <trkpt lat="47.27177" lon="-2.19899">
        <ele>6.5999999046326</ele>
        <time>2020-08-23T08:41:46.000Z</time>
      </trkpt>
      <trkpt lat="47.27181" lon="-2.19896">
        <ele>6.5999999046326</ele>
        <time>2020-08-23T08:41:47.000Z</time>
      </trkpt>
      <trkpt lat="47.27185" lon="-2.19894">
        <ele>6.5999999046326</ele>
        <time>2020-08-23T08:41:48.000Z</time>
      </trkpt>
      <trkpt lat="47.27199" lon="-2.19893">
        <ele>6.5999999046326</ele>
        <time>2020-08-23T08:41:51.000Z</time>
      </trkpt>
      <trkpt lat="47.27213" lon="-2.19899">
        <ele>6.5999999046326</ele>
        <time>2020-08-23T08:41:54.000Z</time>
      </trkpt>
      <trkpt lat="47.27221" lon="-2.19902">
        <ele>6.5999999046326</ele>
        <time>2020-08-23T08:41:56.000Z</time>
      </trkpt>
      <trkpt lat="47.27225" lon="-2.19903">
        <ele>6.5999999046326</ele>
        <time>2020-08-23T08:41:57.000Z</time>
      </trkpt>
      <trkpt lat="47.27233" lon="-2.19894">
        <ele>6.5999999046326</ele>
        <time>2020-08-23T08:41:59.000Z</time>
      </trkpt>
      <trkpt lat="47.27238" lon="-2.19874">
        <ele>6.5999999046326</ele>
        <time>2020-08-23T08:42:02.000Z</time>
      </trkpt>
      <trkpt lat="47.27254" lon="-2.19856">
        <ele>6.5999999046326</ele>
        <time>2020-08-23T08:42:06.000Z</time>
      </trkpt>
      <trkpt lat="47.27275" lon="-2.19851">
        <ele>6.5999999046326</ele>
        <time>2020-08-23T08:42:10.000Z</time>
      </trkpt>
      <trkpt lat="47.27279" lon="-2.1985">
        <ele>6.5999999046326</ele>
        <time>2020-08-23T08:42:11.000Z</time>
      </trkpt>
      <trkpt lat="47.27289" lon="-2.19847">
        <ele>6.5999999046326</ele>
        <time>2020-08-23T08:42:13.000Z</time>
      </trkpt>
      <trkpt lat="47.27303" lon="-2.19845">
        <ele>6.5999999046326</ele>
        <time>2020-08-23T08:42:16.000Z</time>
      </trkpt>
      <trkpt lat="47.27348" lon="-2.19836">
        <ele>6.5999999046326</ele>
        <time>2020-08-23T08:42:25.000Z</time>
      </trkpt>
      <trkpt lat="47.27384" lon="-2.19825">
        <ele>6.5999999046326</ele>
        <time>2020-08-23T08:42:32.000Z</time>
      </trkpt>
      <trkpt lat="47.27424" lon="-2.1982">
        <ele>6.5999999046326</ele>
        <time>2020-08-23T08:42:39.000Z</time>
      </trkpt>
      <trkpt lat="47.27457" lon="-2.19822">
        <ele>6.5999999046326</ele>
        <time>2020-08-23T08:42:46.000Z</time>
      </trkpt>
      <trkpt lat="47.27473" lon="-2.19823">
        <ele>6.5999999046326</ele>
        <time>2020-08-23T08:42:52.000Z</time>
      </trkpt>
      <trkpt lat="47.27477" lon="-2.19824">
        <ele>6.5999999046326</ele>
        <time>2020-08-23T08:42:55.000Z</time>
      </trkpt>
      <trkpt lat="47.27478" lon="-2.19827">
        <ele>6.5999999046326</ele>
        <time>2020-08-23T08:42:58.000Z</time>
      </trkpt>
      <trkpt lat="47.27482" lon="-2.19835">
        <ele>6.5999999046326</ele>
        <time>2020-08-23T08:43:03.000Z</time>
      </trkpt>
      <trkpt lat="47.27484" lon="-2.19837">
        <ele>6.5999999046326</ele>
        <time>2020-08-23T08:43:04.000Z</time>
      </trkpt>
      <trkpt lat="47.27486" lon="-2.19851">
        <ele>6.5999999046326</ele>
        <time>2020-08-23T08:43:09.000Z</time>
      </trkpt>
      <trkpt lat="47.27483" lon="-2.19866">
        <ele>6.5999999046326</ele>
        <time>2020-08-23T08:43:13.000Z</time>
      </trkpt>
      <trkpt lat="47.27485" lon="-2.199">
        <ele>6.5999999046326</ele>
        <time>2020-08-23T08:43:20.000Z</time>
      </trkpt>
      <trkpt lat="47.27488" lon="-2.1992">
        <ele>6.5999999046326</ele>
        <time>2020-08-23T08:43:25.000Z</time>
      </trkpt>
      <trkpt lat="47.27488" lon="-2.1993">
        <ele>6.5999999046326</ele>
        <time>2020-08-23T08:43:30.000Z</time>
      </trkpt>
      <trkpt lat="47.27488" lon="-2.19932">
        <ele>6.5999999046326</ele>
        <time>2020-08-23T08:43:31.000Z</time>
      </trkpt>
      <trkpt lat="47.27485" lon="-2.19936">
        <ele>6.5999999046326</ele>
        <time>2020-08-23T08:43:35.000Z</time>
      </trkpt>
      <trkpt lat="47.27483" lon="-2.1994">
        <ele>6.5999999046326</ele>
        <time>2020-08-23T08:43:37.000Z</time>
      </trkpt>
      <trkpt lat="47.27484" lon="-2.19946">
        <ele>6.5999999046326</ele>
        <time>2020-08-23T08:43:40.000Z</time>
      </trkpt>
      <trkpt lat="47.27489" lon="-2.19949">
        <ele>6.5999999046326</ele>
        <time>2020-08-23T08:43:43.000Z</time>
      </trkpt>
      <trkpt lat="47.27491" lon="-2.19948">
        <ele>6.5999999046326</ele>
        <time>2020-08-23T08:43:45.000Z</time>
      </trkpt>
      <trkpt lat="47.27496" lon="-2.19947">
        <ele>6.5999999046326</ele>
        <time>2020-08-23T08:43:50.000Z</time>
      </trkpt>
      <trkpt lat="47.275" lon="-2.19948">
        <ele>6.5999999046326</ele>
        <time>2020-08-23T08:44:04.000Z</time>
      </trkpt>
      <trkpt lat="47.27506" lon="-2.19949">
        <ele>6.5999999046326</ele>
        <time>2020-08-23T08:44:07.000Z</time>
      </trkpt>
      <trkpt lat="47.27512" lon="-2.19946">
        <ele>6.5999999046326</ele>
        <time>2020-08-23T08:44:09.000Z</time>
      </trkpt>
      <trkpt lat="47.27523" lon="-2.19944">
        <ele>6.5999999046326</ele>
        <time>2020-08-23T08:44:12.000Z</time>
      </trkpt>
      <trkpt lat="47.27544" lon="-2.19935">
        <ele>6.5999999046326</ele>
        <time>2020-08-23T08:44:19.000Z</time>
      </trkpt>
      <trkpt lat="47.2756" lon="-2.19925">
        <ele>6.5999999046326</ele>
        <time>2020-08-23T08:44:25.000Z</time>
      </trkpt>
      <trkpt lat="47.27575" lon="-2.19924">
        <ele>6.5999999046326</ele>
        <time>2020-08-23T08:44:28.000Z</time>
      </trkpt>
      <trkpt lat="47.27583" lon="-2.19921">
        <ele>6.5999999046326</ele>
        <time>2020-08-23T08:44:30.000Z</time>
      </trkpt>
      <trkpt lat="47.27601" lon="-2.19917">
        <ele>6.5999999046326</ele>
        <time>2020-08-23T08:44:34.000Z</time>
      </trkpt>
      <trkpt lat="47.27618" lon="-2.19912">
        <ele>6.5999999046326</ele>
        <time>2020-08-23T08:44:38.000Z</time>
      </trkpt>
      <trkpt lat="47.27653" lon="-2.19899">
        <ele>6.5999999046326</ele>
        <time>2020-08-23T08:44:45.000Z</time>
      </trkpt>
      <trkpt lat="47.27693" lon="-2.19883">
        <ele>6.5999999046326</ele>
        <time>2020-08-23T08:44:54.000Z</time>
      </trkpt>
      <trkpt lat="47.27719" lon="-2.19877">
        <ele>6.5999999046326</ele>
        <time>2020-08-23T08:45:00.000Z</time>
      </trkpt>
      <trkpt lat="47.27747" lon="-2.19872">
        <ele>6.5999999046326</ele>
        <time>2020-08-23T08:45:07.000Z</time>
      </trkpt>
      <trkpt lat="47.27777" lon="-2.19864">
        <ele>6.5999999046326</ele>
        <time>2020-08-23T08:45:13.000Z</time>
      </trkpt>
      <trkpt lat="47.27821" lon="-2.19852">
        <ele>6.5999999046326</ele>
        <time>2020-08-23T08:45:22.000Z</time>
      </trkpt>
      <trkpt lat="47.27844" lon="-2.19853">
        <ele>6.5999999046326</ele>
        <time>2020-08-23T08:45:27.000Z</time>
      </trkpt>
      <trkpt lat="47.27853" lon="-2.19854">
        <ele>6.5999999046326</ele>
        <time>2020-08-23T08:45:29.000Z</time>
      </trkpt>
      <trkpt lat="47.27866" lon="-2.19855">
        <ele>6.5999999046326</ele>
        <time>2020-08-23T08:45:32.000Z</time>
      </trkpt>
      <trkpt lat="47.27873" lon="-2.19851">
        <ele>6.5999999046326</ele>
        <time>2020-08-23T08:45:34.000Z</time>
      </trkpt>
      <trkpt lat="47.27875" lon="-2.19847">
        <ele>6.5999999046326</ele>
        <time>2020-08-23T08:45:35.000Z</time>
      </trkpt>
      <trkpt lat="47.2788" lon="-2.19832">
        <ele>6.5999999046326</ele>
        <time>2020-08-23T08:45:38.000Z</time>
      </trkpt>
      <trkpt lat="47.27884" lon="-2.19816">
        <ele>6.5999999046326</ele>
        <time>2020-08-23T08:45:41.000Z</time>
      </trkpt>
      <trkpt lat="47.27896" lon="-2.19761">
        <ele>6.5999999046326</ele>
        <time>2020-08-23T08:45:51.000Z</time>
      </trkpt>
      <trkpt lat="47.27901" lon="-2.19725">
        <ele>6.5999999046326</ele>
        <time>2020-08-23T08:45:58.000Z</time>
      </trkpt>
      <trkpt lat="47.27901" lon="-2.19699">
        <ele>6.5999999046326</ele>
        <time>2020-08-23T08:46:04.000Z</time>
      </trkpt>
      <trkpt lat="47.27888" lon="-2.19688">
        <ele>6.5999999046326</ele>
        <time>2020-08-23T08:46:09.000Z</time>
      </trkpt>
      <trkpt lat="47.27859" lon="-2.19677">
        <ele>6.5999999046326</ele>
        <time>2020-08-23T08:46:17.000Z</time>
      </trkpt>
      <trkpt lat="47.27853" lon="-2.19671">
        <ele>6.5999999046326</ele>
        <time>2020-08-23T08:46:19.000Z</time>
      </trkpt>
      <trkpt lat="47.27847" lon="-2.19662">
        <ele>6.5999999046326</ele>
        <time>2020-08-23T08:46:21.000Z</time>
      </trkpt>
      <trkpt lat="47.27844" lon="-2.19644">
        <ele>6.5999999046326</ele>
        <time>2020-08-23T08:46:24.000Z</time>
      </trkpt>
      <trkpt lat="47.27851" lon="-2.1962">
        <ele>6.5999999046326</ele>
        <time>2020-08-23T08:46:28.000Z</time>
      </trkpt>
      <trkpt lat="47.27868" lon="-2.19608">
        <ele>6.5999999046326</ele>
        <time>2020-08-23T08:46:32.000Z</time>
      </trkpt>
      <trkpt lat="47.2791" lon="-2.19586">
        <ele>6.5999999046326</ele>
        <time>2020-08-23T08:46:42.000Z</time>
      </trkpt>
      <trkpt lat="47.27934" lon="-2.19574">
        <ele>6.1999998092651</ele>
        <time>2020-08-23T08:46:48.000Z</time>
      </trkpt>
      <trkpt lat="47.27939" lon="-2.19572">
        <ele>5.5999999046326</ele>
        <time>2020-08-23T08:46:49.000Z</time>
      </trkpt>
      <trkpt lat="47.27943" lon="-2.1957">
        <ele>4.8000001907349</ele>
        <time>2020-08-23T08:46:50.000Z</time>
      </trkpt>
      <trkpt lat="47.27947" lon="-2.19568">
        <ele>4.4000000953674</ele>
        <time>2020-08-23T08:46:51.000Z</time>
      </trkpt>
      <trkpt lat="47.27971" lon="-2.19556">
        <ele>4.4000000953674</ele>
        <time>2020-08-23T08:46:57.000Z</time>
      </trkpt>
      <trkpt lat="47.27997" lon="-2.19542">
        <ele>4.4000000953674</ele>
        <time>2020-08-23T08:47:04.000Z</time>
      </trkpt>
      <trkpt lat="47.28017" lon="-2.19531">
        <ele>4.4000000953674</ele>
        <time>2020-08-23T08:47:09.000Z</time>
      </trkpt>
      <trkpt lat="47.28021" lon="-2.19528">
        <ele>4.4000000953674</ele>
        <time>2020-08-23T08:47:10.000Z</time>
      </trkpt>
      <trkpt lat="47.28034" lon="-2.19502">
        <ele>4.4000000953674</ele>
        <time>2020-08-23T08:47:15.000Z</time>
      </trkpt>
      <trkpt lat="47.28036" lon="-2.19477">
        <ele>4.4000000953674</ele>
        <time>2020-08-23T08:47:19.000Z</time>
      </trkpt>
      <trkpt lat="47.28032" lon="-2.19458">
        <ele>4.4000000953674</ele>
        <time>2020-08-23T08:47:22.000Z</time>
      </trkpt>
      <trkpt lat="47.28029" lon="-2.19444">
        <ele>4.4000000953674</ele>
        <time>2020-08-23T08:47:24.000Z</time>
      </trkpt>
      <trkpt lat="47.28015" lon="-2.19391">
        <ele>4.4000000953674</ele>
        <time>2020-08-23T08:47:32.000Z</time>
      </trkpt>
      <trkpt lat="47.28008" lon="-2.19358">
        <ele>4.4000000953674</ele>
        <time>2020-08-23T08:47:38.000Z</time>
      </trkpt>
      <trkpt lat="47.28007" lon="-2.19353">
        <ele>4.4000000953674</ele>
        <time>2020-08-23T08:47:39.000Z</time>
      </trkpt>
      <trkpt lat="47.28005" lon="-2.19331">
        <ele>4.4000000953674</ele>
        <time>2020-08-23T08:47:43.000Z</time>
      </trkpt>
      <trkpt lat="47.28006" lon="-2.19325">
        <ele>4.4000000953674</ele>
        <time>2020-08-23T08:47:44.000Z</time>
      </trkpt>
      <trkpt lat="47.28012" lon="-2.19281">
        <ele>4.4000000953674</ele>
        <time>2020-08-23T08:47:51.000Z</time>
      </trkpt>
      <trkpt lat="47.28012" lon="-2.19274">
        <ele>4.4000000953674</ele>
        <time>2020-08-23T08:47:52.000Z</time>
      </trkpt>
      <trkpt lat="47.28008" lon="-2.19251">
        <ele>4.4000000953674</ele>
        <time>2020-08-23T08:47:56.000Z</time>
      </trkpt>
      <trkpt lat="47.27998" lon="-2.19238">
        <ele>4.4000000953674</ele>
        <time>2020-08-23T08:47:59.000Z</time>
      </trkpt>
      <trkpt lat="47.27991" lon="-2.1923">
        <ele>4.4000000953674</ele>
        <time>2020-08-23T08:48:01.000Z</time>
      </trkpt>
      <trkpt lat="47.2797" lon="-2.19209">
        <ele>4.4000000953674</ele>
        <time>2020-08-23T08:48:07.000Z</time>
      </trkpt>
      <trkpt lat="47.27967" lon="-2.19205">
        <ele>4.4000000953674</ele>
        <time>2020-08-23T08:48:08.000Z</time>
      </trkpt>
      <trkpt lat="47.27963" lon="-2.19187">
        <ele>4.4000000953674</ele>
        <time>2020-08-23T08:48:11.000Z</time>
      </trkpt>
      <trkpt lat="47.27969" lon="-2.19168">
        <ele>4.4000000953674</ele>
        <time>2020-08-23T08:48:14.000Z</time>
      </trkpt>
      <trkpt lat="47.27972" lon="-2.19163">
        <ele>4.4000000953674</ele>
        <time>2020-08-23T08:48:15.000Z</time>
      </trkpt>
      <trkpt lat="47.27993" lon="-2.19126">
        <ele>4.4000000953674</ele>
        <time>2020-08-23T08:48:22.000Z</time>
      </trkpt>
      <trkpt lat="47.28012" lon="-2.19095">
        <ele>4.4000000953674</ele>
        <time>2020-08-23T08:48:29.000Z</time>
      </trkpt>
      <trkpt lat="47.28033" lon="-2.19057">
        <ele>4.4000000953674</ele>
        <time>2020-08-23T08:48:38.000Z</time>
      </trkpt>
      <trkpt lat="47.28047" lon="-2.19033">
        <ele>4.4000000953674</ele>
        <time>2020-08-23T08:48:46.000Z</time>
      </trkpt>
      <trkpt lat="47.28059" lon="-2.19012">
        <ele>4.4000000953674</ele>
        <time>2020-08-23T08:48:52.000Z</time>
      </trkpt>
      <trkpt lat="47.28072" lon="-2.18989">
        <ele>4.4000000953674</ele>
        <time>2020-08-23T08:48:59.000Z</time>
      </trkpt>
      <trkpt lat="47.28077" lon="-2.18972">
        <ele>4.4000000953674</ele>
        <time>2020-08-23T08:49:06.000Z</time>
      </trkpt>
      <trkpt lat="47.28084" lon="-2.18957">
        <ele>4.4000000953674</ele>
        <time>2020-08-23T08:49:14.000Z</time>
      </trkpt>
      <trkpt lat="47.28088" lon="-2.18955">
        <ele>4.4000000953674</ele>
        <time>2020-08-23T08:49:17.000Z</time>
      </trkpt>
      <trkpt lat="47.28085" lon="-2.18959">
        <ele>4.4000000953674</ele>
        <time>2020-08-23T08:58:22.000Z</time>
      </trkpt>
      <trkpt lat="47.28083" lon="-2.18961">
        <ele>4.4000000953674</ele>
        <time>2020-08-23T08:58:23.000Z</time>
      </trkpt>
      <trkpt lat="47.28078" lon="-2.18978">
        <ele>4.4000000953674</ele>
        <time>2020-08-23T08:58:27.000Z</time>
      </trkpt>
      <trkpt lat="47.28073" lon="-2.1899">
        <ele>4.4000000953674</ele>
        <time>2020-08-23T08:58:29.000Z</time>
      </trkpt>
      <trkpt lat="47.28069" lon="-2.19002">
        <ele>4.4000000953674</ele>
        <time>2020-08-23T08:58:31.000Z</time>
      </trkpt>
      <trkpt lat="47.28066" lon="-2.19008">
        <ele>4.4000000953674</ele>
        <time>2020-08-23T08:58:32.000Z</time>
      </trkpt>
      <trkpt lat="47.2804" lon="-2.19055">
        <ele>4.4000000953674</ele>
        <time>2020-08-23T08:58:41.000Z</time>
      </trkpt>
      <trkpt lat="47.2802" lon="-2.19093">
        <ele>4.4000000953674</ele>
        <time>2020-08-23T08:58:48.000Z</time>
      </trkpt>
      <trkpt lat="47.28013" lon="-2.19103">
        <ele>4.4000000953674</ele>
        <time>2020-08-23T08:58:50.000Z</time>
      </trkpt>
      <trkpt lat="47.28001" lon="-2.19124">
        <ele>4.4000000953674</ele>
        <time>2020-08-23T08:58:54.000Z</time>
      </trkpt>
      <trkpt lat="47.27992" lon="-2.19141">
        <ele>4.4000000953674</ele>
        <time>2020-08-23T08:58:57.000Z</time>
      </trkpt>
      <trkpt lat="47.27969" lon="-2.19185">
        <ele>4.4000000953674</ele>
        <time>2020-08-23T08:59:05.000Z</time>
      </trkpt>
      <trkpt lat="47.27974" lon="-2.19205">
        <ele>5</ele>
        <time>2020-08-23T08:59:08.000Z</time>
      </trkpt>
      <trkpt lat="47.27978" lon="-2.19209">
        <ele>5.4000000953674</ele>
        <time>2020-08-23T08:59:09.000Z</time>
      </trkpt>
      <trkpt lat="47.27982" lon="-2.19213">
        <ele>6</ele>
        <time>2020-08-23T08:59:10.000Z</time>
      </trkpt>
      <trkpt lat="47.27987" lon="-2.19217">
        <ele>6.4000000953674</ele>
        <time>2020-08-23T08:59:11.000Z</time>
      </trkpt>
      <trkpt lat="47.27991" lon="-2.19221">
        <ele>7</ele>
        <time>2020-08-23T08:59:12.000Z</time>
      </trkpt>
      <trkpt lat="47.28012" lon="-2.19246">
        <ele>7</ele>
        <time>2020-08-23T08:59:17.000Z</time>
      </trkpt>
      <trkpt lat="47.28014" lon="-2.19253">
        <ele>7</ele>
        <time>2020-08-23T08:59:18.000Z</time>
      </trkpt>
      <trkpt lat="47.2802" lon="-2.19286">
        <ele>7</ele>
        <time>2020-08-23T08:59:22.000Z</time>
      </trkpt>
      <trkpt lat="47.28017" lon="-2.1932">
        <ele>7</ele>
        <time>2020-08-23T08:59:26.000Z</time>
      </trkpt>
      <trkpt lat="47.28015" lon="-2.19352">
        <ele>7</ele>
        <time>2020-08-23T08:59:30.000Z</time>
      </trkpt>
      <trkpt lat="47.28017" lon="-2.19368">
        <ele>7</ele>
        <time>2020-08-23T08:59:32.000Z</time>
      </trkpt>
      <trkpt lat="47.28032" lon="-2.19436">
        <ele>7</ele>
        <time>2020-08-23T08:59:41.000Z</time>
      </trkpt>
      <trkpt lat="47.28043" lon="-2.19487">
        <ele>7</ele>
        <time>2020-08-23T08:59:48.000Z</time>
      </trkpt>
      <trkpt lat="47.28044" lon="-2.19495">
        <ele>7</ele>
        <time>2020-08-23T08:59:49.000Z</time>
      </trkpt>
      <trkpt lat="47.2804" lon="-2.1952">
        <ele>7</ele>
        <time>2020-08-23T08:59:52.000Z</time>
      </trkpt>
      <trkpt lat="47.28028" lon="-2.19538">
        <ele>7</ele>
        <time>2020-08-23T08:59:55.000Z</time>
      </trkpt>
      <trkpt lat="47.28006" lon="-2.19551">
        <ele>7</ele>
        <time>2020-08-23T08:59:59.000Z</time>
      </trkpt>
      <trkpt lat="47.27952" lon="-2.19579">
        <ele>7</ele>
        <time>2020-08-23T09:00:08.000Z</time>
      </trkpt>
      <trkpt lat="47.27909" lon="-2.19599">
        <ele>7</ele>
        <time>2020-08-23T09:00:15.000Z</time>
      </trkpt>
      <trkpt lat="47.27868" lon="-2.1962">
        <ele>7</ele>
        <time>2020-08-23T09:00:22.000Z</time>
      </trkpt>
      <trkpt lat="47.27858" lon="-2.19628">
        <ele>7</ele>
        <time>2020-08-23T09:00:24.000Z</time>
      </trkpt>
      <trkpt lat="47.27854" lon="-2.19644">
        <ele>7</ele>
        <time>2020-08-23T09:00:26.000Z</time>
      </trkpt>
      <trkpt lat="47.27861" lon="-2.19665">
        <ele>7</ele>
        <time>2020-08-23T09:00:29.000Z</time>
      </trkpt>
      <trkpt lat="47.27877" lon="-2.19674">
        <ele>7</ele>
        <time>2020-08-23T09:00:32.000Z</time>
      </trkpt>
      <trkpt lat="47.27882" lon="-2.19676">
        <ele>7</ele>
        <time>2020-08-23T09:00:33.000Z</time>
      </trkpt>
      <trkpt lat="47.27901" lon="-2.19688">
        <ele>7</ele>
        <time>2020-08-23T09:00:37.000Z</time>
      </trkpt>
      <trkpt lat="47.27903" lon="-2.19695">
        <ele>7</ele>
        <time>2020-08-23T09:00:38.000Z</time>
      </trkpt>
      <trkpt lat="47.27904" lon="-2.19719">
        <ele>7</ele>
        <time>2020-08-23T09:00:41.000Z</time>
      </trkpt>
      <trkpt lat="47.27901" lon="-2.19735">
        <ele>7</ele>
        <time>2020-08-23T09:00:43.000Z</time>
      </trkpt>
      <trkpt lat="47.27894" lon="-2.19767">
        <ele>7</ele>
        <time>2020-08-23T09:00:47.000Z</time>
      </trkpt>
      <trkpt lat="47.27886" lon="-2.19809">
        <ele>7</ele>
        <time>2020-08-23T09:00:53.000Z</time>
      </trkpt>
      <trkpt lat="47.2788" lon="-2.19838">
        <ele>6.4000000953674</ele>
        <time>2020-08-23T09:00:58.000Z</time>
      </trkpt>
      <trkpt lat="47.2788" lon="-2.19843">
        <ele>6</ele>
        <time>2020-08-23T09:00:59.000Z</time>
      </trkpt>
      <trkpt lat="47.27879" lon="-2.19848">
        <ele>5.5999999046326</ele>
        <time>2020-08-23T09:01:00.000Z</time>
      </trkpt>
      <trkpt lat="47.27878" lon="-2.19853">
        <ele>5.1999998092651</ele>
        <time>2020-08-23T09:01:01.000Z</time>
      </trkpt>
      <trkpt lat="47.27876" lon="-2.19858">
        <ele>4.8000001907349</ele>
        <time>2020-08-23T09:01:02.000Z</time>
      </trkpt>
      <trkpt lat="47.27873" lon="-2.19862">
        <ele>4.8000001907349</ele>
        <time>2020-08-23T09:01:03.000Z</time>
      </trkpt>
      <trkpt lat="47.27869" lon="-2.19863">
        <ele>4.8000001907349</ele>
        <time>2020-08-23T09:01:04.000Z</time>
      </trkpt>
      <trkpt lat="47.27855" lon="-2.19863">
        <ele>4.8000001907349</ele>
        <time>2020-08-23T09:01:07.000Z</time>
      </trkpt>
      <trkpt lat="47.2785" lon="-2.19863">
        <ele>4.8000001907349</ele>
        <time>2020-08-23T09:01:08.000Z</time>
      </trkpt>
      <trkpt lat="47.27813" lon="-2.19864">
        <ele>4.8000001907349</ele>
        <time>2020-08-23T09:01:15.000Z</time>
      </trkpt>
      <trkpt lat="47.2778" lon="-2.19873">
        <ele>4.8000001907349</ele>
        <time>2020-08-23T09:01:21.000Z</time>
      </trkpt>
      <trkpt lat="47.27738" lon="-2.19883">
        <ele>4.8000001907349</ele>
        <time>2020-08-23T09:01:29.000Z</time>
      </trkpt>
      <trkpt lat="47.27713" lon="-2.19889">
        <ele>4.8000001907349</ele>
        <time>2020-08-23T09:01:34.000Z</time>
      </trkpt>
      <trkpt lat="47.27703" lon="-2.19893">
        <ele>4.8000001907349</ele>
        <time>2020-08-23T09:01:36.000Z</time>
      </trkpt>
      <trkpt lat="47.27666" lon="-2.19904">
        <ele>4.8000001907349</ele>
        <time>2020-08-23T09:01:43.000Z</time>
      </trkpt>
      <trkpt lat="47.27615" lon="-2.19914">
        <ele>4.8000001907349</ele>
        <time>2020-08-23T09:01:52.000Z</time>
      </trkpt>
      <trkpt lat="47.276" lon="-2.19918">
        <ele>4.8000001907349</ele>
        <time>2020-08-23T09:01:55.000Z</time>
      </trkpt>
      <trkpt lat="47.27579" lon="-2.19923">
        <ele>4.8000001907349</ele>
        <time>2020-08-23T09:01:59.000Z</time>
      </trkpt>
      <trkpt lat="47.27555" lon="-2.19932">
        <ele>4.8000001907349</ele>
        <time>2020-08-23T09:02:05.000Z</time>
      </trkpt>
      <trkpt lat="47.27536" lon="-2.19939">
        <ele>4.8000001907349</ele>
        <time>2020-08-23T09:02:12.000Z</time>
      </trkpt>
      <trkpt lat="47.27525" lon="-2.19941">
        <ele>4.8000001907349</ele>
        <time>2020-08-23T09:02:15.000Z</time>
      </trkpt>
      <trkpt lat="47.27521" lon="-2.19943">
        <ele>4.8000001907349</ele>
        <time>2020-08-23T09:02:16.000Z</time>
      </trkpt>
      <trkpt lat="47.2749" lon="-2.19954">
        <ele>4.8000001907349</ele>
        <time>2020-08-23T09:02:22.000Z</time>
      </trkpt>
      <trkpt lat="47.27454" lon="-2.19963">
        <ele>4.8000001907349</ele>
        <time>2020-08-23T09:02:28.000Z</time>
      </trkpt>
      <trkpt lat="47.27431" lon="-2.1997">
        <ele>4.8000001907349</ele>
        <time>2020-08-23T09:02:32.000Z</time>
      </trkpt>
      <trkpt lat="47.27421" lon="-2.19979">
        <ele>4.8000001907349</ele>
        <time>2020-08-23T09:02:34.000Z</time>
      </trkpt>
      <trkpt lat="47.2739" lon="-2.19999">
        <ele>4.8000001907349</ele>
        <time>2020-08-23T09:02:40.000Z</time>
      </trkpt>
      <trkpt lat="47.27358" lon="-2.2001">
        <ele>4.8000001907349</ele>
        <time>2020-08-23T09:02:46.000Z</time>
      </trkpt>
      <trkpt lat="47.27322" lon="-2.20017">
        <ele>4.8000001907349</ele>
        <time>2020-08-23T09:02:53.000Z</time>
      </trkpt>
      <trkpt lat="47.27304" lon="-2.2002">
        <ele>4.8000001907349</ele>
        <time>2020-08-23T09:02:57.000Z</time>
      </trkpt>
      <trkpt lat="47.27297" lon="-2.20027">
        <ele>4.8000001907349</ele>
        <time>2020-08-23T09:02:59.000Z</time>
      </trkpt>
      <trkpt lat="47.27278" lon="-2.20051">
        <ele>4.8000001907349</ele>
        <time>2020-08-23T09:03:04.000Z</time>
      </trkpt>
      <trkpt lat="47.27276" lon="-2.20058">
        <ele>4.8000001907349</ele>
        <time>2020-08-23T09:03:05.000Z</time>
      </trkpt>
      <trkpt lat="47.27274" lon="-2.20079">
        <ele>4.8000001907349</ele>
        <time>2020-08-23T09:03:08.000Z</time>
      </trkpt>
      <trkpt lat="47.27273" lon="-2.20086">
        <ele>4.8000001907349</ele>
        <time>2020-08-23T09:03:09.000Z</time>
      </trkpt>
      <trkpt lat="47.27271" lon="-2.201">
        <ele>4.8000001907349</ele>
        <time>2020-08-23T09:03:11.000Z</time>
      </trkpt>
      <trkpt lat="47.27261" lon="-2.20114">
        <ele>4.8000001907349</ele>
        <time>2020-08-23T09:03:14.000Z</time>
      </trkpt>
      <trkpt lat="47.27241" lon="-2.20117">
        <ele>4.8000001907349</ele>
        <time>2020-08-23T09:03:18.000Z</time>
      </trkpt>
      <trkpt lat="47.27213" lon="-2.20125">
        <ele>4.8000001907349</ele>
        <time>2020-08-23T09:03:24.000Z</time>
      </trkpt>
      <trkpt lat="47.27182" lon="-2.20133">
        <ele>4.8000001907349</ele>
        <time>2020-08-23T09:03:30.000Z</time>
      </trkpt>
      <trkpt lat="47.27173" lon="-2.20136">
        <ele>5.4000000953674</ele>
        <time>2020-08-23T09:03:32.000Z</time>
      </trkpt>
      <trkpt lat="47.27168" lon="-2.20138">
        <ele>5.8000001907349</ele>
        <time>2020-08-23T09:03:33.000Z</time>
      </trkpt>
      <trkpt lat="47.27164" lon="-2.20139">
        <ele>6.5999999046326</ele>
        <time>2020-08-23T09:03:34.000Z</time>
      </trkpt>
      <trkpt lat="47.2716" lon="-2.20141">
        <ele>7</ele>
        <time>2020-08-23T09:03:35.000Z</time>
      </trkpt>
      <trkpt lat="47.27157" lon="-2.20144">
        <ele>7</ele>
        <time>2020-08-23T09:03:36.000Z</time>
      </trkpt>
      <trkpt lat="47.2714" lon="-2.2016">
        <ele>7</ele>
        <time>2020-08-23T09:03:41.000Z</time>
      </trkpt>
      <trkpt lat="47.27122" lon="-2.20166">
        <ele>7</ele>
        <time>2020-08-23T09:03:45.000Z</time>
      </trkpt>
      <trkpt lat="47.27101" lon="-2.20169">
        <ele>7</ele>
        <time>2020-08-23T09:03:49.000Z</time>
      </trkpt>
      <trkpt lat="47.27098" lon="-2.20167">
        <ele>7</ele>
        <time>2020-08-23T09:03:50.000Z</time>
      </trkpt>
      <trkpt lat="47.27093" lon="-2.2017">
        <ele>6.5999999046326</ele>
        <time>2020-08-23T09:03:53.000Z</time>
      </trkpt>
      <trkpt lat="47.27093" lon="-2.20173">
        <ele>6.1999998092651</ele>
        <time>2020-08-23T09:03:54.000Z</time>
      </trkpt>
      <trkpt lat="47.27093" lon="-2.20177">
        <ele>5.8000001907349</ele>
        <time>2020-08-23T09:03:55.000Z</time>
      </trkpt>
      <trkpt lat="47.27094" lon="-2.20183">
        <ele>5.4000000953674</ele>
        <time>2020-08-23T09:03:56.000Z</time>
      </trkpt>
      <trkpt lat="47.27094" lon="-2.20188">
        <ele>5</ele>
        <time>2020-08-23T09:03:57.000Z</time>
      </trkpt>
      <trkpt lat="47.27099" lon="-2.20221">
        <ele>5</ele>
        <time>2020-08-23T09:04:03.000Z</time>
      </trkpt>
      <trkpt lat="47.27104" lon="-2.20262">
        <ele>5</ele>
        <time>2020-08-23T09:04:10.000Z</time>
      </trkpt>
      <trkpt lat="47.27106" lon="-2.20274">
        <ele>5</ele>
        <time>2020-08-23T09:04:12.000Z</time>
      </trkpt>
      <trkpt lat="47.27111" lon="-2.203">
        <ele>5</ele>
        <time>2020-08-23T09:04:16.000Z</time>
      </trkpt>
      <trkpt lat="47.27122" lon="-2.20359">
        <ele>5</ele>
        <time>2020-08-23T09:04:24.000Z</time>
      </trkpt>
      <trkpt lat="47.27133" lon="-2.20418">
        <ele>5</ele>
        <time>2020-08-23T09:04:32.000Z</time>
      </trkpt>
      <trkpt lat="47.27132" lon="-2.20445">
        <ele>5</ele>
        <time>2020-08-23T09:04:37.000Z</time>
      </trkpt>
      <trkpt lat="47.27128" lon="-2.20473">
        <ele>5</ele>
        <time>2020-08-23T09:04:43.000Z</time>
      </trkpt>
      <trkpt lat="47.27129" lon="-2.20497">
        <ele>5</ele>
        <time>2020-08-23T09:04:47.000Z</time>
      </trkpt>
      <trkpt lat="47.27128" lon="-2.20504">
        <ele>5</ele>
        <time>2020-08-23T09:04:48.000Z</time>
      </trkpt>
      <trkpt lat="47.27131" lon="-2.20523">
        <ele>5</ele>
        <time>2020-08-23T09:04:51.000Z</time>
      </trkpt>
      <trkpt lat="47.27132" lon="-2.20529">
        <ele>5</ele>
        <time>2020-08-23T09:04:52.000Z</time>
      </trkpt>
      <trkpt lat="47.27133" lon="-2.20535">
        <ele>5</ele>
        <time>2020-08-23T09:04:53.000Z</time>
      </trkpt>
      <trkpt lat="47.27134" lon="-2.20542">
        <ele>5</ele>
        <time>2020-08-23T09:04:54.000Z</time>
      </trkpt>
      <trkpt lat="47.27135" lon="-2.20574">
        <ele>5</ele>
        <time>2020-08-23T09:04:59.000Z</time>
      </trkpt>
      <trkpt lat="47.27134" lon="-2.20581">
        <ele>5</ele>
        <time>2020-08-23T09:05:00.000Z</time>
      </trkpt>
      <trkpt lat="47.2713" lon="-2.20604">
        <ele>5</ele>
        <time>2020-08-23T09:05:04.000Z</time>
      </trkpt>
      <trkpt lat="47.27129" lon="-2.20616">
        <ele>5</ele>
        <time>2020-08-23T09:05:06.000Z</time>
      </trkpt>
      <trkpt lat="47.27129" lon="-2.20634">
        <ele>5</ele>
        <time>2020-08-23T09:05:09.000Z</time>
      </trkpt>
      <trkpt lat="47.27129" lon="-2.2064">
        <ele>5</ele>
        <time>2020-08-23T09:05:10.000Z</time>
      </trkpt>
      <trkpt lat="47.27125" lon="-2.20665">
        <ele>5</ele>
        <time>2020-08-23T09:05:15.000Z</time>
      </trkpt>
      <trkpt lat="47.27123" lon="-2.20675">
        <ele>5</ele>
        <time>2020-08-23T09:05:19.000Z</time>
      </trkpt>
      <trkpt lat="47.27121" lon="-2.20696">
        <ele>5</ele>
        <time>2020-08-23T09:05:25.000Z</time>
      </trkpt>
      <trkpt lat="47.27117" lon="-2.20728">
        <ele>5</ele>
        <time>2020-08-23T09:05:33.000Z</time>
      </trkpt>
      <trkpt lat="47.27111" lon="-2.20769">
        <ele>5</ele>
        <time>2020-08-23T09:05:41.000Z</time>
      </trkpt>
      <trkpt lat="47.27106" lon="-2.20803">
        <ele>5</ele>
        <time>2020-08-23T09:05:49.000Z</time>
      </trkpt>
      <trkpt lat="47.27104" lon="-2.20821">
        <ele>5</ele>
        <time>2020-08-23T09:05:55.000Z</time>
      </trkpt>
      <trkpt lat="47.27105" lon="-2.20823">
        <ele>5</ele>
        <time>2020-08-23T09:05:56.000Z</time>
      </trkpt>
      <trkpt lat="47.27109" lon="-2.20826">
        <ele>5</ele>
        <time>2020-08-23T09:05:58.000Z</time>
      </trkpt>
      <trkpt lat="47.2711" lon="-2.2084">
        <ele>5</ele>
        <time>2020-08-23T09:06:02.000Z</time>
      </trkpt>
      <trkpt lat="47.2711" lon="-2.20844">
        <ele>5</ele>
        <time>2020-08-23T09:06:03.000Z</time>
      </trkpt>
      <trkpt lat="47.2711" lon="-2.20848">
        <ele>5.4000000953674</ele>
        <time>2020-08-23T09:06:04.000Z</time>
      </trkpt>
      <trkpt lat="47.2711" lon="-2.20851">
        <ele>5.8000001907349</ele>
        <time>2020-08-23T09:06:05.000Z</time>
      </trkpt>
      <trkpt lat="47.27111" lon="-2.20854">
        <ele>6.1999998092651</ele>
        <time>2020-08-23T09:06:06.000Z</time>
      </trkpt>
      <trkpt lat="47.27111" lon="-2.20856">
        <ele>6.5999999046326</ele>
        <time>2020-08-23T09:06:07.000Z</time>
      </trkpt>
      <trkpt lat="47.27111" lon="-2.20857">
        <ele>7</ele>
        <time>2020-08-23T09:06:08.000Z</time>
      </trkpt>
      <trkpt lat="47.27111" lon="-2.20857">
        <ele>7</ele>
        <time>2020-08-23T09:06:09.000Z</time>
      </trkpt>
      <trkpt lat="47.27111" lon="-2.20862">
        <ele>7</ele>
        <time>2020-08-23T09:06:15.000Z</time>
      </trkpt>
      <trkpt lat="47.2711" lon="-2.20865">
        <ele>7</ele>
        <time>2020-08-23T09:06:16.000Z</time>
      </trkpt>
      <trkpt lat="47.27105" lon="-2.20887">
        <ele>7</ele>
        <time>2020-08-23T09:06:20.000Z</time>
      </trkpt>
      <trkpt lat="47.2709" lon="-2.20931">
        <ele>7</ele>
        <time>2020-08-23T09:06:26.000Z</time>
      </trkpt>
      <trkpt lat="47.27073" lon="-2.20984">
        <ele>7</ele>
        <time>2020-08-23T09:06:32.000Z</time>
      </trkpt>
      <trkpt lat="47.27066" lon="-2.2101">
        <ele>7</ele>
        <time>2020-08-23T09:06:35.000Z</time>
      </trkpt>
      <trkpt lat="47.27062" lon="-2.21037">
        <ele>7</ele>
        <time>2020-08-23T09:06:38.000Z</time>
      </trkpt>
      <trkpt lat="47.27059" lon="-2.21044">
        <ele>7</ele>
        <time>2020-08-23T09:06:39.000Z</time>
      </trkpt>
      <trkpt lat="47.27051" lon="-2.21059">
        <ele>7</ele>
        <time>2020-08-23T09:06:41.000Z</time>
      </trkpt>
      <trkpt lat="47.27041" lon="-2.21082">
        <ele>7</ele>
        <time>2020-08-23T09:06:44.000Z</time>
      </trkpt>
      <trkpt lat="47.27033" lon="-2.21106">
        <ele>7</ele>
        <time>2020-08-23T09:06:47.000Z</time>
      </trkpt>
      <trkpt lat="47.27014" lon="-2.21158">
        <ele>7</ele>
        <time>2020-08-23T09:06:54.000Z</time>
      </trkpt>
      <trkpt lat="47.2701" lon="-2.21163">
        <ele>7</ele>
        <time>2020-08-23T09:06:55.000Z</time>
      </trkpt>
      <trkpt lat="47.26998" lon="-2.21179">
        <ele>7</ele>
        <time>2020-08-23T09:06:58.000Z</time>
      </trkpt>
      <trkpt lat="47.26967" lon="-2.21224">
        <ele>7</ele>
        <time>2020-08-23T09:07:06.000Z</time>
      </trkpt>
      <trkpt lat="47.26939" lon="-2.21262">
        <ele>7</ele>
        <time>2020-08-23T09:07:13.000Z</time>
      </trkpt>
      <trkpt lat="47.26928" lon="-2.21277">
        <ele>7.4000000953674</ele>
        <time>2020-08-23T09:07:16.000Z</time>
      </trkpt>
      <trkpt lat="47.26924" lon="-2.21283">
        <ele>7.8000001907349</ele>
        <time>2020-08-23T09:07:17.000Z</time>
      </trkpt>
      <trkpt lat="47.26921" lon="-2.21289">
        <ele>8.1999998092651</ele>
        <time>2020-08-23T09:07:18.000Z</time>
      </trkpt>
      <trkpt lat="47.26918" lon="-2.21294">
        <ele>8.6000003814697</ele>
        <time>2020-08-23T09:07:19.000Z</time>
      </trkpt>
      <trkpt lat="47.26915" lon="-2.213">
        <ele>9</ele>
        <time>2020-08-23T09:07:20.000Z</time>
      </trkpt>
      <trkpt lat="47.2691" lon="-2.21313">
        <ele>9</ele>
        <time>2020-08-23T09:07:22.000Z</time>
      </trkpt>
      <trkpt lat="47.26905" lon="-2.21335">
        <ele>9</ele>
        <time>2020-08-23T09:07:25.000Z</time>
      </trkpt>
      <trkpt lat="47.26903" lon="-2.21349">
        <ele>9</ele>
        <time>2020-08-23T09:07:27.000Z</time>
      </trkpt>
      <trkpt lat="47.26898" lon="-2.2138">
        <ele>9</ele>
        <time>2020-08-23T09:07:31.000Z</time>
      </trkpt>
      <trkpt lat="47.26895" lon="-2.21395">
        <ele>9</ele>
        <time>2020-08-23T09:07:33.000Z</time>
      </trkpt>
      <trkpt lat="47.2689" lon="-2.21419">
        <ele>9</ele>
        <time>2020-08-23T09:07:36.000Z</time>
      </trkpt>
      <trkpt lat="47.26889" lon="-2.21426">
        <ele>9</ele>
        <time>2020-08-23T09:07:37.000Z</time>
      </trkpt>
      <trkpt lat="47.26886" lon="-2.21442">
        <ele>9</ele>
        <time>2020-08-23T09:07:39.000Z</time>
      </trkpt>
      <trkpt lat="47.26884" lon="-2.21457">
        <ele>9</ele>
        <time>2020-08-23T09:07:41.000Z</time>
      </trkpt>
      <trkpt lat="47.26883" lon="-2.21471">
        <ele>9</ele>
        <time>2020-08-23T09:07:43.000Z</time>
      </trkpt>
      <trkpt lat="47.26879" lon="-2.21492">
        <ele>9</ele>
        <time>2020-08-23T09:07:46.000Z</time>
      </trkpt>
      <trkpt lat="47.2687" lon="-2.21538">
        <ele>9</ele>
        <time>2020-08-23T09:07:52.000Z</time>
      </trkpt>
      <trkpt lat="47.2686" lon="-2.21599">
        <ele>9</ele>
        <time>2020-08-23T09:08:00.000Z</time>
      </trkpt>
      <trkpt lat="47.26858" lon="-2.21608">
        <ele>9</ele>
        <time>2020-08-23T09:08:01.000Z</time>
      </trkpt>
      <trkpt lat="47.26855" lon="-2.21634">
        <ele>9</ele>
        <time>2020-08-23T09:08:04.000Z</time>
      </trkpt>
      <trkpt lat="47.26853" lon="-2.21643">
        <ele>9</ele>
        <time>2020-08-23T09:08:05.000Z</time>
      </trkpt>
      <trkpt lat="47.26848" lon="-2.2166">
        <ele>9</ele>
        <time>2020-08-23T09:08:07.000Z</time>
      </trkpt>
      <trkpt lat="47.26845" lon="-2.21678">
        <ele>9</ele>
        <time>2020-08-23T09:08:09.000Z</time>
      </trkpt>
      <trkpt lat="47.26831" lon="-2.21745">
        <ele>9</ele>
        <time>2020-08-23T09:08:16.000Z</time>
      </trkpt>
      <trkpt lat="47.26813" lon="-2.21814">
        <ele>9</ele>
        <time>2020-08-23T09:08:23.000Z</time>
      </trkpt>
      <trkpt lat="47.26792" lon="-2.21891">
        <ele>9</ele>
        <time>2020-08-23T09:08:31.000Z</time>
      </trkpt>
      <trkpt lat="47.2679" lon="-2.219">
        <ele>9</ele>
        <time>2020-08-23T09:08:32.000Z</time>
      </trkpt>
      <trkpt lat="47.26773" lon="-2.21968">
        <ele>9</ele>
        <time>2020-08-23T09:08:40.000Z</time>
      </trkpt>
      <trkpt lat="47.26771" lon="-2.21976">
        <ele>8.6000003814697</ele>
        <time>2020-08-23T09:08:41.000Z</time>
      </trkpt>
      <trkpt lat="47.2677" lon="-2.21985">
        <ele>8.1999998092651</ele>
        <time>2020-08-23T09:08:42.000Z</time>
      </trkpt>
      <trkpt lat="47.26768" lon="-2.21993">
        <ele>7.5999999046326</ele>
        <time>2020-08-23T09:08:43.000Z</time>
      </trkpt>
      <trkpt lat="47.26765" lon="-2.22001">
        <ele>7.1999998092651</ele>
        <time>2020-08-23T09:08:44.000Z</time>
      </trkpt>
      <trkpt lat="47.26764" lon="-2.22009">
        <ele>6.8000001907349</ele>
        <time>2020-08-23T09:08:45.000Z</time>
      </trkpt>
      <trkpt lat="47.26762" lon="-2.22016">
        <ele>6.8000001907349</ele>
        <time>2020-08-23T09:08:46.000Z</time>
      </trkpt>
      <trkpt lat="47.26759" lon="-2.22036">
        <ele>6.8000001907349</ele>
        <time>2020-08-23T09:08:49.000Z</time>
      </trkpt>
      <trkpt lat="47.26761" lon="-2.22041">
        <ele>6.8000001907349</ele>
        <time>2020-08-23T09:08:50.000Z</time>
      </trkpt>
      <trkpt lat="47.26775" lon="-2.22052">
        <ele>6.8000001907349</ele>
        <time>2020-08-23T09:08:53.000Z</time>
      </trkpt>
      <trkpt lat="47.2678" lon="-2.22057">
        <ele>6.8000001907349</ele>
        <time>2020-08-23T09:08:54.000Z</time>
      </trkpt>
      <trkpt lat="47.26808" lon="-2.22077">
        <ele>6.8000001907349</ele>
        <time>2020-08-23T09:08:59.000Z</time>
      </trkpt>
      <trkpt lat="47.26841" lon="-2.22102">
        <ele>6.8000001907349</ele>
        <time>2020-08-23T09:09:06.000Z</time>
      </trkpt>
      <trkpt lat="47.26848" lon="-2.2211">
        <ele>6.4000000953674</ele>
        <time>2020-08-23T09:09:09.000Z</time>
      </trkpt>
      <trkpt lat="47.26849" lon="-2.22114">
        <ele>6</ele>
        <time>2020-08-23T09:09:10.000Z</time>
      </trkpt>
      <trkpt lat="47.2685" lon="-2.22119">
        <ele>5.5999999046326</ele>
        <time>2020-08-23T09:09:11.000Z</time>
      </trkpt>
      <trkpt lat="47.2685" lon="-2.22124">
        <ele>5.1999998092651</ele>
        <time>2020-08-23T09:09:12.000Z</time>
      </trkpt>
      <trkpt lat="47.26851" lon="-2.2213">
        <ele>4.8000001907349</ele>
        <time>2020-08-23T09:09:13.000Z</time>
      </trkpt>
      <trkpt lat="47.26855" lon="-2.22136">
        <ele>4.8000001907349</ele>
        <time>2020-08-23T09:09:14.000Z</time>
      </trkpt>
      <trkpt lat="47.26866" lon="-2.22143">
        <ele>4.8000001907349</ele>
        <time>2020-08-23T09:09:17.000Z</time>
      </trkpt>
      <trkpt lat="47.26869" lon="-2.22145">
        <ele>4.8000001907349</ele>
        <time>2020-08-23T09:09:18.000Z</time>
      </trkpt>
      <trkpt lat="47.26893" lon="-2.22159">
        <ele>4.8000001907349</ele>
        <time>2020-08-23T09:09:23.000Z</time>
      </trkpt>
      <trkpt lat="47.26934" lon="-2.22185">
        <ele>4.8000001907349</ele>
        <time>2020-08-23T09:09:31.000Z</time>
      </trkpt>
      <trkpt lat="47.26966" lon="-2.22204">
        <ele>4.8000001907349</ele>
        <time>2020-08-23T09:09:37.000Z</time>
      </trkpt>
      <trkpt lat="47.27" lon="-2.22222">
        <ele>4.8000001907349</ele>
        <time>2020-08-23T09:09:44.000Z</time>
      </trkpt>
      <trkpt lat="47.27034" lon="-2.22235">
        <ele>4.8000001907349</ele>
        <time>2020-08-23T09:09:50.000Z</time>
      </trkpt>
      <trkpt lat="47.27067" lon="-2.22245">
        <ele>4.8000001907349</ele>
        <time>2020-08-23T09:09:56.000Z</time>
      </trkpt>
      <trkpt lat="47.27076" lon="-2.22254">
        <ele>4.8000001907349</ele>
        <time>2020-08-23T09:09:58.000Z</time>
      </trkpt>
      <trkpt lat="47.27084" lon="-2.22267">
        <ele>4.8000001907349</ele>
        <time>2020-08-23T09:10:00.000Z</time>
      </trkpt>
      <trkpt lat="47.27089" lon="-2.2228">
        <ele>4.8000001907349</ele>
        <time>2020-08-23T09:10:02.000Z</time>
      </trkpt>
      <trkpt lat="47.27089" lon="-2.22295">
        <ele>4.8000001907349</ele>
        <time>2020-08-23T09:10:04.000Z</time>
      </trkpt>
      <trkpt lat="47.27085" lon="-2.22317">
        <ele>4.8000001907349</ele>
        <time>2020-08-23T09:10:08.000Z</time>
      </trkpt>
      <trkpt lat="47.27086" lon="-2.22328">
        <ele>4.8000001907349</ele>
        <time>2020-08-23T09:10:12.000Z</time>
      </trkpt>
      <trkpt lat="47.2709" lon="-2.22332">
        <ele>4.8000001907349</ele>
        <time>2020-08-23T09:10:14.000Z</time>
      </trkpt>
      <trkpt lat="47.27094" lon="-2.2234">
        <ele>4.8000001907349</ele>
        <time>2020-08-23T09:10:16.000Z</time>
      </trkpt>
      <trkpt lat="47.27099" lon="-2.2235">
        <ele>4.8000001907349</ele>
        <time>2020-08-23T09:10:18.000Z</time>
      </trkpt>
      <trkpt lat="47.27106" lon="-2.22364">
        <ele>4.8000001907349</ele>
        <time>2020-08-23T09:10:20.000Z</time>
      </trkpt>
      <trkpt lat="47.27136" lon="-2.2242">
        <ele>4.8000001907349</ele>
        <time>2020-08-23T09:10:28.000Z</time>
      </trkpt>
      <trkpt lat="47.27149" lon="-2.22453">
        <ele>4.8000001907349</ele>
        <time>2020-08-23T09:10:33.000Z</time>
      </trkpt>
      <trkpt lat="47.2715" lon="-2.22459">
        <ele>4.8000001907349</ele>
        <time>2020-08-23T09:10:34.000Z</time>
      </trkpt>
      <trkpt lat="47.27147" lon="-2.22484">
        <ele>4.8000001907349</ele>
        <time>2020-08-23T09:10:38.000Z</time>
      </trkpt>
      <trkpt lat="47.27146" lon="-2.2249">
        <ele>4.8000001907349</ele>
        <time>2020-08-23T09:10:39.000Z</time>
      </trkpt>
      <trkpt lat="47.27143" lon="-2.22502">
        <ele>5.1999998092651</ele>
        <time>2020-08-23T09:10:42.000Z</time>
      </trkpt>
      <trkpt lat="47.27141" lon="-2.22505">
        <ele>5.5999999046326</ele>
        <time>2020-08-23T09:10:43.000Z</time>
      </trkpt>
      <trkpt lat="47.2714" lon="-2.22508">
        <ele>6</ele>
        <time>2020-08-23T09:10:44.000Z</time>
      </trkpt>
      <trkpt lat="47.27139" lon="-2.22512">
        <ele>6.4000000953674</ele>
        <time>2020-08-23T09:10:45.000Z</time>
      </trkpt>
      <trkpt lat="47.27139" lon="-2.22515">
        <ele>7</ele>
        <time>2020-08-23T09:10:46.000Z</time>
      </trkpt>
      <trkpt lat="47.2714" lon="-2.2252">
        <ele>7</ele>
        <time>2020-08-23T09:10:47.000Z</time>
      </trkpt>
      <trkpt lat="47.27141" lon="-2.22524">
        <ele>7.4000000953674</ele>
        <time>2020-08-23T09:10:48.000Z</time>
      </trkpt>
      <trkpt lat="47.27141" lon="-2.22528">
        <ele>7.8000001907349</ele>
        <time>2020-08-23T09:10:49.000Z</time>
      </trkpt>
      <trkpt lat="47.27142" lon="-2.22531">
        <ele>8.1999998092651</ele>
        <time>2020-08-23T09:10:50.000Z</time>
      </trkpt>
      <trkpt lat="47.27142" lon="-2.22535">
        <ele>8.8000001907349</ele>
        <time>2020-08-23T09:10:51.000Z</time>
      </trkpt>
      <trkpt lat="47.27141" lon="-2.22538">
        <ele>9.1999998092651</ele>
        <time>2020-08-23T09:10:52.000Z</time>
      </trkpt>
      <trkpt lat="47.27139" lon="-2.22544">
        <ele>9.6000003814697</ele>
        <time>2020-08-23T09:10:53.000Z</time>
      </trkpt>
      <trkpt lat="47.27138" lon="-2.22546">
        <ele>10</ele>
        <time>2020-08-23T09:10:54.000Z</time>
      </trkpt>
      <trkpt lat="47.27136" lon="-2.2255">
        <ele>10.39999961853</ele>
        <time>2020-08-23T09:10:55.000Z</time>
      </trkpt>
      <trkpt lat="47.27136" lon="-2.22555">
        <ele>10.800000190735</ele>
        <time>2020-08-23T09:10:56.000Z</time>
      </trkpt>
      <trkpt lat="47.27137" lon="-2.2256">
        <ele>11.199999809265</ele>
        <time>2020-08-23T09:10:57.000Z</time>
      </trkpt>
      <trkpt lat="47.27138" lon="-2.22564">
        <ele>11.199999809265</ele>
        <time>2020-08-23T09:10:58.000Z</time>
      </trkpt>
      <trkpt lat="47.27141" lon="-2.22587">
        <ele>11.199999809265</ele>
        <time>2020-08-23T09:11:04.000Z</time>
      </trkpt>
      <trkpt lat="47.2714" lon="-2.22613">
        <ele>11.199999809265</ele>
        <time>2020-08-23T09:11:08.000Z</time>
      </trkpt>
      <trkpt lat="47.27143" lon="-2.22625">
        <ele>10.800000190735</ele>
        <time>2020-08-23T09:11:09.000Z</time>
      </trkpt>
      <trkpt lat="47.27146" lon="-2.22633">
        <ele>10.199999809265</ele>
        <time>2020-08-23T09:11:10.000Z</time>
      </trkpt>
      <trkpt lat="47.2715" lon="-2.22644">
        <ele>9.8000001907349</ele>
        <time>2020-08-23T09:11:11.000Z</time>
      </trkpt>
      <trkpt lat="47.27153" lon="-2.22653">
        <ele>9.1999998092651</ele>
        <time>2020-08-23T09:11:12.000Z</time>
      </trkpt>
      <trkpt lat="47.27155" lon="-2.22661">
        <ele>8.6000003814697</ele>
        <time>2020-08-23T09:11:13.000Z</time>
      </trkpt>
      <trkpt lat="47.27157" lon="-2.22666">
        <ele>8.1999998092651</ele>
        <time>2020-08-23T09:11:14.000Z</time>
      </trkpt>
      <trkpt lat="47.27158" lon="-2.22667">
        <ele>7.5999999046326</ele>
        <time>2020-08-23T09:11:15.000Z</time>
      </trkpt>
      <trkpt lat="47.2716" lon="-2.22669">
        <ele>7</ele>
        <time>2020-08-23T09:11:16.000Z</time>
      </trkpt>
      <trkpt lat="47.27162" lon="-2.22671">
        <ele>6.5999999046326</ele>
        <time>2020-08-23T09:11:17.000Z</time>
      </trkpt>
      <trkpt lat="47.27166" lon="-2.22679">
        <ele>5.8000001907349</ele>
        <time>2020-08-23T09:11:21.000Z</time>
      </trkpt>
      <trkpt lat="47.27167" lon="-2.22681">
        <ele>5.4000000953674</ele>
        <time>2020-08-23T09:11:22.000Z</time>
      </trkpt>
      <trkpt lat="47.27168" lon="-2.22684">
        <ele>4.8000001907349</ele>
        <time>2020-08-23T09:11:23.000Z</time>
      </trkpt>
      <trkpt lat="47.27169" lon="-2.22688">
        <ele>4.4000000953674</ele>
        <time>2020-08-23T09:11:24.000Z</time>
      </trkpt>
      <trkpt lat="47.27172" lon="-2.22692">
        <ele>4.4000000953674</ele>
        <time>2020-08-23T09:11:25.000Z</time>
      </trkpt>
      <trkpt lat="47.2718" lon="-2.22704">
        <ele>4.4000000953674</ele>
        <time>2020-08-23T09:11:28.000Z</time>
      </trkpt>
      <trkpt lat="47.2719" lon="-2.22716">
        <ele>4.4000000953674</ele>
        <time>2020-08-23T09:11:31.000Z</time>
      </trkpt>
      <trkpt lat="47.27202" lon="-2.22729">
        <ele>4.8000001907349</ele>
        <time>2020-08-23T09:11:35.000Z</time>
      </trkpt>
      <trkpt lat="47.27205" lon="-2.22733">
        <ele>5.4000000953674</ele>
        <time>2020-08-23T09:11:36.000Z</time>
      </trkpt>
      <trkpt lat="47.27207" lon="-2.22738">
        <ele>5.8000001907349</ele>
        <time>2020-08-23T09:11:37.000Z</time>
      </trkpt>
      <trkpt lat="47.27208" lon="-2.22743">
        <ele>6.1999998092651</ele>
        <time>2020-08-23T09:11:38.000Z</time>
      </trkpt>
      <trkpt lat="47.27208" lon="-2.22748">
        <ele>6.5999999046326</ele>
        <time>2020-08-23T09:11:39.000Z</time>
      </trkpt>
      <trkpt lat="47.27207" lon="-2.2276">
        <ele>6.5999999046326</ele>
        <time>2020-08-23T09:11:41.000Z</time>
      </trkpt>
      <trkpt lat="47.272" lon="-2.22803">
        <ele>6.5999999046326</ele>
        <time>2020-08-23T09:11:49.000Z</time>
      </trkpt>
      <trkpt lat="47.27194" lon="-2.22831">
        <ele>6.5999999046326</ele>
        <time>2020-08-23T09:11:54.000Z</time>
      </trkpt>
      <trkpt lat="47.27195" lon="-2.22837">
        <ele>6.5999999046326</ele>
        <time>2020-08-23T09:11:55.000Z</time>
      </trkpt>
      <trkpt lat="47.27197" lon="-2.22857">
        <ele>6.5999999046326</ele>
        <time>2020-08-23T09:11:58.000Z</time>
      </trkpt>
      <trkpt lat="47.27199" lon="-2.22879">
        <ele>6.5999999046326</ele>
        <time>2020-08-23T09:12:01.000Z</time>
      </trkpt>
      <trkpt lat="47.27201" lon="-2.22894">
        <ele>6.5999999046326</ele>
        <time>2020-08-23T09:12:03.000Z</time>
      </trkpt>
      <trkpt lat="47.27207" lon="-2.22923">
        <ele>6.5999999046326</ele>
        <time>2020-08-23T09:12:07.000Z</time>
      </trkpt>
      <trkpt lat="47.2722" lon="-2.22969">
        <ele>6.5999999046326</ele>
        <time>2020-08-23T09:12:13.000Z</time>
      </trkpt>
      <trkpt lat="47.27224" lon="-2.22983">
        <ele>6.5999999046326</ele>
        <time>2020-08-23T09:12:15.000Z</time>
      </trkpt>
      <trkpt lat="47.27235" lon="-2.22999">
        <ele>6.5999999046326</ele>
        <time>2020-08-23T09:12:18.000Z</time>
      </trkpt>
      <trkpt lat="47.27239" lon="-2.23004">
        <ele>6.5999999046326</ele>
        <time>2020-08-23T09:12:19.000Z</time>
      </trkpt>
      <trkpt lat="47.27249" lon="-2.2302">
        <ele>6.5999999046326</ele>
        <time>2020-08-23T09:12:22.000Z</time>
      </trkpt>
      <trkpt lat="47.27252" lon="-2.23034">
        <ele>6.5999999046326</ele>
        <time>2020-08-23T09:12:24.000Z</time>
      </trkpt>
      <trkpt lat="47.27259" lon="-2.23053">
        <ele>6.5999999046326</ele>
        <time>2020-08-23T09:12:27.000Z</time>
      </trkpt>
      <trkpt lat="47.27262" lon="-2.23058">
        <ele>6.5999999046326</ele>
        <time>2020-08-23T09:12:28.000Z</time>
      </trkpt>
      <trkpt lat="47.27268" lon="-2.2307">
        <ele>6.5999999046326</ele>
        <time>2020-08-23T09:12:30.000Z</time>
      </trkpt>
      <trkpt lat="47.27273" lon="-2.23092">
        <ele>6.5999999046326</ele>
        <time>2020-08-23T09:12:33.000Z</time>
      </trkpt>
      <trkpt lat="47.27285" lon="-2.23145">
        <ele>6.5999999046326</ele>
        <time>2020-08-23T09:12:40.000Z</time>
      </trkpt>
      <trkpt lat="47.27296" lon="-2.23189">
        <ele>6.5999999046326</ele>
        <time>2020-08-23T09:12:47.000Z</time>
      </trkpt>
      <trkpt lat="47.27301" lon="-2.23208">
        <ele>6.5999999046326</ele>
        <time>2020-08-23T09:12:50.000Z</time>
      </trkpt>
      <trkpt lat="47.27301" lon="-2.2322">
        <ele>6.5999999046326</ele>
        <time>2020-08-23T09:12:52.000Z</time>
      </trkpt>
      <trkpt lat="47.27294" lon="-2.23229">
        <ele>6.5999999046326</ele>
        <time>2020-08-23T09:12:54.000Z</time>
      </trkpt>
      <trkpt lat="47.27282" lon="-2.2324">
        <ele>6.5999999046326</ele>
        <time>2020-08-23T09:12:57.000Z</time>
      </trkpt>
      <trkpt lat="47.27277" lon="-2.23242">
        <ele>6.5999999046326</ele>
        <time>2020-08-23T09:12:58.000Z</time>
      </trkpt>
      <trkpt lat="47.27274" lon="-2.23245">
        <ele>6.5999999046326</ele>
        <time>2020-08-23T09:12:59.000Z</time>
      </trkpt>
      <trkpt lat="47.27272" lon="-2.23248">
        <ele>6.5999999046326</ele>
        <time>2020-08-23T09:13:00.000Z</time>
      </trkpt>
      <trkpt lat="47.27266" lon="-2.23254">
        <ele>6.5999999046326</ele>
        <time>2020-08-23T09:13:02.000Z</time>
      </trkpt>
      <trkpt lat="47.27262" lon="-2.23255">
        <ele>6.5999999046326</ele>
        <time>2020-08-23T09:13:03.000Z</time>
      </trkpt>
      <trkpt lat="47.27249" lon="-2.23262">
        <ele>6.5999999046326</ele>
        <time>2020-08-23T09:13:06.000Z</time>
      </trkpt>
      <trkpt lat="47.27239" lon="-2.23267">
        <ele>6.5999999046326</ele>
        <time>2020-08-23T09:13:08.000Z</time>
      </trkpt>
      <trkpt lat="47.27201" lon="-2.23284">
        <ele>6.5999999046326</ele>
        <time>2020-08-23T09:13:15.000Z</time>
      </trkpt>
      <trkpt lat="47.27179" lon="-2.23293">
        <ele>7</ele>
        <time>2020-08-23T09:13:19.000Z</time>
      </trkpt>
      <trkpt lat="47.27173" lon="-2.23295">
        <ele>7.4000000953674</ele>
        <time>2020-08-23T09:13:20.000Z</time>
      </trkpt>
      <trkpt lat="47.27168" lon="-2.23297">
        <ele>8</ele>
        <time>2020-08-23T09:13:21.000Z</time>
      </trkpt>
      <trkpt lat="47.27162" lon="-2.233">
        <ele>8.3999996185303</ele>
        <time>2020-08-23T09:13:22.000Z</time>
      </trkpt>
      <trkpt lat="47.27156" lon="-2.23302">
        <ele>8.8000001907349</ele>
        <time>2020-08-23T09:13:23.000Z</time>
      </trkpt>
      <trkpt lat="47.2715" lon="-2.23304">
        <ele>8.8000001907349</ele>
        <time>2020-08-23T09:13:24.000Z</time>
      </trkpt>
      <trkpt lat="47.271" lon="-2.23318">
        <ele>8.8000001907349</ele>
        <time>2020-08-23T09:13:32.000Z</time>
      </trkpt>
      <trkpt lat="47.27051" lon="-2.23328">
        <ele>8.8000001907349</ele>
        <time>2020-08-23T09:13:40.000Z</time>
      </trkpt>
      <trkpt lat="47.26995" lon="-2.23338">
        <ele>8.8000001907349</ele>
        <time>2020-08-23T09:13:49.000Z</time>
      </trkpt>
      <trkpt lat="47.26957" lon="-2.23347">
        <ele>8.8000001907349</ele>
        <time>2020-08-23T09:13:56.000Z</time>
      </trkpt>
      <trkpt lat="47.26942" lon="-2.2335">
        <ele>8.8000001907349</ele>
        <time>2020-08-23T09:13:59.000Z</time>
      </trkpt>
      <trkpt lat="47.26937" lon="-2.2336">
        <ele>8.8000001907349</ele>
        <time>2020-08-23T09:14:01.000Z</time>
      </trkpt>
      <trkpt lat="47.26937" lon="-2.23382">
        <ele>8.8000001907349</ele>
        <time>2020-08-23T09:14:04.000Z</time>
      </trkpt>
      <trkpt lat="47.26946" lon="-2.23438">
        <ele>8.8000001907349</ele>
        <time>2020-08-23T09:14:11.000Z</time>
      </trkpt>
      <trkpt lat="47.26952" lon="-2.23487">
        <ele>8.8000001907349</ele>
        <time>2020-08-23T09:14:17.000Z</time>
      </trkpt>
      <trkpt lat="47.26954" lon="-2.23503">
        <ele>9.3999996185303</ele>
        <time>2020-08-23T09:14:19.000Z</time>
      </trkpt>
      <trkpt lat="47.26955" lon="-2.23512">
        <ele>9.8000001907349</ele>
        <time>2020-08-23T09:14:20.000Z</time>
      </trkpt>
      <trkpt lat="47.26956" lon="-2.2352">
        <ele>10.199999809265</ele>
        <time>2020-08-23T09:14:21.000Z</time>
      </trkpt>
      <trkpt lat="47.26957" lon="-2.23527">
        <ele>10.800000190735</ele>
        <time>2020-08-23T09:14:22.000Z</time>
      </trkpt>
      <trkpt lat="47.26959" lon="-2.23536">
        <ele>11.199999809265</ele>
        <time>2020-08-23T09:14:23.000Z</time>
      </trkpt>
      <trkpt lat="47.2696" lon="-2.23544">
        <ele>11.199999809265</ele>
        <time>2020-08-23T09:14:24.000Z</time>
      </trkpt>
      <trkpt lat="47.26961" lon="-2.23552">
        <ele>11.199999809265</ele>
        <time>2020-08-23T09:14:25.000Z</time>
      </trkpt>
      <trkpt lat="47.26967" lon="-2.23591">
        <ele>11.199999809265</ele>
        <time>2020-08-23T09:14:30.000Z</time>
      </trkpt>
      <trkpt lat="47.26968" lon="-2.23599">
        <ele>11.60000038147</ele>
        <time>2020-08-23T09:14:31.000Z</time>
      </trkpt>
      <trkpt lat="47.26969" lon="-2.23607">
        <ele>12</ele>
        <time>2020-08-23T09:14:32.000Z</time>
      </trkpt>
      <trkpt lat="47.2697" lon="-2.23615">
        <ele>12.39999961853</ele>
        <time>2020-08-23T09:14:33.000Z</time>
      </trkpt>
      <trkpt lat="47.26971" lon="-2.23623">
        <ele>12.800000190735</ele>
        <time>2020-08-23T09:14:34.000Z</time>
      </trkpt>
      <trkpt lat="47.26971" lon="-2.23631">
        <ele>13.199999809265</ele>
        <time>2020-08-23T09:14:35.000Z</time>
      </trkpt>
      <trkpt lat="47.26972" lon="-2.23638">
        <ele>13.199999809265</ele>
        <time>2020-08-23T09:14:36.000Z</time>
      </trkpt>
      <trkpt lat="47.26977" lon="-2.23681">
        <ele>13.800000190735</ele>
        <time>2020-08-23T09:14:42.000Z</time>
      </trkpt>
      <trkpt lat="47.26978" lon="-2.23688">
        <ele>14.199999809265</ele>
        <time>2020-08-23T09:14:43.000Z</time>
      </trkpt>
      <trkpt lat="47.26978" lon="-2.23695">
        <ele>14.60000038147</ele>
        <time>2020-08-23T09:14:44.000Z</time>
      </trkpt>
      <trkpt lat="47.26979" lon="-2.23701">
        <ele>15</ele>
        <time>2020-08-23T09:14:45.000Z</time>
      </trkpt>
      <trkpt lat="47.26979" lon="-2.23706">
        <ele>15.39999961853</ele>
        <time>2020-08-23T09:14:46.000Z</time>
      </trkpt>
      <trkpt lat="47.26981" lon="-2.23711">
        <ele>15.39999961853</ele>
        <time>2020-08-23T09:14:47.000Z</time>
      </trkpt>
      <trkpt lat="47.26987" lon="-2.23713">
        <ele>15.39999961853</ele>
        <time>2020-08-23T09:14:49.000Z</time>
      </trkpt>
      <trkpt lat="47.26993" lon="-2.23707">
        <ele>15.39999961853</ele>
        <time>2020-08-23T09:14:51.000Z</time>
      </trkpt>
      <trkpt lat="47.27001" lon="-2.237">
        <ele>15.39999961853</ele>
        <time>2020-08-23T09:14:53.000Z</time>
      </trkpt>
      <trkpt lat="47.27032" lon="-2.2368">
        <ele>15.39999961853</ele>
        <time>2020-08-23T09:14:59.000Z</time>
      </trkpt>
      <trkpt lat="47.27066" lon="-2.23661">
        <ele>15.39999961853</ele>
        <time>2020-08-23T09:15:06.000Z</time>
      </trkpt>
      <trkpt lat="47.2707" lon="-2.2366">
        <ele>15.39999961853</ele>
        <time>2020-08-23T09:15:07.000Z</time>
      </trkpt>
      <trkpt lat="47.27084" lon="-2.23667">
        <ele>15.39999961853</ele>
        <time>2020-08-23T09:15:10.000Z</time>
      </trkpt>
      <trkpt lat="47.27092" lon="-2.23688">
        <ele>15.39999961853</ele>
        <time>2020-08-23T09:15:13.000Z</time>
      </trkpt>
      <trkpt lat="47.27095" lon="-2.23695">
        <ele>15.800000190735</ele>
        <time>2020-08-23T09:15:14.000Z</time>
      </trkpt>
      <trkpt lat="47.27098" lon="-2.23702">
        <ele>16.200000762939</ele>
        <time>2020-08-23T09:15:15.000Z</time>
      </trkpt>
      <trkpt lat="47.27101" lon="-2.23709">
        <ele>16.799999237061</ele>
        <time>2020-08-23T09:15:16.000Z</time>
      </trkpt>
      <trkpt lat="47.27103" lon="-2.23715">
        <ele>17.200000762939</ele>
        <time>2020-08-23T09:15:17.000Z</time>
      </trkpt>
      <trkpt lat="47.27106" lon="-2.23721">
        <ele>17.60000038147</ele>
        <time>2020-08-23T09:15:18.000Z</time>
      </trkpt>
      <trkpt lat="47.2711" lon="-2.23732">
        <ele>17.60000038147</ele>
        <time>2020-08-23T09:15:20.000Z</time>
      </trkpt>
      <trkpt lat="47.27122" lon="-2.23733">
        <ele>17.60000038147</ele>
        <time>2020-08-23T09:15:23.000Z</time>
      </trkpt>
      <trkpt lat="47.2713" lon="-2.23725">
        <ele>17.60000038147</ele>
        <time>2020-08-23T09:15:25.000Z</time>
      </trkpt>
      <trkpt lat="47.27145" lon="-2.23712">
        <ele>17.60000038147</ele>
        <time>2020-08-23T09:15:28.000Z</time>
      </trkpt>
      <trkpt lat="47.27178" lon="-2.23684">
        <ele>17.200000762939</ele>
        <time>2020-08-23T09:15:34.000Z</time>
      </trkpt>
      <trkpt lat="47.27184" lon="-2.23679">
        <ele>16.799999237061</ele>
        <time>2020-08-23T09:15:35.000Z</time>
      </trkpt>
      <trkpt lat="47.27189" lon="-2.23674">
        <ele>16.39999961853</ele>
        <time>2020-08-23T09:15:36.000Z</time>
      </trkpt>
      <trkpt lat="47.27195" lon="-2.23669">
        <ele>16</ele>
        <time>2020-08-23T09:15:37.000Z</time>
      </trkpt>
      <trkpt lat="47.27201" lon="-2.23663">
        <ele>15.60000038147</ele>
        <time>2020-08-23T09:15:38.000Z</time>
      </trkpt>
      <trkpt lat="47.27222" lon="-2.23644">
        <ele>15.199999809265</ele>
        <time>2020-08-23T09:15:42.000Z</time>
      </trkpt>
      <trkpt lat="47.27227" lon="-2.23642">
        <ele>14.60000038147</ele>
        <time>2020-08-23T09:15:43.000Z</time>
      </trkpt>
      <trkpt lat="47.27232" lon="-2.23642">
        <ele>14.199999809265</ele>
        <time>2020-08-23T09:15:44.000Z</time>
      </trkpt>
      <trkpt lat="47.27236" lon="-2.23645">
        <ele>13.800000190735</ele>
        <time>2020-08-23T09:15:45.000Z</time>
      </trkpt>
      <trkpt lat="47.2724" lon="-2.23651">
        <ele>13.39999961853</ele>
        <time>2020-08-23T09:15:46.000Z</time>
      </trkpt>
      <trkpt lat="47.27244" lon="-2.23662">
        <ele>13.39999961853</ele>
        <time>2020-08-23T09:15:48.000Z</time>
      </trkpt>
      <trkpt lat="47.27247" lon="-2.23668">
        <ele>13.39999961853</ele>
        <time>2020-08-23T09:15:49.000Z</time>
      </trkpt>
      <trkpt lat="47.27256" lon="-2.23693">
        <ele>13.39999961853</ele>
        <time>2020-08-23T09:15:54.000Z</time>
      </trkpt>
      <trkpt lat="47.27257" lon="-2.23697">
        <ele>13</ele>
        <time>2020-08-23T09:15:55.000Z</time>
      </trkpt>
      <trkpt lat="47.27259" lon="-2.237">
        <ele>12.60000038147</ele>
        <time>2020-08-23T09:15:56.000Z</time>
      </trkpt>
      <trkpt lat="47.2726" lon="-2.23704">
        <ele>12.199999809265</ele>
        <time>2020-08-23T09:15:57.000Z</time>
      </trkpt>
      <trkpt lat="47.27261" lon="-2.23708">
        <ele>11.800000190735</ele>
        <time>2020-08-23T09:15:58.000Z</time>
      </trkpt>
      <trkpt lat="47.27262" lon="-2.23713">
        <ele>11.39999961853</ele>
        <time>2020-08-23T09:15:59.000Z</time>
      </trkpt>
      <trkpt lat="47.27263" lon="-2.23718">
        <ele>11.39999961853</ele>
        <time>2020-08-23T09:16:00.000Z</time>
      </trkpt>
      <trkpt lat="47.27265" lon="-2.23748">
        <ele>11.39999961853</ele>
        <time>2020-08-23T09:16:05.000Z</time>
      </trkpt>
      <trkpt lat="47.27271" lon="-2.23796">
        <ele>11.39999961853</ele>
        <time>2020-08-23T09:16:12.000Z</time>
      </trkpt>
      <trkpt lat="47.27272" lon="-2.23802">
        <ele>11.39999961853</ele>
        <time>2020-08-23T09:16:13.000Z</time>
      </trkpt>
      <trkpt lat="47.27275" lon="-2.23836">
        <ele>11.39999961853</ele>
        <time>2020-08-23T09:16:18.000Z</time>
      </trkpt>
      <trkpt lat="47.27276" lon="-2.23847">
        <ele>11.800000190735</ele>
        <time>2020-08-23T09:16:20.000Z</time>
      </trkpt>
      <trkpt lat="47.27277" lon="-2.23853">
        <ele>12.199999809265</ele>
        <time>2020-08-23T09:16:21.000Z</time>
      </trkpt>
      <trkpt lat="47.27278" lon="-2.23859">
        <ele>12.60000038147</ele>
        <time>2020-08-23T09:16:22.000Z</time>
      </trkpt>
      <trkpt lat="47.27279" lon="-2.23864">
        <ele>13</ele>
        <time>2020-08-23T09:16:23.000Z</time>
      </trkpt>
      <trkpt lat="47.27279" lon="-2.2387">
        <ele>13.39999961853</ele>
        <time>2020-08-23T09:16:24.000Z</time>
      </trkpt>
      <trkpt lat="47.2728" lon="-2.23883">
        <ele>13.39999961853</ele>
        <time>2020-08-23T09:16:26.000Z</time>
      </trkpt>
      <trkpt lat="47.27282" lon="-2.23909">
        <ele>13.39999961853</ele>
        <time>2020-08-23T09:16:30.000Z</time>
      </trkpt>
      <trkpt lat="47.27289" lon="-2.23961">
        <ele>13.39999961853</ele>
        <time>2020-08-23T09:16:37.000Z</time>
      </trkpt>
      <trkpt lat="47.27289" lon="-2.23969">
        <ele>13.39999961853</ele>
        <time>2020-08-23T09:16:38.000Z</time>
      </trkpt>
      <trkpt lat="47.27291" lon="-2.23976">
        <ele>13.39999961853</ele>
        <time>2020-08-23T09:16:39.000Z</time>
      </trkpt>
      <trkpt lat="47.27298" lon="-2.23984">
        <ele>13.39999961853</ele>
        <time>2020-08-23T09:16:41.000Z</time>
      </trkpt>
      <trkpt lat="47.2731" lon="-2.23993">
        <ele>13.39999961853</ele>
        <time>2020-08-23T09:16:44.000Z</time>
      </trkpt>
      <trkpt lat="47.27312" lon="-2.24011">
        <ele>13.39999961853</ele>
        <time>2020-08-23T09:16:47.000Z</time>
      </trkpt>
      <trkpt lat="47.27313" lon="-2.24024">
        <ele>13.39999961853</ele>
        <time>2020-08-23T09:16:49.000Z</time>
      </trkpt>
      <trkpt lat="47.27316" lon="-2.24041">
        <ele>13.39999961853</ele>
        <time>2020-08-23T09:16:52.000Z</time>
      </trkpt>
      <trkpt lat="47.27318" lon="-2.24046">
        <ele>13.39999961853</ele>
        <time>2020-08-23T09:16:53.000Z</time>
      </trkpt>
      <trkpt lat="47.27325" lon="-2.24051">
        <ele>13.39999961853</ele>
        <time>2020-08-23T09:16:55.000Z</time>
      </trkpt>
      <trkpt lat="47.27335" lon="-2.2405">
        <ele>13.39999961853</ele>
        <time>2020-08-23T09:16:57.000Z</time>
      </trkpt>
      <trkpt lat="47.27351" lon="-2.24049">
        <ele>13.39999961853</ele>
        <time>2020-08-23T09:17:00.000Z</time>
      </trkpt>
      <trkpt lat="47.27358" lon="-2.24049">
        <ele>13.39999961853</ele>
        <time>2020-08-23T09:17:01.000Z</time>
      </trkpt>
      <trkpt lat="47.27369" lon="-2.24054">
        <ele>13.39999961853</ele>
        <time>2020-08-23T09:17:03.000Z</time>
      </trkpt>
      <trkpt lat="47.27395" lon="-2.2408">
        <ele>13.39999961853</ele>
        <time>2020-08-23T09:17:08.000Z</time>
      </trkpt>
      <trkpt lat="47.27403" lon="-2.24087">
        <ele>13.39999961853</ele>
        <time>2020-08-23T09:17:10.000Z</time>
      </trkpt>
      <trkpt lat="47.27418" lon="-2.24096">
        <ele>13.39999961853</ele>
        <time>2020-08-23T09:17:13.000Z</time>
      </trkpt>
      <trkpt lat="47.2743" lon="-2.24109">
        <ele>13.39999961853</ele>
        <time>2020-08-23T09:17:16.000Z</time>
      </trkpt>
      <trkpt lat="47.27432" lon="-2.24115">
        <ele>13.39999961853</ele>
        <time>2020-08-23T09:17:17.000Z</time>
      </trkpt>
      <trkpt lat="47.27441" lon="-2.24141">
        <ele>13.39999961853</ele>
        <time>2020-08-23T09:17:21.000Z</time>
      </trkpt>
      <trkpt lat="47.27443" lon="-2.24148">
        <ele>13.39999961853</ele>
        <time>2020-08-23T09:17:22.000Z</time>
      </trkpt>
      <trkpt lat="47.27455" lon="-2.24187">
        <ele>13.39999961853</ele>
        <time>2020-08-23T09:17:27.000Z</time>
      </trkpt>
      <trkpt lat="47.2747" lon="-2.24229">
        <ele>13.39999961853</ele>
        <time>2020-08-23T09:17:33.000Z</time>
      </trkpt>
      <trkpt lat="47.27476" lon="-2.24264">
        <ele>13.39999961853</ele>
        <time>2020-08-23T09:17:37.000Z</time>
      </trkpt>
      <trkpt lat="47.27477" lon="-2.24293">
        <ele>13.39999961853</ele>
        <time>2020-08-23T09:17:41.000Z</time>
      </trkpt>
      <trkpt lat="47.27466" lon="-2.24306">
        <ele>13.39999961853</ele>
        <time>2020-08-23T09:17:44.000Z</time>
      </trkpt>
      <trkpt lat="47.27451" lon="-2.24315">
        <ele>13.39999961853</ele>
        <time>2020-08-23T09:17:47.000Z</time>
      </trkpt>
      <trkpt lat="47.27447" lon="-2.2432">
        <ele>13.39999961853</ele>
        <time>2020-08-23T09:17:48.000Z</time>
      </trkpt>
      <trkpt lat="47.27441" lon="-2.24342">
        <ele>13.39999961853</ele>
        <time>2020-08-23T09:17:51.000Z</time>
      </trkpt>
      <trkpt lat="47.2744" lon="-2.24356">
        <ele>13.39999961853</ele>
        <time>2020-08-23T09:17:53.000Z</time>
      </trkpt>
      <trkpt lat="47.27439" lon="-2.24376">
        <ele>13.39999961853</ele>
        <time>2020-08-23T09:17:56.000Z</time>
      </trkpt>
      <trkpt lat="47.27441" lon="-2.24414">
        <ele>13.39999961853</ele>
        <time>2020-08-23T09:18:02.000Z</time>
      </trkpt>
      <trkpt lat="47.27441" lon="-2.24426">
        <ele>13.39999961853</ele>
        <time>2020-08-23T09:18:04.000Z</time>
      </trkpt>
      <trkpt lat="47.27441" lon="-2.24461">
        <ele>13.39999961853</ele>
        <time>2020-08-23T09:18:09.000Z</time>
      </trkpt>
      <trkpt lat="47.2744" lon="-2.24516">
        <ele>13.39999961853</ele>
        <time>2020-08-23T09:18:16.000Z</time>
      </trkpt>
      <trkpt lat="47.27439" lon="-2.24554">
        <ele>14</ele>
        <time>2020-08-23T09:18:21.000Z</time>
      </trkpt>
      <trkpt lat="47.27438" lon="-2.24562">
        <ele>14.39999961853</ele>
        <time>2020-08-23T09:18:22.000Z</time>
      </trkpt>
      <trkpt lat="47.27437" lon="-2.2457">
        <ele>14.800000190735</ele>
        <time>2020-08-23T09:18:23.000Z</time>
      </trkpt>
      <trkpt lat="47.27436" lon="-2.24578">
        <ele>15.199999809265</ele>
        <time>2020-08-23T09:18:24.000Z</time>
      </trkpt>
      <trkpt lat="47.27436" lon="-2.24586">
        <ele>15.60000038147</ele>
        <time>2020-08-23T09:18:25.000Z</time>
      </trkpt>
      <trkpt lat="47.27432" lon="-2.2461">
        <ele>15.60000038147</ele>
        <time>2020-08-23T09:18:28.000Z</time>
      </trkpt>
      <trkpt lat="47.27432" lon="-2.24627">
        <ele>15.60000038147</ele>
        <time>2020-08-23T09:18:30.000Z</time>
      </trkpt>
      <trkpt lat="47.27433" lon="-2.24635">
        <ele>15.60000038147</ele>
        <time>2020-08-23T09:18:31.000Z</time>
      </trkpt>
      <trkpt lat="47.27437" lon="-2.24658">
        <ele>15.60000038147</ele>
        <time>2020-08-23T09:18:34.000Z</time>
      </trkpt>
      <trkpt lat="47.27438" lon="-2.24667">
        <ele>15.60000038147</ele>
        <time>2020-08-23T09:18:35.000Z</time>
      </trkpt>
      <trkpt lat="47.2744" lon="-2.24716">
        <ele>15.60000038147</ele>
        <time>2020-08-23T09:18:40.000Z</time>
      </trkpt>
      <trkpt lat="47.2744" lon="-2.2477">
        <ele>15.60000038147</ele>
        <time>2020-08-23T09:18:46.000Z</time>
      </trkpt>
      <trkpt lat="47.27438" lon="-2.24786">
        <ele>15.60000038147</ele>
        <time>2020-08-23T09:18:48.000Z</time>
      </trkpt>
      <trkpt lat="47.27432" lon="-2.24809">
        <ele>15.60000038147</ele>
        <time>2020-08-23T09:18:51.000Z</time>
      </trkpt>
      <trkpt lat="47.27424" lon="-2.24831">
        <ele>15.60000038147</ele>
        <time>2020-08-23T09:18:54.000Z</time>
      </trkpt>
      <trkpt lat="47.27419" lon="-2.24842">
        <ele>15.60000038147</ele>
        <time>2020-08-23T09:18:56.000Z</time>
      </trkpt>
      <trkpt lat="47.27417" lon="-2.24848">
        <ele>15.199999809265</ele>
        <time>2020-08-23T09:18:57.000Z</time>
      </trkpt>
      <trkpt lat="47.27414" lon="-2.24853">
        <ele>14.800000190735</ele>
        <time>2020-08-23T09:18:58.000Z</time>
      </trkpt>
      <trkpt lat="47.27412" lon="-2.24858">
        <ele>14.39999961853</ele>
        <time>2020-08-23T09:18:59.000Z</time>
      </trkpt>
      <trkpt lat="47.27405" lon="-2.2488">
        <ele>13.60000038147</ele>
        <time>2020-08-23T09:19:04.000Z</time>
      </trkpt>
      <trkpt lat="47.27397" lon="-2.24891">
        <ele>13.60000038147</ele>
        <time>2020-08-23T09:19:07.000Z</time>
      </trkpt>
      <trkpt lat="47.27391" lon="-2.249">
        <ele>13.60000038147</ele>
        <time>2020-08-23T09:19:09.000Z</time>
      </trkpt>
      <trkpt lat="47.2738" lon="-2.24917">
        <ele>13.60000038147</ele>
        <time>2020-08-23T09:19:12.000Z</time>
      </trkpt>
      <trkpt lat="47.27374" lon="-2.24928">
        <ele>13.60000038147</ele>
        <time>2020-08-23T09:19:14.000Z</time>
      </trkpt>
      <trkpt lat="47.27364" lon="-2.24944">
        <ele>13.60000038147</ele>
        <time>2020-08-23T09:19:17.000Z</time>
      </trkpt>
      <trkpt lat="47.27339" lon="-2.24977">
        <ele>13.60000038147</ele>
        <time>2020-08-23T09:19:23.000Z</time>
      </trkpt>
      <trkpt lat="47.27336" lon="-2.24984">
        <ele>13.60000038147</ele>
        <time>2020-08-23T09:19:24.000Z</time>
      </trkpt>
      <trkpt lat="47.27331" lon="-2.24999">
        <ele>13.60000038147</ele>
        <time>2020-08-23T09:19:27.000Z</time>
      </trkpt>
      <trkpt lat="47.2733" lon="-2.25004">
        <ele>13.60000038147</ele>
        <time>2020-08-23T09:19:28.000Z</time>
      </trkpt>
      <trkpt lat="47.27331" lon="-2.25009">
        <ele>13.60000038147</ele>
        <time>2020-08-23T09:19:29.000Z</time>
      </trkpt>
      <trkpt lat="47.27334" lon="-2.25018">
        <ele>13.60000038147</ele>
        <time>2020-08-23T09:19:31.000Z</time>
      </trkpt>
      <trkpt lat="47.27337" lon="-2.25031">
        <ele>13.60000038147</ele>
        <time>2020-08-23T09:19:33.000Z</time>
      </trkpt>
      <trkpt lat="47.27343" lon="-2.25057">
        <ele>13.60000038147</ele>
        <time>2020-08-23T09:19:37.000Z</time>
      </trkpt>
      <trkpt lat="47.27356" lon="-2.25096">
        <ele>13.60000038147</ele>
        <time>2020-08-23T09:19:43.000Z</time>
      </trkpt>
      <trkpt lat="47.27359" lon="-2.25103">
        <ele>13.60000038147</ele>
        <time>2020-08-23T09:19:44.000Z</time>
      </trkpt>
      <trkpt lat="47.27369" lon="-2.25126">
        <ele>13.60000038147</ele>
        <time>2020-08-23T09:19:48.000Z</time>
      </trkpt>
      <trkpt lat="47.27373" lon="-2.25135">
        <ele>13.60000038147</ele>
        <time>2020-08-23T09:19:50.000Z</time>
      </trkpt>
      <trkpt lat="47.27382" lon="-2.2516">
        <ele>13.60000038147</ele>
        <time>2020-08-23T09:19:55.000Z</time>
      </trkpt>
      <trkpt lat="47.27386" lon="-2.2518">
        <ele>13.60000038147</ele>
        <time>2020-08-23T09:19:59.000Z</time>
      </trkpt>
      <trkpt lat="47.27383" lon="-2.252">
        <ele>13.60000038147</ele>
        <time>2020-08-23T09:20:03.000Z</time>
      </trkpt>
      <trkpt lat="47.27384" lon="-2.25228">
        <ele>13.60000038147</ele>
        <time>2020-08-23T09:20:08.000Z</time>
      </trkpt>
      <trkpt lat="47.27391" lon="-2.25247">
        <ele>13.60000038147</ele>
        <time>2020-08-23T09:20:12.000Z</time>
      </trkpt>
      <trkpt lat="47.27403" lon="-2.2527">
        <ele>13.60000038147</ele>
        <time>2020-08-23T09:20:17.000Z</time>
      </trkpt>
      <trkpt lat="47.27409" lon="-2.25284">
        <ele>13.60000038147</ele>
        <time>2020-08-23T09:20:20.000Z</time>
      </trkpt>
      <trkpt lat="47.27412" lon="-2.25286">
        <ele>13.60000038147</ele>
        <time>2020-08-23T09:20:21.000Z</time>
      </trkpt>
      <trkpt lat="47.27418" lon="-2.25299">
        <ele>13.60000038147</ele>
        <time>2020-08-23T09:20:25.000Z</time>
      </trkpt>
      <trkpt lat="47.27422" lon="-2.25312">
        <ele>13.60000038147</ele>
        <time>2020-08-23T09:20:30.000Z</time>
      </trkpt>
      <trkpt lat="47.27423" lon="-2.25312">
        <ele>13.60000038147</ele>
        <time>2020-08-23T09:20:31.000Z</time>
      </trkpt>
      <trkpt lat="47.27427" lon="-2.25315">
        <ele>13.60000038147</ele>
        <time>2020-08-23T09:20:34.000Z</time>
      </trkpt>
      <trkpt lat="47.27433" lon="-2.25337">
        <ele>13.60000038147</ele>
        <time>2020-08-23T09:20:40.000Z</time>
      </trkpt>
      <trkpt lat="47.27434" lon="-2.2535">
        <ele>13.60000038147</ele>
        <time>2020-08-23T09:20:46.000Z</time>
      </trkpt>
      <trkpt lat="47.27437" lon="-2.25355">
        <ele>13.60000038147</ele>
        <time>2020-08-23T09:20:51.000Z</time>
      </trkpt>
      <trkpt lat="47.27437" lon="-2.25363">
        <ele>13.60000038147</ele>
        <time>2020-08-23T09:20:56.000Z</time>
      </trkpt>
      <trkpt lat="47.27434" lon="-2.25363">
        <ele>13.60000038147</ele>
        <time>2020-08-23T09:20:59.000Z</time>
      </trkpt>
      <trkpt lat="47.27431" lon="-2.25363">
        <ele>13.60000038147</ele>
        <time>2020-08-23T09:21:02.000Z</time>
      </trkpt>
      <trkpt lat="47.27426" lon="-2.25347">
        <ele>13.60000038147</ele>
        <time>2020-08-23T09:21:08.000Z</time>
      </trkpt>
      <trkpt lat="47.27421" lon="-2.25322">
        <ele>13.60000038147</ele>
        <time>2020-08-23T09:21:13.000Z</time>
      </trkpt>
      <trkpt lat="47.27418" lon="-2.25313">
        <ele>13.60000038147</ele>
        <time>2020-08-23T09:21:15.000Z</time>
      </trkpt>
      <trkpt lat="47.27415" lon="-2.25311">
        <ele>13.60000038147</ele>
        <time>2020-08-23T09:21:17.000Z</time>
      </trkpt>
      <trkpt lat="47.27414" lon="-2.25315">
        <ele>13.60000038147</ele>
        <time>2020-08-23T09:21:19.000Z</time>
      </trkpt>
      <trkpt lat="47.27414" lon="-2.25322">
        <ele>13.60000038147</ele>
        <time>2020-08-23T09:21:21.000Z</time>
      </trkpt>
      <trkpt lat="47.27413" lon="-2.25343">
        <ele>13.60000038147</ele>
        <time>2020-08-23T09:21:27.000Z</time>
      </trkpt>
      <trkpt lat="47.27418" lon="-2.25356">
        <ele>13.60000038147</ele>
        <time>2020-08-23T09:21:31.000Z</time>
      </trkpt>
      <trkpt lat="47.27423" lon="-2.25374">
        <ele>13.60000038147</ele>
        <time>2020-08-23T09:21:36.000Z</time>
      </trkpt>
      <trkpt lat="47.27421" lon="-2.25378">
        <ele>13.60000038147</ele>
        <time>2020-08-23T09:21:40.000Z</time>
      </trkpt>
      <trkpt lat="47.2742" lon="-2.25377">
        <ele>13.60000038147</ele>
        <time>2020-08-23T09:21:41.000Z</time>
      </trkpt>
      <trkpt lat="47.27414" lon="-2.25369">
        <ele>13.60000038147</ele>
        <time>2020-08-23T09:21:45.000Z</time>
      </trkpt>
      <trkpt lat="47.27409" lon="-2.25355">
        <ele>13.60000038147</ele>
        <time>2020-08-23T09:21:50.000Z</time>
      </trkpt>
      <trkpt lat="47.27405" lon="-2.25358">
        <ele>13.60000038147</ele>
        <time>2020-08-23T09:21:53.000Z</time>
      </trkpt>
      <trkpt lat="47.27405" lon="-2.25371">
        <ele>14</ele>
        <time>2020-08-23T09:21:57.000Z</time>
      </trkpt>
      <trkpt lat="47.27406" lon="-2.25375">
        <ele>14.39999961853</ele>
        <time>2020-08-23T09:21:58.000Z</time>
      </trkpt>
      <trkpt lat="47.27408" lon="-2.25379">
        <ele>14.800000190735</ele>
        <time>2020-08-23T09:21:59.000Z</time>
      </trkpt>
      <trkpt lat="47.27411" lon="-2.25383">
        <ele>15.39999961853</ele>
        <time>2020-08-23T09:22:00.000Z</time>
      </trkpt>
      <trkpt lat="47.27413" lon="-2.25387">
        <ele>15.800000190735</ele>
        <time>2020-08-23T09:22:01.000Z</time>
      </trkpt>
      <trkpt lat="47.27419" lon="-2.25399">
        <ele>15.800000190735</ele>
        <time>2020-08-23T09:22:04.000Z</time>
      </trkpt>
      <trkpt lat="47.27429" lon="-2.25416">
        <ele>15.800000190735</ele>
        <time>2020-08-23T09:22:08.000Z</time>
      </trkpt>
      <trkpt lat="47.27444" lon="-2.25436">
        <ele>15.800000190735</ele>
        <time>2020-08-23T09:22:12.000Z</time>
      </trkpt>
      <trkpt lat="47.2745" lon="-2.25439">
        <ele>15.800000190735</ele>
        <time>2020-08-23T09:22:13.000Z</time>
      </trkpt>
      <trkpt lat="47.27466" lon="-2.25445">
        <ele>15.800000190735</ele>
        <time>2020-08-23T09:22:16.000Z</time>
      </trkpt>
      <trkpt lat="47.27472" lon="-2.25444">
        <ele>15.800000190735</ele>
        <time>2020-08-23T09:22:17.000Z</time>
      </trkpt>
      <trkpt lat="47.27493" lon="-2.25442">
        <ele>15.800000190735</ele>
        <time>2020-08-23T09:22:21.000Z</time>
      </trkpt>
      <trkpt lat="47.27497" lon="-2.25444">
        <ele>15.800000190735</ele>
        <time>2020-08-23T09:22:22.000Z</time>
      </trkpt>
      <trkpt lat="47.27515" lon="-2.25464">
        <ele>15.800000190735</ele>
        <time>2020-08-23T09:22:27.000Z</time>
      </trkpt>
      <trkpt lat="47.27527" lon="-2.25481">
        <ele>15.800000190735</ele>
        <time>2020-08-23T09:22:30.000Z</time>
      </trkpt>
      <trkpt lat="47.27532" lon="-2.25494">
        <ele>15.800000190735</ele>
        <time>2020-08-23T09:22:32.000Z</time>
      </trkpt>
      <trkpt lat="47.27536" lon="-2.25501">
        <ele>15.800000190735</ele>
        <time>2020-08-23T09:22:33.000Z</time>
      </trkpt>
      <trkpt lat="47.27542" lon="-2.25514">
        <ele>15.800000190735</ele>
        <time>2020-08-23T09:22:35.000Z</time>
      </trkpt>
      <trkpt lat="47.27546" lon="-2.25529">
        <ele>15.800000190735</ele>
        <time>2020-08-23T09:22:37.000Z</time>
      </trkpt>
      <trkpt lat="47.27558" lon="-2.25573">
        <ele>15.800000190735</ele>
        <time>2020-08-23T09:22:43.000Z</time>
      </trkpt>
      <trkpt lat="47.2756" lon="-2.25602">
        <ele>15.800000190735</ele>
        <time>2020-08-23T09:22:47.000Z</time>
      </trkpt>
      <trkpt lat="47.27559" lon="-2.25615">
        <ele>15.800000190735</ele>
        <time>2020-08-23T09:22:49.000Z</time>
      </trkpt>
      <trkpt lat="47.27562" lon="-2.25634">
        <ele>15.800000190735</ele>
        <time>2020-08-23T09:22:53.000Z</time>
      </trkpt>
      <trkpt lat="47.27564" lon="-2.25638">
        <ele>15.800000190735</ele>
        <time>2020-08-23T09:22:54.000Z</time>
      </trkpt>
      <trkpt lat="47.27571" lon="-2.25641">
        <ele>15.800000190735</ele>
        <time>2020-08-23T09:22:57.000Z</time>
      </trkpt>
      <trkpt lat="47.27573" lon="-2.25638">
        <ele>15.800000190735</ele>
        <time>2020-08-23T09:23:00.000Z</time>
      </trkpt>
      <trkpt lat="47.27574" lon="-2.25637">
        <ele>15.800000190735</ele>
        <time>2020-08-23T09:23:01.000Z</time>
      </trkpt>
      <trkpt lat="47.27575" lon="-2.25634">
        <ele>15.800000190735</ele>
        <time>2020-08-23T09:23:03.000Z</time>
      </trkpt>
      <trkpt lat="47.27577" lon="-2.25623">
        <ele>15.800000190735</ele>
        <time>2020-08-23T09:23:08.000Z</time>
      </trkpt>
      <trkpt lat="47.27579" lon="-2.25621">
        <ele>15.800000190735</ele>
        <time>2020-08-23T09:23:09.000Z</time>
      </trkpt>
      <trkpt lat="47.27586" lon="-2.25619">
        <ele>15.800000190735</ele>
        <time>2020-08-23T09:23:13.000Z</time>
      </trkpt>
      <trkpt lat="47.27589" lon="-2.2562">
        <ele>15.800000190735</ele>
        <time>2020-08-23T09:23:14.000Z</time>
      </trkpt>
      <trkpt lat="47.27598" lon="-2.25631">
        <ele>15.800000190735</ele>
        <time>2020-08-23T09:23:18.000Z</time>
      </trkpt>
      <trkpt lat="47.27611" lon="-2.25645">
        <ele>15.800000190735</ele>
        <time>2020-08-23T09:23:22.000Z</time>
      </trkpt>
      <trkpt lat="47.27622" lon="-2.2565">
        <ele>15.800000190735</ele>
        <time>2020-08-23T09:23:25.000Z</time>
      </trkpt>
      <trkpt lat="47.27631" lon="-2.25656">
        <ele>15.800000190735</ele>
        <time>2020-08-23T09:23:27.000Z</time>
      </trkpt>
      <trkpt lat="47.27639" lon="-2.25669">
        <ele>15.800000190735</ele>
        <time>2020-08-23T09:23:31.000Z</time>
      </trkpt>
      <trkpt lat="47.2764" lon="-2.25671">
        <ele>15.39999961853</ele>
        <time>2020-08-23T09:23:32.000Z</time>
      </trkpt>
      <trkpt lat="47.2764" lon="-2.25673">
        <ele>14.800000190735</ele>
        <time>2020-08-23T09:23:33.000Z</time>
      </trkpt>
      <trkpt lat="47.27639" lon="-2.25675">
        <ele>14.39999961853</ele>
        <time>2020-08-23T09:23:34.000Z</time>
      </trkpt>
      <trkpt lat="47.27639" lon="-2.25676">
        <ele>14</ele>
        <time>2020-08-23T09:23:35.000Z</time>
      </trkpt>
      <trkpt lat="47.27639" lon="-2.25678">
        <ele>13.60000038147</ele>
        <time>2020-08-23T09:23:36.000Z</time>
      </trkpt>
      <trkpt lat="47.27642" lon="-2.2569">
        <ele>13.60000038147</ele>
        <time>2020-08-23T09:23:39.000Z</time>
      </trkpt>
      <trkpt lat="47.27645" lon="-2.25701">
        <ele>13.60000038147</ele>
        <time>2020-08-23T09:23:41.000Z</time>
      </trkpt>
      <trkpt lat="47.27647" lon="-2.25719">
        <ele>13.60000038147</ele>
        <time>2020-08-23T09:23:45.000Z</time>
      </trkpt>
      <trkpt lat="47.27648" lon="-2.25725">
        <ele>13.60000038147</ele>
        <time>2020-08-23T09:23:47.000Z</time>
      </trkpt>
      <trkpt lat="47.27649" lon="-2.2573">
        <ele>13.60000038147</ele>
        <time>2020-08-23T09:23:49.000Z</time>
      </trkpt>
      <trkpt lat="47.27652" lon="-2.25741">
        <ele>13.60000038147</ele>
        <time>2020-08-23T09:23:53.000Z</time>
      </trkpt>
      <trkpt lat="47.27653" lon="-2.25752">
        <ele>13.60000038147</ele>
        <time>2020-08-23T09:23:57.000Z</time>
      </trkpt>
      <trkpt lat="47.27654" lon="-2.25755">
        <ele>13.60000038147</ele>
        <time>2020-08-23T09:23:58.000Z</time>
      </trkpt>
      <trkpt lat="47.27657" lon="-2.25765">
        <ele>13.60000038147</ele>
        <time>2020-08-23T09:24:02.000Z</time>
      </trkpt>
      <trkpt lat="47.27657" lon="-2.25768">
        <ele>13.60000038147</ele>
        <time>2020-08-23T09:24:03.000Z</time>
      </trkpt>
      <trkpt lat="47.2766" lon="-2.25773">
        <ele>13.60000038147</ele>
        <time>2020-08-23T09:24:06.000Z</time>
      </trkpt>
      <trkpt lat="47.27661" lon="-2.25775">
        <ele>13.60000038147</ele>
        <time>2020-08-23T09:24:07.000Z</time>
      </trkpt>
      <trkpt lat="47.27661" lon="-2.25786">
        <ele>13.60000038147</ele>
        <time>2020-08-23T09:24:11.000Z</time>
      </trkpt>
      <trkpt lat="47.27665" lon="-2.25795">
        <ele>13.60000038147</ele>
        <time>2020-08-23T09:24:15.000Z</time>
      </trkpt>
      <trkpt lat="47.27664" lon="-2.25798">
        <ele>13.60000038147</ele>
        <time>2020-08-23T09:24:16.000Z</time>
      </trkpt>
      <trkpt lat="47.27666" lon="-2.25809">
        <ele>13.60000038147</ele>
        <time>2020-08-23T09:24:20.000Z</time>
      </trkpt>
      <trkpt lat="47.27667" lon="-2.25812">
        <ele>13.60000038147</ele>
        <time>2020-08-23T09:24:21.000Z</time>
      </trkpt>
      <trkpt lat="47.27681" lon="-2.25824">
        <ele>13.60000038147</ele>
        <time>2020-08-23T09:24:25.000Z</time>
      </trkpt>
      <trkpt lat="47.27699" lon="-2.25835">
        <ele>13.60000038147</ele>
        <time>2020-08-23T09:24:29.000Z</time>
      </trkpt>
      <trkpt lat="47.27708" lon="-2.2584">
        <ele>13.60000038147</ele>
        <time>2020-08-23T09:24:31.000Z</time>
      </trkpt>
      <trkpt lat="47.27723" lon="-2.25845">
        <ele>13.60000038147</ele>
        <time>2020-08-23T09:24:34.000Z</time>
      </trkpt>
      <trkpt lat="47.27728" lon="-2.25845">
        <ele>13.60000038147</ele>
        <time>2020-08-23T09:24:35.000Z</time>
      </trkpt>
      <trkpt lat="47.27739" lon="-2.25847">
        <ele>13.60000038147</ele>
        <time>2020-08-23T09:24:37.000Z</time>
      </trkpt>
      <trkpt lat="47.27752" lon="-2.25869">
        <ele>13.60000038147</ele>
        <time>2020-08-23T09:24:40.000Z</time>
      </trkpt>
      <trkpt lat="47.27758" lon="-2.25885">
        <ele>13.60000038147</ele>
        <time>2020-08-23T09:24:42.000Z</time>
      </trkpt>
      <trkpt lat="47.27768" lon="-2.25907">
        <ele>13.60000038147</ele>
        <time>2020-08-23T09:24:45.000Z</time>
      </trkpt>
      <trkpt lat="47.27781" lon="-2.25933">
        <ele>13.60000038147</ele>
        <time>2020-08-23T09:24:49.000Z</time>
      </trkpt>
      <trkpt lat="47.27783" lon="-2.25941">
        <ele>13.60000038147</ele>
        <time>2020-08-23T09:24:50.000Z</time>
      </trkpt>
      <trkpt lat="47.27793" lon="-2.25975">
        <ele>13.60000038147</ele>
        <time>2020-08-23T09:24:56.000Z</time>
      </trkpt>
      <trkpt lat="47.27792" lon="-2.25981">
        <ele>13.60000038147</ele>
        <time>2020-08-23T09:24:58.000Z</time>
      </trkpt>
      <trkpt lat="47.2779" lon="-2.25985">
        <ele>13.60000038147</ele>
        <time>2020-08-23T09:25:00.000Z</time>
      </trkpt>
      <trkpt lat="47.27779" lon="-2.25993">
        <ele>13.60000038147</ele>
        <time>2020-08-23T09:25:06.000Z</time>
      </trkpt>
      <trkpt lat="47.27774" lon="-2.25995">
        <ele>13.60000038147</ele>
        <time>2020-08-23T09:25:09.000Z</time>
      </trkpt>
      <trkpt lat="47.27771" lon="-2.26">
        <ele>13.60000038147</ele>
        <time>2020-08-23T09:25:11.000Z</time>
      </trkpt>
      <trkpt lat="47.27768" lon="-2.26008">
        <ele>13.60000038147</ele>
        <time>2020-08-23T09:25:13.000Z</time>
      </trkpt>
      <trkpt lat="47.27764" lon="-2.26019">
        <ele>13.60000038147</ele>
        <time>2020-08-23T09:25:15.000Z</time>
      </trkpt>
      <trkpt lat="47.2775" lon="-2.26045">
        <ele>13.60000038147</ele>
        <time>2020-08-23T09:25:20.000Z</time>
      </trkpt>
      <trkpt lat="47.27738" lon="-2.26073">
        <ele>13.60000038147</ele>
        <time>2020-08-23T09:25:25.000Z</time>
      </trkpt>
      <trkpt lat="47.27735" lon="-2.26076">
        <ele>13.60000038147</ele>
        <time>2020-08-23T09:25:26.000Z</time>
      </trkpt>
      <trkpt lat="47.27727" lon="-2.26078">
        <ele>13.60000038147</ele>
        <time>2020-08-23T09:25:28.000Z</time>
      </trkpt>
      <trkpt lat="47.27718" lon="-2.26091">
        <ele>13.60000038147</ele>
        <time>2020-08-23T09:25:31.000Z</time>
      </trkpt>
      <trkpt lat="47.2771" lon="-2.26119">
        <ele>13.60000038147</ele>
        <time>2020-08-23T09:25:35.000Z</time>
      </trkpt>
      <trkpt lat="47.27708" lon="-2.26127">
        <ele>14</ele>
        <time>2020-08-23T09:25:36.000Z</time>
      </trkpt>
      <trkpt lat="47.27706" lon="-2.26133">
        <ele>14.39999961853</ele>
        <time>2020-08-23T09:25:37.000Z</time>
      </trkpt>
      <trkpt lat="47.27704" lon="-2.2614">
        <ele>14.800000190735</ele>
        <time>2020-08-23T09:25:38.000Z</time>
      </trkpt>
      <trkpt lat="47.27702" lon="-2.26147">
        <ele>15.199999809265</ele>
        <time>2020-08-23T09:25:39.000Z</time>
      </trkpt>
      <trkpt lat="47.277" lon="-2.26154">
        <ele>15.60000038147</ele>
        <time>2020-08-23T09:25:40.000Z</time>
      </trkpt>
      <trkpt lat="47.27697" lon="-2.26168">
        <ele>15.60000038147</ele>
        <time>2020-08-23T09:25:42.000Z</time>
      </trkpt>
      <trkpt lat="47.27692" lon="-2.26189">
        <ele>15.60000038147</ele>
        <time>2020-08-23T09:25:45.000Z</time>
      </trkpt>
      <trkpt lat="47.27684" lon="-2.26231">
        <ele>15.60000038147</ele>
        <time>2020-08-23T09:25:51.000Z</time>
      </trkpt>
      <trkpt lat="47.27675" lon="-2.26272">
        <ele>15.60000038147</ele>
        <time>2020-08-23T09:25:57.000Z</time>
      </trkpt>
      <trkpt lat="47.27669" lon="-2.26317">
        <ele>15.60000038147</ele>
        <time>2020-08-23T09:26:03.000Z</time>
      </trkpt>
      <trkpt lat="47.2767" lon="-2.26342">
        <ele>15.60000038147</ele>
        <time>2020-08-23T09:26:06.000Z</time>
      </trkpt>
      <trkpt lat="47.27672" lon="-2.26349">
        <ele>15.60000038147</ele>
        <time>2020-08-23T09:26:07.000Z</time>
      </trkpt>
      <trkpt lat="47.27687" lon="-2.26396">
        <ele>15.60000038147</ele>
        <time>2020-08-23T09:26:13.000Z</time>
      </trkpt>
      <trkpt lat="47.27705" lon="-2.26448">
        <ele>15.60000038147</ele>
        <time>2020-08-23T09:26:20.000Z</time>
      </trkpt>
      <trkpt lat="47.27725" lon="-2.26502">
        <ele>15.60000038147</ele>
        <time>2020-08-23T09:26:27.000Z</time>
      </trkpt>
      <trkpt lat="47.27737" lon="-2.26513">
        <ele>15.60000038147</ele>
        <time>2020-08-23T09:26:30.000Z</time>
      </trkpt>
      <trkpt lat="47.27754" lon="-2.26505">
        <ele>15.60000038147</ele>
        <time>2020-08-23T09:26:34.000Z</time>
      </trkpt>
      <trkpt lat="47.27758" lon="-2.26501">
        <ele>15.60000038147</ele>
        <time>2020-08-23T09:26:35.000Z</time>
      </trkpt>
      <trkpt lat="47.27767" lon="-2.26491">
        <ele>15.60000038147</ele>
        <time>2020-08-23T09:26:37.000Z</time>
      </trkpt>
      <trkpt lat="47.27775" lon="-2.26478">
        <ele>15.60000038147</ele>
        <time>2020-08-23T09:26:39.000Z</time>
      </trkpt>
      <trkpt lat="47.2778" lon="-2.26472">
        <ele>15.60000038147</ele>
        <time>2020-08-23T09:26:40.000Z</time>
      </trkpt>
      <trkpt lat="47.27798" lon="-2.26452">
        <ele>15.60000038147</ele>
        <time>2020-08-23T09:26:44.000Z</time>
      </trkpt>
      <trkpt lat="47.27806" lon="-2.2644">
        <ele>15.60000038147</ele>
        <time>2020-08-23T09:26:46.000Z</time>
      </trkpt>
      <trkpt lat="47.27816" lon="-2.2642">
        <ele>15.60000038147</ele>
        <time>2020-08-23T09:26:49.000Z</time>
      </trkpt>
      <trkpt lat="47.27839" lon="-2.2638">
        <ele>15.60000038147</ele>
        <time>2020-08-23T09:26:55.000Z</time>
      </trkpt>
      <trkpt lat="47.27871" lon="-2.2633">
        <ele>15.60000038147</ele>
        <time>2020-08-23T09:27:01.000Z</time>
      </trkpt>
      <trkpt lat="47.27876" lon="-2.26323">
        <ele>15.60000038147</ele>
        <time>2020-08-23T09:27:02.000Z</time>
      </trkpt>
      <trkpt lat="47.27894" lon="-2.26296">
        <ele>15.60000038147</ele>
        <time>2020-08-23T09:27:06.000Z</time>
      </trkpt>
      <trkpt lat="47.27911" lon="-2.26271">
        <ele>15.60000038147</ele>
        <time>2020-08-23T09:27:11.000Z</time>
      </trkpt>
      <trkpt lat="47.27919" lon="-2.26258">
        <ele>15.60000038147</ele>
        <time>2020-08-23T09:27:15.000Z</time>
      </trkpt>
      <trkpt lat="47.2793" lon="-2.26235">
        <ele>15.60000038147</ele>
        <time>2020-08-23T09:27:23.000Z</time>
      </trkpt>
      <trkpt lat="47.27938" lon="-2.26217">
        <ele>15.60000038147</ele>
        <time>2020-08-23T09:27:29.000Z</time>
      </trkpt>
      <trkpt lat="47.2794" lon="-2.26209">
        <ele>15.60000038147</ele>
        <time>2020-08-23T09:27:33.000Z</time>
      </trkpt>
      <trkpt lat="47.27942" lon="-2.26194">
        <ele>15.60000038147</ele>
        <time>2020-08-23T09:27:39.000Z</time>
      </trkpt>
      <trkpt lat="47.27942" lon="-2.26192">
        <ele>15.60000038147</ele>
        <time>2020-08-23T09:27:41.000Z</time>
      </trkpt>
      <trkpt lat="47.27941" lon="-2.26199">
        <ele>15.60000038147</ele>
        <time>2020-08-23T09:28:13.000Z</time>
      </trkpt>
      <trkpt lat="47.27941" lon="-2.26203">
        <ele>15.60000038147</ele>
        <time>2020-08-23T09:28:14.000Z</time>
      </trkpt>
      <trkpt lat="47.27937" lon="-2.26218">
        <ele>15.60000038147</ele>
        <time>2020-08-23T09:28:20.000Z</time>
      </trkpt>
      <trkpt lat="47.2793" lon="-2.26237">
        <ele>15.60000038147</ele>
        <time>2020-08-23T09:28:26.000Z</time>
      </trkpt>
      <trkpt lat="47.27925" lon="-2.26256">
        <ele>15.60000038147</ele>
        <time>2020-08-23T09:28:32.000Z</time>
      </trkpt>
      <trkpt lat="47.27914" lon="-2.2628">
        <ele>15.60000038147</ele>
        <time>2020-08-23T09:28:37.000Z</time>
      </trkpt>
      <trkpt lat="47.27893" lon="-2.26317">
        <ele>15.60000038147</ele>
        <time>2020-08-23T09:28:44.000Z</time>
      </trkpt>
      <trkpt lat="47.27872" lon="-2.26352">
        <ele>15.60000038147</ele>
        <time>2020-08-23T09:28:50.000Z</time>
      </trkpt>
      <trkpt lat="47.27866" lon="-2.26364">
        <ele>15.60000038147</ele>
        <time>2020-08-23T09:28:52.000Z</time>
      </trkpt>
      <trkpt lat="47.27855" lon="-2.26384">
        <ele>15.60000038147</ele>
        <time>2020-08-23T09:28:55.000Z</time>
      </trkpt>
      <trkpt lat="47.27835" lon="-2.26417">
        <ele>15.60000038147</ele>
        <time>2020-08-23T09:29:01.000Z</time>
      </trkpt>
      <trkpt lat="47.27818" lon="-2.26444">
        <ele>15.60000038147</ele>
        <time>2020-08-23T09:29:07.000Z</time>
      </trkpt>
      <trkpt lat="47.27796" lon="-2.26471">
        <ele>15.60000038147</ele>
        <time>2020-08-23T09:29:13.000Z</time>
      </trkpt>
      <trkpt lat="47.27781" lon="-2.26495">
        <ele>15.60000038147</ele>
        <time>2020-08-23T09:29:17.000Z</time>
      </trkpt>
      <trkpt lat="47.27765" lon="-2.26508">
        <ele>15.60000038147</ele>
        <time>2020-08-23T09:29:21.000Z</time>
      </trkpt>
      <trkpt lat="47.27747" lon="-2.26515">
        <ele>15.60000038147</ele>
        <time>2020-08-23T09:29:26.000Z</time>
      </trkpt>
      <trkpt lat="47.27738" lon="-2.2652">
        <ele>15.60000038147</ele>
        <time>2020-08-23T09:29:30.000Z</time>
      </trkpt>
      <trkpt lat="47.27737" lon="-2.26522">
        <ele>15.60000038147</ele>
        <time>2020-08-23T09:29:31.000Z</time>
      </trkpt>
      <trkpt lat="47.27739" lon="-2.26532">
        <ele>15.60000038147</ele>
        <time>2020-08-23T09:29:36.000Z</time>
      </trkpt>
      <trkpt lat="47.27745" lon="-2.26543">
        <ele>15.60000038147</ele>
        <time>2020-08-23T09:29:41.000Z</time>
      </trkpt>
      <trkpt lat="47.27754" lon="-2.26557">
        <ele>15.60000038147</ele>
        <time>2020-08-23T09:29:47.000Z</time>
      </trkpt>
      <trkpt lat="47.27771" lon="-2.26576">
        <ele>15.60000038147</ele>
        <time>2020-08-23T09:29:54.000Z</time>
      </trkpt>
      <trkpt lat="47.278" lon="-2.2659">
        <ele>15.60000038147</ele>
        <time>2020-08-23T09:30:02.000Z</time>
      </trkpt>
      <trkpt lat="47.27829" lon="-2.26596">
        <ele>15.60000038147</ele>
        <time>2020-08-23T09:30:08.000Z</time>
      </trkpt>
      <trkpt lat="47.27864" lon="-2.26596">
        <ele>15.60000038147</ele>
        <time>2020-08-23T09:30:15.000Z</time>
      </trkpt>
      <trkpt lat="47.27916" lon="-2.26596">
        <ele>16</ele>
        <time>2020-08-23T09:30:24.000Z</time>
      </trkpt>
      <trkpt lat="47.27921" lon="-2.26596">
        <ele>16.39999961853</ele>
        <time>2020-08-23T09:30:25.000Z</time>
      </trkpt>
      <trkpt lat="47.27927" lon="-2.26596">
        <ele>16.799999237061</ele>
        <time>2020-08-23T09:30:26.000Z</time>
      </trkpt>
      <trkpt lat="47.27933" lon="-2.26596">
        <ele>17.200000762939</ele>
        <time>2020-08-23T09:30:27.000Z</time>
      </trkpt>
      <trkpt lat="47.27939" lon="-2.26596">
        <ele>17.60000038147</ele>
        <time>2020-08-23T09:30:28.000Z</time>
      </trkpt>
      <trkpt lat="47.2795" lon="-2.26596">
        <ele>17.60000038147</ele>
        <time>2020-08-23T09:30:30.000Z</time>
      </trkpt>
      <trkpt lat="47.27988" lon="-2.26597">
        <ele>17.60000038147</ele>
        <time>2020-08-23T09:30:37.000Z</time>
      </trkpt>
      <trkpt lat="47.27993" lon="-2.26598">
        <ele>18</ele>
        <time>2020-08-23T09:30:38.000Z</time>
      </trkpt>
      <trkpt lat="47.27997" lon="-2.26599">
        <ele>18.60000038147</ele>
        <time>2020-08-23T09:30:39.000Z</time>
      </trkpt>
      <trkpt lat="47.28001" lon="-2.266">
        <ele>19</ele>
        <time>2020-08-23T09:30:40.000Z</time>
      </trkpt>
      <trkpt lat="47.28005" lon="-2.26601">
        <ele>19.39999961853</ele>
        <time>2020-08-23T09:30:41.000Z</time>
      </trkpt>
      <trkpt lat="47.28008" lon="-2.26602">
        <ele>19.799999237061</ele>
        <time>2020-08-23T09:30:42.000Z</time>
      </trkpt>
      <trkpt lat="47.28012" lon="-2.26603">
        <ele>19.799999237061</ele>
        <time>2020-08-23T09:30:43.000Z</time>
      </trkpt>
      <trkpt lat="47.28023" lon="-2.26607">
        <ele>19.799999237061</ele>
        <time>2020-08-23T09:30:46.000Z</time>
      </trkpt>
      <trkpt lat="47.28027" lon="-2.2661">
        <ele>20.200000762939</ele>
        <time>2020-08-23T09:30:47.000Z</time>
      </trkpt>
      <trkpt lat="47.2803" lon="-2.26614">
        <ele>20.60000038147</ele>
        <time>2020-08-23T09:30:48.000Z</time>
      </trkpt>
      <trkpt lat="47.28034" lon="-2.26617">
        <ele>21</ele>
        <time>2020-08-23T09:30:49.000Z</time>
      </trkpt>
      <trkpt lat="47.28039" lon="-2.2662">
        <ele>21.39999961853</ele>
        <time>2020-08-23T09:30:50.000Z</time>
      </trkpt>
      <trkpt lat="47.28043" lon="-2.26621">
        <ele>21.799999237061</ele>
        <time>2020-08-23T09:30:51.000Z</time>
      </trkpt>
      <trkpt lat="47.28052" lon="-2.26622">
        <ele>21.799999237061</ele>
        <time>2020-08-23T09:30:53.000Z</time>
      </trkpt>
      <trkpt lat="47.28056" lon="-2.26622">
        <ele>21.799999237061</ele>
        <time>2020-08-23T09:30:54.000Z</time>
      </trkpt>
      <trkpt lat="47.28081" lon="-2.26623">
        <ele>22.39999961853</ele>
        <time>2020-08-23T09:30:59.000Z</time>
      </trkpt>
      <trkpt lat="47.28085" lon="-2.26623">
        <ele>22.799999237061</ele>
        <time>2020-08-23T09:31:00.000Z</time>
      </trkpt>
      <trkpt lat="47.2809" lon="-2.26624">
        <ele>23.200000762939</ele>
        <time>2020-08-23T09:31:01.000Z</time>
      </trkpt>
      <trkpt lat="47.28094" lon="-2.26623">
        <ele>23.60000038147</ele>
        <time>2020-08-23T09:31:02.000Z</time>
      </trkpt>
      <trkpt lat="47.28099" lon="-2.26623">
        <ele>24.200000762939</ele>
        <time>2020-08-23T09:31:03.000Z</time>
      </trkpt>
      <trkpt lat="47.28104" lon="-2.26624">
        <ele>24.200000762939</ele>
        <time>2020-08-23T09:31:04.000Z</time>
      </trkpt>
      <trkpt lat="47.28119" lon="-2.26628">
        <ele>24.60000038147</ele>
        <time>2020-08-23T09:31:07.000Z</time>
      </trkpt>
      <trkpt lat="47.28124" lon="-2.26629">
        <ele>25</ele>
        <time>2020-08-23T09:31:08.000Z</time>
      </trkpt>
      <trkpt lat="47.28128" lon="-2.26629">
        <ele>25.39999961853</ele>
        <time>2020-08-23T09:31:09.000Z</time>
      </trkpt>
      <trkpt lat="47.28133" lon="-2.26631">
        <ele>25.799999237061</ele>
        <time>2020-08-23T09:31:10.000Z</time>
      </trkpt>
      <trkpt lat="47.28138" lon="-2.26631">
        <ele>26.39999961853</ele>
        <time>2020-08-23T09:31:11.000Z</time>
      </trkpt>
      <trkpt lat="47.28155" lon="-2.26631">
        <ele>26.39999961853</ele>
        <time>2020-08-23T09:31:15.000Z</time>
      </trkpt>
      <trkpt lat="47.28166" lon="-2.2663">
        <ele>26.39999961853</ele>
        <time>2020-08-23T09:31:17.000Z</time>
      </trkpt>
      <trkpt lat="47.28171" lon="-2.2663">
        <ele>26.799999237061</ele>
        <time>2020-08-23T09:31:18.000Z</time>
      </trkpt>
      <trkpt lat="47.28176" lon="-2.26629">
        <ele>27.200000762939</ele>
        <time>2020-08-23T09:31:19.000Z</time>
      </trkpt>
      <trkpt lat="47.28182" lon="-2.26629">
        <ele>27.60000038147</ele>
        <time>2020-08-23T09:31:20.000Z</time>
      </trkpt>
      <trkpt lat="47.28187" lon="-2.26629">
        <ele>28</ele>
        <time>2020-08-23T09:31:21.000Z</time>
      </trkpt>
      <trkpt lat="47.28193" lon="-2.26627">
        <ele>28.39999961853</ele>
        <time>2020-08-23T09:31:22.000Z</time>
      </trkpt>
      <trkpt lat="47.28203" lon="-2.26624">
        <ele>28.39999961853</ele>
        <time>2020-08-23T09:31:24.000Z</time>
      </trkpt>
      <trkpt lat="47.28235" lon="-2.26617">
        <ele>28.39999961853</ele>
        <time>2020-08-23T09:31:30.000Z</time>
      </trkpt>
      <trkpt lat="47.28267" lon="-2.26618">
        <ele>28.39999961853</ele>
        <time>2020-08-23T09:31:36.000Z</time>
      </trkpt>
      <trkpt lat="47.28298" lon="-2.26622">
        <ele>28.39999961853</ele>
        <time>2020-08-23T09:31:42.000Z</time>
      </trkpt>
      <trkpt lat="47.28303" lon="-2.26623">
        <ele>28.39999961853</ele>
        <time>2020-08-23T09:31:43.000Z</time>
      </trkpt>
      <trkpt lat="47.28312" lon="-2.26636">
        <ele>28.39999961853</ele>
        <time>2020-08-23T09:31:46.000Z</time>
      </trkpt>
      <trkpt lat="47.28314" lon="-2.26649">
        <ele>28.39999961853</ele>
        <time>2020-08-23T09:31:48.000Z</time>
      </trkpt>
      <trkpt lat="47.28317" lon="-2.26664">
        <ele>28.39999961853</ele>
        <time>2020-08-23T09:31:50.000Z</time>
      </trkpt>
      <trkpt lat="47.28327" lon="-2.26704">
        <ele>28.39999961853</ele>
        <time>2020-08-23T09:31:55.000Z</time>
      </trkpt>
      <trkpt lat="47.28344" lon="-2.26761">
        <ele>28.39999961853</ele>
        <time>2020-08-23T09:32:02.000Z</time>
      </trkpt>
      <trkpt lat="47.28364" lon="-2.2683">
        <ele>28.39999961853</ele>
        <time>2020-08-23T09:32:10.000Z</time>
      </trkpt>
      <trkpt lat="47.28368" lon="-2.26846">
        <ele>28.799999237061</ele>
        <time>2020-08-23T09:32:12.000Z</time>
      </trkpt>
      <trkpt lat="47.2837" lon="-2.26854">
        <ele>29.200000762939</ele>
        <time>2020-08-23T09:32:13.000Z</time>
      </trkpt>
      <trkpt lat="47.28371" lon="-2.2686">
        <ele>29.60000038147</ele>
        <time>2020-08-23T09:32:14.000Z</time>
      </trkpt>
      <trkpt lat="47.28373" lon="-2.26867">
        <ele>30</ele>
        <time>2020-08-23T09:32:15.000Z</time>
      </trkpt>
      <trkpt lat="47.28375" lon="-2.26873">
        <ele>30.39999961853</ele>
        <time>2020-08-23T09:32:16.000Z</time>
      </trkpt>
      <trkpt lat="47.28389" lon="-2.26916">
        <ele>30.39999961853</ele>
        <time>2020-08-23T09:32:22.000Z</time>
      </trkpt>
      <trkpt lat="47.28396" lon="-2.2693">
        <ele>30.39999961853</ele>
        <time>2020-08-23T09:32:24.000Z</time>
      </trkpt>
      <trkpt lat="47.28409" lon="-2.26953">
        <ele>30.39999961853</ele>
        <time>2020-08-23T09:32:27.000Z</time>
      </trkpt>
      <trkpt lat="47.28419" lon="-2.2697">
        <ele>30</ele>
        <time>2020-08-23T09:32:29.000Z</time>
      </trkpt>
      <trkpt lat="47.28425" lon="-2.26979">
        <ele>29.60000038147</ele>
        <time>2020-08-23T09:32:30.000Z</time>
      </trkpt>
      <trkpt lat="47.28431" lon="-2.26987">
        <ele>29.200000762939</ele>
        <time>2020-08-23T09:32:31.000Z</time>
      </trkpt>
      <trkpt lat="47.28438" lon="-2.26995">
        <ele>28.799999237061</ele>
        <time>2020-08-23T09:32:32.000Z</time>
      </trkpt>
      <trkpt lat="47.28444" lon="-2.27003">
        <ele>28.39999961853</ele>
        <time>2020-08-23T09:32:33.000Z</time>
      </trkpt>
      <trkpt lat="47.28451" lon="-2.27009">
        <ele>27.799999237061</ele>
        <time>2020-08-23T09:32:34.000Z</time>
      </trkpt>
      <trkpt lat="47.28458" lon="-2.27016">
        <ele>27.39999961853</ele>
        <time>2020-08-23T09:32:35.000Z</time>
      </trkpt>
      <trkpt lat="47.28466" lon="-2.27022">
        <ele>27</ele>
        <time>2020-08-23T09:32:36.000Z</time>
      </trkpt>
      <trkpt lat="47.28473" lon="-2.27026">
        <ele>26.39999961853</ele>
        <time>2020-08-23T09:32:37.000Z</time>
      </trkpt>
      <trkpt lat="47.2848" lon="-2.27029">
        <ele>26</ele>
        <time>2020-08-23T09:32:38.000Z</time>
      </trkpt>
      <trkpt lat="47.28495" lon="-2.27031">
        <ele>25.60000038147</ele>
        <time>2020-08-23T09:32:40.000Z</time>
      </trkpt>
      <trkpt lat="47.28501" lon="-2.27032">
        <ele>25.200000762939</ele>
        <time>2020-08-23T09:32:41.000Z</time>
      </trkpt>
      <trkpt lat="47.28508" lon="-2.27032">
        <ele>24.799999237061</ele>
        <time>2020-08-23T09:32:42.000Z</time>
      </trkpt>
      <trkpt lat="47.28515" lon="-2.27032">
        <ele>24.39999961853</ele>
        <time>2020-08-23T09:32:43.000Z</time>
      </trkpt>
      <trkpt lat="47.28521" lon="-2.27029">
        <ele>24</ele>
        <time>2020-08-23T09:32:44.000Z</time>
      </trkpt>
      <trkpt lat="47.28527" lon="-2.27023">
        <ele>24</ele>
        <time>2020-08-23T09:32:45.000Z</time>
      </trkpt>
      <trkpt lat="47.28539" lon="-2.26995">
        <ele>24</ele>
        <time>2020-08-23T09:32:48.000Z</time>
      </trkpt>
      <trkpt lat="47.28542" lon="-2.26975">
        <ele>24</ele>
        <time>2020-08-23T09:32:50.000Z</time>
      </trkpt>
      <trkpt lat="47.28547" lon="-2.26933">
        <ele>24</ele>
        <time>2020-08-23T09:32:54.000Z</time>
      </trkpt>
      <trkpt lat="47.28557" lon="-2.26858">
        <ele>24</ele>
        <time>2020-08-23T09:33:01.000Z</time>
      </trkpt>
      <trkpt lat="47.28565" lon="-2.26816">
        <ele>24</ele>
        <time>2020-08-23T09:33:05.000Z</time>
      </trkpt>
      <trkpt lat="47.28572" lon="-2.26797">
        <ele>24</ele>
        <time>2020-08-23T09:33:07.000Z</time>
      </trkpt>
      <trkpt lat="47.2858" lon="-2.2678">
        <ele>24.39999961853</ele>
        <time>2020-08-23T09:33:09.000Z</time>
      </trkpt>
      <trkpt lat="47.28585" lon="-2.26772">
        <ele>25.200000762939</ele>
        <time>2020-08-23T09:33:10.000Z</time>
      </trkpt>
      <trkpt lat="47.2859" lon="-2.26765">
        <ele>25.60000038147</ele>
        <time>2020-08-23T09:33:11.000Z</time>
      </trkpt>
      <trkpt lat="47.28596" lon="-2.26759">
        <ele>26</ele>
        <time>2020-08-23T09:33:12.000Z</time>
      </trkpt>
      <trkpt lat="47.28615" lon="-2.26742">
        <ele>26</ele>
        <time>2020-08-23T09:33:15.000Z</time>
      </trkpt>
      <trkpt lat="47.28629" lon="-2.26738">
        <ele>26</ele>
        <time>2020-08-23T09:33:17.000Z</time>
      </trkpt>
      <trkpt lat="47.28677" lon="-2.26716">
        <ele>26</ele>
        <time>2020-08-23T09:33:24.000Z</time>
      </trkpt>
      <trkpt lat="47.28716" lon="-2.26703">
        <ele>26</ele>
        <time>2020-08-23T09:33:30.000Z</time>
      </trkpt>
      <trkpt lat="47.28753" lon="-2.26696">
        <ele>26.39999961853</ele>
        <time>2020-08-23T09:33:36.000Z</time>
      </trkpt>
      <trkpt lat="47.28759" lon="-2.26694">
        <ele>27</ele>
        <time>2020-08-23T09:33:37.000Z</time>
      </trkpt>
      <trkpt lat="47.28765" lon="-2.26692">
        <ele>27.39999961853</ele>
        <time>2020-08-23T09:33:38.000Z</time>
      </trkpt>
      <trkpt lat="47.28771" lon="-2.26691">
        <ele>28</ele>
        <time>2020-08-23T09:33:39.000Z</time>
      </trkpt>
      <trkpt lat="47.28777" lon="-2.26689">
        <ele>28.39999961853</ele>
        <time>2020-08-23T09:33:40.000Z</time>
      </trkpt>
      <trkpt lat="47.28789" lon="-2.26688">
        <ele>28.39999961853</ele>
        <time>2020-08-23T09:33:42.000Z</time>
      </trkpt>
      <trkpt lat="47.28822" lon="-2.26678">
        <ele>28.39999961853</ele>
        <time>2020-08-23T09:33:48.000Z</time>
      </trkpt>
      <trkpt lat="47.2886" lon="-2.26661">
        <ele>28.39999961853</ele>
        <time>2020-08-23T09:33:55.000Z</time>
      </trkpt>
      <trkpt lat="47.28865" lon="-2.26658">
        <ele>28.799999237061</ele>
        <time>2020-08-23T09:33:56.000Z</time>
      </trkpt>
      <trkpt lat="47.2887" lon="-2.26654">
        <ele>29.200000762939</ele>
        <time>2020-08-23T09:33:57.000Z</time>
      </trkpt>
      <trkpt lat="47.28875" lon="-2.26651">
        <ele>29.60000038147</ele>
        <time>2020-08-23T09:33:58.000Z</time>
      </trkpt>
      <trkpt lat="47.28881" lon="-2.26648">
        <ele>30.39999961853</ele>
        <time>2020-08-23T09:33:59.000Z</time>
      </trkpt>
      <trkpt lat="47.28903" lon="-2.26635">
        <ele>30.39999961853</ele>
        <time>2020-08-23T09:34:03.000Z</time>
      </trkpt>
      <trkpt lat="47.28948" lon="-2.2661">
        <ele>30.39999961853</ele>
        <time>2020-08-23T09:34:11.000Z</time>
      </trkpt>
      <trkpt lat="47.28988" lon="-2.26596">
        <ele>30</ele>
        <time>2020-08-23T09:34:17.000Z</time>
      </trkpt>
      <trkpt lat="47.28995" lon="-2.26594">
        <ele>29.60000038147</ele>
        <time>2020-08-23T09:34:18.000Z</time>
      </trkpt>
      <trkpt lat="47.29002" lon="-2.26592">
        <ele>29.200000762939</ele>
        <time>2020-08-23T09:34:19.000Z</time>
      </trkpt>
      <trkpt lat="47.29009" lon="-2.2659">
        <ele>28.60000038147</ele>
        <time>2020-08-23T09:34:20.000Z</time>
      </trkpt>
      <trkpt lat="47.29016" lon="-2.26588">
        <ele>28.200000762939</ele>
        <time>2020-08-23T09:34:21.000Z</time>
      </trkpt>
      <trkpt lat="47.29029" lon="-2.26585">
        <ele>28.200000762939</ele>
        <time>2020-08-23T09:34:23.000Z</time>
      </trkpt>
      <trkpt lat="47.29035" lon="-2.26584">
        <ele>27.39999961853</ele>
        <time>2020-08-23T09:34:24.000Z</time>
      </trkpt>
      <trkpt lat="47.2904" lon="-2.26586">
        <ele>27</ele>
        <time>2020-08-23T09:34:25.000Z</time>
      </trkpt>
      <trkpt lat="47.29043" lon="-2.26591">
        <ele>26.60000038147</ele>
        <time>2020-08-23T09:34:26.000Z</time>
      </trkpt>
      <trkpt lat="47.29046" lon="-2.26598">
        <ele>26</ele>
        <time>2020-08-23T09:34:27.000Z</time>
      </trkpt>
      <trkpt lat="47.29047" lon="-2.26606">
        <ele>25.60000038147</ele>
        <time>2020-08-23T09:34:28.000Z</time>
      </trkpt>
      <trkpt lat="47.29049" lon="-2.26613">
        <ele>25</ele>
        <time>2020-08-23T09:34:29.000Z</time>
      </trkpt>
      <trkpt lat="47.29051" lon="-2.26621">
        <ele>24.60000038147</ele>
        <time>2020-08-23T09:34:30.000Z</time>
      </trkpt>
      <trkpt lat="47.29052" lon="-2.26629">
        <ele>24</ele>
        <time>2020-08-23T09:34:31.000Z</time>
      </trkpt>
      <trkpt lat="47.29052" lon="-2.26657">
        <ele>24</ele>
        <time>2020-08-23T09:34:34.000Z</time>
      </trkpt>
      <trkpt lat="47.29056" lon="-2.26711">
        <ele>24</ele>
        <time>2020-08-23T09:34:39.000Z</time>
      </trkpt>
      <trkpt lat="47.29057" lon="-2.26722">
        <ele>23.60000038147</ele>
        <time>2020-08-23T09:34:40.000Z</time>
      </trkpt>
      <trkpt lat="47.29058" lon="-2.26734">
        <ele>23.200000762939</ele>
        <time>2020-08-23T09:34:41.000Z</time>
      </trkpt>
      <trkpt lat="47.2906" lon="-2.26746">
        <ele>22.799999237061</ele>
        <time>2020-08-23T09:34:42.000Z</time>
      </trkpt>
      <trkpt lat="47.29062" lon="-2.26758">
        <ele>22.200000762939</ele>
        <time>2020-08-23T09:34:43.000Z</time>
      </trkpt>
      <trkpt lat="47.29063" lon="-2.2677">
        <ele>21.799999237061</ele>
        <time>2020-08-23T09:34:44.000Z</time>
      </trkpt>
      <trkpt lat="47.29065" lon="-2.26795">
        <ele>21.39999961853</ele>
        <time>2020-08-23T09:34:46.000Z</time>
      </trkpt>
      <trkpt lat="47.29066" lon="-2.26808">
        <ele>21</ele>
        <time>2020-08-23T09:34:47.000Z</time>
      </trkpt>
      <trkpt lat="47.29066" lon="-2.26819">
        <ele>20.60000038147</ele>
        <time>2020-08-23T09:34:48.000Z</time>
      </trkpt>
      <trkpt lat="47.29066" lon="-2.26831">
        <ele>19.799999237061</ele>
        <time>2020-08-23T09:34:49.000Z</time>
      </trkpt>
      <trkpt lat="47.29066" lon="-2.26842">
        <ele>19.39999961853</ele>
        <time>2020-08-23T09:34:50.000Z</time>
      </trkpt>
      <trkpt lat="47.29065" lon="-2.26853">
        <ele>19</ele>
        <time>2020-08-23T09:34:51.000Z</time>
      </trkpt>
      <trkpt lat="47.29064" lon="-2.26863">
        <ele>18.60000038147</ele>
        <time>2020-08-23T09:34:52.000Z</time>
      </trkpt>
      <trkpt lat="47.29063" lon="-2.26871">
        <ele>18.200000762939</ele>
        <time>2020-08-23T09:34:53.000Z</time>
      </trkpt>
      <trkpt lat="47.29063" lon="-2.26879">
        <ele>17.799999237061</ele>
        <time>2020-08-23T09:34:54.000Z</time>
      </trkpt>
      <trkpt lat="47.29063" lon="-2.26887">
        <ele>17.39999961853</ele>
        <time>2020-08-23T09:34:55.000Z</time>
      </trkpt>
      <trkpt lat="47.29065" lon="-2.26892">
        <ele>16.799999237061</ele>
        <time>2020-08-23T09:34:56.000Z</time>
      </trkpt>
      <trkpt lat="47.29067" lon="-2.26895">
        <ele>16.39999961853</ele>
        <time>2020-08-23T09:34:57.000Z</time>
      </trkpt>
      <trkpt lat="47.29069" lon="-2.26898">
        <ele>16</ele>
        <time>2020-08-23T09:34:58.000Z</time>
      </trkpt>
      <trkpt lat="47.29071" lon="-2.26901">
        <ele>15.60000038147</ele>
        <time>2020-08-23T09:34:59.000Z</time>
      </trkpt>
      <trkpt lat="47.2908" lon="-2.26916">
        <ele>15.60000038147</ele>
        <time>2020-08-23T09:35:04.000Z</time>
      </trkpt>
      <trkpt lat="47.2908" lon="-2.26919">
        <ele>15.60000038147</ele>
        <time>2020-08-23T09:35:05.000Z</time>
      </trkpt>
      <trkpt lat="47.29078" lon="-2.26929">
        <ele>15.60000038147</ele>
        <time>2020-08-23T09:35:08.000Z</time>
      </trkpt>
      <trkpt lat="47.29078" lon="-2.26936">
        <ele>15.60000038147</ele>
        <time>2020-08-23T09:35:10.000Z</time>
      </trkpt>
      <trkpt lat="47.29078" lon="-2.26944">
        <ele>15.60000038147</ele>
        <time>2020-08-23T09:35:13.000Z</time>
      </trkpt>
      <trkpt lat="47.29081" lon="-2.26968">
        <ele>15.60000038147</ele>
        <time>2020-08-23T09:35:18.000Z</time>
      </trkpt>
      <trkpt lat="47.29079" lon="-2.26997">
        <ele>15.60000038147</ele>
        <time>2020-08-23T09:35:23.000Z</time>
      </trkpt>
      <trkpt lat="47.2908" lon="-2.27013">
        <ele>15.60000038147</ele>
        <time>2020-08-23T09:35:27.000Z</time>
      </trkpt>
      <trkpt lat="47.29077" lon="-2.2704">
        <ele>15.60000038147</ele>
        <time>2020-08-23T09:35:32.000Z</time>
      </trkpt>
      <trkpt lat="47.29073" lon="-2.27058">
        <ele>15.60000038147</ele>
        <time>2020-08-23T09:35:36.000Z</time>
      </trkpt>
      <trkpt lat="47.2907" lon="-2.27092">
        <ele>15.60000038147</ele>
        <time>2020-08-23T09:35:43.000Z</time>
      </trkpt>
      <trkpt lat="47.29068" lon="-2.2712">
        <ele>15.60000038147</ele>
        <time>2020-08-23T09:35:49.000Z</time>
      </trkpt>
      <trkpt lat="47.29069" lon="-2.27153">
        <ele>15.60000038147</ele>
        <time>2020-08-23T09:35:56.000Z</time>
      </trkpt>
      <trkpt lat="47.29068" lon="-2.2717">
        <ele>15.60000038147</ele>
        <time>2020-08-23T09:36:00.000Z</time>
      </trkpt>
      <trkpt lat="47.2907" lon="-2.27174">
        <ele>15.60000038147</ele>
        <time>2020-08-23T09:36:01.000Z</time>
      </trkpt>
      <trkpt lat="47.29085" lon="-2.27188">
        <ele>15.60000038147</ele>
        <time>2020-08-23T09:36:06.000Z</time>
      </trkpt>
      <trkpt lat="47.291" lon="-2.27193">
        <ele>15.60000038147</ele>
        <time>2020-08-23T09:36:10.000Z</time>
      </trkpt>
      <trkpt lat="47.29105" lon="-2.27197">
        <ele>15.60000038147</ele>
        <time>2020-08-23T09:36:13.000Z</time>
      </trkpt>
      <trkpt lat="47.29107" lon="-2.27198">
        <ele>15.60000038147</ele>
        <time>2020-08-23T09:36:14.000Z</time>
      </trkpt>
      <trkpt lat="47.29113" lon="-2.27205">
        <ele>15.60000038147</ele>
        <time>2020-08-23T09:36:20.000Z</time>
      </trkpt>
      <trkpt lat="47.29113" lon="-2.27206">
        <ele>15.60000038147</ele>
        <time>2020-08-23T09:36:21.000Z</time>
      </trkpt>
      <trkpt lat="47.29112" lon="-2.27231">
        <ele>15.60000038147</ele>
        <time>2020-08-23T09:37:31.000Z</time>
      </trkpt>
      <trkpt lat="47.29112" lon="-2.27237">
        <ele>15.60000038147</ele>
        <time>2020-08-23T09:37:34.000Z</time>
      </trkpt>
      <trkpt lat="47.29112" lon="-2.27242">
        <ele>15.60000038147</ele>
        <time>2020-08-23T09:37:37.000Z</time>
      </trkpt>
      <trkpt lat="47.2911" lon="-2.27251">
        <ele>15.60000038147</ele>
        <time>2020-08-23T09:37:41.000Z</time>
      </trkpt>
      <trkpt lat="47.2911" lon="-2.27253">
        <ele>15.60000038147</ele>
        <time>2020-08-23T09:37:42.000Z</time>
      </trkpt>
      <trkpt lat="47.29108" lon="-2.27259">
        <ele>15.60000038147</ele>
        <time>2020-08-23T09:37:45.000Z</time>
      </trkpt>
      <trkpt lat="47.29108" lon="-2.27264">
        <ele>15.60000038147</ele>
        <time>2020-08-23T09:37:47.000Z</time>
      </trkpt>
      <trkpt lat="47.29107" lon="-2.27279">
        <ele>15.60000038147</ele>
        <time>2020-08-23T09:37:52.000Z</time>
      </trkpt>
      <trkpt lat="47.29101" lon="-2.27307">
        <ele>15.60000038147</ele>
        <time>2020-08-23T09:38:00.000Z</time>
      </trkpt>
      <trkpt lat="47.29095" lon="-2.27333">
        <ele>15.60000038147</ele>
        <time>2020-08-23T09:38:07.000Z</time>
      </trkpt>
      <trkpt lat="47.29095" lon="-2.27339">
        <ele>15.60000038147</ele>
        <time>2020-08-23T09:38:09.000Z</time>
      </trkpt>
      <trkpt lat="47.29097" lon="-2.27347">
        <ele>15.60000038147</ele>
        <time>2020-08-23T09:38:12.000Z</time>
      </trkpt>
      <trkpt lat="47.29099" lon="-2.27362">
        <ele>15.60000038147</ele>
        <time>2020-08-23T09:38:17.000Z</time>
      </trkpt>
      <trkpt lat="47.29101" lon="-2.27372">
        <ele>15.60000038147</ele>
        <time>2020-08-23T09:38:20.000Z</time>
      </trkpt>
      <trkpt lat="47.29104" lon="-2.27387">
        <ele>15.60000038147</ele>
        <time>2020-08-23T09:38:24.000Z</time>
      </trkpt>
      <trkpt lat="47.29108" lon="-2.27426">
        <ele>15.60000038147</ele>
        <time>2020-08-23T09:38:32.000Z</time>
      </trkpt>
      <trkpt lat="47.29107" lon="-2.27457">
        <ele>15.60000038147</ele>
        <time>2020-08-23T09:38:38.000Z</time>
      </trkpt>
      <trkpt lat="47.29105" lon="-2.27487">
        <ele>15.60000038147</ele>
        <time>2020-08-23T09:38:44.000Z</time>
      </trkpt>
      <trkpt lat="47.29106" lon="-2.27515">
        <ele>15.60000038147</ele>
        <time>2020-08-23T09:38:50.000Z</time>
      </trkpt>
      <trkpt lat="47.29106" lon="-2.2752">
        <ele>15.60000038147</ele>
        <time>2020-08-23T09:38:53.000Z</time>
      </trkpt>
      <trkpt lat="47.29102" lon="-2.27529">
        <ele>15.60000038147</ele>
        <time>2020-08-23T09:41:02.000Z</time>
      </trkpt>
      <trkpt lat="47.2909" lon="-2.27531">
        <ele>15.60000038147</ele>
        <time>2020-08-23T09:41:07.000Z</time>
      </trkpt>
      <trkpt lat="47.29075" lon="-2.27529">
        <ele>15.60000038147</ele>
        <time>2020-08-23T09:41:11.000Z</time>
      </trkpt>
      <trkpt lat="47.29043" lon="-2.27524">
        <ele>16</ele>
        <time>2020-08-23T09:41:17.000Z</time>
      </trkpt>
      <trkpt lat="47.29037" lon="-2.27523">
        <ele>16.39999961853</ele>
        <time>2020-08-23T09:41:18.000Z</time>
      </trkpt>
      <trkpt lat="47.29032" lon="-2.27523">
        <ele>16.799999237061</ele>
        <time>2020-08-23T09:41:19.000Z</time>
      </trkpt>
      <trkpt lat="47.29026" lon="-2.27523">
        <ele>17.200000762939</ele>
        <time>2020-08-23T09:41:20.000Z</time>
      </trkpt>
      <trkpt lat="47.29021" lon="-2.27523">
        <ele>17.60000038147</ele>
        <time>2020-08-23T09:41:21.000Z</time>
      </trkpt>
      <trkpt lat="47.29004" lon="-2.27523">
        <ele>17.60000038147</ele>
        <time>2020-08-23T09:41:24.000Z</time>
      </trkpt>
      <trkpt lat="47.28951" lon="-2.27523">
        <ele>17.60000038147</ele>
        <time>2020-08-23T09:41:32.000Z</time>
      </trkpt>
      <trkpt lat="47.28911" lon="-2.27525">
        <ele>17.60000038147</ele>
        <time>2020-08-23T09:41:38.000Z</time>
      </trkpt>
      <trkpt lat="47.28872" lon="-2.27533">
        <ele>17.60000038147</ele>
        <time>2020-08-23T09:41:44.000Z</time>
      </trkpt>
      <trkpt lat="47.28824" lon="-2.2754">
        <ele>17.60000038147</ele>
        <time>2020-08-23T09:41:51.000Z</time>
      </trkpt>
      <trkpt lat="47.28811" lon="-2.27546">
        <ele>17.60000038147</ele>
        <time>2020-08-23T09:41:53.000Z</time>
      </trkpt>
      <trkpt lat="47.28799" lon="-2.27556">
        <ele>17.60000038147</ele>
        <time>2020-08-23T09:41:55.000Z</time>
      </trkpt>
      <trkpt lat="47.28784" lon="-2.27576">
        <ele>17.60000038147</ele>
        <time>2020-08-23T09:41:58.000Z</time>
      </trkpt>
      <trkpt lat="47.28779" lon="-2.27582">
        <ele>17.60000038147</ele>
        <time>2020-08-23T09:41:59.000Z</time>
      </trkpt>
      <trkpt lat="47.28739" lon="-2.27632">
        <ele>17.60000038147</ele>
        <time>2020-08-23T09:42:07.000Z</time>
      </trkpt>
      <trkpt lat="47.28708" lon="-2.27681">
        <ele>17.60000038147</ele>
        <time>2020-08-23T09:42:14.000Z</time>
      </trkpt>
      <trkpt lat="47.28684" lon="-2.27723">
        <ele>17.60000038147</ele>
        <time>2020-08-23T09:42:20.000Z</time>
      </trkpt>
      <trkpt lat="47.28664" lon="-2.27758">
        <ele>17.60000038147</ele>
        <time>2020-08-23T09:42:25.000Z</time>
      </trkpt>
      <trkpt lat="47.28646" lon="-2.27809">
        <ele>17.60000038147</ele>
        <time>2020-08-23T09:42:31.000Z</time>
      </trkpt>
      <trkpt lat="47.28639" lon="-2.27854">
        <ele>17.60000038147</ele>
        <time>2020-08-23T09:42:36.000Z</time>
      </trkpt>
      <trkpt lat="47.28636" lon="-2.27879">
        <ele>18</ele>
        <time>2020-08-23T09:42:39.000Z</time>
      </trkpt>
      <trkpt lat="47.28634" lon="-2.27887">
        <ele>18.39999961853</ele>
        <time>2020-08-23T09:42:40.000Z</time>
      </trkpt>
      <trkpt lat="47.28633" lon="-2.27896">
        <ele>18.799999237061</ele>
        <time>2020-08-23T09:42:41.000Z</time>
      </trkpt>
      <trkpt lat="47.28632" lon="-2.27903">
        <ele>19.200000762939</ele>
        <time>2020-08-23T09:42:42.000Z</time>
      </trkpt>
      <trkpt lat="47.28631" lon="-2.2791">
        <ele>19.799999237061</ele>
        <time>2020-08-23T09:42:43.000Z</time>
      </trkpt>
      <trkpt lat="47.28627" lon="-2.27939">
        <ele>19.799999237061</ele>
        <time>2020-08-23T09:42:47.000Z</time>
      </trkpt>
      <trkpt lat="47.28622" lon="-2.27949">
        <ele>19.799999237061</ele>
        <time>2020-08-23T09:42:49.000Z</time>
      </trkpt>
      <trkpt lat="47.28614" lon="-2.27957">
        <ele>19.799999237061</ele>
        <time>2020-08-23T09:42:51.000Z</time>
      </trkpt>
      <trkpt lat="47.28609" lon="-2.27971">
        <ele>19.799999237061</ele>
        <time>2020-08-23T09:42:54.000Z</time>
      </trkpt>
      <trkpt lat="47.28606" lon="-2.27998">
        <ele>19.799999237061</ele>
        <time>2020-08-23T09:42:59.000Z</time>
      </trkpt>
      <trkpt lat="47.28597" lon="-2.28019">
        <ele>19.799999237061</ele>
        <time>2020-08-23T09:43:03.000Z</time>
      </trkpt>
      <trkpt lat="47.28583" lon="-2.28032">
        <ele>19.799999237061</ele>
        <time>2020-08-23T09:43:08.000Z</time>
      </trkpt>
      <trkpt lat="47.2857" lon="-2.28046">
        <ele>19.799999237061</ele>
        <time>2020-08-23T09:43:13.000Z</time>
      </trkpt>
      <trkpt lat="47.28558" lon="-2.2805">
        <ele>19.799999237061</ele>
        <time>2020-08-23T09:43:17.000Z</time>
      </trkpt>
      <trkpt lat="47.28552" lon="-2.2805">
        <ele>19.799999237061</ele>
        <time>2020-08-23T09:43:19.000Z</time>
      </trkpt>
      <trkpt lat="47.28546" lon="-2.28048">
        <ele>19.799999237061</ele>
        <time>2020-08-23T09:43:22.000Z</time>
      </trkpt>
      <trkpt lat="47.2854" lon="-2.28048">
        <ele>20.200000762939</ele>
        <time>2020-08-23T09:43:25.000Z</time>
      </trkpt>
      <trkpt lat="47.28538" lon="-2.28047">
        <ele>20.60000038147</ele>
        <time>2020-08-23T09:43:26.000Z</time>
      </trkpt>
      <trkpt lat="47.28536" lon="-2.28047">
        <ele>21</ele>
        <time>2020-08-23T09:43:27.000Z</time>
      </trkpt>
      <trkpt lat="47.28535" lon="-2.28046">
        <ele>22</ele>
        <time>2020-08-23T09:43:28.000Z</time>
      </trkpt>
      <trkpt lat="47.28534" lon="-2.28046">
        <ele>22</ele>
        <time>2020-08-23T09:43:30.000Z</time>
      </trkpt>
      <trkpt lat="47.28528" lon="-2.28045">
        <ele>22</ele>
        <time>2020-08-23T09:43:52.000Z</time>
      </trkpt>
      <trkpt lat="47.28525" lon="-2.28045">
        <ele>22.799999237061</ele>
        <time>2020-08-23T09:43:53.000Z</time>
      </trkpt>
      <trkpt lat="47.28523" lon="-2.28046">
        <ele>23.200000762939</ele>
        <time>2020-08-23T09:43:54.000Z</time>
      </trkpt>
      <trkpt lat="47.28521" lon="-2.28045">
        <ele>23.60000038147</ele>
        <time>2020-08-23T09:43:55.000Z</time>
      </trkpt>
      <trkpt lat="47.28518" lon="-2.28045">
        <ele>24</ele>
        <time>2020-08-23T09:43:56.000Z</time>
      </trkpt>
      <trkpt lat="47.2851" lon="-2.28041">
        <ele>24.39999961853</ele>
        <time>2020-08-23T09:43:59.000Z</time>
      </trkpt>
      <trkpt lat="47.28508" lon="-2.28039">
        <ele>24.799999237061</ele>
        <time>2020-08-23T09:44:00.000Z</time>
      </trkpt>
      <trkpt lat="47.28505" lon="-2.28037">
        <ele>25.200000762939</ele>
        <time>2020-08-23T09:44:01.000Z</time>
      </trkpt>
      <trkpt lat="47.28502" lon="-2.28036">
        <ele>25.799999237061</ele>
        <time>2020-08-23T09:44:02.000Z</time>
      </trkpt>
      <trkpt lat="47.28499" lon="-2.28034">
        <ele>26.200000762939</ele>
        <time>2020-08-23T09:44:03.000Z</time>
      </trkpt>
      <trkpt lat="47.28494" lon="-2.28032">
        <ele>26.200000762939</ele>
        <time>2020-08-23T09:44:05.000Z</time>
      </trkpt>
      <trkpt lat="47.28481" lon="-2.28044">
        <ele>26.200000762939</ele>
        <time>2020-08-23T09:44:10.000Z</time>
      </trkpt>
      <trkpt lat="47.28479" lon="-2.2805">
        <ele>26.60000038147</ele>
        <time>2020-08-23T09:44:12.000Z</time>
      </trkpt>
      <trkpt lat="47.28479" lon="-2.28054">
        <ele>27</ele>
        <time>2020-08-23T09:44:13.000Z</time>
      </trkpt>
      <trkpt lat="47.28481" lon="-2.28058">
        <ele>27.39999961853</ele>
        <time>2020-08-23T09:44:14.000Z</time>
      </trkpt>
      <trkpt lat="47.28482" lon="-2.28062">
        <ele>27.799999237061</ele>
        <time>2020-08-23T09:44:15.000Z</time>
      </trkpt>
      <trkpt lat="47.28483" lon="-2.28065">
        <ele>28.200000762939</ele>
        <time>2020-08-23T09:44:16.000Z</time>
      </trkpt>
      <trkpt lat="47.28488" lon="-2.28075">
        <ele>28.200000762939</ele>
        <time>2020-08-23T09:44:19.000Z</time>
      </trkpt>
      <trkpt lat="47.28485" lon="-2.28084">
        <ele>27.799999237061</ele>
        <time>2020-08-23T09:44:22.000Z</time>
      </trkpt>
      <trkpt lat="47.28483" lon="-2.28086">
        <ele>27.200000762939</ele>
        <time>2020-08-23T09:44:23.000Z</time>
      </trkpt>
      <trkpt lat="47.28481" lon="-2.28089">
        <ele>26.799999237061</ele>
        <time>2020-08-23T09:44:24.000Z</time>
      </trkpt>
      <trkpt lat="47.28477" lon="-2.28093">
        <ele>26.39999961853</ele>
        <time>2020-08-23T09:44:25.000Z</time>
      </trkpt>
      <trkpt lat="47.28473" lon="-2.28094">
        <ele>26</ele>
        <time>2020-08-23T09:44:26.000Z</time>
      </trkpt>
      <trkpt lat="47.2847" lon="-2.28094">
        <ele>26</ele>
        <time>2020-08-23T09:44:27.000Z</time>
      </trkpt>
      <trkpt lat="47.28467" lon="-2.28092">
        <ele>26</ele>
        <time>2020-08-23T09:44:28.000Z</time>
      </trkpt>
      <trkpt lat="47.28462" lon="-2.28088">
        <ele>26</ele>
        <time>2020-08-23T09:44:30.000Z</time>
      </trkpt>
      <trkpt lat="47.28458" lon="-2.28087">
        <ele>26</ele>
        <time>2020-08-23T09:44:32.000Z</time>
      </trkpt>
      <trkpt lat="47.28449" lon="-2.28085">
        <ele>26</ele>
        <time>2020-08-23T09:44:35.000Z</time>
      </trkpt>
      <trkpt lat="47.28443" lon="-2.28086">
        <ele>26</ele>
        <time>2020-08-23T09:44:37.000Z</time>
      </trkpt>
      <trkpt lat="47.28436" lon="-2.28087">
        <ele>26</ele>
        <time>2020-08-23T09:44:39.000Z</time>
      </trkpt>
      <trkpt lat="47.28429" lon="-2.28083">
        <ele>26</ele>
        <time>2020-08-23T09:44:41.000Z</time>
      </trkpt>
      <trkpt lat="47.28427" lon="-2.28084">
        <ele>26</ele>
        <time>2020-08-23T09:44:42.000Z</time>
      </trkpt>
      <trkpt lat="47.28424" lon="-2.28085">
        <ele>26</ele>
        <time>2020-08-23T09:44:43.000Z</time>
      </trkpt>
      <trkpt lat="47.28412" lon="-2.28082">
        <ele>26</ele>
        <time>2020-08-23T09:44:47.000Z</time>
      </trkpt>
      <trkpt lat="47.28409" lon="-2.28081">
        <ele>26</ele>
        <time>2020-08-23T09:44:48.000Z</time>
      </trkpt>
      <trkpt lat="47.28395" lon="-2.28077">
        <ele>26</ele>
        <time>2020-08-23T09:44:52.000Z</time>
      </trkpt>
      <trkpt lat="47.2838" lon="-2.28076">
        <ele>26</ele>
        <time>2020-08-23T09:44:57.000Z</time>
      </trkpt>
      <trkpt lat="47.28372" lon="-2.28068">
        <ele>26</ele>
        <time>2020-08-23T09:45:02.000Z</time>
      </trkpt>
      <trkpt lat="47.28372" lon="-2.28065">
        <ele>26</ele>
        <time>2020-08-23T09:45:03.000Z</time>
      </trkpt>
      <trkpt lat="47.28372" lon="-2.28056">
        <ele>26</ele>
        <time>2020-08-23T09:45:07.000Z</time>
      </trkpt>
      <trkpt lat="47.2837" lon="-2.28057">
        <ele>26</ele>
        <time>2020-08-23T09:45:08.000Z</time>
      </trkpt>
      <trkpt lat="47.28366" lon="-2.28063">
        <ele>26</ele>
        <time>2020-08-23T09:45:11.000Z</time>
      </trkpt>
      <trkpt lat="47.28365" lon="-2.28069">
        <ele>26</ele>
        <time>2020-08-23T09:45:13.000Z</time>
      </trkpt>
      <trkpt lat="47.28365" lon="-2.28074">
        <ele>25.60000038147</ele>
        <time>2020-08-23T09:45:15.000Z</time>
      </trkpt>
      <trkpt lat="47.28364" lon="-2.28077">
        <ele>25</ele>
        <time>2020-08-23T09:45:16.000Z</time>
      </trkpt>
      <trkpt lat="47.28363" lon="-2.28079">
        <ele>24.60000038147</ele>
        <time>2020-08-23T09:45:17.000Z</time>
      </trkpt>
      <trkpt lat="47.28362" lon="-2.28081">
        <ele>24.200000762939</ele>
        <time>2020-08-23T09:45:18.000Z</time>
      </trkpt>
      <trkpt lat="47.28359" lon="-2.28082">
        <ele>23.799999237061</ele>
        <time>2020-08-23T09:45:19.000Z</time>
      </trkpt>
      <trkpt lat="47.28355" lon="-2.28083">
        <ele>23.799999237061</ele>
        <time>2020-08-23T09:45:21.000Z</time>
      </trkpt>
      <trkpt lat="47.2833" lon="-2.28092">
        <ele>23.799999237061</ele>
        <time>2020-08-23T09:45:30.000Z</time>
      </trkpt>
      <trkpt lat="47.28325" lon="-2.28104">
        <ele>23.799999237061</ele>
        <time>2020-08-23T09:45:32.000Z</time>
      </trkpt>
      <trkpt lat="47.28326" lon="-2.28111">
        <ele>23.799999237061</ele>
        <time>2020-08-23T09:45:33.000Z</time>
      </trkpt>
      <trkpt lat="47.28326" lon="-2.28132">
        <ele>23.799999237061</ele>
        <time>2020-08-23T09:45:36.000Z</time>
      </trkpt>
      <trkpt lat="47.28324" lon="-2.28157">
        <ele>24.200000762939</ele>
        <time>2020-08-23T09:45:40.000Z</time>
      </trkpt>
      <trkpt lat="47.28324" lon="-2.28163">
        <ele>24.60000038147</ele>
        <time>2020-08-23T09:45:41.000Z</time>
      </trkpt>
      <trkpt lat="47.28324" lon="-2.28169">
        <ele>25</ele>
        <time>2020-08-23T09:45:42.000Z</time>
      </trkpt>
      <trkpt lat="47.28325" lon="-2.28174">
        <ele>25.39999961853</ele>
        <time>2020-08-23T09:45:43.000Z</time>
      </trkpt>
      <trkpt lat="47.28325" lon="-2.2818">
        <ele>25.799999237061</ele>
        <time>2020-08-23T09:45:44.000Z</time>
      </trkpt>
      <trkpt lat="47.28326" lon="-2.28198">
        <ele>26.200000762939</ele>
        <time>2020-08-23T09:45:47.000Z</time>
      </trkpt>
      <trkpt lat="47.28325" lon="-2.28204">
        <ele>26.799999237061</ele>
        <time>2020-08-23T09:45:48.000Z</time>
      </trkpt>
      <trkpt lat="47.28325" lon="-2.28209">
        <ele>27.200000762939</ele>
        <time>2020-08-23T09:45:49.000Z</time>
      </trkpt>
      <trkpt lat="47.28324" lon="-2.28216">
        <ele>27.60000038147</ele>
        <time>2020-08-23T09:45:50.000Z</time>
      </trkpt>
      <trkpt lat="47.28324" lon="-2.28222">
        <ele>28</ele>
        <time>2020-08-23T09:45:51.000Z</time>
      </trkpt>
      <trkpt lat="47.28325" lon="-2.28247">
        <ele>28.39999961853</ele>
        <time>2020-08-23T09:45:55.000Z</time>
      </trkpt>
      <trkpt lat="47.28324" lon="-2.28253">
        <ele>29.200000762939</ele>
        <time>2020-08-23T09:45:56.000Z</time>
      </trkpt>
      <trkpt lat="47.28324" lon="-2.28259">
        <ele>29.60000038147</ele>
        <time>2020-08-23T09:45:57.000Z</time>
      </trkpt>
      <trkpt lat="47.28323" lon="-2.28265">
        <ele>30</ele>
        <time>2020-08-23T09:45:58.000Z</time>
      </trkpt>
      <trkpt lat="47.28323" lon="-2.28284">
        <ele>30</ele>
        <time>2020-08-23T09:46:01.000Z</time>
      </trkpt>
      <trkpt lat="47.28323" lon="-2.283">
        <ele>30.39999961853</ele>
        <time>2020-08-23T09:46:04.000Z</time>
      </trkpt>
      <trkpt lat="47.28323" lon="-2.28305">
        <ele>31</ele>
        <time>2020-08-23T09:46:05.000Z</time>
      </trkpt>
      <trkpt lat="47.28323" lon="-2.28311">
        <ele>31.39999961853</ele>
        <time>2020-08-23T09:46:06.000Z</time>
      </trkpt>
      <trkpt lat="47.28323" lon="-2.28317">
        <ele>31.799999237061</ele>
        <time>2020-08-23T09:46:07.000Z</time>
      </trkpt>
      <trkpt lat="47.28324" lon="-2.28322">
        <ele>32.200000762939</ele>
        <time>2020-08-23T09:46:08.000Z</time>
      </trkpt>
      <trkpt lat="47.28325" lon="-2.28328">
        <ele>32.200000762939</ele>
        <time>2020-08-23T09:46:09.000Z</time>
      </trkpt>
      <trkpt lat="47.28324" lon="-2.28369">
        <ele>32.200000762939</ele>
        <time>2020-08-23T09:46:16.000Z</time>
      </trkpt>
      <trkpt lat="47.28318" lon="-2.28408">
        <ele>32.200000762939</ele>
        <time>2020-08-23T09:46:22.000Z</time>
      </trkpt>
      <trkpt lat="47.28316" lon="-2.28414">
        <ele>32.200000762939</ele>
        <time>2020-08-23T09:46:23.000Z</time>
      </trkpt>
      <trkpt lat="47.28301" lon="-2.2847">
        <ele>32.200000762939</ele>
        <time>2020-08-23T09:46:31.000Z</time>
      </trkpt>
      <trkpt lat="47.28299" lon="-2.28478">
        <ele>32.200000762939</ele>
        <time>2020-08-23T09:46:32.000Z</time>
      </trkpt>
      <trkpt lat="47.28294" lon="-2.2851">
        <ele>32.200000762939</ele>
        <time>2020-08-23T09:46:36.000Z</time>
      </trkpt>
      <trkpt lat="47.28284" lon="-2.28577">
        <ele>32.200000762939</ele>
        <time>2020-08-23T09:46:44.000Z</time>
      </trkpt>
      <trkpt lat="47.28267" lon="-2.28648">
        <ele>32.200000762939</ele>
        <time>2020-08-23T09:46:53.000Z</time>
      </trkpt>
      <trkpt lat="47.28257" lon="-2.28702">
        <ele>32.200000762939</ele>
        <time>2020-08-23T09:47:00.000Z</time>
      </trkpt>
      <trkpt lat="47.28247" lon="-2.28755">
        <ele>32.200000762939</ele>
        <time>2020-08-23T09:47:07.000Z</time>
      </trkpt>
      <trkpt lat="47.28238" lon="-2.28812">
        <ele>32.200000762939</ele>
        <time>2020-08-23T09:47:15.000Z</time>
      </trkpt>
      <trkpt lat="47.2823" lon="-2.28861">
        <ele>32.200000762939</ele>
        <time>2020-08-23T09:47:23.000Z</time>
      </trkpt>
      <trkpt lat="47.28219" lon="-2.28875">
        <ele>32.200000762939</ele>
        <time>2020-08-23T09:47:27.000Z</time>
      </trkpt>
      <trkpt lat="47.28215" lon="-2.28874">
        <ele>32.200000762939</ele>
        <time>2020-08-23T09:47:28.000Z</time>
      </trkpt>
      <trkpt lat="47.28209" lon="-2.28869">
        <ele>32.200000762939</ele>
        <time>2020-08-23T09:47:30.000Z</time>
      </trkpt>
      <trkpt lat="47.28192" lon="-2.28858">
        <ele>32.200000762939</ele>
        <time>2020-08-23T09:47:36.000Z</time>
      </trkpt>
      <trkpt lat="47.28188" lon="-2.28854">
        <ele>32.200000762939</ele>
        <time>2020-08-23T09:47:38.000Z</time>
      </trkpt>
      <trkpt lat="47.2818" lon="-2.28846">
        <ele>31.799999237061</ele>
        <time>2020-08-23T09:47:41.000Z</time>
      </trkpt>
      <trkpt lat="47.28177" lon="-2.28844">
        <ele>31.39999961853</ele>
        <time>2020-08-23T09:47:42.000Z</time>
      </trkpt>
      <trkpt lat="47.28175" lon="-2.28842">
        <ele>31</ele>
        <time>2020-08-23T09:47:43.000Z</time>
      </trkpt>
      <trkpt lat="47.28172" lon="-2.28839">
        <ele>30.39999961853</ele>
        <time>2020-08-23T09:47:44.000Z</time>
      </trkpt>
      <trkpt lat="47.28168" lon="-2.28836">
        <ele>30</ele>
        <time>2020-08-23T09:47:45.000Z</time>
      </trkpt>
      <trkpt lat="47.28153" lon="-2.28824">
        <ele>30</ele>
        <time>2020-08-23T09:47:49.000Z</time>
      </trkpt>
      <trkpt lat="47.28124" lon="-2.28802">
        <ele>30</ele>
        <time>2020-08-23T09:47:55.000Z</time>
      </trkpt>
      <trkpt lat="47.28094" lon="-2.28783">
        <ele>29.200000762939</ele>
        <time>2020-08-23T09:48:00.000Z</time>
      </trkpt>
      <trkpt lat="47.28087" lon="-2.28779">
        <ele>28.799999237061</ele>
        <time>2020-08-23T09:48:01.000Z</time>
      </trkpt>
      <trkpt lat="47.28081" lon="-2.28776">
        <ele>28.39999961853</ele>
        <time>2020-08-23T09:48:02.000Z</time>
      </trkpt>
      <trkpt lat="47.28075" lon="-2.28772">
        <ele>27.799999237061</ele>
        <time>2020-08-23T09:48:03.000Z</time>
      </trkpt>
      <trkpt lat="47.28051" lon="-2.28763">
        <ele>27.799999237061</ele>
        <time>2020-08-23T09:48:07.000Z</time>
      </trkpt>
      <trkpt lat="47.2803" lon="-2.28755">
        <ele>27.799999237061</ele>
        <time>2020-08-23T09:48:11.000Z</time>
      </trkpt>
      <trkpt lat="47.28019" lon="-2.28754">
        <ele>27.39999961853</ele>
        <time>2020-08-23T09:48:13.000Z</time>
      </trkpt>
      <trkpt lat="47.28015" lon="-2.28753">
        <ele>27</ele>
        <time>2020-08-23T09:48:14.000Z</time>
      </trkpt>
      <trkpt lat="47.2801" lon="-2.28752">
        <ele>26.60000038147</ele>
        <time>2020-08-23T09:48:15.000Z</time>
      </trkpt>
      <trkpt lat="47.28004" lon="-2.28751">
        <ele>26.200000762939</ele>
        <time>2020-08-23T09:48:16.000Z</time>
      </trkpt>
      <trkpt lat="47.28" lon="-2.28751">
        <ele>25.60000038147</ele>
        <time>2020-08-23T09:48:17.000Z</time>
      </trkpt>
      <trkpt lat="47.27985" lon="-2.28749">
        <ele>25.60000038147</ele>
        <time>2020-08-23T09:48:20.000Z</time>
      </trkpt>
      <trkpt lat="47.27958" lon="-2.28747">
        <ele>25.60000038147</ele>
        <time>2020-08-23T09:48:25.000Z</time>
      </trkpt>
      <trkpt lat="47.27947" lon="-2.2875">
        <ele>25.60000038147</ele>
        <time>2020-08-23T09:48:27.000Z</time>
      </trkpt>
      <trkpt lat="47.27913" lon="-2.28762">
        <ele>25.60000038147</ele>
        <time>2020-08-23T09:48:34.000Z</time>
      </trkpt>
      <trkpt lat="47.27889" lon="-2.28768">
        <ele>25.60000038147</ele>
        <time>2020-08-23T09:48:40.000Z</time>
      </trkpt>
      <trkpt lat="47.27881" lon="-2.28769">
        <ele>25.60000038147</ele>
        <time>2020-08-23T09:48:42.000Z</time>
      </trkpt>
      <trkpt lat="47.27876" lon="-2.28774">
        <ele>25.60000038147</ele>
        <time>2020-08-23T09:48:44.000Z</time>
      </trkpt>
      <trkpt lat="47.27874" lon="-2.28779">
        <ele>25.60000038147</ele>
        <time>2020-08-23T09:48:45.000Z</time>
      </trkpt>
      <trkpt lat="47.27873" lon="-2.28784">
        <ele>25.60000038147</ele>
        <time>2020-08-23T09:48:46.000Z</time>
      </trkpt>
      <trkpt lat="47.27866" lon="-2.28814">
        <ele>25.60000038147</ele>
        <time>2020-08-23T09:48:53.000Z</time>
      </trkpt>
      <trkpt lat="47.27861" lon="-2.28814">
        <ele>25.60000038147</ele>
        <time>2020-08-23T09:48:54.000Z</time>
      </trkpt>
      <trkpt lat="47.2785" lon="-2.28807">
        <ele>25.60000038147</ele>
        <time>2020-08-23T09:48:57.000Z</time>
      </trkpt>
      <trkpt lat="47.27837" lon="-2.28799">
        <ele>25.60000038147</ele>
        <time>2020-08-23T09:49:00.000Z</time>
      </trkpt>
      <trkpt lat="47.27823" lon="-2.28793">
        <ele>25.60000038147</ele>
        <time>2020-08-23T09:49:03.000Z</time>
      </trkpt>
      <trkpt lat="47.27812" lon="-2.28792">
        <ele>25.60000038147</ele>
        <time>2020-08-23T09:49:05.000Z</time>
      </trkpt>
      <trkpt lat="47.27802" lon="-2.28791">
        <ele>25.60000038147</ele>
        <time>2020-08-23T09:49:07.000Z</time>
      </trkpt>
      <trkpt lat="47.27771" lon="-2.28795">
        <ele>25.60000038147</ele>
        <time>2020-08-23T09:49:13.000Z</time>
      </trkpt>
      <trkpt lat="47.27765" lon="-2.28797">
        <ele>25.60000038147</ele>
        <time>2020-08-23T09:49:14.000Z</time>
      </trkpt>
      <trkpt lat="47.27722" lon="-2.28815">
        <ele>25.60000038147</ele>
        <time>2020-08-23T09:49:21.000Z</time>
      </trkpt>
      <trkpt lat="47.27711" lon="-2.2882">
        <ele>25.60000038147</ele>
        <time>2020-08-23T09:49:23.000Z</time>
      </trkpt>
      <trkpt lat="47.27701" lon="-2.28819">
        <ele>25.60000038147</ele>
        <time>2020-08-23T09:49:25.000Z</time>
      </trkpt>
      <trkpt lat="47.27697" lon="-2.28814">
        <ele>25.60000038147</ele>
        <time>2020-08-23T09:49:26.000Z</time>
      </trkpt>
      <trkpt lat="47.2769" lon="-2.28801">
        <ele>25.60000038147</ele>
        <time>2020-08-23T09:49:28.000Z</time>
      </trkpt>
      <trkpt lat="47.27684" lon="-2.2879">
        <ele>25.60000038147</ele>
        <time>2020-08-23T09:49:30.000Z</time>
      </trkpt>
      <trkpt lat="47.2768" lon="-2.28784">
        <ele>25.60000038147</ele>
        <time>2020-08-23T09:49:31.000Z</time>
      </trkpt>
      <trkpt lat="47.27672" lon="-2.28775">
        <ele>25.60000038147</ele>
        <time>2020-08-23T09:49:33.000Z</time>
      </trkpt>
      <trkpt lat="47.27662" lon="-2.28767">
        <ele>25.60000038147</ele>
        <time>2020-08-23T09:49:35.000Z</time>
      </trkpt>
      <trkpt lat="47.27652" lon="-2.28761">
        <ele>25.60000038147</ele>
        <time>2020-08-23T09:49:37.000Z</time>
      </trkpt>
      <trkpt lat="47.27641" lon="-2.28758">
        <ele>25.60000038147</ele>
        <time>2020-08-23T09:49:39.000Z</time>
      </trkpt>
      <trkpt lat="47.27629" lon="-2.28754">
        <ele>25.60000038147</ele>
        <time>2020-08-23T09:49:41.000Z</time>
      </trkpt>
      <trkpt lat="47.27603" lon="-2.28745">
        <ele>25.60000038147</ele>
        <time>2020-08-23T09:49:45.000Z</time>
      </trkpt>
      <trkpt lat="47.2757" lon="-2.28725">
        <ele>25.60000038147</ele>
        <time>2020-08-23T09:49:51.000Z</time>
      </trkpt>
      <trkpt lat="47.27541" lon="-2.28709">
        <ele>25.60000038147</ele>
        <time>2020-08-23T09:49:57.000Z</time>
      </trkpt>
      <trkpt lat="47.27536" lon="-2.28705">
        <ele>25.60000038147</ele>
        <time>2020-08-23T09:49:58.000Z</time>
      </trkpt>
      <trkpt lat="47.2752" lon="-2.28687">
        <ele>25.60000038147</ele>
        <time>2020-08-23T09:50:02.000Z</time>
      </trkpt>
      <trkpt lat="47.27505" lon="-2.28664">
        <ele>25.60000038147</ele>
        <time>2020-08-23T09:50:06.000Z</time>
      </trkpt>
      <trkpt lat="47.275" lon="-2.28657">
        <ele>25.60000038147</ele>
        <time>2020-08-23T09:50:07.000Z</time>
      </trkpt>
      <trkpt lat="47.27492" lon="-2.28641">
        <ele>26.200000762939</ele>
        <time>2020-08-23T09:50:09.000Z</time>
      </trkpt>
      <trkpt lat="47.27489" lon="-2.28634">
        <ele>26.60000038147</ele>
        <time>2020-08-23T09:50:10.000Z</time>
      </trkpt>
      <trkpt lat="47.27486" lon="-2.28627">
        <ele>27</ele>
        <time>2020-08-23T09:50:11.000Z</time>
      </trkpt>
      <trkpt lat="47.27483" lon="-2.2862">
        <ele>27.39999961853</ele>
        <time>2020-08-23T09:50:12.000Z</time>
      </trkpt>
      <trkpt lat="47.27479" lon="-2.28615">
        <ele>27.799999237061</ele>
        <time>2020-08-23T09:50:13.000Z</time>
      </trkpt>
      <trkpt lat="47.27475" lon="-2.28612">
        <ele>27.799999237061</ele>
        <time>2020-08-23T09:50:14.000Z</time>
      </trkpt>
      <trkpt lat="47.27466" lon="-2.28619">
        <ele>27.799999237061</ele>
        <time>2020-08-23T09:50:17.000Z</time>
      </trkpt>
      <trkpt lat="47.27464" lon="-2.28624">
        <ele>27.799999237061</ele>
        <time>2020-08-23T09:50:18.000Z</time>
      </trkpt>
      <trkpt lat="47.27454" lon="-2.28641">
        <ele>27.799999237061</ele>
        <time>2020-08-23T09:50:21.000Z</time>
      </trkpt>
      <trkpt lat="47.27437" lon="-2.28673">
        <ele>27.799999237061</ele>
        <time>2020-08-23T09:50:26.000Z</time>
      </trkpt>
      <trkpt lat="47.27417" lon="-2.28708">
        <ele>27.799999237061</ele>
        <time>2020-08-23T09:50:32.000Z</time>
      </trkpt>
      <trkpt lat="47.27412" lon="-2.28719">
        <ele>27.799999237061</ele>
        <time>2020-08-23T09:50:34.000Z</time>
      </trkpt>
      <trkpt lat="47.27405" lon="-2.28737">
        <ele>27.799999237061</ele>
        <time>2020-08-23T09:50:37.000Z</time>
      </trkpt>
      <trkpt lat="47.27388" lon="-2.28778">
        <ele>27.799999237061</ele>
        <time>2020-08-23T09:50:43.000Z</time>
      </trkpt>
      <trkpt lat="47.27382" lon="-2.28792">
        <ele>27.799999237061</ele>
        <time>2020-08-23T09:50:45.000Z</time>
      </trkpt>
      <trkpt lat="47.27374" lon="-2.28813">
        <ele>27.799999237061</ele>
        <time>2020-08-23T09:50:48.000Z</time>
      </trkpt>
      <trkpt lat="47.27372" lon="-2.2882">
        <ele>27.799999237061</ele>
        <time>2020-08-23T09:50:49.000Z</time>
      </trkpt>
      <trkpt lat="47.27363" lon="-2.28856">
        <ele>27.799999237061</ele>
        <time>2020-08-23T09:50:54.000Z</time>
      </trkpt>
      <trkpt lat="47.27354" lon="-2.28899">
        <ele>27.799999237061</ele>
        <time>2020-08-23T09:51:00.000Z</time>
      </trkpt>
      <trkpt lat="47.27348" lon="-2.2893">
        <ele>27.799999237061</ele>
        <time>2020-08-23T09:51:05.000Z</time>
      </trkpt>
      <trkpt lat="47.27343" lon="-2.28945">
        <ele>27.799999237061</ele>
        <time>2020-08-23T09:51:09.000Z</time>
      </trkpt>
      <trkpt lat="47.27337" lon="-2.28943">
        <ele>27.799999237061</ele>
        <time>2020-08-23T09:51:12.000Z</time>
      </trkpt>
      <trkpt lat="47.27326" lon="-2.28939">
        <ele>27.799999237061</ele>
        <time>2020-08-23T09:51:16.000Z</time>
      </trkpt>
      <trkpt lat="47.27321" lon="-2.28941">
        <ele>27.799999237061</ele>
        <time>2020-08-23T09:51:20.000Z</time>
      </trkpt>
      <trkpt lat="47.27319" lon="-2.28944">
        <ele>27.799999237061</ele>
        <time>2020-08-23T09:51:22.000Z</time>
      </trkpt>
      <trkpt lat="47.2731" lon="-2.2896">
        <ele>27.799999237061</ele>
        <time>2020-08-23T09:51:28.000Z</time>
      </trkpt>
      <trkpt lat="47.27308" lon="-2.28963">
        <ele>27.799999237061</ele>
        <time>2020-08-23T09:51:29.000Z</time>
      </trkpt>
      <trkpt lat="47.27288" lon="-2.28983">
        <ele>27.799999237061</ele>
        <time>2020-08-23T09:51:35.000Z</time>
      </trkpt>
      <trkpt lat="47.27274" lon="-2.29008">
        <ele>28.200000762939</ele>
        <time>2020-08-23T09:51:40.000Z</time>
      </trkpt>
      <trkpt lat="47.2727" lon="-2.29013">
        <ele>28.60000038147</ele>
        <time>2020-08-23T09:51:41.000Z</time>
      </trkpt>
      <trkpt lat="47.27267" lon="-2.29019">
        <ele>29.39999961853</ele>
        <time>2020-08-23T09:51:42.000Z</time>
      </trkpt>
      <trkpt lat="47.27263" lon="-2.29025">
        <ele>29.799999237061</ele>
        <time>2020-08-23T09:51:43.000Z</time>
      </trkpt>
      <trkpt lat="47.27257" lon="-2.29036">
        <ele>29.799999237061</ele>
        <time>2020-08-23T09:51:45.000Z</time>
      </trkpt>
      <trkpt lat="47.27252" lon="-2.29042">
        <ele>29.799999237061</ele>
        <time>2020-08-23T09:51:46.000Z</time>
      </trkpt>
      <trkpt lat="47.27229" lon="-2.29064">
        <ele>29.799999237061</ele>
        <time>2020-08-23T09:51:50.000Z</time>
      </trkpt>
      <trkpt lat="47.27223" lon="-2.29071">
        <ele>29.799999237061</ele>
        <time>2020-08-23T09:51:51.000Z</time>
      </trkpt>
      <trkpt lat="47.27195" lon="-2.29102">
        <ele>29.799999237061</ele>
        <time>2020-08-23T09:51:57.000Z</time>
      </trkpt>
      <trkpt lat="47.2718" lon="-2.29128">
        <ele>29.799999237061</ele>
        <time>2020-08-23T09:52:02.000Z</time>
      </trkpt>
      <trkpt lat="47.27176" lon="-2.29133">
        <ele>29.799999237061</ele>
        <time>2020-08-23T09:52:03.000Z</time>
      </trkpt>
      <trkpt lat="47.27163" lon="-2.29149">
        <ele>29.799999237061</ele>
        <time>2020-08-23T09:52:07.000Z</time>
      </trkpt>
      <trkpt lat="47.2715" lon="-2.29171">
        <ele>29.799999237061</ele>
        <time>2020-08-23T09:52:13.000Z</time>
      </trkpt>
      <trkpt lat="47.27153" lon="-2.29189">
        <ele>29.799999237061</ele>
        <time>2020-08-23T09:52:18.000Z</time>
      </trkpt>
      <trkpt lat="47.27162" lon="-2.29212">
        <ele>29.799999237061</ele>
        <time>2020-08-23T09:52:24.000Z</time>
      </trkpt>
      <trkpt lat="47.27165" lon="-2.29216">
        <ele>29.799999237061</ele>
        <time>2020-08-23T09:52:25.000Z</time>
      </trkpt>
      <trkpt lat="47.27172" lon="-2.29231">
        <ele>29.799999237061</ele>
        <time>2020-08-23T09:52:28.000Z</time>
      </trkpt>
      <trkpt lat="47.27173" lon="-2.29237">
        <ele>29.799999237061</ele>
        <time>2020-08-23T09:52:29.000Z</time>
      </trkpt>
      <trkpt lat="47.27171" lon="-2.29264">
        <ele>29.799999237061</ele>
        <time>2020-08-23T09:52:33.000Z</time>
      </trkpt>
      <trkpt lat="47.27169" lon="-2.29271">
        <ele>29.799999237061</ele>
        <time>2020-08-23T09:52:34.000Z</time>
      </trkpt>
      <trkpt lat="47.27167" lon="-2.29278">
        <ele>30.200000762939</ele>
        <time>2020-08-23T09:52:35.000Z</time>
      </trkpt>
      <trkpt lat="47.27165" lon="-2.29284">
        <ele>30.799999237061</ele>
        <time>2020-08-23T09:52:36.000Z</time>
      </trkpt>
      <trkpt lat="47.27162" lon="-2.29289">
        <ele>31.200000762939</ele>
        <time>2020-08-23T09:52:37.000Z</time>
      </trkpt>
      <trkpt lat="47.27159" lon="-2.29295">
        <ele>31.60000038147</ele>
        <time>2020-08-23T09:52:38.000Z</time>
      </trkpt>
      <trkpt lat="47.27157" lon="-2.29301">
        <ele>32</ele>
        <time>2020-08-23T09:52:39.000Z</time>
      </trkpt>
      <trkpt lat="47.27157" lon="-2.29313">
        <ele>32</ele>
        <time>2020-08-23T09:52:41.000Z</time>
      </trkpt>
      <trkpt lat="47.27158" lon="-2.29317">
        <ele>32</ele>
        <time>2020-08-23T09:52:42.000Z</time>
      </trkpt>
      <trkpt lat="47.27167" lon="-2.29339">
        <ele>32</ele>
        <time>2020-08-23T09:52:46.000Z</time>
      </trkpt>
      <trkpt lat="47.2717" lon="-2.29345">
        <ele>32</ele>
        <time>2020-08-23T09:52:47.000Z</time>
      </trkpt>
      <trkpt lat="47.27194" lon="-2.29394">
        <ele>32</ele>
        <time>2020-08-23T09:52:53.000Z</time>
      </trkpt>
      <trkpt lat="47.27211" lon="-2.29442">
        <ele>32</ele>
        <time>2020-08-23T09:52:59.000Z</time>
      </trkpt>
      <trkpt lat="47.27227" lon="-2.2949">
        <ele>32</ele>
        <time>2020-08-23T09:53:05.000Z</time>
      </trkpt>
      <trkpt lat="47.27236" lon="-2.29509">
        <ele>32</ele>
        <time>2020-08-23T09:53:08.000Z</time>
      </trkpt>
      <trkpt lat="47.27242" lon="-2.2952">
        <ele>32</ele>
        <time>2020-08-23T09:53:10.000Z</time>
      </trkpt>
      <trkpt lat="47.2725" lon="-2.29548">
        <ele>32</ele>
        <time>2020-08-23T09:53:14.000Z</time>
      </trkpt>
      <trkpt lat="47.27251" lon="-2.29555">
        <ele>32</ele>
        <time>2020-08-23T09:53:15.000Z</time>
      </trkpt>
      <trkpt lat="47.2726" lon="-2.29608">
        <ele>32</ele>
        <time>2020-08-23T09:53:22.000Z</time>
      </trkpt>
      <trkpt lat="47.27265" lon="-2.29631">
        <ele>32</ele>
        <time>2020-08-23T09:53:26.000Z</time>
      </trkpt>
      <trkpt lat="47.27269" lon="-2.29648">
        <ele>32</ele>
        <time>2020-08-23T09:53:31.000Z</time>
      </trkpt>
      <trkpt lat="47.2727" lon="-2.29669">
        <ele>32</ele>
        <time>2020-08-23T09:53:35.000Z</time>
      </trkpt>
      <trkpt lat="47.27272" lon="-2.29682">
        <ele>32</ele>
        <time>2020-08-23T09:53:37.000Z</time>
      </trkpt>
      <trkpt lat="47.27276" lon="-2.29697">
        <ele>32</ele>
        <time>2020-08-23T09:53:39.000Z</time>
      </trkpt>
      <trkpt lat="47.27289" lon="-2.29751">
        <ele>32</ele>
        <time>2020-08-23T09:53:46.000Z</time>
      </trkpt>
      <trkpt lat="47.273" lon="-2.29784">
        <ele>32</ele>
        <time>2020-08-23T09:53:51.000Z</time>
      </trkpt>
      <trkpt lat="47.27305" lon="-2.29796">
        <ele>32</ele>
        <time>2020-08-23T09:53:53.000Z</time>
      </trkpt>
      <trkpt lat="47.27314" lon="-2.29813">
        <ele>32</ele>
        <time>2020-08-23T09:53:56.000Z</time>
      </trkpt>
      <trkpt lat="47.27317" lon="-2.29818">
        <ele>32</ele>
        <time>2020-08-23T09:53:57.000Z</time>
      </trkpt>
      <trkpt lat="47.27335" lon="-2.29851">
        <ele>32</ele>
        <time>2020-08-23T09:54:03.000Z</time>
      </trkpt>
      <trkpt lat="47.2735" lon="-2.2988">
        <ele>32</ele>
        <time>2020-08-23T09:54:08.000Z</time>
      </trkpt>
      <trkpt lat="47.27368" lon="-2.2992">
        <ele>32</ele>
        <time>2020-08-23T09:54:14.000Z</time>
      </trkpt>
      <trkpt lat="47.27393" lon="-2.29981">
        <ele>32</ele>
        <time>2020-08-23T09:54:22.000Z</time>
      </trkpt>
      <trkpt lat="47.27414" lon="-2.30028">
        <ele>32</ele>
        <time>2020-08-23T09:54:28.000Z</time>
      </trkpt>
      <trkpt lat="47.2743" lon="-2.30073">
        <ele>32</ele>
        <time>2020-08-23T09:54:34.000Z</time>
      </trkpt>
      <trkpt lat="47.27443" lon="-2.30122">
        <ele>32</ele>
        <time>2020-08-23T09:54:40.000Z</time>
      </trkpt>
      <trkpt lat="47.27445" lon="-2.3013">
        <ele>32</ele>
        <time>2020-08-23T09:54:41.000Z</time>
      </trkpt>
      <trkpt lat="47.2745" lon="-2.30153">
        <ele>31.60000038147</ele>
        <time>2020-08-23T09:54:44.000Z</time>
      </trkpt>
      <trkpt lat="47.27452" lon="-2.30161">
        <ele>31.200000762939</ele>
        <time>2020-08-23T09:54:45.000Z</time>
      </trkpt>
      <trkpt lat="47.27454" lon="-2.30169">
        <ele>30.60000038147</ele>
        <time>2020-08-23T09:54:46.000Z</time>
      </trkpt>
      <trkpt lat="47.27456" lon="-2.30177">
        <ele>30.200000762939</ele>
        <time>2020-08-23T09:54:47.000Z</time>
      </trkpt>
      <trkpt lat="47.27457" lon="-2.30184">
        <ele>29.799999237061</ele>
        <time>2020-08-23T09:54:48.000Z</time>
      </trkpt>
      <trkpt lat="47.27466" lon="-2.30225">
        <ele>29.799999237061</ele>
        <time>2020-08-23T09:54:53.000Z</time>
      </trkpt>
      <trkpt lat="47.27476" lon="-2.3027">
        <ele>29.39999961853</ele>
        <time>2020-08-23T09:54:58.000Z</time>
      </trkpt>
      <trkpt lat="47.27478" lon="-2.3028">
        <ele>28.39999961853</ele>
        <time>2020-08-23T09:54:59.000Z</time>
      </trkpt>
      <trkpt lat="47.2748" lon="-2.30289">
        <ele>28</ele>
        <time>2020-08-23T09:55:00.000Z</time>
      </trkpt>
      <trkpt lat="47.27482" lon="-2.30298">
        <ele>27.60000038147</ele>
        <time>2020-08-23T09:55:01.000Z</time>
      </trkpt>
      <trkpt lat="47.27484" lon="-2.30307">
        <ele>27.200000762939</ele>
        <time>2020-08-23T09:55:02.000Z</time>
      </trkpt>
      <trkpt lat="47.27486" lon="-2.30317">
        <ele>26.799999237061</ele>
        <time>2020-08-23T09:55:03.000Z</time>
      </trkpt>
      <trkpt lat="47.27488" lon="-2.30326">
        <ele>26.39999961853</ele>
        <time>2020-08-23T09:55:04.000Z</time>
      </trkpt>
      <trkpt lat="47.27489" lon="-2.30334">
        <ele>25.799999237061</ele>
        <time>2020-08-23T09:55:05.000Z</time>
      </trkpt>
      <trkpt lat="47.27491" lon="-2.30343">
        <ele>25.39999961853</ele>
        <time>2020-08-23T09:55:06.000Z</time>
      </trkpt>
      <trkpt lat="47.27493" lon="-2.30352">
        <ele>25.39999961853</ele>
        <time>2020-08-23T09:55:07.000Z</time>
      </trkpt>
      <trkpt lat="47.27503" lon="-2.30399">
        <ele>25</ele>
        <time>2020-08-23T09:55:12.000Z</time>
      </trkpt>
      <trkpt lat="47.27504" lon="-2.30408">
        <ele>24.60000038147</ele>
        <time>2020-08-23T09:55:13.000Z</time>
      </trkpt>
      <trkpt lat="47.27505" lon="-2.30416">
        <ele>24.200000762939</ele>
        <time>2020-08-23T09:55:14.000Z</time>
      </trkpt>
      <trkpt lat="47.27506" lon="-2.30423">
        <ele>23.60000038147</ele>
        <time>2020-08-23T09:55:15.000Z</time>
      </trkpt>
      <trkpt lat="47.27504" lon="-2.3043">
        <ele>23.200000762939</ele>
        <time>2020-08-23T09:55:16.000Z</time>
      </trkpt>
      <trkpt lat="47.27493" lon="-2.30439">
        <ele>23.200000762939</ele>
        <time>2020-08-23T09:55:19.000Z</time>
      </trkpt>
      <trkpt lat="47.27482" lon="-2.30441">
        <ele>23.200000762939</ele>
        <time>2020-08-23T09:55:21.000Z</time>
      </trkpt>
      <trkpt lat="47.27466" lon="-2.30444">
        <ele>23.200000762939</ele>
        <time>2020-08-23T09:55:24.000Z</time>
      </trkpt>
      <trkpt lat="47.27442" lon="-2.30448">
        <ele>23.200000762939</ele>
        <time>2020-08-23T09:55:29.000Z</time>
      </trkpt>
      <trkpt lat="47.27438" lon="-2.30448">
        <ele>23.200000762939</ele>
        <time>2020-08-23T09:55:30.000Z</time>
      </trkpt>
      <trkpt lat="47.27427" lon="-2.30448">
        <ele>23.200000762939</ele>
        <time>2020-08-23T09:55:33.000Z</time>
      </trkpt>
      <trkpt lat="47.2742" lon="-2.30454">
        <ele>23.200000762939</ele>
        <time>2020-08-23T09:55:38.000Z</time>
      </trkpt>
      <trkpt lat="47.2742" lon="-2.30454">
        <ele>22.799999237061</ele>
        <time>2020-08-23T09:55:39.000Z</time>
      </trkpt>
      <trkpt lat="47.27414" lon="-2.30459">
        <ele>21.200000762939</ele>
        <time>2020-08-23T09:55:52.000Z</time>
      </trkpt>
      <trkpt lat="47.27412" lon="-2.30462">
        <ele>21.200000762939</ele>
        <time>2020-08-23T09:55:54.000Z</time>
      </trkpt>
      <trkpt lat="47.27411" lon="-2.30464">
        <ele>21.200000762939</ele>
        <time>2020-08-23T09:55:55.000Z</time>
      </trkpt>
      <trkpt lat="47.27399" lon="-2.30474">
        <ele>21.200000762939</ele>
        <time>2020-08-23T09:55:59.000Z</time>
      </trkpt>
      <trkpt lat="47.27389" lon="-2.30482">
        <ele>21.200000762939</ele>
        <time>2020-08-23T09:56:02.000Z</time>
      </trkpt>
      <trkpt lat="47.27381" lon="-2.30488">
        <ele>21.200000762939</ele>
        <time>2020-08-23T09:56:04.000Z</time>
      </trkpt>
      <trkpt lat="47.2736" lon="-2.30504">
        <ele>21.200000762939</ele>
        <time>2020-08-23T09:56:10.000Z</time>
      </trkpt>
      <trkpt lat="47.27345" lon="-2.30508">
        <ele>21.200000762939</ele>
        <time>2020-08-23T09:56:15.000Z</time>
      </trkpt>
      <trkpt lat="47.27326" lon="-2.30514">
        <ele>21.200000762939</ele>
        <time>2020-08-23T09:56:20.000Z</time>
      </trkpt>
      <trkpt lat="47.27301" lon="-2.30527">
        <ele>21.200000762939</ele>
        <time>2020-08-23T09:56:27.000Z</time>
      </trkpt>
      <trkpt lat="47.27273" lon="-2.30542">
        <ele>21.200000762939</ele>
        <time>2020-08-23T09:56:34.000Z</time>
      </trkpt>
      <trkpt lat="47.27252" lon="-2.30545">
        <ele>21.200000762939</ele>
        <time>2020-08-23T09:56:40.000Z</time>
      </trkpt>
      <trkpt lat="47.27241" lon="-2.30544">
        <ele>21.200000762939</ele>
        <time>2020-08-23T09:56:44.000Z</time>
      </trkpt>
      <trkpt lat="47.27231" lon="-2.30544">
        <ele>21.200000762939</ele>
        <time>2020-08-23T09:56:48.000Z</time>
      </trkpt>
      <trkpt lat="47.27227" lon="-2.30544">
        <ele>21.200000762939</ele>
        <time>2020-08-23T09:56:49.000Z</time>
      </trkpt>
      <trkpt lat="47.27217" lon="-2.30544">
        <ele>21.200000762939</ele>
        <time>2020-08-23T09:56:53.000Z</time>
      </trkpt>
      <trkpt lat="47.27201" lon="-2.30542">
        <ele>21.200000762939</ele>
        <time>2020-08-23T09:56:58.000Z</time>
      </trkpt>
      <trkpt lat="47.27187" lon="-2.30537">
        <ele>21.200000762939</ele>
        <time>2020-08-23T09:57:03.000Z</time>
      </trkpt>
      <trkpt lat="47.27163" lon="-2.30525">
        <ele>21.200000762939</ele>
        <time>2020-08-23T09:57:09.000Z</time>
      </trkpt>
      <trkpt lat="47.2716" lon="-2.30522">
        <ele>21.60000038147</ele>
        <time>2020-08-23T09:57:10.000Z</time>
      </trkpt>
      <trkpt lat="47.27156" lon="-2.30519">
        <ele>22</ele>
        <time>2020-08-23T09:57:11.000Z</time>
      </trkpt>
      <trkpt lat="47.27153" lon="-2.30516">
        <ele>22.39999961853</ele>
        <time>2020-08-23T09:57:12.000Z</time>
      </trkpt>
      <trkpt lat="47.2715" lon="-2.30513">
        <ele>22.799999237061</ele>
        <time>2020-08-23T09:57:13.000Z</time>
      </trkpt>
      <trkpt lat="47.27147" lon="-2.3051">
        <ele>23.200000762939</ele>
        <time>2020-08-23T09:57:14.000Z</time>
      </trkpt>
      <trkpt lat="47.2713" lon="-2.30501">
        <ele>23.200000762939</ele>
        <time>2020-08-23T09:57:18.000Z</time>
      </trkpt>
      <trkpt lat="47.27111" lon="-2.30493">
        <ele>23.200000762939</ele>
        <time>2020-08-23T09:57:23.000Z</time>
      </trkpt>
      <trkpt lat="47.27094" lon="-2.30489">
        <ele>23.200000762939</ele>
        <time>2020-08-23T09:57:28.000Z</time>
      </trkpt>
      <trkpt lat="47.27088" lon="-2.30487">
        <ele>23.60000038147</ele>
        <time>2020-08-23T09:57:30.000Z</time>
      </trkpt>
      <trkpt lat="47.27085" lon="-2.30485">
        <ele>24</ele>
        <time>2020-08-23T09:57:31.000Z</time>
      </trkpt>
      <trkpt lat="47.27081" lon="-2.30484">
        <ele>24.60000038147</ele>
        <time>2020-08-23T09:57:32.000Z</time>
      </trkpt>
      <trkpt lat="47.27078" lon="-2.30483">
        <ele>25</ele>
        <time>2020-08-23T09:57:33.000Z</time>
      </trkpt>
      <trkpt lat="47.27074" lon="-2.30481">
        <ele>25.39999961853</ele>
        <time>2020-08-23T09:57:34.000Z</time>
      </trkpt>
      <trkpt lat="47.27062" lon="-2.30478">
        <ele>25.39999961853</ele>
        <time>2020-08-23T09:57:37.000Z</time>
      </trkpt>
      <trkpt lat="47.27049" lon="-2.3047">
        <ele>25.39999961853</ele>
        <time>2020-08-23T09:57:41.000Z</time>
      </trkpt>
      <trkpt lat="47.27045" lon="-2.3047">
        <ele>25.39999961853</ele>
        <time>2020-08-23T09:57:42.000Z</time>
      </trkpt>
      <trkpt lat="47.27041" lon="-2.30475">
        <ele>25.39999961853</ele>
        <time>2020-08-23T09:57:44.000Z</time>
      </trkpt>
      <trkpt lat="47.27038" lon="-2.30484">
        <ele>25.39999961853</ele>
        <time>2020-08-23T09:57:46.000Z</time>
      </trkpt>
      <trkpt lat="47.27035" lon="-2.30495">
        <ele>25.799999237061</ele>
        <time>2020-08-23T09:57:48.000Z</time>
      </trkpt>
      <trkpt lat="47.27034" lon="-2.30501">
        <ele>26.200000762939</ele>
        <time>2020-08-23T09:57:49.000Z</time>
      </trkpt>
      <trkpt lat="47.27032" lon="-2.30507">
        <ele>26.60000038147</ele>
        <time>2020-08-23T09:57:50.000Z</time>
      </trkpt>
      <trkpt lat="47.27031" lon="-2.30513">
        <ele>27</ele>
        <time>2020-08-23T09:57:51.000Z</time>
      </trkpt>
      <trkpt lat="47.27031" lon="-2.30519">
        <ele>27.39999961853</ele>
        <time>2020-08-23T09:57:52.000Z</time>
      </trkpt>
      <trkpt lat="47.27028" lon="-2.30537">
        <ele>27.39999961853</ele>
        <time>2020-08-23T09:57:55.000Z</time>
      </trkpt>
      <trkpt lat="47.27026" lon="-2.30544">
        <ele>27.39999961853</ele>
        <time>2020-08-23T09:57:56.000Z</time>
      </trkpt>
      <trkpt lat="47.27024" lon="-2.30557">
        <ele>27.39999961853</ele>
        <time>2020-08-23T09:57:58.000Z</time>
      </trkpt>
      <trkpt lat="47.27019" lon="-2.3057">
        <ele>27.39999961853</ele>
        <time>2020-08-23T09:58:00.000Z</time>
      </trkpt>
      <trkpt lat="47.27011" lon="-2.3059">
        <ele>27.39999961853</ele>
        <time>2020-08-23T09:58:03.000Z</time>
      </trkpt>
      <trkpt lat="47.27003" lon="-2.306">
        <ele>27.39999961853</ele>
        <time>2020-08-23T09:58:05.000Z</time>
      </trkpt>
      <trkpt lat="47.26992" lon="-2.30607">
        <ele>27.39999961853</ele>
        <time>2020-08-23T09:58:07.000Z</time>
      </trkpt>
      <trkpt lat="47.26981" lon="-2.30614">
        <ele>27.39999961853</ele>
        <time>2020-08-23T09:58:09.000Z</time>
      </trkpt>
      <trkpt lat="47.26965" lon="-2.30621">
        <ele>27.39999961853</ele>
        <time>2020-08-23T09:58:12.000Z</time>
      </trkpt>
      <trkpt lat="47.2695" lon="-2.30626">
        <ele>27.39999961853</ele>
        <time>2020-08-23T09:58:15.000Z</time>
      </trkpt>
      <trkpt lat="47.26926" lon="-2.30633">
        <ele>27.39999961853</ele>
        <time>2020-08-23T09:58:20.000Z</time>
      </trkpt>
      <trkpt lat="47.26923" lon="-2.30635">
        <ele>27.39999961853</ele>
        <time>2020-08-23T09:58:21.000Z</time>
      </trkpt>
      <trkpt lat="47.26906" lon="-2.30646">
        <ele>27.39999961853</ele>
        <time>2020-08-23T09:58:27.000Z</time>
      </trkpt>
      <trkpt lat="47.26898" lon="-2.3066">
        <ele>27.39999961853</ele>
        <time>2020-08-23T09:58:33.000Z</time>
      </trkpt>
      <trkpt lat="47.26898" lon="-2.30661">
        <ele>27.39999961853</ele>
        <time>2020-08-23T09:58:35.000Z</time>
      </trkpt>
      <trkpt lat="47.26898" lon="-2.30662">
        <ele>29.39999961853</ele>
        <time>2020-08-23T09:59:54.000Z</time>
      </trkpt>
      <trkpt lat="47.26899" lon="-2.30665">
        <ele>29.39999961853</ele>
        <time>2020-08-23T09:59:55.000Z</time>
      </trkpt>
      <trkpt lat="47.26901" lon="-2.3067">
        <ele>29.39999961853</ele>
        <time>2020-08-23T09:59:58.000Z</time>
      </trkpt>
      <trkpt lat="47.26906" lon="-2.30676">
        <ele>29.39999961853</ele>
        <time>2020-08-23T10:00:01.000Z</time>
      </trkpt>
      <trkpt lat="47.2692" lon="-2.30698">
        <ele>29.39999961853</ele>
        <time>2020-08-23T10:00:07.000Z</time>
      </trkpt>
      <trkpt lat="47.26933" lon="-2.30717">
        <ele>29.39999961853</ele>
        <time>2020-08-23T10:00:12.000Z</time>
      </trkpt>
      <trkpt lat="47.26952" lon="-2.30744">
        <ele>29.39999961853</ele>
        <time>2020-08-23T10:00:17.000Z</time>
      </trkpt>
      <trkpt lat="47.2697" lon="-2.3077">
        <ele>28.60000038147</ele>
        <time>2020-08-23T10:00:21.000Z</time>
      </trkpt>
      <trkpt lat="47.26974" lon="-2.30776">
        <ele>28.200000762939</ele>
        <time>2020-08-23T10:00:22.000Z</time>
      </trkpt>
      <trkpt lat="47.26978" lon="-2.30782">
        <ele>27.799999237061</ele>
        <time>2020-08-23T10:00:23.000Z</time>
      </trkpt>
      <trkpt lat="47.26982" lon="-2.30788">
        <ele>27.39999961853</ele>
        <time>2020-08-23T10:00:24.000Z</time>
      </trkpt>
      <trkpt lat="47.26999" lon="-2.30816">
        <ele>27.39999961853</ele>
        <time>2020-08-23T10:00:28.000Z</time>
      </trkpt>
      <trkpt lat="47.27008" lon="-2.30829">
        <ele>26.799999237061</ele>
        <time>2020-08-23T10:00:30.000Z</time>
      </trkpt>
      <trkpt lat="47.27012" lon="-2.30836">
        <ele>26.39999961853</ele>
        <time>2020-08-23T10:00:31.000Z</time>
      </trkpt>
      <trkpt lat="47.27016" lon="-2.30842">
        <ele>26</ele>
        <time>2020-08-23T10:00:32.000Z</time>
      </trkpt>
      <trkpt lat="47.27022" lon="-2.30849">
        <ele>25.60000038147</ele>
        <time>2020-08-23T10:00:33.000Z</time>
      </trkpt>
      <trkpt lat="47.27026" lon="-2.30856">
        <ele>25.200000762939</ele>
        <time>2020-08-23T10:00:34.000Z</time>
      </trkpt>
      <trkpt lat="47.27041" lon="-2.3088">
        <ele>24.799999237061</ele>
        <time>2020-08-23T10:00:38.000Z</time>
      </trkpt>
      <trkpt lat="47.27043" lon="-2.30885">
        <ele>24.39999961853</ele>
        <time>2020-08-23T10:00:39.000Z</time>
      </trkpt>
      <trkpt lat="47.27044" lon="-2.30888">
        <ele>23.799999237061</ele>
        <time>2020-08-23T10:00:40.000Z</time>
      </trkpt>
      <trkpt lat="47.27045" lon="-2.30892">
        <ele>23.39999961853</ele>
        <time>2020-08-23T10:00:41.000Z</time>
      </trkpt>
      <trkpt lat="47.27046" lon="-2.30894">
        <ele>23</ele>
        <time>2020-08-23T10:00:42.000Z</time>
      </trkpt>
      <trkpt lat="47.27052" lon="-2.30917">
        <ele>23</ele>
        <time>2020-08-23T10:00:48.000Z</time>
      </trkpt>
      <trkpt lat="47.27061" lon="-2.3095">
        <ele>23</ele>
        <time>2020-08-23T10:00:54.000Z</time>
      </trkpt>
      <trkpt lat="47.27064" lon="-2.30963">
        <ele>23</ele>
        <time>2020-08-23T10:00:56.000Z</time>
      </trkpt>
      <trkpt lat="47.27066" lon="-2.30974">
        <ele>23</ele>
        <time>2020-08-23T10:00:58.000Z</time>
      </trkpt>
      <trkpt lat="47.27065" lon="-2.30987">
        <ele>23</ele>
        <time>2020-08-23T10:01:01.000Z</time>
      </trkpt>
      <trkpt lat="47.27065" lon="-2.3099">
        <ele>23</ele>
        <time>2020-08-23T10:01:02.000Z</time>
      </trkpt>
      <trkpt lat="47.27057" lon="-2.31009">
        <ele>23</ele>
        <time>2020-08-23T10:01:07.000Z</time>
      </trkpt>
      <trkpt lat="47.27034" lon="-2.31028">
        <ele>23</ele>
        <time>2020-08-23T10:01:11.000Z</time>
      </trkpt>
      <trkpt lat="47.27014" lon="-2.31044">
        <ele>23</ele>
        <time>2020-08-23T10:01:14.000Z</time>
      </trkpt>
      <trkpt lat="47.27003" lon="-2.31056">
        <ele>23</ele>
        <time>2020-08-23T10:01:16.000Z</time>
      </trkpt>
      <trkpt lat="47.27" lon="-2.31063">
        <ele>23.39999961853</ele>
        <time>2020-08-23T10:01:17.000Z</time>
      </trkpt>
      <trkpt lat="47.26999" lon="-2.3107">
        <ele>23.799999237061</ele>
        <time>2020-08-23T10:01:18.000Z</time>
      </trkpt>
      <trkpt lat="47.26998" lon="-2.31078">
        <ele>24.200000762939</ele>
        <time>2020-08-23T10:01:19.000Z</time>
      </trkpt>
      <trkpt lat="47.26998" lon="-2.31086">
        <ele>24.60000038147</ele>
        <time>2020-08-23T10:01:20.000Z</time>
      </trkpt>
      <trkpt lat="47.26999" lon="-2.31094">
        <ele>25</ele>
        <time>2020-08-23T10:01:21.000Z</time>
      </trkpt>
      <trkpt lat="47.27" lon="-2.31114">
        <ele>25</ele>
        <time>2020-08-23T10:01:24.000Z</time>
      </trkpt>
      <trkpt lat="47.26999" lon="-2.31123">
        <ele>25</ele>
        <time>2020-08-23T10:01:25.000Z</time>
      </trkpt>
      <trkpt lat="47.26993" lon="-2.31156">
        <ele>25.39999961853</ele>
        <time>2020-08-23T10:01:29.000Z</time>
      </trkpt>
      <trkpt lat="47.26992" lon="-2.31163">
        <ele>25.799999237061</ele>
        <time>2020-08-23T10:01:30.000Z</time>
      </trkpt>
      <trkpt lat="47.2699" lon="-2.31171">
        <ele>26.39999961853</ele>
        <time>2020-08-23T10:01:31.000Z</time>
      </trkpt>
      <trkpt lat="47.26989" lon="-2.31178">
        <ele>26.799999237061</ele>
        <time>2020-08-23T10:01:32.000Z</time>
      </trkpt>
      <trkpt lat="47.26987" lon="-2.31186">
        <ele>27.200000762939</ele>
        <time>2020-08-23T10:01:33.000Z</time>
      </trkpt>
      <trkpt lat="47.26985" lon="-2.31194">
        <ele>27.200000762939</ele>
        <time>2020-08-23T10:01:34.000Z</time>
      </trkpt>
      <trkpt lat="47.26979" lon="-2.31217">
        <ele>27.60000038147</ele>
        <time>2020-08-23T10:01:37.000Z</time>
      </trkpt>
      <trkpt lat="47.26977" lon="-2.31224">
        <ele>28</ele>
        <time>2020-08-23T10:01:38.000Z</time>
      </trkpt>
      <trkpt lat="47.26976" lon="-2.31232">
        <ele>28.39999961853</ele>
        <time>2020-08-23T10:01:39.000Z</time>
      </trkpt>
      <trkpt lat="47.26976" lon="-2.31239">
        <ele>28.799999237061</ele>
        <time>2020-08-23T10:01:40.000Z</time>
      </trkpt>
      <trkpt lat="47.26975" lon="-2.31247">
        <ele>29.200000762939</ele>
        <time>2020-08-23T10:01:41.000Z</time>
      </trkpt>
      <trkpt lat="47.26975" lon="-2.31255">
        <ele>29.200000762939</ele>
        <time>2020-08-23T10:01:42.000Z</time>
      </trkpt>
      <trkpt lat="47.26976" lon="-2.3127">
        <ele>29.200000762939</ele>
        <time>2020-08-23T10:01:44.000Z</time>
      </trkpt>
      <trkpt lat="47.26976" lon="-2.31278">
        <ele>29.200000762939</ele>
        <time>2020-08-23T10:01:45.000Z</time>
      </trkpt>
      <trkpt lat="47.26976" lon="-2.31298">
        <ele>29.200000762939</ele>
        <time>2020-08-23T10:01:48.000Z</time>
      </trkpt>
      <trkpt lat="47.26979" lon="-2.31319">
        <ele>29.200000762939</ele>
        <time>2020-08-23T10:01:51.000Z</time>
      </trkpt>
      <trkpt lat="47.26984" lon="-2.31368">
        <ele>29.200000762939</ele>
        <time>2020-08-23T10:01:58.000Z</time>
      </trkpt>
      <trkpt lat="47.26987" lon="-2.31406">
        <ele>29.200000762939</ele>
        <time>2020-08-23T10:02:02.000Z</time>
      </trkpt>
      <trkpt lat="47.26987" lon="-2.31415">
        <ele>29.200000762939</ele>
        <time>2020-08-23T10:02:03.000Z</time>
      </trkpt>
      <trkpt lat="47.26988" lon="-2.31424">
        <ele>28.799999237061</ele>
        <time>2020-08-23T10:02:04.000Z</time>
      </trkpt>
      <trkpt lat="47.26989" lon="-2.31434">
        <ele>28.39999961853</ele>
        <time>2020-08-23T10:02:05.000Z</time>
      </trkpt>
      <trkpt lat="47.2699" lon="-2.31442">
        <ele>27.799999237061</ele>
        <time>2020-08-23T10:02:06.000Z</time>
      </trkpt>
      <trkpt lat="47.2699" lon="-2.3145">
        <ele>27.39999961853</ele>
        <time>2020-08-23T10:02:07.000Z</time>
      </trkpt>
      <trkpt lat="47.26991" lon="-2.31458">
        <ele>27</ele>
        <time>2020-08-23T10:02:08.000Z</time>
      </trkpt>
      <trkpt lat="47.26992" lon="-2.31465">
        <ele>27</ele>
        <time>2020-08-23T10:02:09.000Z</time>
      </trkpt>
      <trkpt lat="47.27002" lon="-2.31512">
        <ele>27</ele>
        <time>2020-08-23T10:02:15.000Z</time>
      </trkpt>
      <trkpt lat="47.27003" lon="-2.3152">
        <ele>26.60000038147</ele>
        <time>2020-08-23T10:02:16.000Z</time>
      </trkpt>
      <trkpt lat="47.27005" lon="-2.31527">
        <ele>26</ele>
        <time>2020-08-23T10:02:17.000Z</time>
      </trkpt>
      <trkpt lat="47.27007" lon="-2.31534">
        <ele>25.60000038147</ele>
        <time>2020-08-23T10:02:18.000Z</time>
      </trkpt>
      <trkpt lat="47.27009" lon="-2.3154">
        <ele>25.200000762939</ele>
        <time>2020-08-23T10:02:19.000Z</time>
      </trkpt>
      <trkpt lat="47.2701" lon="-2.31546">
        <ele>24.60000038147</ele>
        <time>2020-08-23T10:02:20.000Z</time>
      </trkpt>
      <trkpt lat="47.27012" lon="-2.31551">
        <ele>24.200000762939</ele>
        <time>2020-08-23T10:02:21.000Z</time>
      </trkpt>
      <trkpt lat="47.27013" lon="-2.31555">
        <ele>23.799999237061</ele>
        <time>2020-08-23T10:02:22.000Z</time>
      </trkpt>
      <trkpt lat="47.27015" lon="-2.31559">
        <ele>22.799999237061</ele>
        <time>2020-08-23T10:02:23.000Z</time>
      </trkpt>
      <trkpt lat="47.27016" lon="-2.31562">
        <ele>22.39999961853</ele>
        <time>2020-08-23T10:02:24.000Z</time>
      </trkpt>
      <trkpt lat="47.27018" lon="-2.31566">
        <ele>22.39999961853</ele>
        <time>2020-08-23T10:02:25.000Z</time>
      </trkpt>
      <trkpt lat="47.27025" lon="-2.31584">
        <ele>21.799999237061</ele>
        <time>2020-08-23T10:02:29.000Z</time>
      </trkpt>
      <trkpt lat="47.27027" lon="-2.31588">
        <ele>21.39999961853</ele>
        <time>2020-08-23T10:02:30.000Z</time>
      </trkpt>
      <trkpt lat="47.27028" lon="-2.31593">
        <ele>20.799999237061</ele>
        <time>2020-08-23T10:02:31.000Z</time>
      </trkpt>
      <trkpt lat="47.2703" lon="-2.31598">
        <ele>20.39999961853</ele>
        <time>2020-08-23T10:02:32.000Z</time>
      </trkpt>
      <trkpt lat="47.27032" lon="-2.31604">
        <ele>19.799999237061</ele>
        <time>2020-08-23T10:02:33.000Z</time>
      </trkpt>
      <trkpt lat="47.27034" lon="-2.31613">
        <ele>19.799999237061</ele>
        <time>2020-08-23T10:02:34.000Z</time>
      </trkpt>
      <trkpt lat="47.27036" lon="-2.31639">
        <ele>19.799999237061</ele>
        <time>2020-08-23T10:02:37.000Z</time>
      </trkpt>
      <trkpt lat="47.27037" lon="-2.31656">
        <ele>19.799999237061</ele>
        <time>2020-08-23T10:02:39.000Z</time>
      </trkpt>
      <trkpt lat="47.27037" lon="-2.31665">
        <ele>19.39999961853</ele>
        <time>2020-08-23T10:02:40.000Z</time>
      </trkpt>
      <trkpt lat="47.27036" lon="-2.31674">
        <ele>19</ele>
        <time>2020-08-23T10:02:41.000Z</time>
      </trkpt>
      <trkpt lat="47.27035" lon="-2.31682">
        <ele>18.60000038147</ele>
        <time>2020-08-23T10:02:42.000Z</time>
      </trkpt>
      <trkpt lat="47.27034" lon="-2.31687">
        <ele>18.200000762939</ele>
        <time>2020-08-23T10:02:43.000Z</time>
      </trkpt>
      <trkpt lat="47.27032" lon="-2.31692">
        <ele>17.799999237061</ele>
        <time>2020-08-23T10:02:44.000Z</time>
      </trkpt>
      <trkpt lat="47.27032" lon="-2.31695">
        <ele>17.200000762939</ele>
        <time>2020-08-23T10:02:45.000Z</time>
      </trkpt>
      <trkpt lat="47.27032" lon="-2.31699">
        <ele>16.60000038147</ele>
        <time>2020-08-23T10:02:46.000Z</time>
      </trkpt>
      <trkpt lat="47.27034" lon="-2.31703">
        <ele>15.39999961853</ele>
        <time>2020-08-23T10:02:47.000Z</time>
      </trkpt>
      <trkpt lat="47.27037" lon="-2.31707">
        <ele>15.39999961853</ele>
        <time>2020-08-23T10:02:48.000Z</time>
      </trkpt>
      <trkpt lat="47.27055" lon="-2.31725">
        <ele>15.39999961853</ele>
        <time>2020-08-23T10:02:52.000Z</time>
      </trkpt>
      <trkpt lat="47.2706" lon="-2.31747">
        <ele>15.39999961853</ele>
        <time>2020-08-23T10:02:56.000Z</time>
      </trkpt>
      <trkpt lat="47.2706" lon="-2.31784">
        <ele>15</ele>
        <time>2020-08-23T10:03:01.000Z</time>
      </trkpt>
      <trkpt lat="47.2706" lon="-2.31793">
        <ele>14.60000038147</ele>
        <time>2020-08-23T10:03:02.000Z</time>
      </trkpt>
      <trkpt lat="47.27061" lon="-2.31801">
        <ele>14.199999809265</ele>
        <time>2020-08-23T10:03:03.000Z</time>
      </trkpt>
      <trkpt lat="47.27061" lon="-2.31809">
        <ele>13.800000190735</ele>
        <time>2020-08-23T10:03:04.000Z</time>
      </trkpt>
      <trkpt lat="47.27062" lon="-2.31817">
        <ele>13.39999961853</ele>
        <time>2020-08-23T10:03:05.000Z</time>
      </trkpt>
      <trkpt lat="47.27062" lon="-2.31833">
        <ele>13.39999961853</ele>
        <time>2020-08-23T10:03:07.000Z</time>
      </trkpt>
      <trkpt lat="47.27063" lon="-2.31839">
        <ele>13.39999961853</ele>
        <time>2020-08-23T10:03:08.000Z</time>
      </trkpt>
      <trkpt lat="47.27064" lon="-2.31845">
        <ele>13</ele>
        <time>2020-08-23T10:03:09.000Z</time>
      </trkpt>
      <trkpt lat="47.27066" lon="-2.31849">
        <ele>12.60000038147</ele>
        <time>2020-08-23T10:03:10.000Z</time>
      </trkpt>
      <trkpt lat="47.27069" lon="-2.31851">
        <ele>12.199999809265</ele>
        <time>2020-08-23T10:03:11.000Z</time>
      </trkpt>
      <trkpt lat="47.27072" lon="-2.31854">
        <ele>11.39999961853</ele>
        <time>2020-08-23T10:03:12.000Z</time>
      </trkpt>
      <trkpt lat="47.27076" lon="-2.31865">
        <ele>11.39999961853</ele>
        <time>2020-08-23T10:03:15.000Z</time>
      </trkpt>
      <trkpt lat="47.27075" lon="-2.31869">
        <ele>11.39999961853</ele>
        <time>2020-08-23T10:03:17.000Z</time>
      </trkpt>
      <trkpt lat="47.27075" lon="-2.31876">
        <ele>11.39999961853</ele>
        <time>2020-08-23T10:03:19.000Z</time>
      </trkpt>
      <trkpt lat="47.27071" lon="-2.31893">
        <ele>11.39999961853</ele>
        <time>2020-08-23T10:03:23.000Z</time>
      </trkpt>
      <trkpt lat="47.27071" lon="-2.31919">
        <ele>11.39999961853</ele>
        <time>2020-08-23T10:03:28.000Z</time>
      </trkpt>
      <trkpt lat="47.27072" lon="-2.31925">
        <ele>10.800000190735</ele>
        <time>2020-08-23T10:03:29.000Z</time>
      </trkpt>
      <trkpt lat="47.27073" lon="-2.3193">
        <ele>10.39999961853</ele>
        <time>2020-08-23T10:03:30.000Z</time>
      </trkpt>
      <trkpt lat="47.27073" lon="-2.31934">
        <ele>10</ele>
        <time>2020-08-23T10:03:31.000Z</time>
      </trkpt>
      <trkpt lat="47.27074" lon="-2.31937">
        <ele>9.3999996185303</ele>
        <time>2020-08-23T10:03:32.000Z</time>
      </trkpt>
      <trkpt lat="47.27074" lon="-2.31941">
        <ele>9</ele>
        <time>2020-08-23T10:03:33.000Z</time>
      </trkpt>
      <trkpt lat="47.27073" lon="-2.31943">
        <ele>9</ele>
        <time>2020-08-23T10:03:34.000Z</time>
      </trkpt>
      <trkpt lat="47.27067" lon="-2.31944">
        <ele>9</ele>
        <time>2020-08-23T10:03:36.000Z</time>
      </trkpt>
      <trkpt lat="47.2705" lon="-2.31945">
        <ele>9</ele>
        <time>2020-08-23T10:03:40.000Z</time>
      </trkpt>
      <trkpt lat="47.27033" lon="-2.31953">
        <ele>9</ele>
        <time>2020-08-23T10:03:44.000Z</time>
      </trkpt>
      <trkpt lat="47.27029" lon="-2.31956">
        <ele>9</ele>
        <time>2020-08-23T10:03:45.000Z</time>
      </trkpt>
      <trkpt lat="47.27007" lon="-2.31972">
        <ele>9</ele>
        <time>2020-08-23T10:03:50.000Z</time>
      </trkpt>
      <trkpt lat="47.27006" lon="-2.31985">
        <ele>9</ele>
        <time>2020-08-23T10:03:52.000Z</time>
      </trkpt>
      <trkpt lat="47.27009" lon="-2.31998">
        <ele>9</ele>
        <time>2020-08-23T10:03:54.000Z</time>
      </trkpt>
      <trkpt lat="47.27015" lon="-2.32019">
        <ele>9</ele>
        <time>2020-08-23T10:03:57.000Z</time>
      </trkpt>
      <trkpt lat="47.2702" lon="-2.32047">
        <ele>9</ele>
        <time>2020-08-23T10:04:01.000Z</time>
      </trkpt>
      <trkpt lat="47.2702" lon="-2.32054">
        <ele>8.6000003814697</ele>
        <time>2020-08-23T10:04:02.000Z</time>
      </trkpt>
      <trkpt lat="47.2702" lon="-2.32061">
        <ele>8.1999998092651</ele>
        <time>2020-08-23T10:04:03.000Z</time>
      </trkpt>
      <trkpt lat="47.27019" lon="-2.32069">
        <ele>7.8000001907349</ele>
        <time>2020-08-23T10:04:04.000Z</time>
      </trkpt>
      <trkpt lat="47.27019" lon="-2.32077">
        <ele>7.4000000953674</ele>
        <time>2020-08-23T10:04:05.000Z</time>
      </trkpt>
      <trkpt lat="47.27019" lon="-2.32085">
        <ele>7</ele>
        <time>2020-08-23T10:04:06.000Z</time>
      </trkpt>
      <trkpt lat="47.27017" lon="-2.32093">
        <ele>7</ele>
        <time>2020-08-23T10:04:07.000Z</time>
      </trkpt>
      <trkpt lat="47.27013" lon="-2.32106">
        <ele>7</ele>
        <time>2020-08-23T10:04:09.000Z</time>
      </trkpt>
      <trkpt lat="47.26998" lon="-2.32124">
        <ele>7</ele>
        <time>2020-08-23T10:04:13.000Z</time>
      </trkpt>
      <trkpt lat="47.26996" lon="-2.3213">
        <ele>6.4000000953674</ele>
        <time>2020-08-23T10:04:14.000Z</time>
      </trkpt>
      <trkpt lat="47.26995" lon="-2.32137">
        <ele>6</ele>
        <time>2020-08-23T10:04:15.000Z</time>
      </trkpt>
      <trkpt lat="47.26996" lon="-2.32143">
        <ele>5.5999999046326</ele>
        <time>2020-08-23T10:04:16.000Z</time>
      </trkpt>
      <trkpt lat="47.26998" lon="-2.32149">
        <ele>5.1999998092651</ele>
        <time>2020-08-23T10:04:17.000Z</time>
      </trkpt>
      <trkpt lat="47.27001" lon="-2.32155">
        <ele>4.8000001907349</ele>
        <time>2020-08-23T10:04:18.000Z</time>
      </trkpt>
      <trkpt lat="47.27004" lon="-2.32161">
        <ele>4.8000001907349</ele>
        <time>2020-08-23T10:04:19.000Z</time>
      </trkpt>
      <trkpt lat="47.27008" lon="-2.32166">
        <ele>4.8000001907349</ele>
        <time>2020-08-23T10:04:20.000Z</time>
      </trkpt>
      <trkpt lat="47.27012" lon="-2.32173">
        <ele>4.8000001907349</ele>
        <time>2020-08-23T10:04:21.000Z</time>
      </trkpt>
      <trkpt lat="47.27021" lon="-2.32193">
        <ele>4.8000001907349</ele>
        <time>2020-08-23T10:04:24.000Z</time>
      </trkpt>
      <trkpt lat="47.27023" lon="-2.32199">
        <ele>4.8000001907349</ele>
        <time>2020-08-23T10:04:25.000Z</time>
      </trkpt>
      <trkpt lat="47.27029" lon="-2.32224">
        <ele>4.8000001907349</ele>
        <time>2020-08-23T10:04:29.000Z</time>
      </trkpt>
      <trkpt lat="47.2703" lon="-2.3224">
        <ele>4.8000001907349</ele>
        <time>2020-08-23T10:04:33.000Z</time>
      </trkpt>
      <trkpt lat="47.2703" lon="-2.32249">
        <ele>4.8000001907349</ele>
        <time>2020-08-23T10:04:36.000Z</time>
      </trkpt>
      <trkpt lat="47.27033" lon="-2.32259">
        <ele>4.8000001907349</ele>
        <time>2020-08-23T10:04:39.000Z</time>
      </trkpt>
      <trkpt lat="47.27036" lon="-2.32283">
        <ele>4.8000001907349</ele>
        <time>2020-08-23T10:04:44.000Z</time>
      </trkpt>
      <trkpt lat="47.27032" lon="-2.32316">
        <ele>4.8000001907349</ele>
        <time>2020-08-23T10:04:50.000Z</time>
      </trkpt>
      <trkpt lat="47.27029" lon="-2.32351">
        <ele>4.8000001907349</ele>
        <time>2020-08-23T10:04:55.000Z</time>
      </trkpt>
      <trkpt lat="47.27028" lon="-2.32403">
        <ele>4.8000001907349</ele>
        <time>2020-08-23T10:05:01.000Z</time>
      </trkpt>
      <trkpt lat="47.27031" lon="-2.3246">
        <ele>4.8000001907349</ele>
        <time>2020-08-23T10:05:07.000Z</time>
      </trkpt>
      <trkpt lat="47.27031" lon="-2.32477">
        <ele>4.8000001907349</ele>
        <time>2020-08-23T10:05:09.000Z</time>
      </trkpt>
      <trkpt lat="47.27027" lon="-2.32489">
        <ele>4.8000001907349</ele>
        <time>2020-08-23T10:05:11.000Z</time>
      </trkpt>
      <trkpt lat="47.27012" lon="-2.32495">
        <ele>4.8000001907349</ele>
        <time>2020-08-23T10:05:14.000Z</time>
      </trkpt>
      <trkpt lat="47.26999" lon="-2.32484">
        <ele>4.8000001907349</ele>
        <time>2020-08-23T10:05:17.000Z</time>
      </trkpt>
      <trkpt lat="47.2699" lon="-2.32464">
        <ele>4.8000001907349</ele>
        <time>2020-08-23T10:05:20.000Z</time>
      </trkpt>
      <trkpt lat="47.26983" lon="-2.32451">
        <ele>4.8000001907349</ele>
        <time>2020-08-23T10:05:22.000Z</time>
      </trkpt>
      <trkpt lat="47.26958" lon="-2.3242">
        <ele>4.8000001907349</ele>
        <time>2020-08-23T10:05:28.000Z</time>
      </trkpt>
      <trkpt lat="47.26955" lon="-2.32414">
        <ele>4.8000001907349</ele>
        <time>2020-08-23T10:05:29.000Z</time>
      </trkpt>
      <trkpt lat="47.26939" lon="-2.32374">
        <ele>4.8000001907349</ele>
        <time>2020-08-23T10:05:35.000Z</time>
      </trkpt>
      <trkpt lat="47.26933" lon="-2.32354">
        <ele>5.1999998092651</ele>
        <time>2020-08-23T10:05:38.000Z</time>
      </trkpt>
      <trkpt lat="47.2693" lon="-2.32347">
        <ele>5.5999999046326</ele>
        <time>2020-08-23T10:05:39.000Z</time>
      </trkpt>
      <trkpt lat="47.26928" lon="-2.32343">
        <ele>6</ele>
        <time>2020-08-23T10:05:40.000Z</time>
      </trkpt>
      <trkpt lat="47.26925" lon="-2.32339">
        <ele>6.8000001907349</ele>
        <time>2020-08-23T10:05:41.000Z</time>
      </trkpt>
      <trkpt lat="47.26913" lon="-2.32332">
        <ele>6.8000001907349</ele>
        <time>2020-08-23T10:05:44.000Z</time>
      </trkpt>
      <trkpt lat="47.26904" lon="-2.32335">
        <ele>6.8000001907349</ele>
        <time>2020-08-23T10:05:46.000Z</time>
      </trkpt>
      <trkpt lat="47.26894" lon="-2.32337">
        <ele>7.1999998092651</ele>
        <time>2020-08-23T10:05:48.000Z</time>
      </trkpt>
      <trkpt lat="47.2689" lon="-2.32338">
        <ele>7.5999999046326</ele>
        <time>2020-08-23T10:05:49.000Z</time>
      </trkpt>
      <trkpt lat="47.26885" lon="-2.3234">
        <ele>8</ele>
        <time>2020-08-23T10:05:50.000Z</time>
      </trkpt>
      <trkpt lat="47.26881" lon="-2.32341">
        <ele>8.3999996185303</ele>
        <time>2020-08-23T10:05:51.000Z</time>
      </trkpt>
      <trkpt lat="47.26877" lon="-2.32342">
        <ele>8.8000001907349</ele>
        <time>2020-08-23T10:05:52.000Z</time>
      </trkpt>
      <trkpt lat="47.26872" lon="-2.32344">
        <ele>8.8000001907349</ele>
        <time>2020-08-23T10:05:53.000Z</time>
      </trkpt>
      <trkpt lat="47.26868" lon="-2.32345">
        <ele>8.8000001907349</ele>
        <time>2020-08-23T10:05:54.000Z</time>
      </trkpt>
      <trkpt lat="47.26849" lon="-2.32348">
        <ele>8.8000001907349</ele>
        <time>2020-08-23T10:05:58.000Z</time>
      </trkpt>
      <trkpt lat="47.26844" lon="-2.32348">
        <ele>9.1999998092651</ele>
        <time>2020-08-23T10:05:59.000Z</time>
      </trkpt>
      <trkpt lat="47.2684" lon="-2.32349">
        <ele>9.8000001907349</ele>
        <time>2020-08-23T10:06:00.000Z</time>
      </trkpt>
      <trkpt lat="47.26836" lon="-2.32349">
        <ele>10.199999809265</ele>
        <time>2020-08-23T10:06:01.000Z</time>
      </trkpt>
      <trkpt lat="47.26831" lon="-2.3235">
        <ele>10.60000038147</ele>
        <time>2020-08-23T10:06:02.000Z</time>
      </trkpt>
      <trkpt lat="47.26827" lon="-2.32351">
        <ele>11</ele>
        <time>2020-08-23T10:06:03.000Z</time>
      </trkpt>
      <trkpt lat="47.26819" lon="-2.32353">
        <ele>11.39999961853</ele>
        <time>2020-08-23T10:06:05.000Z</time>
      </trkpt>
      <trkpt lat="47.26816" lon="-2.32354">
        <ele>12.199999809265</ele>
        <time>2020-08-23T10:06:06.000Z</time>
      </trkpt>
      <trkpt lat="47.26813" lon="-2.32355">
        <ele>12.800000190735</ele>
        <time>2020-08-23T10:06:07.000Z</time>
      </trkpt>
      <trkpt lat="47.26809" lon="-2.32356">
        <ele>13.199999809265</ele>
        <time>2020-08-23T10:06:08.000Z</time>
      </trkpt>
      <trkpt lat="47.26805" lon="-2.32357">
        <ele>13.199999809265</ele>
        <time>2020-08-23T10:06:09.000Z</time>
      </trkpt>
      <trkpt lat="47.26794" lon="-2.32362">
        <ele>13.60000038147</ele>
        <time>2020-08-23T10:06:12.000Z</time>
      </trkpt>
      <trkpt lat="47.2679" lon="-2.32364">
        <ele>14</ele>
        <time>2020-08-23T10:06:13.000Z</time>
      </trkpt>
      <trkpt lat="47.26787" lon="-2.32366">
        <ele>14.39999961853</ele>
        <time>2020-08-23T10:06:14.000Z</time>
      </trkpt>
      <trkpt lat="47.26783" lon="-2.32367">
        <ele>15</ele>
        <time>2020-08-23T10:06:15.000Z</time>
      </trkpt>
      <trkpt lat="47.2678" lon="-2.32371">
        <ele>15.39999961853</ele>
        <time>2020-08-23T10:06:16.000Z</time>
      </trkpt>
      <trkpt lat="47.26777" lon="-2.3238">
        <ele>15.39999961853</ele>
        <time>2020-08-23T10:06:18.000Z</time>
      </trkpt>
      <trkpt lat="47.26778" lon="-2.32396">
        <ele>15.800000190735</ele>
        <time>2020-08-23T10:06:21.000Z</time>
      </trkpt>
      <trkpt lat="47.26779" lon="-2.32402">
        <ele>16.200000762939</ele>
        <time>2020-08-23T10:06:22.000Z</time>
      </trkpt>
      <trkpt lat="47.2678" lon="-2.32408">
        <ele>16.60000038147</ele>
        <time>2020-08-23T10:06:23.000Z</time>
      </trkpt>
      <trkpt lat="47.26781" lon="-2.32415">
        <ele>17</ele>
        <time>2020-08-23T10:06:24.000Z</time>
      </trkpt>
      <trkpt lat="47.26782" lon="-2.32421">
        <ele>17.39999961853</ele>
        <time>2020-08-23T10:06:25.000Z</time>
      </trkpt>
      <trkpt lat="47.26787" lon="-2.32449">
        <ele>17.39999961853</ele>
        <time>2020-08-23T10:06:29.000Z</time>
      </trkpt>
      <trkpt lat="47.26794" lon="-2.32505">
        <ele>17.39999961853</ele>
        <time>2020-08-23T10:06:36.000Z</time>
      </trkpt>
      <trkpt lat="47.268" lon="-2.32575">
        <ele>17.39999961853</ele>
        <time>2020-08-23T10:06:44.000Z</time>
      </trkpt>
      <trkpt lat="47.26807" lon="-2.32625">
        <ele>17.39999961853</ele>
        <time>2020-08-23T10:06:50.000Z</time>
      </trkpt>
      <trkpt lat="47.2681" lon="-2.32663">
        <ele>17.39999961853</ele>
        <time>2020-08-23T10:06:55.000Z</time>
      </trkpt>
      <trkpt lat="47.2681" lon="-2.3267">
        <ele>17.39999961853</ele>
        <time>2020-08-23T10:06:56.000Z</time>
      </trkpt>
      <trkpt lat="47.26804" lon="-2.3269">
        <ele>17.39999961853</ele>
        <time>2020-08-23T10:06:59.000Z</time>
      </trkpt>
      <trkpt lat="47.26804" lon="-2.32697">
        <ele>17.39999961853</ele>
        <time>2020-08-23T10:07:00.000Z</time>
      </trkpt>
      <trkpt lat="47.26814" lon="-2.32724">
        <ele>17.39999961853</ele>
        <time>2020-08-23T10:07:04.000Z</time>
      </trkpt>
      <trkpt lat="47.26829" lon="-2.32761">
        <ele>17.39999961853</ele>
        <time>2020-08-23T10:07:09.000Z</time>
      </trkpt>
      <trkpt lat="47.26832" lon="-2.32768">
        <ele>17</ele>
        <time>2020-08-23T10:07:10.000Z</time>
      </trkpt>
      <trkpt lat="47.26835" lon="-2.32776">
        <ele>16.39999961853</ele>
        <time>2020-08-23T10:07:11.000Z</time>
      </trkpt>
      <trkpt lat="47.26836" lon="-2.32784">
        <ele>16</ele>
        <time>2020-08-23T10:07:12.000Z</time>
      </trkpt>
      <trkpt lat="47.26838" lon="-2.32793">
        <ele>15.199999809265</ele>
        <time>2020-08-23T10:07:13.000Z</time>
      </trkpt>
      <trkpt lat="47.2684" lon="-2.32802">
        <ele>14.60000038147</ele>
        <time>2020-08-23T10:07:14.000Z</time>
      </trkpt>
      <trkpt lat="47.26842" lon="-2.32811">
        <ele>14</ele>
        <time>2020-08-23T10:07:15.000Z</time>
      </trkpt>
      <trkpt lat="47.26845" lon="-2.3282">
        <ele>13.39999961853</ele>
        <time>2020-08-23T10:07:16.000Z</time>
      </trkpt>
      <trkpt lat="47.26847" lon="-2.32828">
        <ele>12.800000190735</ele>
        <time>2020-08-23T10:07:17.000Z</time>
      </trkpt>
      <trkpt lat="47.26851" lon="-2.32837">
        <ele>12.199999809265</ele>
        <time>2020-08-23T10:07:18.000Z</time>
      </trkpt>
      <trkpt lat="47.26854" lon="-2.32846">
        <ele>11.60000038147</ele>
        <time>2020-08-23T10:07:19.000Z</time>
      </trkpt>
      <trkpt lat="47.26858" lon="-2.32854">
        <ele>10.199999809265</ele>
        <time>2020-08-23T10:07:20.000Z</time>
      </trkpt>
      <trkpt lat="47.26861" lon="-2.32862">
        <ele>9.3999996185303</ele>
        <time>2020-08-23T10:07:21.000Z</time>
      </trkpt>
      <trkpt lat="47.26863" lon="-2.32868">
        <ele>8.6000003814697</ele>
        <time>2020-08-23T10:07:22.000Z</time>
      </trkpt>
      <trkpt lat="47.26865" lon="-2.32875">
        <ele>7.8000001907349</ele>
        <time>2020-08-23T10:07:23.000Z</time>
      </trkpt>
      <trkpt lat="47.26864" lon="-2.3288">
        <ele>7</ele>
        <time>2020-08-23T10:07:24.000Z</time>
      </trkpt>
      <trkpt lat="47.26862" lon="-2.32884">
        <ele>6.1999998092651</ele>
        <time>2020-08-23T10:07:25.000Z</time>
      </trkpt>
      <trkpt lat="47.2686" lon="-2.32886">
        <ele>5.4000000953674</ele>
        <time>2020-08-23T10:07:26.000Z</time>
      </trkpt>
      <trkpt lat="47.26857" lon="-2.32888">
        <ele>4.5999999046326</ele>
        <time>2020-08-23T10:07:27.000Z</time>
      </trkpt>
      <trkpt lat="47.26849" lon="-2.32893">
        <ele>4.5999999046326</ele>
        <time>2020-08-23T10:07:29.000Z</time>
      </trkpt>
      <trkpt lat="47.26835" lon="-2.329">
        <ele>4.5999999046326</ele>
        <time>2020-08-23T10:07:31.000Z</time>
      </trkpt>
      <trkpt lat="47.26801" lon="-2.32925">
        <ele>4.5999999046326</ele>
        <time>2020-08-23T10:07:38.000Z</time>
      </trkpt>
      <trkpt lat="47.26795" lon="-2.32929">
        <ele>4.5999999046326</ele>
        <time>2020-08-23T10:07:39.000Z</time>
      </trkpt>
      <trkpt lat="47.26779" lon="-2.32946">
        <ele>4.5999999046326</ele>
        <time>2020-08-23T10:07:42.000Z</time>
      </trkpt>
      <trkpt lat="47.26768" lon="-2.32956">
        <ele>4.5999999046326</ele>
        <time>2020-08-23T10:07:44.000Z</time>
      </trkpt>
      <trkpt lat="47.26751" lon="-2.3297">
        <ele>4.5999999046326</ele>
        <time>2020-08-23T10:07:47.000Z</time>
      </trkpt>
      <trkpt lat="47.26741" lon="-2.32983">
        <ele>4.5999999046326</ele>
        <time>2020-08-23T10:07:49.000Z</time>
      </trkpt>
      <trkpt lat="47.26736" lon="-2.32998">
        <ele>4.5999999046326</ele>
        <time>2020-08-23T10:07:51.000Z</time>
      </trkpt>
      <trkpt lat="47.26732" lon="-2.33031">
        <ele>4.5999999046326</ele>
        <time>2020-08-23T10:07:55.000Z</time>
      </trkpt>
      <trkpt lat="47.2673" lon="-2.33047">
        <ele>4.5999999046326</ele>
        <time>2020-08-23T10:07:57.000Z</time>
      </trkpt>
      <trkpt lat="47.26721" lon="-2.3307">
        <ele>4.5999999046326</ele>
        <time>2020-08-23T10:08:00.000Z</time>
      </trkpt>
      <trkpt lat="47.26712" lon="-2.33083">
        <ele>4.5999999046326</ele>
        <time>2020-08-23T10:08:02.000Z</time>
      </trkpt>
      <trkpt lat="47.26691" lon="-2.33106">
        <ele>4.5999999046326</ele>
        <time>2020-08-23T10:08:06.000Z</time>
      </trkpt>
      <trkpt lat="47.26662" lon="-2.33132">
        <ele>4.5999999046326</ele>
        <time>2020-08-23T10:08:12.000Z</time>
      </trkpt>
      <trkpt lat="47.26646" lon="-2.33143">
        <ele>4.5999999046326</ele>
        <time>2020-08-23T10:08:15.000Z</time>
      </trkpt>
      <trkpt lat="47.26636" lon="-2.33149">
        <ele>4.5999999046326</ele>
        <time>2020-08-23T10:08:17.000Z</time>
      </trkpt>
      <trkpt lat="47.26614" lon="-2.33149">
        <ele>4.5999999046326</ele>
        <time>2020-08-23T10:08:21.000Z</time>
      </trkpt>
      <trkpt lat="47.26609" lon="-2.33147">
        <ele>4.5999999046326</ele>
        <time>2020-08-23T10:08:22.000Z</time>
      </trkpt>
      <trkpt lat="47.26604" lon="-2.33147">
        <ele>4.5999999046326</ele>
        <time>2020-08-23T10:08:23.000Z</time>
      </trkpt>
      <trkpt lat="47.26595" lon="-2.33152">
        <ele>4.5999999046326</ele>
        <time>2020-08-23T10:08:25.000Z</time>
      </trkpt>
      <trkpt lat="47.26588" lon="-2.33161">
        <ele>4.1999998092651</ele>
        <time>2020-08-23T10:08:27.000Z</time>
      </trkpt>
      <trkpt lat="47.26586" lon="-2.33167">
        <ele>3.7999999523163</ele>
        <time>2020-08-23T10:08:28.000Z</time>
      </trkpt>
      <trkpt lat="47.26583" lon="-2.33174">
        <ele>3.4000000953674</ele>
        <time>2020-08-23T10:08:29.000Z</time>
      </trkpt>
      <trkpt lat="47.2658" lon="-2.3318">
        <ele>2.7999999523163</ele>
        <time>2020-08-23T10:08:30.000Z</time>
      </trkpt>
      <trkpt lat="47.26577" lon="-2.33186">
        <ele>2.4000000953674</ele>
        <time>2020-08-23T10:08:31.000Z</time>
      </trkpt>
      <trkpt lat="47.26574" lon="-2.33191">
        <ele>2.4000000953674</ele>
        <time>2020-08-23T10:08:32.000Z</time>
      </trkpt>
      <trkpt lat="47.26565" lon="-2.33197">
        <ele>2.4000000953674</ele>
        <time>2020-08-23T10:08:34.000Z</time>
      </trkpt>
      <trkpt lat="47.26534" lon="-2.33215">
        <ele>2.4000000953674</ele>
        <time>2020-08-23T10:08:41.000Z</time>
      </trkpt>
      <trkpt lat="47.2651" lon="-2.33228">
        <ele>2.4000000953674</ele>
        <time>2020-08-23T10:08:47.000Z</time>
      </trkpt>
      <trkpt lat="47.26496" lon="-2.33245">
        <ele>2.4000000953674</ele>
        <time>2020-08-23T10:08:52.000Z</time>
      </trkpt>
      <trkpt lat="47.26493" lon="-2.33251">
        <ele>2.4000000953674</ele>
        <time>2020-08-23T10:08:54.000Z</time>
      </trkpt>
      <trkpt lat="47.26485" lon="-2.33266">
        <ele>2.4000000953674</ele>
        <time>2020-08-23T10:08:58.000Z</time>
      </trkpt>
      <trkpt lat="47.26477" lon="-2.33294">
        <ele>2.4000000953674</ele>
        <time>2020-08-23T10:09:04.000Z</time>
      </trkpt>
      <trkpt lat="47.26465" lon="-2.3331">
        <ele>2.4000000953674</ele>
        <time>2020-08-23T10:09:08.000Z</time>
      </trkpt>
      <trkpt lat="47.26441" lon="-2.33328">
        <ele>2.4000000953674</ele>
        <time>2020-08-23T10:09:13.000Z</time>
      </trkpt>
      <trkpt lat="47.26412" lon="-2.33351">
        <ele>2.4000000953674</ele>
        <time>2020-08-23T10:09:19.000Z</time>
      </trkpt>
      <trkpt lat="47.26401" lon="-2.33358">
        <ele>2.4000000953674</ele>
        <time>2020-08-23T10:09:21.000Z</time>
      </trkpt>
      <trkpt lat="47.26369" lon="-2.33379">
        <ele>2.4000000953674</ele>
        <time>2020-08-23T10:09:28.000Z</time>
      </trkpt>
      <trkpt lat="47.26349" lon="-2.33388">
        <ele>2.4000000953674</ele>
        <time>2020-08-23T10:09:34.000Z</time>
      </trkpt>
      <trkpt lat="47.26331" lon="-2.33396">
        <ele>2.4000000953674</ele>
        <time>2020-08-23T10:09:41.000Z</time>
      </trkpt>
      <trkpt lat="47.26315" lon="-2.33409">
        <ele>2.4000000953674</ele>
        <time>2020-08-23T10:09:48.000Z</time>
      </trkpt>
      <trkpt lat="47.26303" lon="-2.33417">
        <ele>2.4000000953674</ele>
        <time>2020-08-23T10:09:53.000Z</time>
      </trkpt>
      <trkpt lat="47.26274" lon="-2.33423">
        <ele>2.4000000953674</ele>
        <time>2020-08-23T10:10:01.000Z</time>
      </trkpt>
      <trkpt lat="47.26244" lon="-2.33431">
        <ele>2.4000000953674</ele>
        <time>2020-08-23T10:10:09.000Z</time>
      </trkpt>
      <trkpt lat="47.2621" lon="-2.33437">
        <ele>2.4000000953674</ele>
        <time>2020-08-23T10:10:16.000Z</time>
      </trkpt>
      <trkpt lat="47.26184" lon="-2.33442">
        <ele>2.4000000953674</ele>
        <time>2020-08-23T10:10:22.000Z</time>
      </trkpt>
      <trkpt lat="47.2618" lon="-2.33442">
        <ele>2.4000000953674</ele>
        <time>2020-08-23T10:10:23.000Z</time>
      </trkpt>
      <trkpt lat="47.26162" lon="-2.33437">
        <ele>2.4000000953674</ele>
        <time>2020-08-23T10:10:27.000Z</time>
      </trkpt>
      <trkpt lat="47.26147" lon="-2.3343">
        <ele>2.4000000953674</ele>
        <time>2020-08-23T10:10:32.000Z</time>
      </trkpt>
      <trkpt lat="47.26132" lon="-2.33418">
        <ele>2.4000000953674</ele>
        <time>2020-08-23T10:10:37.000Z</time>
      </trkpt>
      <trkpt lat="47.26115" lon="-2.33409">
        <ele>2.4000000953674</ele>
        <time>2020-08-23T10:10:41.000Z</time>
      </trkpt>
      <trkpt lat="47.26098" lon="-2.33382">
        <ele>2.4000000953674</ele>
        <time>2020-08-23T10:10:46.000Z</time>
      </trkpt>
      <trkpt lat="47.26075" lon="-2.33351">
        <ele>2.4000000953674</ele>
        <time>2020-08-23T10:10:52.000Z</time>
      </trkpt>
      <trkpt lat="47.26073" lon="-2.33343">
        <ele>2.4000000953674</ele>
        <time>2020-08-23T10:10:53.000Z</time>
      </trkpt>
      <trkpt lat="47.26056" lon="-2.33294">
        <ele>2.4000000953674</ele>
        <time>2020-08-23T10:11:00.000Z</time>
      </trkpt>
      <trkpt lat="47.26033" lon="-2.33228">
        <ele>2.4000000953674</ele>
        <time>2020-08-23T10:11:09.000Z</time>
      </trkpt>
      <trkpt lat="47.26012" lon="-2.33168">
        <ele>2.4000000953674</ele>
        <time>2020-08-23T10:11:17.000Z</time>
      </trkpt>
      <trkpt lat="47.2599" lon="-2.33105">
        <ele>2.4000000953674</ele>
        <time>2020-08-23T10:11:25.000Z</time>
      </trkpt>
      <trkpt lat="47.25981" lon="-2.33082">
        <ele>2.4000000953674</ele>
        <time>2020-08-23T10:11:28.000Z</time>
      </trkpt>
      <trkpt lat="47.25976" lon="-2.33066">
        <ele>2.4000000953674</ele>
        <time>2020-08-23T10:11:30.000Z</time>
      </trkpt>
      <trkpt lat="47.25957" lon="-2.3301">
        <ele>2.4000000953674</ele>
        <time>2020-08-23T10:11:37.000Z</time>
      </trkpt>
      <trkpt lat="47.25931" lon="-2.32937">
        <ele>2.4000000953674</ele>
        <time>2020-08-23T10:11:46.000Z</time>
      </trkpt>
      <trkpt lat="47.25904" lon="-2.32867">
        <ele>2.4000000953674</ele>
        <time>2020-08-23T10:11:55.000Z</time>
      </trkpt>
      <trkpt lat="47.25886" lon="-2.32813">
        <ele>2.4000000953674</ele>
        <time>2020-08-23T10:12:02.000Z</time>
      </trkpt>
      <trkpt lat="47.25866" lon="-2.32749">
        <ele>2.4000000953674</ele>
        <time>2020-08-23T10:12:10.000Z</time>
      </trkpt>
      <trkpt lat="47.25846" lon="-2.32677">
        <ele>2.4000000953674</ele>
        <time>2020-08-23T10:12:19.000Z</time>
      </trkpt>
      <trkpt lat="47.25829" lon="-2.32613">
        <ele>2.4000000953674</ele>
        <time>2020-08-23T10:12:27.000Z</time>
      </trkpt>
      <trkpt lat="47.25818" lon="-2.32555">
        <ele>2.4000000953674</ele>
        <time>2020-08-23T10:12:34.000Z</time>
      </trkpt>
      <trkpt lat="47.25805" lon="-2.32501">
        <ele>2.4000000953674</ele>
        <time>2020-08-23T10:12:41.000Z</time>
      </trkpt>
      <trkpt lat="47.25802" lon="-2.3248">
        <ele>2.4000000953674</ele>
        <time>2020-08-23T10:12:44.000Z</time>
      </trkpt>
      <trkpt lat="47.25804" lon="-2.32474">
        <ele>2.4000000953674</ele>
        <time>2020-08-23T10:12:45.000Z</time>
      </trkpt>
      <trkpt lat="47.25817" lon="-2.32471">
        <ele>2.4000000953674</ele>
        <time>2020-08-23T10:12:48.000Z</time>
      </trkpt>
      <trkpt lat="47.25835" lon="-2.3248">
        <ele>2.4000000953674</ele>
        <time>2020-08-23T10:12:52.000Z</time>
      </trkpt>
      <trkpt lat="47.25846" lon="-2.32481">
        <ele>2.4000000953674</ele>
        <time>2020-08-23T10:12:54.000Z</time>
      </trkpt>
      <trkpt lat="47.2586" lon="-2.32482">
        <ele>2.4000000953674</ele>
        <time>2020-08-23T10:12:57.000Z</time>
      </trkpt>
      <trkpt lat="47.25885" lon="-2.32482">
        <ele>2.4000000953674</ele>
        <time>2020-08-23T10:13:02.000Z</time>
      </trkpt>
      <trkpt lat="47.25888" lon="-2.32478">
        <ele>2.4000000953674</ele>
        <time>2020-08-23T10:13:03.000Z</time>
      </trkpt>
      <trkpt lat="47.25894" lon="-2.32463">
        <ele>2.4000000953674</ele>
        <time>2020-08-23T10:13:06.000Z</time>
      </trkpt>
      <trkpt lat="47.25899" lon="-2.32455">
        <ele>2.4000000953674</ele>
        <time>2020-08-23T10:13:08.000Z</time>
      </trkpt>
      <trkpt lat="47.25907" lon="-2.32446">
        <ele>2.4000000953674</ele>
        <time>2020-08-23T10:13:10.000Z</time>
      </trkpt>
      <trkpt lat="47.25937" lon="-2.3241">
        <ele>2.4000000953674</ele>
        <time>2020-08-23T10:13:17.000Z</time>
      </trkpt>
      <trkpt lat="47.25972" lon="-2.32365">
        <ele>2.4000000953674</ele>
        <time>2020-08-23T10:13:25.000Z</time>
      </trkpt>
      <trkpt lat="47.26002" lon="-2.32325">
        <ele>2.4000000953674</ele>
        <time>2020-08-23T10:13:32.000Z</time>
      </trkpt>
      <trkpt lat="47.2602" lon="-2.32303">
        <ele>2.4000000953674</ele>
        <time>2020-08-23T10:13:36.000Z</time>
      </trkpt>
      <trkpt lat="47.26029" lon="-2.32293">
        <ele>2.4000000953674</ele>
        <time>2020-08-23T10:13:38.000Z</time>
      </trkpt>
      <trkpt lat="47.26048" lon="-2.32271">
        <ele>2.4000000953674</ele>
        <time>2020-08-23T10:13:42.000Z</time>
      </trkpt>
      <trkpt lat="47.26063" lon="-2.32254">
        <ele>2.4000000953674</ele>
        <time>2020-08-23T10:13:45.000Z</time>
      </trkpt>
      <trkpt lat="47.26095" lon="-2.32213">
        <ele>2.4000000953674</ele>
        <time>2020-08-23T10:13:52.000Z</time>
      </trkpt>
      <trkpt lat="47.26116" lon="-2.32169">
        <ele>2.4000000953674</ele>
        <time>2020-08-23T10:13:58.000Z</time>
      </trkpt>
      <trkpt lat="47.26135" lon="-2.32114">
        <ele>2.4000000953674</ele>
        <time>2020-08-23T10:14:05.000Z</time>
      </trkpt>
      <trkpt lat="47.26153" lon="-2.32052">
        <ele>2.4000000953674</ele>
        <time>2020-08-23T10:14:13.000Z</time>
      </trkpt>
      <trkpt lat="47.26163" lon="-2.32026">
        <ele>2.4000000953674</ele>
        <time>2020-08-23T10:14:17.000Z</time>
      </trkpt>
      <trkpt lat="47.26171" lon="-2.32019">
        <ele>2.4000000953674</ele>
        <time>2020-08-23T10:14:19.000Z</time>
      </trkpt>
      <trkpt lat="47.26183" lon="-2.32022">
        <ele>2.4000000953674</ele>
        <time>2020-08-23T10:14:22.000Z</time>
      </trkpt>
      <trkpt lat="47.26186" lon="-2.32023">
        <ele>2.4000000953674</ele>
        <time>2020-08-23T10:14:23.000Z</time>
      </trkpt>
      <trkpt lat="47.26192" lon="-2.32024">
        <ele>2.4000000953674</ele>
        <time>2020-08-23T10:14:26.000Z</time>
      </trkpt>
      <trkpt lat="47.26194" lon="-2.32024">
        <ele>2.4000000953674</ele>
        <time>2020-08-23T10:14:27.000Z</time>
      </trkpt>
      <trkpt lat="47.26198" lon="-2.32017">
        <ele>2.4000000953674</ele>
        <time>2020-08-23T10:14:30.000Z</time>
      </trkpt>
      <trkpt lat="47.26203" lon="-2.32001">
        <ele>2.4000000953674</ele>
        <time>2020-08-23T10:14:36.000Z</time>
      </trkpt>
      <trkpt lat="47.26205" lon="-2.31999">
        <ele>2.4000000953674</ele>
        <time>2020-08-23T10:14:37.000Z</time>
      </trkpt>
      <trkpt lat="47.26215" lon="-2.31992">
        <ele>2.4000000953674</ele>
        <time>2020-08-23T10:14:41.000Z</time>
      </trkpt>
      <trkpt lat="47.26222" lon="-2.31985">
        <ele>2.4000000953674</ele>
        <time>2020-08-23T10:14:47.000Z</time>
      </trkpt>
      <trkpt lat="47.26234" lon="-2.31976">
        <ele>2.4000000953674</ele>
        <time>2020-08-23T10:14:52.000Z</time>
      </trkpt>
      <trkpt lat="47.26241" lon="-2.31954">
        <ele>2.4000000953674</ele>
        <time>2020-08-23T10:14:56.000Z</time>
      </trkpt>
      <trkpt lat="47.26249" lon="-2.31938">
        <ele>2.4000000953674</ele>
        <time>2020-08-23T10:15:00.000Z</time>
      </trkpt>
      <trkpt lat="47.26258" lon="-2.31923">
        <ele>2.4000000953674</ele>
        <time>2020-08-23T10:15:04.000Z</time>
      </trkpt>
      <trkpt lat="47.26261" lon="-2.31919">
        <ele>2.4000000953674</ele>
        <time>2020-08-23T10:15:05.000Z</time>
      </trkpt>
      <trkpt lat="47.26276" lon="-2.31904">
        <ele>2.4000000953674</ele>
        <time>2020-08-23T10:15:09.000Z</time>
      </trkpt>
      <trkpt lat="47.26286" lon="-2.31892">
        <ele>2.4000000953674</ele>
        <time>2020-08-23T10:15:12.000Z</time>
      </trkpt>
      <trkpt lat="47.26289" lon="-2.31885">
        <ele>2.4000000953674</ele>
        <time>2020-08-23T10:15:13.000Z</time>
      </trkpt>
      <trkpt lat="47.26294" lon="-2.31865">
        <ele>2.4000000953674</ele>
        <time>2020-08-23T10:15:16.000Z</time>
      </trkpt>
      <trkpt lat="47.26297" lon="-2.3185">
        <ele>2.4000000953674</ele>
        <time>2020-08-23T10:15:18.000Z</time>
      </trkpt>
      <trkpt lat="47.26298" lon="-2.31842">
        <ele>2.4000000953674</ele>
        <time>2020-08-23T10:15:19.000Z</time>
      </trkpt>
      <trkpt lat="47.26302" lon="-2.31801">
        <ele>2.4000000953674</ele>
        <time>2020-08-23T10:15:25.000Z</time>
      </trkpt>
      <trkpt lat="47.26301" lon="-2.31754">
        <ele>2.4000000953674</ele>
        <time>2020-08-23T10:15:32.000Z</time>
      </trkpt>
      <trkpt lat="47.26301" lon="-2.3174">
        <ele>2.4000000953674</ele>
        <time>2020-08-23T10:15:34.000Z</time>
      </trkpt>
      <trkpt lat="47.26302" lon="-2.31726">
        <ele>2.4000000953674</ele>
        <time>2020-08-23T10:15:36.000Z</time>
      </trkpt>
      <trkpt lat="47.26305" lon="-2.3172">
        <ele>2.4000000953674</ele>
        <time>2020-08-23T10:15:37.000Z</time>
      </trkpt>
      <trkpt lat="47.26316" lon="-2.31714">
        <ele>2.4000000953674</ele>
        <time>2020-08-23T10:15:40.000Z</time>
      </trkpt>
      <trkpt lat="47.26331" lon="-2.31703">
        <ele>2.4000000953674</ele>
        <time>2020-08-23T10:15:44.000Z</time>
      </trkpt>
      <trkpt lat="47.26332" lon="-2.31697">
        <ele>2.4000000953674</ele>
        <time>2020-08-23T10:15:45.000Z</time>
      </trkpt>
      <trkpt lat="47.26338" lon="-2.31689">
        <ele>3</ele>
        <time>2020-08-23T10:15:47.000Z</time>
      </trkpt>
      <trkpt lat="47.26341" lon="-2.31687">
        <ele>3.4000000953674</ele>
        <time>2020-08-23T10:15:48.000Z</time>
      </trkpt>
      <trkpt lat="47.26345" lon="-2.31686">
        <ele>3.7999999523163</ele>
        <time>2020-08-23T10:15:49.000Z</time>
      </trkpt>
      <trkpt lat="47.26348" lon="-2.31683">
        <ele>4.1999998092651</ele>
        <time>2020-08-23T10:15:50.000Z</time>
      </trkpt>
      <trkpt lat="47.26352" lon="-2.31681">
        <ele>4.5999999046326</ele>
        <time>2020-08-23T10:15:51.000Z</time>
      </trkpt>
      <trkpt lat="47.26363" lon="-2.31677">
        <ele>4.5999999046326</ele>
        <time>2020-08-23T10:15:54.000Z</time>
      </trkpt>
      <trkpt lat="47.26366" lon="-2.31675">
        <ele>5</ele>
        <time>2020-08-23T10:15:55.000Z</time>
      </trkpt>
      <trkpt lat="47.2637" lon="-2.31673">
        <ele>5.4000000953674</ele>
        <time>2020-08-23T10:15:56.000Z</time>
      </trkpt>
      <trkpt lat="47.26374" lon="-2.31672">
        <ele>5.8000001907349</ele>
        <time>2020-08-23T10:15:57.000Z</time>
      </trkpt>
      <trkpt lat="47.26378" lon="-2.31671">
        <ele>6.5999999046326</ele>
        <time>2020-08-23T10:15:58.000Z</time>
      </trkpt>
      <trkpt lat="47.26382" lon="-2.31668">
        <ele>6.5999999046326</ele>
        <time>2020-08-23T10:15:59.000Z</time>
      </trkpt>
      <trkpt lat="47.26396" lon="-2.3166">
        <ele>6.5999999046326</ele>
        <time>2020-08-23T10:16:04.000Z</time>
      </trkpt>
      <trkpt lat="47.26409" lon="-2.31649">
        <ele>6.5999999046326</ele>
        <time>2020-08-23T10:16:09.000Z</time>
      </trkpt>
      <trkpt lat="47.2641" lon="-2.31636">
        <ele>6.5999999046326</ele>
        <time>2020-08-23T10:16:12.000Z</time>
      </trkpt>
      <trkpt lat="47.26411" lon="-2.31604">
        <ele>6.5999999046326</ele>
        <time>2020-08-23T10:16:18.000Z</time>
      </trkpt>
      <trkpt lat="47.26411" lon="-2.31576">
        <ele>6.5999999046326</ele>
        <time>2020-08-23T10:16:24.000Z</time>
      </trkpt>
      <trkpt lat="47.26415" lon="-2.31553">
        <ele>6.5999999046326</ele>
        <time>2020-08-23T10:16:30.000Z</time>
      </trkpt>
      <trkpt lat="47.2642" lon="-2.31554">
        <ele>6.5999999046326</ele>
        <time>2020-08-23T10:16:33.000Z</time>
      </trkpt>
      <trkpt lat="47.2642" lon="-2.31554">
        <ele>6.5999999046326</ele>
        <time>2020-08-23T10:16:35.000Z</time>
      </trkpt>
    </trkseg>
  </trk>
</gpx>